<?xml version="1.0" encoding="UTF-8"?>
<gpx version="1.1" creator="2bulu-scraper" xmlns="http://www.topografix.com/GPX/1/1">
  <metadata><name>峨眉山南线</name><desc>source: 2bulu.com trackId=85766955; exported 2026-09-01T15:55:01.853Z</desc>
    <bounds minlat="29.5227163" minlon="103.3268586" maxlat="29.5742539" maxlon="103.441492"/>
    <link href="https://www.2bulu.com/track/t-b1ZCzGKLB9bp%252FR2KBg5Tzw%253D%253D.htm"><text>2bulu 源页面</text></link>
  </metadata>
  <wpt lat="29.5705983" lon="103.4414533"><ele>486</ele><name>起点
        </name></wpt>
  <wpt lat="29.5692832" lon="103.4409431"><ele>492</ele><name>
        </name></wpt>
  <wpt lat="29.5655773" lon="103.4344815"><ele>539</ele><name>
        </name></wpt>
  <wpt lat="29.565413" lon="103.4315748"><ele>569</ele><name>
        </name></wpt>
  <wpt lat="29.5649388" lon="103.4267776"><ele>608</ele><name>
        </name></wpt>
  <wpt lat="29.5653275" lon="103.4212239"><ele>796</ele><name>红牛墙
        </name></wpt>
  <wpt lat="29.5696489" lon="103.4194251"><ele>890</ele><name>
        </name></wpt>
  <wpt lat="29.5692155" lon="103.4147307"><ele>884</ele><name>
        </name></wpt>
  <wpt lat="29.5666551" lon="103.4066738"><ele>777</ele><name>
        </name></wpt>
  <wpt lat="29.5719073" lon="103.400928"><ele>732</ele><name>热身
        </name></wpt>
  <wpt lat="29.5742192" lon="103.3922995"><ele>661</ele><name>
        </name></wpt>
  <wpt lat="29.5710819" lon="103.3917237"><ele>663</ele><name>又一个红牛墙
        </name></wpt>
  <wpt lat="29.5695076" lon="103.3909734"><ele>677</ele><name>
        </name></wpt>
  <wpt lat="29.5676412" lon="103.3909168"><ele>686</ele><name>
        </name></wpt>
  <wpt lat="29.558295" lon="103.3874509"><ele>763</ele><name>
        </name></wpt>
  <wpt lat="29.5566069" lon="103.3861843"><ele>790</ele><name>又是红牛墙
        </name></wpt>
  <wpt lat="29.5556488" lon="103.3850588"><ele>891</ele><name>
        </name></wpt>
  <wpt lat="29.5535788" lon="103.3780654"><ele>1058</ele><name>
        </name></wpt>
  <wpt lat="29.5503489" lon="103.3706624"><ele>1207</ele><name>
        </name></wpt>
  <wpt lat="29.5498962" lon="103.3691574"><ele>1224</ele><name>有点难度的来了
        </name></wpt>
  <wpt lat="29.5501684" lon="103.3667876"><ele>1401</ele><name>九十九道拐，已经拐完
        </name></wpt>
  <wpt lat="29.5499318" lon="103.3611358"><ele>1618</ele><name>
        </name></wpt>
  <wpt lat="29.5503238" lon="103.3569687"><ele>1700</ele><name>
        </name></wpt>
  <wpt lat="29.5571615" lon="103.3524289"><ele>1571</ele><name>继续下一段坡
        </name></wpt>
  <wpt lat="29.5594002" lon="103.3506488"><ele>1531</ele><name>上坡继续整
        </name></wpt>
  <wpt lat="29.5614909" lon="103.3454292"><ele>1773</ele><name>在上个坡
        </name></wpt>
  <wpt lat="29.5588846" lon="103.3443153"><ele>2022</ele><name>洗象池
        </name></wpt>
  <wpt lat="29.5517871" lon="103.3445179"><ele>2236</ele><name>
        </name></wpt>
  <wpt lat="29.5467995" lon="103.3392902"><ele>2371</ele><name>继续上坡
        </name></wpt>
  <wpt lat="29.5435754" lon="103.3337237"><ele>2399</ele><name>来自山底的仰望
        </name></wpt>
  <wpt lat="29.5417966" lon="103.3316467"><ele>2391</ele><name>雷洞坪
        </name></wpt>
  <wpt lat="29.5375572" lon="103.3337578"><ele>2434</ele><name>
        </name></wpt>
  <wpt lat="29.5351436" lon="103.3328709"><ele>2491</ele><name>接引殿
        </name></wpt>
  <wpt lat="29.5322599" lon="103.3313801"><ele>2623</ele><name>继续上坡
        </name></wpt>
  <wpt lat="29.5296817" lon="103.3278194"><ele>2822</ele><name>
        </name></wpt>
  <wpt lat="29.5270309" lon="103.3334356"><ele>2940</ele><name>
        </name></wpt>
  <wpt lat="29.524526" lon="103.3348761"><ele>2994</ele><name>
        </name></wpt>
  <wpt lat="29.5233068" lon="103.3347956"><ele>3000</ele><name>
        </name></wpt>
  <wpt lat="29.5228084" lon="103.3349789"><ele>3012</ele><name>
        </name></wpt>
  <trk><name>峨眉山南线</name>
      <trkseg>
        <trkpt lat="29.5705983" lon="103.4414533"><ele>485.7</ele><time>2026-06-12T13:58:46.000Z</time></trkpt>
        <trkpt lat="29.5705719" lon="103.4414878"><ele>485.7</ele><time>2026-06-12T13:59:09.000Z</time></trkpt>
        <trkpt lat="29.5705233" lon="103.441492"><ele>490</ele><time>2026-06-12T13:59:14.000Z</time></trkpt>
        <trkpt lat="29.5704802" lon="103.4414659"><ele>492.58</ele><time>2026-06-12T13:59:17.000Z</time></trkpt>
        <trkpt lat="29.5704401" lon="103.4414212"><ele>494.74</ele><time>2026-06-12T13:59:22.000Z</time></trkpt>
        <trkpt lat="29.570397" lon="103.4413748"><ele>496.01</ele><time>2026-06-12T13:59:26.000Z</time></trkpt>
        <trkpt lat="29.5703517" lon="103.4413272"><ele>496.57</ele><time>2026-06-12T13:59:30.000Z</time></trkpt>
        <trkpt lat="29.5702948" lon="103.4413027"><ele>496.67</ele><time>2026-06-12T13:59:33.000Z</time></trkpt>
        <trkpt lat="29.5702326" lon="103.4412761"><ele>496.77</ele><time>2026-06-12T13:59:38.000Z</time></trkpt>
        <trkpt lat="29.5701668" lon="103.4412377"><ele>497.04</ele><time>2026-06-12T13:59:44.000Z</time></trkpt>
        <trkpt lat="29.5701217" lon="103.4411971"><ele>497.24</ele><time>2026-06-12T13:59:48.000Z</time></trkpt>
        <trkpt lat="29.5700571" lon="103.4411688"><ele>498.04</ele><time>2026-06-12T13:59:54.000Z</time></trkpt>
        <trkpt lat="29.5700059" lon="103.441154"><ele>499.7</ele><time>2026-06-12T13:59:56.000Z</time></trkpt>
        <trkpt lat="29.5699465" lon="103.4411261"><ele>501.29</ele><time>2026-06-12T14:00:00.000Z</time></trkpt>
        <trkpt lat="29.5698986" lon="103.4410913"><ele>502.71</ele><time>2026-06-12T14:00:05.000Z</time></trkpt>
        <trkpt lat="29.569854" lon="103.4410427"><ele>503.61</ele><time>2026-06-12T14:00:09.000Z</time></trkpt>
        <trkpt lat="29.5698113" lon="103.441016"><ele>504.51</ele><time>2026-06-12T14:00:15.000Z</time></trkpt>
        <trkpt lat="29.5697575" lon="103.441007"><ele>505.11</ele><time>2026-06-12T14:00:19.000Z</time></trkpt>
        <trkpt lat="29.5697007" lon="103.4409901"><ele>505.02</ele><time>2026-06-12T14:00:23.000Z</time></trkpt>
        <trkpt lat="29.5696457" lon="103.4409764"><ele>504.45</ele><time>2026-06-12T14:00:27.000Z</time></trkpt>
        <trkpt lat="29.5695854" lon="103.4409499"><ele>503.44</ele><time>2026-06-12T14:00:32.000Z</time></trkpt>
        <trkpt lat="29.5695334" lon="103.4409409"><ele>501.53</ele><time>2026-06-12T14:00:37.000Z</time></trkpt>
        <trkpt lat="29.5694697" lon="103.4409339"><ele>499.32</ele><time>2026-06-12T14:00:43.000Z</time></trkpt>
        <trkpt lat="29.5694027" lon="103.4409218"><ele>496.86</ele><time>2026-06-12T14:00:49.000Z</time></trkpt>
        <trkpt lat="29.5694027" lon="103.4409218"><ele>496.86</ele><time>2026-06-12T14:01:04.000Z</time></trkpt>
        <trkpt lat="29.5693438" lon="103.4409401"><ele>495.03</ele><time>2026-06-12T14:01:07.000Z</time></trkpt>
        <trkpt lat="29.5693438" lon="103.4409401"><ele>495.03</ele><time>2026-06-12T14:01:12.000Z</time></trkpt>
        <trkpt lat="29.5692832" lon="103.4409431"><ele>493.81</ele><time>2026-06-12T14:01:18.000Z</time></trkpt>
        <trkpt lat="29.5692832" lon="103.4409431"><ele>493.81</ele><time>2026-06-12T14:01:30.000Z</time></trkpt>
        <trkpt lat="29.56925" lon="103.4409783"><ele>492.99</ele><time>2026-06-12T14:03:04.000Z</time></trkpt>
        <trkpt lat="29.56925" lon="103.4409783"><ele>492.99</ele><time>2026-06-12T14:03:14.000Z</time></trkpt>
        <trkpt lat="29.569185" lon="103.44096"><ele>491.32</ele><time>2026-06-12T14:03:20.000Z</time></trkpt>
        <trkpt lat="29.5691228" lon="103.4409501"><ele>490.15</ele><time>2026-06-12T14:03:27.000Z</time></trkpt>
        <trkpt lat="29.5690779" lon="103.4409289"><ele>489.74</ele><time>2026-06-12T14:03:34.000Z</time></trkpt>
        <trkpt lat="29.5690559" lon="103.4408778"><ele>489.29</ele><time>2026-06-12T14:03:42.000Z</time></trkpt>
        <trkpt lat="29.5690403" lon="103.4408137"><ele>489.55</ele><time>2026-06-12T14:03:46.000Z</time></trkpt>
        <trkpt lat="29.5690293" lon="103.4407453"><ele>489.96</ele><time>2026-06-12T14:03:51.000Z</time></trkpt>
        <trkpt lat="29.5690198" lon="103.4406845"><ele>490.49</ele><time>2026-06-12T14:03:55.000Z</time></trkpt>
        <trkpt lat="29.5690112" lon="103.4406126"><ele>491.44</ele><time>2026-06-12T14:04:01.000Z</time></trkpt>
        <trkpt lat="29.5690073" lon="103.4405482"><ele>492.71</ele><time>2026-06-12T14:04:05.000Z</time></trkpt>
        <trkpt lat="29.5689973" lon="103.4404859"><ele>493.48</ele><time>2026-06-12T14:04:11.000Z</time></trkpt>
        <trkpt lat="29.5689858" lon="103.4404093"><ele>494.31</ele><time>2026-06-12T14:04:17.000Z</time></trkpt>
        <trkpt lat="29.5689789" lon="103.4403487"><ele>495.08</ele><time>2026-06-12T14:04:21.000Z</time></trkpt>
        <trkpt lat="29.5689676" lon="103.4402921"><ele>495.52</ele><time>2026-06-12T14:04:25.000Z</time></trkpt>
        <trkpt lat="29.5689569" lon="103.4402302"><ele>495.9</ele><time>2026-06-12T14:04:31.000Z</time></trkpt>
        <trkpt lat="29.5689254" lon="103.4401922"><ele>496.29</ele><time>2026-06-12T14:04:35.000Z</time></trkpt>
        <trkpt lat="29.5688812" lon="103.4401517"><ele>496.85</ele><time>2026-06-12T14:04:41.000Z</time></trkpt>
        <trkpt lat="29.5688387" lon="103.4401202"><ele>497.17</ele><time>2026-06-12T14:04:45.000Z</time></trkpt>
        <trkpt lat="29.568803" lon="103.440074"><ele>497.27</ele><time>2026-06-12T14:04:49.000Z</time></trkpt>
        <trkpt lat="29.5687654" lon="103.4400266"><ele>497.28</ele><time>2026-06-12T14:04:53.000Z</time></trkpt>
        <trkpt lat="29.5687434" lon="103.4399705"><ele>497.29</ele><time>2026-06-12T14:04:57.000Z</time></trkpt>
        <trkpt lat="29.5687397" lon="103.4399151"><ele>497.25</ele><time>2026-06-12T14:05:01.000Z</time></trkpt>
        <trkpt lat="29.568708" lon="103.4398681"><ele>497.66</ele><time>2026-06-12T14:05:05.000Z</time></trkpt>
        <trkpt lat="29.5686622" lon="103.4398221"><ele>498.15</ele><time>2026-06-12T14:05:11.000Z</time></trkpt>
        <trkpt lat="29.5686132" lon="103.439776"><ele>498.77</ele><time>2026-06-12T14:05:15.000Z</time></trkpt>
        <trkpt lat="29.5685692" lon="103.4397322"><ele>499.52</ele><time>2026-06-12T14:05:19.000Z</time></trkpt>
        <trkpt lat="29.5685292" lon="103.4396829"><ele>500.63</ele><time>2026-06-12T14:05:23.000Z</time></trkpt>
        <trkpt lat="29.5684907" lon="103.4396402"><ele>502.12</ele><time>2026-06-12T14:05:27.000Z</time></trkpt>
        <trkpt lat="29.5684502" lon="103.4395825"><ele>503.7</ele><time>2026-06-12T14:05:33.000Z</time></trkpt>
        <trkpt lat="29.5684075" lon="103.4395253"><ele>505.34</ele><time>2026-06-12T14:05:37.000Z</time></trkpt>
        <trkpt lat="29.5683653" lon="103.4394779"><ele>506.78</ele><time>2026-06-12T14:05:41.000Z</time></trkpt>
        <trkpt lat="29.5683296" lon="103.439438"><ele>508.25</ele><time>2026-06-12T14:05:45.000Z</time></trkpt>
        <trkpt lat="29.5682852" lon="103.4393868"><ele>509.48</ele><time>2026-06-12T14:05:51.000Z</time></trkpt>
        <trkpt lat="29.5682359" lon="103.4393334"><ele>510</ele><time>2026-06-12T14:05:57.000Z</time></trkpt>
        <trkpt lat="29.568199" lon="103.4392819"><ele>509.74</ele><time>2026-06-12T14:06:01.000Z</time></trkpt>
        <trkpt lat="29.5681632" lon="103.439244"><ele>509.25</ele><time>2026-06-12T14:06:05.000Z</time></trkpt>
        <trkpt lat="29.5681236" lon="103.4392048"><ele>508.63</ele><time>2026-06-12T14:06:09.000Z</time></trkpt>
        <trkpt lat="29.5680824" lon="103.4391669"><ele>508.06</ele><time>2026-06-12T14:06:13.000Z</time></trkpt>
        <trkpt lat="29.5680343" lon="103.4391204"><ele>507.56</ele><time>2026-06-12T14:06:17.000Z</time></trkpt>
        <trkpt lat="29.5679951" lon="103.4390793"><ele>507.36</ele><time>2026-06-12T14:06:21.000Z</time></trkpt>
        <trkpt lat="29.5679584" lon="103.4390418"><ele>507.38</ele><time>2026-06-12T14:06:25.000Z</time></trkpt>
        <trkpt lat="29.567921" lon="103.4389892"><ele>507.86</ele><time>2026-06-12T14:06:31.000Z</time></trkpt>
        <trkpt lat="29.5678869" lon="103.438927"><ele>508.39</ele><time>2026-06-12T14:06:35.000Z</time></trkpt>
        <trkpt lat="29.5678501" lon="103.4388809"><ele>508.65</ele><time>2026-06-12T14:06:39.000Z</time></trkpt>
        <trkpt lat="29.5678121" lon="103.4388302"><ele>509.1</ele><time>2026-06-12T14:06:43.000Z</time></trkpt>
        <trkpt lat="29.5677712" lon="103.4387812"><ele>509.58</ele><time>2026-06-12T14:06:47.000Z</time></trkpt>
        <trkpt lat="29.5677381" lon="103.4387304"><ele>510.06</ele><time>2026-06-12T14:06:51.000Z</time></trkpt>
        <trkpt lat="29.5676954" lon="103.4386763"><ele>510.46</ele><time>2026-06-12T14:06:55.000Z</time></trkpt>
        <trkpt lat="29.5676566" lon="103.438621"><ele>510.69</ele><time>2026-06-12T14:06:59.000Z</time></trkpt>
        <trkpt lat="29.5676269" lon="103.4385694"><ele>510.87</ele><time>2026-06-12T14:07:02.000Z</time></trkpt>
        <trkpt lat="29.5676093" lon="103.4385192"><ele>510.93</ele><time>2026-06-12T14:07:07.000Z</time></trkpt>
        <trkpt lat="29.5675932" lon="103.4384707"><ele>510.91</ele><time>2026-06-12T14:07:11.000Z</time></trkpt>
        <trkpt lat="29.5675654" lon="103.4384327"><ele>510.78</ele><time>2026-06-12T14:07:15.000Z</time></trkpt>
        <trkpt lat="29.5675277" lon="103.438382"><ele>510.53</ele><time>2026-06-12T14:07:21.000Z</time></trkpt>
        <trkpt lat="29.5674855" lon="103.4383349"><ele>510.13</ele><time>2026-06-12T14:07:25.000Z</time></trkpt>
        <trkpt lat="29.5674398" lon="103.4382807"><ele>509.69</ele><time>2026-06-12T14:07:31.000Z</time></trkpt>
        <trkpt lat="29.5674061" lon="103.43822"><ele>509.52</ele><time>2026-06-12T14:07:36.000Z</time></trkpt>
        <trkpt lat="29.5673734" lon="103.4381637"><ele>509.38</ele><time>2026-06-12T14:07:42.000Z</time></trkpt>
        <trkpt lat="29.5673496" lon="103.4381145"><ele>509.26</ele><time>2026-06-12T14:07:46.000Z</time></trkpt>
        <trkpt lat="29.5673162" lon="103.4380742"><ele>509.41</ele><time>2026-06-12T14:07:50.000Z</time></trkpt>
        <trkpt lat="29.5672761" lon="103.4380118"><ele>509.75</ele><time>2026-06-12T14:07:56.000Z</time></trkpt>
        <trkpt lat="29.5672377" lon="103.4379494"><ele>510.67</ele><time>2026-06-12T14:08:02.000Z</time></trkpt>
        <trkpt lat="29.567209" lon="103.4378903"><ele>511.8</ele><time>2026-06-12T14:08:06.000Z</time></trkpt>
        <trkpt lat="29.5671614" lon="103.4378355"><ele>512.36</ele><time>2026-06-12T14:08:12.000Z</time></trkpt>
        <trkpt lat="29.5670966" lon="103.4377797"><ele>512.81</ele><time>2026-06-12T14:08:16.000Z</time></trkpt>
        <trkpt lat="29.5670525" lon="103.4377233"><ele>513.49</ele><time>2026-06-12T14:08:20.000Z</time></trkpt>
        <trkpt lat="29.5670086" lon="103.4376605"><ele>514.23</ele><time>2026-06-12T14:08:26.000Z</time></trkpt>
        <trkpt lat="29.5669706" lon="103.4376053"><ele>515.46</ele><time>2026-06-12T14:08:30.000Z</time></trkpt>
        <trkpt lat="29.5669296" lon="103.4375495"><ele>517.41</ele><time>2026-06-12T14:08:34.000Z</time></trkpt>
        <trkpt lat="29.5668882" lon="103.4374995"><ele>519.43</ele><time>2026-06-12T14:08:39.000Z</time></trkpt>
        <trkpt lat="29.5668592" lon="103.4374502"><ele>521.27</ele><time>2026-06-12T14:08:43.000Z</time></trkpt>
        <trkpt lat="29.5668346" lon="103.4373922"><ele>522.7</ele><time>2026-06-12T14:08:47.000Z</time></trkpt>
        <trkpt lat="29.5668061" lon="103.4373256"><ele>523.56</ele><time>2026-06-12T14:08:53.000Z</time></trkpt>
        <trkpt lat="29.5667716" lon="103.4372601"><ele>524.14</ele><time>2026-06-12T14:08:59.000Z</time></trkpt>
        <trkpt lat="29.5667299" lon="103.4371968"><ele>525.02</ele><time>2026-06-12T14:09:05.000Z</time></trkpt>
        <trkpt lat="29.5666884" lon="103.4371523"><ele>525.79</ele><time>2026-06-12T14:09:09.000Z</time></trkpt>
        <trkpt lat="29.5666586" lon="103.4370845"><ele>526.27</ele><time>2026-06-12T14:09:15.000Z</time></trkpt>
        <trkpt lat="29.5666373" lon="103.4370272"><ele>526.58</ele><time>2026-06-12T14:09:19.000Z</time></trkpt>
        <trkpt lat="29.5666122" lon="103.4369758"><ele>526.89</ele><time>2026-06-12T14:09:23.000Z</time></trkpt>
        <trkpt lat="29.5665826" lon="103.4369263"><ele>527.07</ele><time>2026-06-12T14:09:27.000Z</time></trkpt>
        <trkpt lat="29.5665536" lon="103.4368734"><ele>527.04</ele><time>2026-06-12T14:09:31.000Z</time></trkpt>
        <trkpt lat="29.5665213" lon="103.4368264"><ele>526.98</ele><time>2026-06-12T14:09:35.000Z</time></trkpt>
        <trkpt lat="29.5664752" lon="103.4367728"><ele>527.29</ele><time>2026-06-12T14:09:40.000Z</time></trkpt>
        <trkpt lat="29.5664406" lon="103.4367203"><ele>528.15</ele><time>2026-06-12T14:09:44.000Z</time></trkpt>
        <trkpt lat="29.5664161" lon="103.4366608"><ele>529.08</ele><time>2026-06-12T14:09:48.000Z</time></trkpt>
        <trkpt lat="29.5663914" lon="103.4365988"><ele>529.86</ele><time>2026-06-12T14:09:52.000Z</time></trkpt>
        <trkpt lat="29.5663609" lon="103.4365438"><ele>530.22</ele><time>2026-06-12T14:09:56.000Z</time></trkpt>
        <trkpt lat="29.5663304" lon="103.4364905"><ele>530.51</ele><time>2026-06-12T14:10:00.000Z</time></trkpt>
        <trkpt lat="29.5663114" lon="103.4364363"><ele>531.07</ele><time>2026-06-12T14:10:04.000Z</time></trkpt>
        <trkpt lat="29.5662892" lon="103.4363779"><ele>531.34</ele><time>2026-06-12T14:10:08.000Z</time></trkpt>
        <trkpt lat="29.5662639" lon="103.4363128"><ele>531.45</ele><time>2026-06-12T14:10:12.000Z</time></trkpt>
        <trkpt lat="29.5662449" lon="103.4362518"><ele>531.86</ele><time>2026-06-12T14:10:16.000Z</time></trkpt>
        <trkpt lat="29.566227" lon="103.4361953"><ele>532.35</ele><time>2026-06-12T14:10:20.000Z</time></trkpt>
        <trkpt lat="29.5662055" lon="103.4361479"><ele>532.5</ele><time>2026-06-12T14:10:24.000Z</time></trkpt>
        <trkpt lat="29.56619" lon="103.4360786"><ele>532.63</ele><time>2026-06-12T14:10:28.000Z</time></trkpt>
        <trkpt lat="29.5661754" lon="103.4360032"><ele>532.57</ele><time>2026-06-12T14:10:32.000Z</time></trkpt>
        <trkpt lat="29.5661547" lon="103.4359426"><ele>532.71</ele><time>2026-06-12T14:10:35.000Z</time></trkpt>
        <trkpt lat="29.5661303" lon="103.4358896"><ele>532.36</ele><time>2026-06-12T14:10:39.000Z</time></trkpt>
        <trkpt lat="29.566116" lon="103.4358364"><ele>532.42</ele><time>2026-06-12T14:10:43.000Z</time></trkpt>
        <trkpt lat="29.566102" lon="103.435775"><ele>532.54</ele><time>2026-06-12T14:10:47.000Z</time></trkpt>
        <trkpt lat="29.5660915" lon="103.4357178"><ele>532.91</ele><time>2026-06-12T14:10:51.000Z</time></trkpt>
        <trkpt lat="29.566077" lon="103.43566"><ele>533.42</ele><time>2026-06-12T14:10:55.000Z</time></trkpt>
        <trkpt lat="29.5660633" lon="103.4355917"><ele>533.54</ele><time>2026-06-12T14:10:59.000Z</time></trkpt>
        <trkpt lat="29.5660486" lon="103.4355222"><ele>533.39</ele><time>2026-06-12T14:11:03.000Z</time></trkpt>
        <trkpt lat="29.5660223" lon="103.4354704"><ele>533.18</ele><time>2026-06-12T14:11:07.000Z</time></trkpt>
        <trkpt lat="29.5659931" lon="103.435424"><ele>533.1</ele><time>2026-06-12T14:11:11.000Z</time></trkpt>
        <trkpt lat="29.5659584" lon="103.4353815"><ele>533.23</ele><time>2026-06-12T14:11:15.000Z</time></trkpt>
        <trkpt lat="29.5659361" lon="103.4353321"><ele>533.09</ele><time>2026-06-12T14:11:19.000Z</time></trkpt>
        <trkpt lat="29.5659326" lon="103.4352633"><ele>532.58</ele><time>2026-06-12T14:11:23.000Z</time></trkpt>
        <trkpt lat="29.5659268" lon="103.4351862"><ele>532.24</ele><time>2026-06-12T14:11:29.000Z</time></trkpt>
        <trkpt lat="29.5659052" lon="103.4351211"><ele>532.61</ele><time>2026-06-12T14:11:35.000Z</time></trkpt>
        <trkpt lat="29.5658673" lon="103.4350738"><ele>533.64</ele><time>2026-06-12T14:11:39.000Z</time></trkpt>
        <trkpt lat="29.565824" lon="103.4350191"><ele>534.87</ele><time>2026-06-12T14:11:43.000Z</time></trkpt>
        <trkpt lat="29.5657862" lon="103.434967"><ele>535.92</ele><time>2026-06-12T14:11:47.000Z</time></trkpt>
        <trkpt lat="29.5657438" lon="103.4349295"><ele>536.47</ele><time>2026-06-12T14:11:53.000Z</time></trkpt>
        <trkpt lat="29.5656962" lon="103.4349008"><ele>537.08</ele><time>2026-06-12T14:11:57.000Z</time></trkpt>
        <trkpt lat="29.5656545" lon="103.4348644"><ele>538.04</ele><time>2026-06-12T14:12:01.000Z</time></trkpt>
        <trkpt lat="29.5656118" lon="103.434818"><ele>539.35</ele><time>2026-06-12T14:12:05.000Z</time></trkpt>
        <trkpt lat="29.5655736" lon="103.4347716"><ele>540.32</ele><time>2026-06-12T14:12:09.000Z</time></trkpt>
        <trkpt lat="29.5655458" lon="103.4347219"><ele>540.61</ele><time>2026-06-12T14:12:13.000Z</time></trkpt>
        <trkpt lat="29.5655141" lon="103.4346651"><ele>540.69</ele><time>2026-06-12T14:12:17.000Z</time></trkpt>
        <trkpt lat="29.5655078" lon="103.4345921"><ele>540.78</ele><time>2026-06-12T14:12:20.000Z</time></trkpt>
        <trkpt lat="29.5655431" lon="103.4345352"><ele>540.79</ele><time>2026-06-12T14:12:25.000Z</time></trkpt>
        <trkpt lat="29.5655773" lon="103.4344815"><ele>540.62</ele><time>2026-06-12T14:12:29.000Z</time></trkpt>
        <trkpt lat="29.5656116" lon="103.4344324"><ele>539.92</ele><time>2026-06-12T14:12:33.000Z</time></trkpt>
        <trkpt lat="29.5656457" lon="103.4343899"><ele>539.7</ele><time>2026-06-12T14:12:37.000Z</time></trkpt>
        <trkpt lat="29.5656864" lon="103.4343392"><ele>539.83</ele><time>2026-06-12T14:12:42.000Z</time></trkpt>
        <trkpt lat="29.5657191" lon="103.4342799"><ele>540.12</ele><time>2026-06-12T14:12:46.000Z</time></trkpt>
        <trkpt lat="29.5657395" lon="103.4342202"><ele>540.02</ele><time>2026-06-12T14:12:52.000Z</time></trkpt>
        <trkpt lat="29.565738" lon="103.4341621"><ele>539.93</ele><time>2026-06-12T14:12:56.000Z</time></trkpt>
        <trkpt lat="29.5657354" lon="103.4341012"><ele>539.83</ele><time>2026-06-12T14:13:00.000Z</time></trkpt>
        <trkpt lat="29.5657066" lon="103.4340468"><ele>540.29</ele><time>2026-06-12T14:13:06.000Z</time></trkpt>
        <trkpt lat="29.5656853" lon="103.4339687"><ele>541.5</ele><time>2026-06-12T14:13:12.000Z</time></trkpt>
        <trkpt lat="29.5656762" lon="103.4338917"><ele>543.39</ele><time>2026-06-12T14:13:16.000Z</time></trkpt>
        <trkpt lat="29.5656835" lon="103.4338238"><ele>544.94</ele><time>2026-06-12T14:13:20.000Z</time></trkpt>
        <trkpt lat="29.5656926" lon="103.4337635"><ele>546.6</ele><time>2026-06-12T14:13:24.000Z</time></trkpt>
        <trkpt lat="29.5657076" lon="103.433702"><ele>548.02</ele><time>2026-06-12T14:13:28.000Z</time></trkpt>
        <trkpt lat="29.5657065" lon="103.4336434"><ele>549.3</ele><time>2026-06-12T14:13:32.000Z</time></trkpt>
        <trkpt lat="29.5657038" lon="103.433583"><ele>550.51</ele><time>2026-06-12T14:13:36.000Z</time></trkpt>
        <trkpt lat="29.5656962" lon="103.4335193"><ele>551.49</ele><time>2026-06-12T14:13:39.000Z</time></trkpt>
        <trkpt lat="29.5656857" lon="103.4334605"><ele>553.13</ele><time>2026-06-12T14:13:43.000Z</time></trkpt>
        <trkpt lat="29.5656861" lon="103.4333862"><ele>554.45</ele><time>2026-06-12T14:13:47.000Z</time></trkpt>
        <trkpt lat="29.5656882" lon="103.433316"><ele>555.76</ele><time>2026-06-12T14:13:51.000Z</time></trkpt>
        <trkpt lat="29.5656706" lon="103.4332594"><ele>557.03</ele><time>2026-06-12T14:13:55.000Z</time></trkpt>
        <trkpt lat="29.5656567" lon="103.4332041"><ele>557.92</ele><time>2026-06-12T14:13:59.000Z</time></trkpt>
        <trkpt lat="29.5656614" lon="103.4331475"><ele>558.77</ele><time>2026-06-12T14:14:03.000Z</time></trkpt>
        <trkpt lat="29.5656682" lon="103.4330898"><ele>559.47</ele><time>2026-06-12T14:14:07.000Z</time></trkpt>
        <trkpt lat="29.5656573" lon="103.4330342"><ele>559.4</ele><time>2026-06-12T14:14:11.000Z</time></trkpt>
        <trkpt lat="29.5656282" lon="103.4329756"><ele>558.88</ele><time>2026-06-12T14:14:15.000Z</time></trkpt>
        <trkpt lat="29.5655993" lon="103.4329132"><ele>558.03</ele><time>2026-06-12T14:14:19.000Z</time></trkpt>
        <trkpt lat="29.5655705" lon="103.4328596"><ele>556.81</ele><time>2026-06-12T14:14:23.000Z</time></trkpt>
        <trkpt lat="29.5655476" lon="103.4328119"><ele>555.47</ele><time>2026-06-12T14:14:27.000Z</time></trkpt>
        <trkpt lat="29.5655371" lon="103.4327498"><ele>554.07</ele><time>2026-06-12T14:14:31.000Z</time></trkpt>
        <trkpt lat="29.5655186" lon="103.4326907"><ele>552.7</ele><time>2026-06-12T14:14:35.000Z</time></trkpt>
        <trkpt lat="29.5654939" lon="103.4326369"><ele>551.45</ele><time>2026-06-12T14:14:39.000Z</time></trkpt>
        <trkpt lat="29.5654807" lon="103.4325852"><ele>550.27</ele><time>2026-06-12T14:14:42.000Z</time></trkpt>
        <trkpt lat="29.5654533" lon="103.4325203"><ele>548.99</ele><time>2026-06-12T14:14:46.000Z</time></trkpt>
        <trkpt lat="29.5654353" lon="103.4324528"><ele>547.49</ele><time>2026-06-12T14:14:50.000Z</time></trkpt>
        <trkpt lat="29.5654401" lon="103.4323874"><ele>546.33</ele><time>2026-06-12T14:14:54.000Z</time></trkpt>
        <trkpt lat="29.5654404" lon="103.4323283"><ele>545.76</ele><time>2026-06-12T14:14:58.000Z</time></trkpt>
        <trkpt lat="29.565439" lon="103.4322654"><ele>545.6</ele><time>2026-06-12T14:15:02.000Z</time></trkpt>
        <trkpt lat="29.5654215" lon="103.4321983"><ele>546.08</ele><time>2026-06-12T14:15:06.000Z</time></trkpt>
        <trkpt lat="29.5653941" lon="103.4321409"><ele>547.2</ele><time>2026-06-12T14:15:10.000Z</time></trkpt>
        <trkpt lat="29.565359" lon="103.4320812"><ele>548.75</ele><time>2026-06-12T14:15:16.000Z</time></trkpt>
        <trkpt lat="29.5653195" lon="103.432039"><ele>551.01</ele><time>2026-06-12T14:15:20.000Z</time></trkpt>
        <trkpt lat="29.5653005" lon="103.4319705"><ele>553.29</ele><time>2026-06-12T14:15:26.000Z</time></trkpt>
        <trkpt lat="29.5653024" lon="103.4319039"><ele>555.18</ele><time>2026-06-12T14:15:30.000Z</time></trkpt>
        <trkpt lat="29.5653124" lon="103.431844"><ele>556.91</ele><time>2026-06-12T14:15:34.000Z</time></trkpt>
        <trkpt lat="29.5653313" lon="103.4317856"><ele>558.76</ele><time>2026-06-12T14:15:38.000Z</time></trkpt>
        <trkpt lat="29.565351" lon="103.4317352"><ele>560.62</ele><time>2026-06-12T14:15:42.000Z</time></trkpt>
        <trkpt lat="29.5653674" lon="103.4316824"><ele>562.38</ele><time>2026-06-12T14:15:46.000Z</time></trkpt>
        <trkpt lat="29.5653855" lon="103.4316283"><ele>563.98</ele><time>2026-06-12T14:15:50.000Z</time></trkpt>
        <trkpt lat="29.565413" lon="103.4315748"><ele>565.45</ele><time>2026-06-12T14:15:53.000Z</time></trkpt>
        <trkpt lat="29.5654462" lon="103.4315115"><ele>566.81</ele><time>2026-06-12T14:16:02.000Z</time></trkpt>
        <trkpt lat="29.565467" lon="103.4314533"><ele>566.89</ele><time>2026-06-12T14:16:06.000Z</time></trkpt>
        <trkpt lat="29.5654815" lon="103.4314013"><ele>566.72</ele><time>2026-06-12T14:16:10.000Z</time></trkpt>
        <trkpt lat="29.565499" lon="103.4313415"><ele>566.54</ele><time>2026-06-12T14:16:16.000Z</time></trkpt>
        <trkpt lat="29.5655157" lon="103.4312798"><ele>566.82</ele><time>2026-06-12T14:16:24.000Z</time></trkpt>
        <trkpt lat="29.5655196" lon="103.4312188"><ele>567.63</ele><time>2026-06-12T14:16:28.000Z</time></trkpt>
        <trkpt lat="29.5655314" lon="103.4311522"><ele>568.26</ele><time>2026-06-12T14:16:34.000Z</time></trkpt>
        <trkpt lat="29.5655407" lon="103.4310847"><ele>568.36</ele><time>2026-06-12T14:16:38.000Z</time></trkpt>
        <trkpt lat="29.5655215" lon="103.4310161"><ele>568.77</ele><time>2026-06-12T14:16:43.000Z</time></trkpt>
        <trkpt lat="29.5654907" lon="103.4309611"><ele>570.11</ele><time>2026-06-12T14:16:47.000Z</time></trkpt>
        <trkpt lat="29.565441" lon="103.4309263"><ele>571.44</ele><time>2026-06-12T14:16:51.000Z</time></trkpt>
        <trkpt lat="29.565386" lon="103.4308919"><ele>572.46</ele><time>2026-06-12T14:16:55.000Z</time></trkpt>
        <trkpt lat="29.5653383" lon="103.430855"><ele>573.16</ele><time>2026-06-12T14:16:59.000Z</time></trkpt>
        <trkpt lat="29.5653196" lon="103.4307988"><ele>574.04</ele><time>2026-06-12T14:17:03.000Z</time></trkpt>
        <trkpt lat="29.5653243" lon="103.4307253"><ele>575.18</ele><time>2026-06-12T14:17:07.000Z</time></trkpt>
        <trkpt lat="29.5653323" lon="103.4306589"><ele>576.09</ele><time>2026-06-12T14:17:11.000Z</time></trkpt>
        <trkpt lat="29.565332" lon="103.4305928"><ele>576.78</ele><time>2026-06-12T14:17:15.000Z</time></trkpt>
        <trkpt lat="29.5653111" lon="103.4305384"><ele>577.44</ele><time>2026-06-12T14:17:19.000Z</time></trkpt>
        <trkpt lat="29.5652825" lon="103.4304834"><ele>578.2</ele><time>2026-06-12T14:17:23.000Z</time></trkpt>
        <trkpt lat="29.5652583" lon="103.430419"><ele>579.14</ele><time>2026-06-12T14:17:27.000Z</time></trkpt>
        <trkpt lat="29.5652504" lon="103.4303596"><ele>580.46</ele><time>2026-06-12T14:17:31.000Z</time></trkpt>
        <trkpt lat="29.5652501" lon="103.4302974"><ele>581.81</ele><time>2026-06-12T14:17:35.000Z</time></trkpt>
        <trkpt lat="29.5652505" lon="103.4302303"><ele>583.1</ele><time>2026-06-12T14:17:39.000Z</time></trkpt>
        <trkpt lat="29.5652466" lon="103.4301666"><ele>584.47</ele><time>2026-06-12T14:17:42.000Z</time></trkpt>
        <trkpt lat="29.5652456" lon="103.4301095"><ele>585.73</ele><time>2026-06-12T14:17:46.000Z</time></trkpt>
        <trkpt lat="29.5652395" lon="103.430051"><ele>586.75</ele><time>2026-06-12T14:17:50.000Z</time></trkpt>
        <trkpt lat="29.5652238" lon="103.4299941"><ele>587.93</ele><time>2026-06-12T14:17:54.000Z</time></trkpt>
        <trkpt lat="29.565201" lon="103.4299302"><ele>589.12</ele><time>2026-06-12T14:18:00.000Z</time></trkpt>
        <trkpt lat="29.5651738" lon="103.4298648"><ele>590.71</ele><time>2026-06-12T14:18:04.000Z</time></trkpt>
        <trkpt lat="29.5651444" lon="103.4297992"><ele>592.21</ele><time>2026-06-12T14:18:08.000Z</time></trkpt>
        <trkpt lat="29.5651148" lon="103.429735"><ele>593.37</ele><time>2026-06-12T14:18:12.000Z</time></trkpt>
        <trkpt lat="29.5650994" lon="103.4296677"><ele>594.24</ele><time>2026-06-12T14:18:16.000Z</time></trkpt>
        <trkpt lat="29.5650795" lon="103.4296055"><ele>594.7</ele><time>2026-06-12T14:18:20.000Z</time></trkpt>
        <trkpt lat="29.5650534" lon="103.4295441"><ele>594.78</ele><time>2026-06-12T14:18:24.000Z</time></trkpt>
        <trkpt lat="29.5650225" lon="103.4294878"><ele>594.75</ele><time>2026-06-12T14:18:28.000Z</time></trkpt>
        <trkpt lat="29.5649927" lon="103.4294308"><ele>594.3</ele><time>2026-06-12T14:18:32.000Z</time></trkpt>
        <trkpt lat="29.5649674" lon="103.4293718"><ele>593.7</ele><time>2026-06-12T14:18:36.000Z</time></trkpt>
        <trkpt lat="29.5649526" lon="103.4293095"><ele>592.88</ele><time>2026-06-12T14:18:40.000Z</time></trkpt>
        <trkpt lat="29.5649404" lon="103.4292548"><ele>591.94</ele><time>2026-06-12T14:18:44.000Z</time></trkpt>
        <trkpt lat="29.5649108" lon="103.4291918"><ele>590.85</ele><time>2026-06-12T14:18:49.000Z</time></trkpt>
        <trkpt lat="29.5648932" lon="103.4291204"><ele>589.75</ele><time>2026-06-12T14:18:53.000Z</time></trkpt>
        <trkpt lat="29.5648757" lon="103.429055"><ele>589.08</ele><time>2026-06-12T14:18:57.000Z</time></trkpt>
        <trkpt lat="29.5648692" lon="103.4289974"><ele>588.75</ele><time>2026-06-12T14:19:01.000Z</time></trkpt>
        <trkpt lat="29.564869" lon="103.4289251"><ele>588.77</ele><time>2026-06-12T14:19:05.000Z</time></trkpt>
        <trkpt lat="29.5648505" lon="103.4288509"><ele>588.91</ele><time>2026-06-12T14:19:11.000Z</time></trkpt>
        <trkpt lat="29.5648345" lon="103.4287802"><ele>589.34</ele><time>2026-06-12T14:19:15.000Z</time></trkpt>
        <trkpt lat="29.5648239" lon="103.4287124"><ele>590.35</ele><time>2026-06-12T14:19:19.000Z</time></trkpt>
        <trkpt lat="29.5648216" lon="103.4286496"><ele>591.79</ele><time>2026-06-12T14:19:23.000Z</time></trkpt>
        <trkpt lat="29.5648147" lon="103.4285821"><ele>593.39</ele><time>2026-06-12T14:19:27.000Z</time></trkpt>
        <trkpt lat="29.5648094" lon="103.4285138"><ele>594.98</ele><time>2026-06-12T14:19:31.000Z</time></trkpt>
        <trkpt lat="29.5648245" lon="103.4284491"><ele>596.45</ele><time>2026-06-12T14:19:35.000Z</time></trkpt>
        <trkpt lat="29.5648646" lon="103.4284058"><ele>597.85</ele><time>2026-06-12T14:19:39.000Z</time></trkpt>
        <trkpt lat="29.5649189" lon="103.4283764"><ele>599.21</ele><time>2026-06-12T14:19:43.000Z</time></trkpt>
        <trkpt lat="29.5649814" lon="103.4283358"><ele>599.85</ele><time>2026-06-12T14:19:47.000Z</time></trkpt>
        <trkpt lat="29.5650288" lon="103.4282909"><ele>600.43</ele><time>2026-06-12T14:19:51.000Z</time></trkpt>
        <trkpt lat="29.5650705" lon="103.4282582"><ele>601.88</ele><time>2026-06-12T14:19:55.000Z</time></trkpt>
        <trkpt lat="29.5651251" lon="103.42823"><ele>603.65</ele><time>2026-06-12T14:20:01.000Z</time></trkpt>
        <trkpt lat="29.5651799" lon="103.4281941"><ele>605.44</ele><time>2026-06-12T14:20:05.000Z</time></trkpt>
        <trkpt lat="29.5652355" lon="103.4281548"><ele>606.58</ele><time>2026-06-12T14:20:09.000Z</time></trkpt>
        <trkpt lat="29.565281" lon="103.4281183"><ele>607.84</ele><time>2026-06-12T14:20:13.000Z</time></trkpt>
        <trkpt lat="29.5653215" lon="103.4280791"><ele>608.94</ele><time>2026-06-12T14:20:17.000Z</time></trkpt>
        <trkpt lat="29.5653655" lon="103.4280341"><ele>609.74</ele><time>2026-06-12T14:20:21.000Z</time></trkpt>
        <trkpt lat="29.5654038" lon="103.4279744"><ele>610.11</ele><time>2026-06-12T14:20:25.000Z</time></trkpt>
        <trkpt lat="29.5654314" lon="103.4279236"><ele>610.49</ele><time>2026-06-12T14:20:29.000Z</time></trkpt>
        <trkpt lat="29.5654303" lon="103.4278721"><ele>611.23</ele><time>2026-06-12T14:20:35.000Z</time></trkpt>
        <trkpt lat="29.5654158" lon="103.4278215"><ele>611.77</ele><time>2026-06-12T14:20:39.000Z</time></trkpt>
        <trkpt lat="29.5653984" lon="103.4277627"><ele>612.26</ele><time>2026-06-12T14:20:43.000Z</time></trkpt>
        <trkpt lat="29.5653804" lon="103.4276908"><ele>612.92</ele><time>2026-06-12T14:20:49.000Z</time></trkpt>
        <trkpt lat="29.5653621" lon="103.4276233"><ele>613.77</ele><time>2026-06-12T14:20:53.000Z</time></trkpt>
        <trkpt lat="29.5653418" lon="103.4275471"><ele>613.91</ele><time>2026-06-12T14:20:57.000Z</time></trkpt>
        <trkpt lat="29.5653248" lon="103.4274704"><ele>613.18</ele><time>2026-06-12T14:21:01.000Z</time></trkpt>
        <trkpt lat="29.5653119" lon="103.4274018"><ele>611.94</ele><time>2026-06-12T14:21:05.000Z</time></trkpt>
        <trkpt lat="29.5652854" lon="103.4273477"><ele>610.07</ele><time>2026-06-12T14:21:09.000Z</time></trkpt>
        <trkpt lat="29.56527" lon="103.4272799"><ele>608.45</ele><time>2026-06-12T14:21:13.000Z</time></trkpt>
        <trkpt lat="29.5652642" lon="103.4272136"><ele>607.09</ele><time>2026-06-12T14:21:17.000Z</time></trkpt>
        <trkpt lat="29.565248" lon="103.4271595"><ele>605.89</ele><time>2026-06-12T14:21:21.000Z</time></trkpt>
        <trkpt lat="29.5652122" lon="103.4271136"><ele>604.95</ele><time>2026-06-12T14:21:27.000Z</time></trkpt>
        <trkpt lat="29.5651694" lon="103.42708"><ele>603.98</ele><time>2026-06-12T14:21:31.000Z</time></trkpt>
        <trkpt lat="29.5651253" lon="103.427049"><ele>603.47</ele><time>2026-06-12T14:21:35.000Z</time></trkpt>
        <trkpt lat="29.5650805" lon="103.4270077"><ele>603.53</ele><time>2026-06-12T14:21:39.000Z</time></trkpt>
        <trkpt lat="29.5650398" lon="103.4269708"><ele>603.86</ele><time>2026-06-12T14:21:43.000Z</time></trkpt>
        <trkpt lat="29.5649909" lon="103.4269406"><ele>604.26</ele><time>2026-06-12T14:21:49.000Z</time></trkpt>
        <trkpt lat="29.5649591" lon="103.4268965"><ele>604.92</ele><time>2026-06-12T14:21:55.000Z</time></trkpt>
        <trkpt lat="29.5649464" lon="103.4268418"><ele>605.6</ele><time>2026-06-12T14:21:59.000Z</time></trkpt>
        <trkpt lat="29.5649388" lon="103.4267776"><ele>606.33</ele><time>2026-06-12T14:22:02.000Z</time></trkpt>
        <trkpt lat="29.5649503" lon="103.4267082"><ele>607.01</ele><time>2026-06-12T14:22:15.000Z</time></trkpt>
        <trkpt lat="29.5649641" lon="103.4266504"><ele>608.17</ele><time>2026-06-12T14:22:23.000Z</time></trkpt>
        <trkpt lat="29.5649696" lon="103.4265964"><ele>608.83</ele><time>2026-06-12T14:22:33.000Z</time></trkpt>
        <trkpt lat="29.5649724" lon="103.4265336"><ele>608.99</ele><time>2026-06-12T14:22:41.000Z</time></trkpt>
        <trkpt lat="29.5649853" lon="103.426481"><ele>609.68</ele><time>2026-06-12T14:22:48.000Z</time></trkpt>
        <trkpt lat="29.5649971" lon="103.4264424"><ele>611.02</ele><time>2026-06-12T14:22:58.000Z</time></trkpt>
        <trkpt lat="29.5650118" lon="103.4263961"><ele>613.34</ele><time>2026-06-12T14:23:08.000Z</time></trkpt>
        <trkpt lat="29.5650109" lon="103.4263359"><ele>616.8</ele><time>2026-06-12T14:23:16.000Z</time></trkpt>
        <trkpt lat="29.5650142" lon="103.4262782"><ele>620.07</ele><time>2026-06-12T14:23:24.000Z</time></trkpt>
        <trkpt lat="29.5650135" lon="103.4262219"><ele>623.53</ele><time>2026-06-12T14:23:36.000Z</time></trkpt>
        <trkpt lat="29.5650202" lon="103.4261853"><ele>628.72</ele><time>2026-06-12T14:23:42.000Z</time></trkpt>
        <trkpt lat="29.5650411" lon="103.4261371"><ele>632.54</ele><time>2026-06-12T14:23:53.000Z</time></trkpt>
        <trkpt lat="29.5650683" lon="103.4260874"><ele>636.95</ele><time>2026-06-12T14:24:03.000Z</time></trkpt>
        <trkpt lat="29.5650683" lon="103.4260874"><ele>636.95</ele><time>2026-06-12T14:24:12.000Z</time></trkpt>
        <trkpt lat="29.5651127" lon="103.4259753"><ele>640.24</ele><time>2026-06-12T14:24:14.000Z</time></trkpt>
        <trkpt lat="29.5651127" lon="103.4259753"><ele>640.24</ele><time>2026-06-12T14:24:27.000Z</time></trkpt>
        <trkpt lat="29.5651212" lon="103.4259113"><ele>644.01</ele><time>2026-06-12T14:24:35.000Z</time></trkpt>
        <trkpt lat="29.5651192" lon="103.4258843"><ele>647.19</ele><time>2026-06-12T14:24:37.000Z</time></trkpt>
        <trkpt lat="29.5651417" lon="103.4258488"><ele>649.26</ele><time>2026-06-12T14:24:53.000Z</time></trkpt>
        <trkpt lat="29.5651816" lon="103.4258535"><ele>652.29</ele><time>2026-06-12T14:25:17.000Z</time></trkpt>
        <trkpt lat="29.565207" lon="103.4258173"><ele>654.53</ele><time>2026-06-12T14:25:34.000Z</time></trkpt>
        <trkpt lat="29.5652069" lon="103.4257575"><ele>655.25</ele><time>2026-06-12T14:25:40.000Z</time></trkpt>
        <trkpt lat="29.5651788" lon="103.4257075"><ele>655.83</ele><time>2026-06-12T14:25:44.000Z</time></trkpt>
        <trkpt lat="29.5651519" lon="103.4256842"><ele>656.16</ele><time>2026-06-12T14:25:46.000Z</time></trkpt>
        <trkpt lat="29.5651128" lon="103.4256272"><ele>656.26</ele><time>2026-06-12T14:25:50.000Z</time></trkpt>
        <trkpt lat="29.5650627" lon="103.4255491"><ele>656.15</ele><time>2026-06-12T14:25:54.000Z</time></trkpt>
        <trkpt lat="29.5650075" lon="103.4254871"><ele>655.87</ele><time>2026-06-12T14:25:58.000Z</time></trkpt>
        <trkpt lat="29.5649654" lon="103.4254327"><ele>655.93</ele><time>2026-06-12T14:26:02.000Z</time></trkpt>
        <trkpt lat="29.5649366" lon="103.4253649"><ele>655.96</ele><time>2026-06-12T14:26:08.000Z</time></trkpt>
        <trkpt lat="29.5649012" lon="103.4253131"><ele>655.5</ele><time>2026-06-12T14:26:12.000Z</time></trkpt>
        <trkpt lat="29.56487" lon="103.4252689"><ele>654.64</ele><time>2026-06-12T14:26:16.000Z</time></trkpt>
        <trkpt lat="29.564834" lon="103.4252319"><ele>653.76</ele><time>2026-06-12T14:26:20.000Z</time></trkpt>
        <trkpt lat="29.564786" lon="103.4251843"><ele>653.13</ele><time>2026-06-12T14:26:24.000Z</time></trkpt>
        <trkpt lat="29.5647375" lon="103.4251333"><ele>653.12</ele><time>2026-06-12T14:26:28.000Z</time></trkpt>
        <trkpt lat="29.5647058" lon="103.4250775"><ele>653.28</ele><time>2026-06-12T14:26:34.000Z</time></trkpt>
        <trkpt lat="29.5647044" lon="103.4250239"><ele>653.68</ele><time>2026-06-12T14:26:42.000Z</time></trkpt>
        <trkpt lat="29.5647146" lon="103.4249691"><ele>654.46</ele><time>2026-06-12T14:26:48.000Z</time></trkpt>
        <trkpt lat="29.5647133" lon="103.4249063"><ele>655.85</ele><time>2026-06-12T14:26:54.000Z</time></trkpt>
        <trkpt lat="29.5646823" lon="103.4248571"><ele>656.95</ele><time>2026-06-12T14:27:02.000Z</time></trkpt>
        <trkpt lat="29.5646576" lon="103.4247996"><ele>658.65</ele><time>2026-06-12T14:27:08.000Z</time></trkpt>
        <trkpt lat="29.5646443" lon="103.4247335"><ele>660.82</ele><time>2026-06-12T14:27:14.000Z</time></trkpt>
        <trkpt lat="29.5646205" lon="103.4246645"><ele>662.71</ele><time>2026-06-12T14:27:20.000Z</time></trkpt>
        <trkpt lat="29.5646076" lon="103.4245975"><ele>665.33</ele><time>2026-06-12T14:27:24.000Z</time></trkpt>
        <trkpt lat="29.5645952" lon="103.4245405"><ele>667.68</ele><time>2026-06-12T14:27:32.000Z</time></trkpt>
        <trkpt lat="29.5645864" lon="103.4244835"><ele>671</ele><time>2026-06-12T14:27:42.000Z</time></trkpt>
        <trkpt lat="29.5645673" lon="103.4244335"><ele>674.7</ele><time>2026-06-12T14:27:46.000Z</time></trkpt>
        <trkpt lat="29.564568" lon="103.4243709"><ele>677.32</ele><time>2026-06-12T14:27:50.000Z</time></trkpt>
        <trkpt lat="29.5645776" lon="103.4243106"><ele>678.91</ele><time>2026-06-12T14:27:56.000Z</time></trkpt>
        <trkpt lat="29.5645945" lon="103.4242566"><ele>679.89</ele><time>2026-06-12T14:28:02.000Z</time></trkpt>
        <trkpt lat="29.5646032" lon="103.4242049"><ele>680.24</ele><time>2026-06-12T14:28:08.000Z</time></trkpt>
        <trkpt lat="29.5645691" lon="103.4241714"><ele>680.7</ele><time>2026-06-12T14:28:16.000Z</time></trkpt>
        <trkpt lat="29.5645193" lon="103.4241593"><ele>681.21</ele><time>2026-06-12T14:28:24.000Z</time></trkpt>
        <trkpt lat="29.5644762" lon="103.4241237"><ele>680.99</ele><time>2026-06-12T14:28:36.000Z</time></trkpt>
        <trkpt lat="29.5644538" lon="103.4240728"><ele>680.82</ele><time>2026-06-12T14:28:46.000Z</time></trkpt>
        <trkpt lat="29.5644261" lon="103.4240229"><ele>681.54</ele><time>2026-06-12T14:28:53.000Z</time></trkpt>
        <trkpt lat="29.5643906" lon="103.4239769"><ele>682.13</ele><time>2026-06-12T14:29:00.000Z</time></trkpt>
        <trkpt lat="29.5643634" lon="103.4239303"><ele>682.46</ele><time>2026-06-12T14:29:04.000Z</time></trkpt>
        <trkpt lat="29.5643572" lon="103.4238786"><ele>682.43</ele><time>2026-06-12T14:29:08.000Z</time></trkpt>
        <trkpt lat="29.5643459" lon="103.4238149"><ele>681.82</ele><time>2026-06-12T14:29:14.000Z</time></trkpt>
        <trkpt lat="29.5643339" lon="103.4237598"><ele>681.38</ele><time>2026-06-12T14:29:20.000Z</time></trkpt>
        <trkpt lat="29.564315" lon="103.4237048"><ele>681.6</ele><time>2026-06-12T14:29:26.000Z</time></trkpt>
        <trkpt lat="29.5643123" lon="103.4236424"><ele>682.98</ele><time>2026-06-12T14:29:34.000Z</time></trkpt>
        <trkpt lat="29.5643394" lon="103.423591"><ele>684.84</ele><time>2026-06-12T14:29:38.000Z</time></trkpt>
        <trkpt lat="29.5643655" lon="103.4235389"><ele>686.5</ele><time>2026-06-12T14:29:44.000Z</time></trkpt>
        <trkpt lat="29.5644017" lon="103.4235038"><ele>688.52</ele><time>2026-06-12T14:29:48.000Z</time></trkpt>
        <trkpt lat="29.5644331" lon="103.4234447"><ele>690.02</ele><time>2026-06-12T14:29:54.000Z</time></trkpt>
        <trkpt lat="29.5644466" lon="103.4233895"><ele>691.09</ele><time>2026-06-12T14:29:58.000Z</time></trkpt>
        <trkpt lat="29.5644469" lon="103.423324"><ele>691.91</ele><time>2026-06-12T14:30:06.000Z</time></trkpt>
        <trkpt lat="29.5644596" lon="103.4232663"><ele>692.77</ele><time>2026-06-12T14:30:13.000Z</time></trkpt>
        <trkpt lat="29.5644596" lon="103.4232663"><ele>692.77</ele><time>2026-06-12T14:30:22.000Z</time></trkpt>
        <trkpt lat="29.5644752" lon="103.4230255"><ele>694.11</ele><time>2026-06-12T14:30:38.000Z</time></trkpt>
        <trkpt lat="29.5644752" lon="103.4230255"><ele>694.11</ele><time>2026-06-12T14:30:42.000Z</time></trkpt>
        <trkpt lat="29.5644594" lon="103.4229714"><ele>698.41</ele><time>2026-06-12T14:30:50.000Z</time></trkpt>
        <trkpt lat="29.5644496" lon="103.4229136"><ele>702.41</ele><time>2026-06-12T14:31:00.000Z</time></trkpt>
        <trkpt lat="29.564448" lon="103.4228578"><ele>706.62</ele><time>2026-06-12T14:31:06.000Z</time></trkpt>
        <trkpt lat="29.5644433" lon="103.4228053"><ele>709.88</ele><time>2026-06-12T14:31:12.000Z</time></trkpt>
        <trkpt lat="29.5644371" lon="103.4227539"><ele>713.16</ele><time>2026-06-12T14:31:22.000Z</time></trkpt>
        <trkpt lat="29.5644004" lon="103.4227002"><ele>716.92</ele><time>2026-06-12T14:31:32.000Z</time></trkpt>
        <trkpt lat="29.5643788" lon="103.4226367"><ele>720.44</ele><time>2026-06-12T14:31:38.000Z</time></trkpt>
        <trkpt lat="29.5643883" lon="103.4225809"><ele>722.27</ele><time>2026-06-12T14:31:44.000Z</time></trkpt>
        <trkpt lat="29.5644017" lon="103.4225435"><ele>724.18</ele><time>2026-06-12T14:31:50.000Z</time></trkpt>
        <trkpt lat="29.5644011" lon="103.4224939"><ele>726.25</ele><time>2026-06-12T14:31:57.000Z</time></trkpt>
        <trkpt lat="29.5643868" lon="103.4224401"><ele>728.29</ele><time>2026-06-12T14:32:04.000Z</time></trkpt>
        <trkpt lat="29.5643714" lon="103.422381"><ele>730.23</ele><time>2026-06-12T14:32:18.000Z</time></trkpt>
        <trkpt lat="29.564364" lon="103.4223253"><ele>732.37</ele><time>2026-06-12T14:32:30.000Z</time></trkpt>
        <trkpt lat="29.5643613" lon="103.4222725"><ele>733.07</ele><time>2026-06-12T14:32:40.000Z</time></trkpt>
        <trkpt lat="29.5643688" lon="103.4222196"><ele>731.62</ele><time>2026-06-12T14:32:48.000Z</time></trkpt>
        <trkpt lat="29.5643786" lon="103.4221578"><ele>730.49</ele><time>2026-06-12T14:32:54.000Z</time></trkpt>
        <trkpt lat="29.5643695" lon="103.4220926"><ele>729.46</ele><time>2026-06-12T14:33:02.000Z</time></trkpt>
        <trkpt lat="29.5643394" lon="103.4220416"><ele>729.31</ele><time>2026-06-12T14:33:20.000Z</time></trkpt>
        <trkpt lat="29.5643173" lon="103.4219888"><ele>730.29</ele><time>2026-06-12T14:33:30.000Z</time></trkpt>
        <trkpt lat="29.5643085" lon="103.4219335"><ele>731.72</ele><time>2026-06-12T14:33:38.000Z</time></trkpt>
        <trkpt lat="29.5643049" lon="103.4218696"><ele>732.91</ele><time>2026-06-12T14:33:46.000Z</time></trkpt>
        <trkpt lat="29.5643027" lon="103.4218139"><ele>734.59</ele><time>2026-06-12T14:33:52.000Z</time></trkpt>
        <trkpt lat="29.5643481" lon="103.4217653"><ele>735.88</ele><time>2026-06-12T14:34:02.000Z</time></trkpt>
        <trkpt lat="29.5643904" lon="103.421728"><ele>737.87</ele><time>2026-06-12T14:34:08.000Z</time></trkpt>
        <trkpt lat="29.5643674" lon="103.4217081"><ele>739.17</ele><time>2026-06-12T14:34:18.000Z</time></trkpt>
        <trkpt lat="29.5643405" lon="103.4216699"><ele>740.6</ele><time>2026-06-12T14:34:28.000Z</time></trkpt>
        <trkpt lat="29.5643188" lon="103.4216185"><ele>742.15</ele><time>2026-06-12T14:34:44.000Z</time></trkpt>
        <trkpt lat="29.5643146" lon="103.4215651"><ele>745.91</ele><time>2026-06-12T14:34:54.000Z</time></trkpt>
        <trkpt lat="29.5643199" lon="103.4215105"><ele>748.23</ele><time>2026-06-12T14:35:03.000Z</time></trkpt>
        <trkpt lat="29.564308" lon="103.4214599"><ele>749.47</ele><time>2026-06-12T14:35:09.000Z</time></trkpt>
        <trkpt lat="29.5642864" lon="103.4214123"><ele>749.78</ele><time>2026-06-12T14:35:25.000Z</time></trkpt>
        <trkpt lat="29.5642431" lon="103.4213745"><ele>750.61</ele><time>2026-06-12T14:35:35.000Z</time></trkpt>
        <trkpt lat="29.5642301" lon="103.4213264"><ele>753.49</ele><time>2026-06-12T14:35:43.000Z</time></trkpt>
        <trkpt lat="29.5642712" lon="103.4212977"><ele>754.74</ele><time>2026-06-12T14:35:47.000Z</time></trkpt>
        <trkpt lat="29.5643312" lon="103.4213038"><ele>755.24</ele><time>2026-06-12T14:35:50.000Z</time></trkpt>
        <trkpt lat="29.564396" lon="103.4213029"><ele>755.14</ele><time>2026-06-12T14:35:57.000Z</time></trkpt>
        <trkpt lat="29.5644447" lon="103.4212758"><ele>755.42</ele><time>2026-06-12T14:36:02.000Z</time></trkpt>
        <trkpt lat="29.5644932" lon="103.4212708"><ele>756.19</ele><time>2026-06-12T14:36:08.000Z</time></trkpt>
        <trkpt lat="29.5645091" lon="103.4212209"><ele>756.92</ele><time>2026-06-12T14:36:12.000Z</time></trkpt>
        <trkpt lat="29.5645368" lon="103.4211678"><ele>757.09</ele><time>2026-06-12T14:36:18.000Z</time></trkpt>
        <trkpt lat="29.5645869" lon="103.4211193"><ele>758.43</ele><time>2026-06-12T14:36:24.000Z</time></trkpt>
        <trkpt lat="29.5646292" lon="103.4210812"><ele>760.57</ele><time>2026-06-12T14:36:30.000Z</time></trkpt>
        <trkpt lat="29.56465" lon="103.4210337"><ele>763.25</ele><time>2026-06-12T14:36:38.000Z</time></trkpt>
        <trkpt lat="29.5646941" lon="103.4210587"><ele>767.18</ele><time>2026-06-12T14:36:42.000Z</time></trkpt>
        <trkpt lat="29.5647241" lon="103.4210893"><ele>769.6</ele><time>2026-06-12T14:36:44.000Z</time></trkpt>
        <trkpt lat="29.5647558" lon="103.4211319"><ele>771.06</ele><time>2026-06-12T14:36:48.000Z</time></trkpt>
        <trkpt lat="29.5647821" lon="103.4211866"><ele>772.02</ele><time>2026-06-12T14:36:52.000Z</time></trkpt>
        <trkpt lat="29.5648067" lon="103.4212413"><ele>773.48</ele><time>2026-06-12T14:37:00.000Z</time></trkpt>
        <trkpt lat="29.5648435" lon="103.4212919"><ele>775.12</ele><time>2026-06-12T14:37:07.000Z</time></trkpt>
        <trkpt lat="29.5648788" lon="103.421345"><ele>776.57</ele><time>2026-06-12T14:37:13.000Z</time></trkpt>
        <trkpt lat="29.5649093" lon="103.4213926"><ele>777.88</ele><time>2026-06-12T14:37:23.000Z</time></trkpt>
        <trkpt lat="29.5649479" lon="103.4213828"><ele>778.57</ele><time>2026-06-12T14:37:31.000Z</time></trkpt>
        <trkpt lat="29.5649845" lon="103.4213435"><ele>778.71</ele><time>2026-06-12T14:37:45.000Z</time></trkpt>
        <trkpt lat="29.5650364" lon="103.4213228"><ele>779.7</ele><time>2026-06-12T14:37:55.000Z</time></trkpt>
        <trkpt lat="29.5650924" lon="103.4213086"><ele>780.6</ele><time>2026-06-12T14:38:14.000Z</time></trkpt>
        <trkpt lat="29.5651404" lon="103.4212874"><ele>782.54</ele><time>2026-06-12T14:38:20.000Z</time></trkpt>
        <trkpt lat="29.5651823" lon="103.4212575"><ele>783.73</ele><time>2026-06-12T14:38:32.000Z</time></trkpt>
        <trkpt lat="29.5652319" lon="103.4212348"><ele>785.69</ele><time>2026-06-12T14:38:50.000Z</time></trkpt>
        <trkpt lat="29.5652798" lon="103.4212267"><ele>788.97</ele><time>2026-06-12T14:39:00.000Z</time></trkpt>
        <trkpt lat="29.5653106" lon="103.4211939"><ele>791.48</ele><time>2026-06-12T14:39:07.000Z</time></trkpt>
        <trkpt lat="29.5653275" lon="103.4212239"><ele>793.38</ele><time>2026-06-12T14:39:16.000Z</time></trkpt>
        <trkpt lat="29.5653275" lon="103.4212239"><ele>793.38</ele><time>2026-06-12T14:39:50.000Z</time></trkpt>
        <trkpt lat="29.5653604" lon="103.4212226"><ele>794.55</ele><time>2026-06-12T14:39:52.000Z</time></trkpt>
        <trkpt lat="29.5653604" lon="103.4212226"><ele>794.55</ele><time>2026-06-12T14:39:59.000Z</time></trkpt>
        <trkpt lat="29.5653452" lon="103.4212557"><ele>794.53</ele><time>2026-06-12T14:40:06.000Z</time></trkpt>
        <trkpt lat="29.5653474" lon="103.4212202"><ele>794.77</ele><time>2026-06-12T14:40:16.000Z</time></trkpt>
        <trkpt lat="29.5653846" lon="103.4211817"><ele>794.79</ele><time>2026-06-12T14:40:26.000Z</time></trkpt>
        <trkpt lat="29.5654301" lon="103.4211535"><ele>794.71</ele><time>2026-06-12T14:40:30.000Z</time></trkpt>
        <trkpt lat="29.5654769" lon="103.4211233"><ele>794.92</ele><time>2026-06-12T14:40:34.000Z</time></trkpt>
        <trkpt lat="29.5655253" lon="103.4210927"><ele>795.21</ele><time>2026-06-12T14:40:38.000Z</time></trkpt>
        <trkpt lat="29.5655709" lon="103.4210672"><ele>795.55</ele><time>2026-06-12T14:40:42.000Z</time></trkpt>
        <trkpt lat="29.5656189" lon="103.4210562"><ele>796.05</ele><time>2026-06-12T14:40:46.000Z</time></trkpt>
        <trkpt lat="29.5656725" lon="103.4210529"><ele>796.76</ele><time>2026-06-12T14:40:50.000Z</time></trkpt>
        <trkpt lat="29.5657306" lon="103.4210603"><ele>797.72</ele><time>2026-06-12T14:40:54.000Z</time></trkpt>
        <trkpt lat="29.5657823" lon="103.4210831"><ele>798.7</ele><time>2026-06-12T14:40:58.000Z</time></trkpt>
        <trkpt lat="29.56583" lon="103.4210956"><ele>799.56</ele><time>2026-06-12T14:41:02.000Z</time></trkpt>
        <trkpt lat="29.5658776" lon="103.4210941"><ele>800.61</ele><time>2026-06-12T14:41:07.000Z</time></trkpt>
        <trkpt lat="29.5659279" lon="103.4210998"><ele>802.15</ele><time>2026-06-12T14:41:13.000Z</time></trkpt>
        <trkpt lat="29.5659756" lon="103.4211038"><ele>803.98</ele><time>2026-06-12T14:41:21.000Z</time></trkpt>
        <trkpt lat="29.5660236" lon="103.4211121"><ele>805.28</ele><time>2026-06-12T14:41:29.000Z</time></trkpt>
        <trkpt lat="29.5660717" lon="103.4211259"><ele>806.71</ele><time>2026-06-12T14:41:37.000Z</time></trkpt>
        <trkpt lat="29.5661238" lon="103.4211177"><ele>807.95</ele><time>2026-06-12T14:41:45.000Z</time></trkpt>
        <trkpt lat="29.5661634" lon="103.4210722"><ele>809</ele><time>2026-06-12T14:41:53.000Z</time></trkpt>
        <trkpt lat="29.5661996" lon="103.4210103"><ele>809.73</ele><time>2026-06-12T14:41:59.000Z</time></trkpt>
        <trkpt lat="29.5662251" lon="103.420945"><ele>810.02</ele><time>2026-06-12T14:42:05.000Z</time></trkpt>
        <trkpt lat="29.5662347" lon="103.4208783"><ele>809.88</ele><time>2026-06-12T14:42:10.000Z</time></trkpt>
        <trkpt lat="29.566258" lon="103.4208211"><ele>809.2</ele><time>2026-06-12T14:42:14.000Z</time></trkpt>
        <trkpt lat="29.5662677" lon="103.420767"><ele>808.68</ele><time>2026-06-12T14:42:18.000Z</time></trkpt>
        <trkpt lat="29.5662773" lon="103.4206964"><ele>808.52</ele><time>2026-06-12T14:42:22.000Z</time></trkpt>
        <trkpt lat="29.5662827" lon="103.4206334"><ele>808.42</ele><time>2026-06-12T14:42:26.000Z</time></trkpt>
        <trkpt lat="29.5662968" lon="103.4205814"><ele>808.76</ele><time>2026-06-12T14:42:30.000Z</time></trkpt>
        <trkpt lat="29.5663059" lon="103.4205071"><ele>809.16</ele><time>2026-06-12T14:42:36.000Z</time></trkpt>
        <trkpt lat="29.5663266" lon="103.4204466"><ele>810.25</ele><time>2026-06-12T14:42:40.000Z</time></trkpt>
        <trkpt lat="29.566368" lon="103.4203946"><ele>811.44</ele><time>2026-06-12T14:42:44.000Z</time></trkpt>
        <trkpt lat="29.5664152" lon="103.4203467"><ele>812.41</ele><time>2026-06-12T14:42:48.000Z</time></trkpt>
        <trkpt lat="29.566458" lon="103.4203009"><ele>812.92</ele><time>2026-06-12T14:42:52.000Z</time></trkpt>
        <trkpt lat="29.5664981" lon="103.4202528"><ele>812.91</ele><time>2026-06-12T14:42:56.000Z</time></trkpt>
        <trkpt lat="29.5665408" lon="103.4201972"><ele>812.65</ele><time>2026-06-12T14:43:00.000Z</time></trkpt>
        <trkpt lat="29.566573" lon="103.4201425"><ele>812.03</ele><time>2026-06-12T14:43:04.000Z</time></trkpt>
        <trkpt lat="29.5666012" lon="103.4200886"><ele>811.24</ele><time>2026-06-12T14:43:07.000Z</time></trkpt>
        <trkpt lat="29.5666135" lon="103.4200275"><ele>810.84</ele><time>2026-06-12T14:43:12.000Z</time></trkpt>
        <trkpt lat="29.5666454" lon="103.4199688"><ele>810.52</ele><time>2026-06-12T14:43:18.000Z</time></trkpt>
        <trkpt lat="29.5666744" lon="103.4199153"><ele>810.04</ele><time>2026-06-12T14:43:24.000Z</time></trkpt>
        <trkpt lat="29.5666981" lon="103.4198511"><ele>809.33</ele><time>2026-06-12T14:43:30.000Z</time></trkpt>
        <trkpt lat="29.5667599" lon="103.4198417"><ele>808.76</ele><time>2026-06-12T14:43:36.000Z</time></trkpt>
        <trkpt lat="29.5668019" lon="103.4198652"><ele>807.92</ele><time>2026-06-12T14:43:38.000Z</time></trkpt>
        <trkpt lat="29.5668398" lon="103.419853"><ele>807.57</ele><time>2026-06-12T14:43:48.000Z</time></trkpt>
        <trkpt lat="29.5668838" lon="103.4198746"><ele>807.37</ele><time>2026-06-12T14:43:56.000Z</time></trkpt>
        <trkpt lat="29.5669139" lon="103.4199187"><ele>807.38</ele><time>2026-06-12T14:44:00.000Z</time></trkpt>
        <trkpt lat="29.5669438" lon="103.4199618"><ele>807.86</ele><time>2026-06-12T14:44:06.000Z</time></trkpt>
        <trkpt lat="29.566968" lon="103.4199948"><ele>808.74</ele><time>2026-06-12T14:44:09.000Z</time></trkpt>
        <trkpt lat="29.5670093" lon="103.4200169"><ele>809.75</ele><time>2026-06-12T14:44:17.000Z</time></trkpt>
        <trkpt lat="29.5670297" lon="103.4200712"><ele>811.24</ele><time>2026-06-12T14:44:23.000Z</time></trkpt>
        <trkpt lat="29.5670206" lon="103.4201467"><ele>813.46</ele><time>2026-06-12T14:44:27.000Z</time></trkpt>
        <trkpt lat="29.5670003" lon="103.4202134"><ele>815.67</ele><time>2026-06-12T14:44:33.000Z</time></trkpt>
        <trkpt lat="29.5670016" lon="103.420285"><ele>817.88</ele><time>2026-06-12T14:44:39.000Z</time></trkpt>
        <trkpt lat="29.5670213" lon="103.4203415"><ele>819.99</ele><time>2026-06-12T14:44:47.000Z</time></trkpt>
        <trkpt lat="29.5670575" lon="103.4203895"><ele>822.45</ele><time>2026-06-12T14:44:57.000Z</time></trkpt>
        <trkpt lat="29.5671085" lon="103.4204249"><ele>824.58</ele><time>2026-06-12T14:45:03.000Z</time></trkpt>
        <trkpt lat="29.567161" lon="103.4204489"><ele>826.09</ele><time>2026-06-12T14:45:10.000Z</time></trkpt>
        <trkpt lat="29.5672199" lon="103.4204611"><ele>827.56</ele><time>2026-06-12T14:45:19.000Z</time></trkpt>
        <trkpt lat="29.5672701" lon="103.4204426"><ele>828.95</ele><time>2026-06-12T14:45:31.000Z</time></trkpt>
        <trkpt lat="29.5673176" lon="103.4204242"><ele>830.69</ele><time>2026-06-12T14:45:39.000Z</time></trkpt>
        <trkpt lat="29.5673717" lon="103.4204057"><ele>832.03</ele><time>2026-06-12T14:45:51.000Z</time></trkpt>
        <trkpt lat="29.5674183" lon="103.4203734"><ele>833.91</ele><time>2026-06-12T14:46:07.000Z</time></trkpt>
        <trkpt lat="29.5674618" lon="103.4203467"><ele>836.7</ele><time>2026-06-12T14:46:16.000Z</time></trkpt>
        <trkpt lat="29.5675046" lon="103.4203282"><ele>839.02</ele><time>2026-06-12T14:46:24.000Z</time></trkpt>
        <trkpt lat="29.5675498" lon="103.4203205"><ele>841.34</ele><time>2026-06-12T14:46:36.000Z</time></trkpt>
        <trkpt lat="29.5675975" lon="103.4203076"><ele>843.17</ele><time>2026-06-12T14:46:48.000Z</time></trkpt>
        <trkpt lat="29.5676422" lon="103.4202821"><ele>844.43</ele><time>2026-06-12T14:46:58.000Z</time></trkpt>
        <trkpt lat="29.5676832" lon="103.4202494"><ele>845.92</ele><time>2026-06-12T14:47:06.000Z</time></trkpt>
        <trkpt lat="29.5677316" lon="103.4202184"><ele>847.59</ele><time>2026-06-12T14:47:21.000Z</time></trkpt>
        <trkpt lat="29.5677769" lon="103.4201888"><ele>849.87</ele><time>2026-06-12T14:47:29.000Z</time></trkpt>
        <trkpt lat="29.5678193" lon="103.4201587"><ele>851.78</ele><time>2026-06-12T14:47:41.000Z</time></trkpt>
        <trkpt lat="29.5678696" lon="103.4201411"><ele>854.24</ele><time>2026-06-12T14:47:49.000Z</time></trkpt>
        <trkpt lat="29.5679179" lon="103.4201318"><ele>856.33</ele><time>2026-06-12T14:48:05.000Z</time></trkpt>
        <trkpt lat="29.5679601" lon="103.4200924"><ele>858.04</ele><time>2026-06-12T14:48:11.000Z</time></trkpt>
        <trkpt lat="29.5680088" lon="103.42007"><ele>859.27</ele><time>2026-06-12T14:48:18.000Z</time></trkpt>
        <trkpt lat="29.5680602" lon="103.4200512"><ele>860.66</ele><time>2026-06-12T14:48:28.000Z</time></trkpt>
        <trkpt lat="29.5681148" lon="103.4200398"><ele>861.92</ele><time>2026-06-12T14:48:48.000Z</time></trkpt>
        <trkpt lat="29.5681641" lon="103.4200319"><ele>863.94</ele><time>2026-06-12T14:48:54.000Z</time></trkpt>
        <trkpt lat="29.5682099" lon="103.4200411"><ele>865.55</ele><time>2026-06-12T14:49:13.000Z</time></trkpt>
        <trkpt lat="29.5682545" lon="103.4200346"><ele>867.55</ele><time>2026-06-12T14:49:19.000Z</time></trkpt>
        <trkpt lat="29.5683028" lon="103.4200301"><ele>868.86</ele><time>2026-06-12T14:49:33.000Z</time></trkpt>
        <trkpt lat="29.5683513" lon="103.4200264"><ele>870</ele><time>2026-06-12T14:49:49.000Z</time></trkpt>
        <trkpt lat="29.5683985" lon="103.4200369"><ele>871.38</ele><time>2026-06-12T14:50:05.000Z</time></trkpt>
        <trkpt lat="29.5684465" lon="103.4200424"><ele>873.88</ele><time>2026-06-12T14:50:16.000Z</time></trkpt>
        <trkpt lat="29.5684961" lon="103.4200341"><ele>876.51</ele><time>2026-06-12T14:50:38.000Z</time></trkpt>
        <trkpt lat="29.5685499" lon="103.4200368"><ele>879.73</ele><time>2026-06-12T14:50:54.000Z</time></trkpt>
        <trkpt lat="29.5685802" lon="103.4200731"><ele>882.43</ele><time>2026-06-12T14:51:06.000Z</time></trkpt>
        <trkpt lat="29.5685802" lon="103.4200731"><ele>882.43</ele><time>2026-06-12T14:51:36.000Z</time></trkpt>
        <trkpt lat="29.5685802" lon="103.4200731"><ele>882.43</ele><time>2026-06-12T14:51:50.000Z</time></trkpt>
        <trkpt lat="29.5685802" lon="103.4200731"><ele>882.43</ele><time>2026-06-12T14:52:54.000Z</time></trkpt>
        <trkpt lat="29.5685317" lon="103.4201117"><ele>884.52</ele><time>2026-06-12T14:53:40.000Z</time></trkpt>
        <trkpt lat="29.5685317" lon="103.4201117"><ele>884.52</ele><time>2026-06-12T14:53:41.000Z</time></trkpt>
        <trkpt lat="29.5685317" lon="103.4201117"><ele>884.52</ele><time>2026-06-12T14:54:46.000Z</time></trkpt>
        <trkpt lat="29.5685317" lon="103.4201117"><ele>884.52</ele><time>2026-06-12T14:56:02.000Z</time></trkpt>
        <trkpt lat="29.5685317" lon="103.4201117"><ele>884.52</ele><time>2026-06-12T14:56:34.000Z</time></trkpt>
        <trkpt lat="29.56857" lon="103.4200833"><ele>887.27</ele><time>2026-06-12T14:59:44.000Z</time></trkpt>
        <trkpt lat="29.56857" lon="103.4200833"><ele>887.27</ele><time>2026-06-12T14:59:51.000Z</time></trkpt>
        <trkpt lat="29.5685217" lon="103.4201033"><ele>889.04</ele><time>2026-06-12T15:00:31.000Z</time></trkpt>
        <trkpt lat="29.5685217" lon="103.4201033"><ele>889.04</ele><time>2026-06-12T15:01:14.000Z</time></trkpt>
        <trkpt lat="29.568575" lon="103.42007"><ele>890.36</ele><time>2026-06-12T15:14:16.000Z</time></trkpt>
        <trkpt lat="29.568575" lon="103.42007"><ele>890.36</ele><time>2026-06-12T15:14:21.000Z</time></trkpt>
        <trkpt lat="29.5686217" lon="103.4200467"><ele>889.34</ele><time>2026-06-12T15:14:27.000Z</time></trkpt>
        <trkpt lat="29.5686712" lon="103.4200304"><ele>888.46</ele><time>2026-06-12T15:14:33.000Z</time></trkpt>
        <trkpt lat="29.5687263" lon="103.4200115"><ele>888.18</ele><time>2026-06-12T15:14:39.000Z</time></trkpt>
        <trkpt lat="29.5687744" lon="103.4199968"><ele>888.27</ele><time>2026-06-12T15:14:43.000Z</time></trkpt>
        <trkpt lat="29.5688323" lon="103.4199799"><ele>888.59</ele><time>2026-06-12T15:14:49.000Z</time></trkpt>
        <trkpt lat="29.568884" lon="103.419952"><ele>888.98</ele><time>2026-06-12T15:14:55.000Z</time></trkpt>
        <trkpt lat="29.5689292" lon="103.4199224"><ele>889.55</ele><time>2026-06-12T15:15:01.000Z</time></trkpt>
        <trkpt lat="29.5689833" lon="103.4198942"><ele>890.26</ele><time>2026-06-12T15:15:07.000Z</time></trkpt>
        <trkpt lat="29.5690325" lon="103.4198806"><ele>890.92</ele><time>2026-06-12T15:15:11.000Z</time></trkpt>
        <trkpt lat="29.5690795" lon="103.419865"><ele>891.86</ele><time>2026-06-12T15:15:15.000Z</time></trkpt>
        <trkpt lat="29.5691233" lon="103.4198442"><ele>892.31</ele><time>2026-06-12T15:15:19.000Z</time></trkpt>
        <trkpt lat="29.5691662" lon="103.4198049"><ele>892.86</ele><time>2026-06-12T15:15:23.000Z</time></trkpt>
        <trkpt lat="29.5692127" lon="103.4197603"><ele>893.78</ele><time>2026-06-12T15:15:27.000Z</time></trkpt>
        <trkpt lat="29.5692546" lon="103.419726"><ele>895.21</ele><time>2026-06-12T15:15:31.000Z</time></trkpt>
        <trkpt lat="29.5692984" lon="103.4196964"><ele>896.75</ele><time>2026-06-12T15:15:37.000Z</time></trkpt>
        <trkpt lat="29.5693468" lon="103.419681"><ele>898.11</ele><time>2026-06-12T15:15:43.000Z</time></trkpt>
        <trkpt lat="29.5693982" lon="103.4196541"><ele>898.88</ele><time>2026-06-12T15:15:49.000Z</time></trkpt>
        <trkpt lat="29.5694442" lon="103.4196158"><ele>899.19</ele><time>2026-06-12T15:15:53.000Z</time></trkpt>
        <trkpt lat="29.5694891" lon="103.4195723"><ele>898.63</ele><time>2026-06-12T15:15:57.000Z</time></trkpt>
        <trkpt lat="29.5695263" lon="103.4195213"><ele>897.63</ele><time>2026-06-12T15:16:01.000Z</time></trkpt>
        <trkpt lat="29.5695545" lon="103.4194719"><ele>896.8</ele><time>2026-06-12T15:16:05.000Z</time></trkpt>
        <trkpt lat="29.5696038" lon="103.4194502"><ele>895.9</ele><time>2026-06-12T15:16:10.000Z</time></trkpt>
        <trkpt lat="29.5696489" lon="103.4194251"><ele>894.78</ele><time>2026-06-12T15:16:15.000Z</time></trkpt>
        <trkpt lat="29.5697031" lon="103.4194363"><ele>892.85</ele><time>2026-06-12T15:16:31.000Z</time></trkpt>
        <trkpt lat="29.5697617" lon="103.4194339"><ele>889.13</ele><time>2026-06-12T15:16:39.000Z</time></trkpt>
        <trkpt lat="29.5698275" lon="103.4194844"><ele>888.13</ele><time>2026-06-12T15:16:45.000Z</time></trkpt>
        <trkpt lat="29.5698516" lon="103.4195524"><ele>887.86</ele><time>2026-06-12T15:16:49.000Z</time></trkpt>
        <trkpt lat="29.5698848" lon="103.419595"><ele>887.79</ele><time>2026-06-12T15:16:55.000Z</time></trkpt>
        <trkpt lat="29.5699383" lon="103.4195768"><ele>888.05</ele><time>2026-06-12T15:17:06.000Z</time></trkpt>
        <trkpt lat="29.5699383" lon="103.4195768"><ele>888.05</ele><time>2026-06-12T15:17:10.000Z</time></trkpt>
        <trkpt lat="29.5696344" lon="103.4194695"><ele>889.19</ele><time>2026-06-12T15:23:58.000Z</time></trkpt>
        <trkpt lat="29.5696344" lon="103.4194695"><ele>889.19</ele><time>2026-06-12T15:24:04.000Z</time></trkpt>
        <trkpt lat="29.5696019" lon="103.4194341"><ele>888.89</ele><time>2026-06-12T15:24:14.000Z</time></trkpt>
        <trkpt lat="29.5696265" lon="103.4193855"><ele>889.58</ele><time>2026-06-12T15:24:18.000Z</time></trkpt>
        <trkpt lat="29.5696741" lon="103.4193378"><ele>888.86</ele><time>2026-06-12T15:24:22.000Z</time></trkpt>
        <trkpt lat="29.5697239" lon="103.419278"><ele>886.68</ele><time>2026-06-12T15:24:27.000Z</time></trkpt>
        <trkpt lat="29.5697426" lon="103.4192133"><ele>884.32</ele><time>2026-06-12T15:24:36.000Z</time></trkpt>
        <trkpt lat="29.5697376" lon="103.4191467"><ele>881.6</ele><time>2026-06-12T15:24:40.000Z</time></trkpt>
        <trkpt lat="29.5697343" lon="103.4190776"><ele>879.28</ele><time>2026-06-12T15:24:44.000Z</time></trkpt>
        <trkpt lat="29.5697295" lon="103.4190207"><ele>877.65</ele><time>2026-06-12T15:24:48.000Z</time></trkpt>
        <trkpt lat="29.5697285" lon="103.4189636"><ele>876.77</ele><time>2026-06-12T15:24:52.000Z</time></trkpt>
        <trkpt lat="29.5697383" lon="103.4189023"><ele>876.48</ele><time>2026-06-12T15:24:56.000Z</time></trkpt>
        <trkpt lat="29.5697519" lon="103.4188405"><ele>876.75</ele><time>2026-06-12T15:25:00.000Z</time></trkpt>
        <trkpt lat="29.5697589" lon="103.4187736"><ele>877.89</ele><time>2026-06-12T15:25:04.000Z</time></trkpt>
        <trkpt lat="29.5697742" lon="103.4187075"><ele>879.18</ele><time>2026-06-12T15:25:08.000Z</time></trkpt>
        <trkpt lat="29.5697889" lon="103.4186494"><ele>880.09</ele><time>2026-06-12T15:25:12.000Z</time></trkpt>
        <trkpt lat="29.5698067" lon="103.4185907"><ele>881.17</ele><time>2026-06-12T15:25:16.000Z</time></trkpt>
        <trkpt lat="29.569828" lon="103.4185276"><ele>882.3</ele><time>2026-06-12T15:25:20.000Z</time></trkpt>
        <trkpt lat="29.5698352" lon="103.418449"><ele>883.38</ele><time>2026-06-12T15:25:26.000Z</time></trkpt>
        <trkpt lat="29.5698483" lon="103.4183761"><ele>884.16</ele><time>2026-06-12T15:25:30.000Z</time></trkpt>
        <trkpt lat="29.5698503" lon="103.4183175"><ele>884.78</ele><time>2026-06-12T15:25:34.000Z</time></trkpt>
        <trkpt lat="29.569857" lon="103.4182618"><ele>883.67</ele><time>2026-06-12T15:25:38.000Z</time></trkpt>
        <trkpt lat="29.569841" lon="103.4182028"><ele>882.56</ele><time>2026-06-12T15:25:42.000Z</time></trkpt>
        <trkpt lat="29.5698381" lon="103.4181394"><ele>881.42</ele><time>2026-06-12T15:25:46.000Z</time></trkpt>
        <trkpt lat="29.5698575" lon="103.4180832"><ele>880.38</ele><time>2026-06-12T15:25:50.000Z</time></trkpt>
        <trkpt lat="29.5698963" lon="103.4180336"><ele>879.66</ele><time>2026-06-12T15:25:54.000Z</time></trkpt>
        <trkpt lat="29.5699421" lon="103.417986"><ele>879.03</ele><time>2026-06-12T15:25:58.000Z</time></trkpt>
        <trkpt lat="29.5699713" lon="103.4179362"><ele>878.67</ele><time>2026-06-12T15:26:02.000Z</time></trkpt>
        <trkpt lat="29.5699856" lon="103.4178726"><ele>878.21</ele><time>2026-06-12T15:26:06.000Z</time></trkpt>
        <trkpt lat="29.5699922" lon="103.4178077"><ele>877.69</ele><time>2026-06-12T15:26:10.000Z</time></trkpt>
        <trkpt lat="29.5699982" lon="103.4177355"><ele>877.22</ele><time>2026-06-12T15:26:14.000Z</time></trkpt>
        <trkpt lat="29.5700211" lon="103.4176674"><ele>876.39</ele><time>2026-06-12T15:26:18.000Z</time></trkpt>
        <trkpt lat="29.5700457" lon="103.4176126"><ele>875.75</ele><time>2026-06-12T15:26:22.000Z</time></trkpt>
        <trkpt lat="29.570039" lon="103.4175566"><ele>875.39</ele><time>2026-06-12T15:26:26.000Z</time></trkpt>
        <trkpt lat="29.5700341" lon="103.4175007"><ele>875.18</ele><time>2026-06-12T15:26:30.000Z</time></trkpt>
        <trkpt lat="29.5700265" lon="103.4174396"><ele>875.23</ele><time>2026-06-12T15:26:34.000Z</time></trkpt>
        <trkpt lat="29.5700235" lon="103.4173676"><ele>875.73</ele><time>2026-06-12T15:26:38.000Z</time></trkpt>
        <trkpt lat="29.5700377" lon="103.4172931"><ele>876.28</ele><time>2026-06-12T15:26:42.000Z</time></trkpt>
        <trkpt lat="29.570062" lon="103.4172096"><ele>876.89</ele><time>2026-06-12T15:26:46.000Z</time></trkpt>
        <trkpt lat="29.5700665" lon="103.4171472"><ele>877.07</ele><time>2026-06-12T15:26:50.000Z</time></trkpt>
        <trkpt lat="29.5700866" lon="103.4170831"><ele>876.65</ele><time>2026-06-12T15:26:54.000Z</time></trkpt>
        <trkpt lat="29.5701316" lon="103.4170378"><ele>876.03</ele><time>2026-06-12T15:26:58.000Z</time></trkpt>
        <trkpt lat="29.5701964" lon="103.4170191"><ele>876.06</ele><time>2026-06-12T15:27:02.000Z</time></trkpt>
        <trkpt lat="29.5702706" lon="103.4170026"><ele>875.95</ele><time>2026-06-12T15:27:06.000Z</time></trkpt>
        <trkpt lat="29.5703387" lon="103.4170023"><ele>875.41</ele><time>2026-06-12T15:27:10.000Z</time></trkpt>
        <trkpt lat="29.5703742" lon="103.4169555"><ele>874.5</ele><time>2026-06-12T15:27:20.000Z</time></trkpt>
        <trkpt lat="29.5703798" lon="103.4169001"><ele>873.13</ele><time>2026-06-12T15:27:24.000Z</time></trkpt>
        <trkpt lat="29.5703672" lon="103.4168332"><ele>872.08</ele><time>2026-06-12T15:27:28.000Z</time></trkpt>
        <trkpt lat="29.5703604" lon="103.4167536"><ele>871.27</ele><time>2026-06-12T15:27:32.000Z</time></trkpt>
        <trkpt lat="29.5703581" lon="103.4166794"><ele>870.94</ele><time>2026-06-12T15:27:36.000Z</time></trkpt>
        <trkpt lat="29.5703595" lon="103.4166124"><ele>871.22</ele><time>2026-06-12T15:27:40.000Z</time></trkpt>
        <trkpt lat="29.5703701" lon="103.4165472"><ele>871.86</ele><time>2026-06-12T15:27:44.000Z</time></trkpt>
        <trkpt lat="29.5703676" lon="103.4164801"><ele>872.61</ele><time>2026-06-12T15:27:48.000Z</time></trkpt>
        <trkpt lat="29.5703786" lon="103.416417"><ele>873.12</ele><time>2026-06-12T15:27:52.000Z</time></trkpt>
        <trkpt lat="29.5703799" lon="103.4163467"><ele>873.24</ele><time>2026-06-12T15:27:58.000Z</time></trkpt>
        <trkpt lat="29.5703709" lon="103.4162885"><ele>873.01</ele><time>2026-06-12T15:28:02.000Z</time></trkpt>
        <trkpt lat="29.5703559" lon="103.4162289"><ele>872.19</ele><time>2026-06-12T15:28:06.000Z</time></trkpt>
        <trkpt lat="29.5703757" lon="103.4161831"><ele>870.99</ele><time>2026-06-12T15:28:10.000Z</time></trkpt>
        <trkpt lat="29.570434" lon="103.4161485"><ele>869.66</ele><time>2026-06-12T15:28:14.000Z</time></trkpt>
        <trkpt lat="29.570491" lon="103.4161347"><ele>869.25</ele><time>2026-06-12T15:28:16.000Z</time></trkpt>
        <trkpt lat="29.570546" lon="103.4161124"><ele>869.31</ele><time>2026-06-12T15:28:20.000Z</time></trkpt>
        <trkpt lat="29.5705948" lon="103.4160902"><ele>869.48</ele><time>2026-06-12T15:28:26.000Z</time></trkpt>
        <trkpt lat="29.5706434" lon="103.4160702"><ele>869.49</ele><time>2026-06-12T15:28:32.000Z</time></trkpt>
        <trkpt lat="29.5706855" lon="103.4160382"><ele>869.88</ele><time>2026-06-12T15:28:42.000Z</time></trkpt>
        <trkpt lat="29.570714" lon="103.4159953"><ele>871.09</ele><time>2026-06-12T15:28:50.000Z</time></trkpt>
        <trkpt lat="29.5706953" lon="103.4159352"><ele>873.12</ele><time>2026-06-12T15:29:04.000Z</time></trkpt>
        <trkpt lat="29.5706753" lon="103.4158784"><ele>875.86</ele><time>2026-06-12T15:29:08.000Z</time></trkpt>
        <trkpt lat="29.5706429" lon="103.4158355"><ele>877.08</ele><time>2026-06-12T15:29:12.000Z</time></trkpt>
        <trkpt lat="29.5705977" lon="103.4157933"><ele>877.56</ele><time>2026-06-12T15:29:16.000Z</time></trkpt>
        <trkpt lat="29.5705456" lon="103.4157734"><ele>877.67</ele><time>2026-06-12T15:29:20.000Z</time></trkpt>
        <trkpt lat="29.5704787" lon="103.4157576"><ele>877.81</ele><time>2026-06-12T15:29:26.000Z</time></trkpt>
        <trkpt lat="29.5704315" lon="103.4157144"><ele>878.02</ele><time>2026-06-12T15:29:30.000Z</time></trkpt>
        <trkpt lat="29.5704016" lon="103.4156664"><ele>878.18</ele><time>2026-06-12T15:29:34.000Z</time></trkpt>
        <trkpt lat="29.5703627" lon="103.4156027"><ele>878.06</ele><time>2026-06-12T15:29:38.000Z</time></trkpt>
        <trkpt lat="29.570327" lon="103.4155591"><ele>878.21</ele><time>2026-06-12T15:29:42.000Z</time></trkpt>
        <trkpt lat="29.5702885" lon="103.4155304"><ele>878.68</ele><time>2026-06-12T15:29:46.000Z</time></trkpt>
        <trkpt lat="29.5702413" lon="103.4155255"><ele>879.55</ele><time>2026-06-12T15:29:50.000Z</time></trkpt>
        <trkpt lat="29.5701922" lon="103.4155307"><ele>880.56</ele><time>2026-06-12T15:29:54.000Z</time></trkpt>
        <trkpt lat="29.5701354" lon="103.4155353"><ele>881.95</ele><time>2026-06-12T15:30:00.000Z</time></trkpt>
        <trkpt lat="29.5700861" lon="103.4155393"><ele>883.69</ele><time>2026-06-12T15:30:04.000Z</time></trkpt>
        <trkpt lat="29.5700403" lon="103.4155261"><ele>885.12</ele><time>2026-06-12T15:30:08.000Z</time></trkpt>
        <trkpt lat="29.5700031" lon="103.4154762"><ele>886.36</ele><time>2026-06-12T15:30:12.000Z</time></trkpt>
        <trkpt lat="29.5699588" lon="103.4154336"><ele>887.58</ele><time>2026-06-12T15:30:16.000Z</time></trkpt>
        <trkpt lat="29.5699288" lon="103.4153761"><ele>889.01</ele><time>2026-06-12T15:30:20.000Z</time></trkpt>
        <trkpt lat="29.5699167" lon="103.415309"><ele>890.73</ele><time>2026-06-12T15:30:24.000Z</time></trkpt>
        <trkpt lat="29.5698991" lon="103.4152446"><ele>892.82</ele><time>2026-06-12T15:30:28.000Z</time></trkpt>
        <trkpt lat="29.5698856" lon="103.4151825"><ele>894.28</ele><time>2026-06-12T15:30:32.000Z</time></trkpt>
        <trkpt lat="29.5698795" lon="103.4151179"><ele>895.19</ele><time>2026-06-12T15:30:36.000Z</time></trkpt>
        <trkpt lat="29.5698843" lon="103.4150551"><ele>895.8</ele><time>2026-06-12T15:30:40.000Z</time></trkpt>
        <trkpt lat="29.5698775" lon="103.4149868"><ele>896.01</ele><time>2026-06-12T15:30:44.000Z</time></trkpt>
        <trkpt lat="29.5698655" lon="103.4149229"><ele>895.88</ele><time>2026-06-12T15:30:48.000Z</time></trkpt>
        <trkpt lat="29.5698204" lon="103.4148733"><ele>895.89</ele><time>2026-06-12T15:30:54.000Z</time></trkpt>
        <trkpt lat="29.5697636" lon="103.414834"><ele>895.25</ele><time>2026-06-12T15:30:58.000Z</time></trkpt>
        <trkpt lat="29.5697071" lon="103.4147938"><ele>894.41</ele><time>2026-06-12T15:31:02.000Z</time></trkpt>
        <trkpt lat="29.569656" lon="103.414751"><ele>893.5</ele><time>2026-06-12T15:31:06.000Z</time></trkpt>
        <trkpt lat="29.5695979" lon="103.4147331"><ele>892.47</ele><time>2026-06-12T15:31:12.000Z</time></trkpt>
        <trkpt lat="29.5695373" lon="103.4147316"><ele>890.93</ele><time>2026-06-12T15:31:16.000Z</time></trkpt>
        <trkpt lat="29.5694876" lon="103.4147536"><ele>889.33</ele><time>2026-06-12T15:31:20.000Z</time></trkpt>
        <trkpt lat="29.5694373" lon="103.4147812"><ele>887.9</ele><time>2026-06-12T15:31:24.000Z</time></trkpt>
        <trkpt lat="29.5693851" lon="103.4148112"><ele>886.87</ele><time>2026-06-12T15:31:27.000Z</time></trkpt>
        <trkpt lat="29.5693357" lon="103.4148419"><ele>886.75</ele><time>2026-06-12T15:31:36.000Z</time></trkpt>
        <trkpt lat="29.5692725" lon="103.4148381"><ele>887.46</ele><time>2026-06-12T15:31:40.000Z</time></trkpt>
        <trkpt lat="29.5692265" lon="103.4148087"><ele>887.26</ele><time>2026-06-12T15:31:44.000Z</time></trkpt>
        <trkpt lat="29.5692113" lon="103.4147565"><ele>886.55</ele><time>2026-06-12T15:31:48.000Z</time></trkpt>
        <trkpt lat="29.5692155" lon="103.4147307"><ele>885.58</ele><time>2026-06-12T15:32:00.000Z</time></trkpt>
        <trkpt lat="29.5691848" lon="103.4146971"><ele>884.9</ele><time>2026-06-12T15:32:24.000Z</time></trkpt>
        <trkpt lat="29.5691491" lon="103.414663"><ele>884.17</ele><time>2026-06-12T15:32:28.000Z</time></trkpt>
        <trkpt lat="29.56912" lon="103.4146039"><ele>884.05</ele><time>2026-06-12T15:32:32.000Z</time></trkpt>
        <trkpt lat="29.569099" lon="103.4145423"><ele>884.33</ele><time>2026-06-12T15:32:36.000Z</time></trkpt>
        <trkpt lat="29.5690772" lon="103.4144874"><ele>884.62</ele><time>2026-06-12T15:32:40.000Z</time></trkpt>
        <trkpt lat="29.5690747" lon="103.4144259"><ele>885.13</ele><time>2026-06-12T15:32:44.000Z</time></trkpt>
        <trkpt lat="29.5690815" lon="103.4143659"><ele>885.5</ele><time>2026-06-12T15:32:48.000Z</time></trkpt>
        <trkpt lat="29.5690931" lon="103.4142905"><ele>885.72</ele><time>2026-06-12T15:32:52.000Z</time></trkpt>
        <trkpt lat="29.5690991" lon="103.4142135"><ele>885.84</ele><time>2026-06-12T15:32:58.000Z</time></trkpt>
        <trkpt lat="29.5690959" lon="103.4141493"><ele>885.48</ele><time>2026-06-12T15:33:02.000Z</time></trkpt>
        <trkpt lat="29.5690854" lon="103.4140778"><ele>884.93</ele><time>2026-06-12T15:33:06.000Z</time></trkpt>
        <trkpt lat="29.5690903" lon="103.4140095"><ele>884.14</ele><time>2026-06-12T15:33:09.000Z</time></trkpt>
        <trkpt lat="29.5691201" lon="103.4139476"><ele>883.09</ele><time>2026-06-12T15:33:14.000Z</time></trkpt>
        <trkpt lat="29.5691473" lon="103.4138868"><ele>882.84</ele><time>2026-06-12T15:33:18.000Z</time></trkpt>
        <trkpt lat="29.5691518" lon="103.4138296"><ele>883.38</ele><time>2026-06-12T15:33:22.000Z</time></trkpt>
        <trkpt lat="29.5691286" lon="103.4137798"><ele>884.38</ele><time>2026-06-12T15:33:26.000Z</time></trkpt>
        <trkpt lat="29.5691036" lon="103.4137323"><ele>885.38</ele><time>2026-06-12T15:33:30.000Z</time></trkpt>
        <trkpt lat="29.5690761" lon="103.4136739"><ele>886.16</ele><time>2026-06-12T15:33:34.000Z</time></trkpt>
        <trkpt lat="29.5690515" lon="103.413621"><ele>886.56</ele><time>2026-06-12T15:33:37.000Z</time></trkpt>
        <trkpt lat="29.569031" lon="103.413563"><ele>886.8</ele><time>2026-06-12T15:33:42.000Z</time></trkpt>
        <trkpt lat="29.5690174" lon="103.4135055"><ele>887.18</ele><time>2026-06-12T15:33:46.000Z</time></trkpt>
        <trkpt lat="29.5690174" lon="103.4134485"><ele>887.54</ele><time>2026-06-12T15:33:50.000Z</time></trkpt>
        <trkpt lat="29.5690258" lon="103.4133854"><ele>887.82</ele><time>2026-06-12T15:33:54.000Z</time></trkpt>
        <trkpt lat="29.5690349" lon="103.4133176"><ele>887.94</ele><time>2026-06-12T15:33:58.000Z</time></trkpt>
        <trkpt lat="29.5690359" lon="103.4132548"><ele>887.88</ele><time>2026-06-12T15:34:02.000Z</time></trkpt>
        <trkpt lat="29.5690371" lon="103.4131929"><ele>887.67</ele><time>2026-06-12T15:34:06.000Z</time></trkpt>
        <trkpt lat="29.5690623" lon="103.4131238"><ele>887.08</ele><time>2026-06-12T15:34:12.000Z</time></trkpt>
        <trkpt lat="29.5691038" lon="103.4130758"><ele>886.36</ele><time>2026-06-12T15:34:16.000Z</time></trkpt>
        <trkpt lat="29.5691313" lon="103.4130109"><ele>885.65</ele><time>2026-06-12T15:34:20.000Z</time></trkpt>
        <trkpt lat="29.5691633" lon="103.4129512"><ele>884.85</ele><time>2026-06-12T15:34:26.000Z</time></trkpt>
        <trkpt lat="29.5691919" lon="103.4129015"><ele>883.8</ele><time>2026-06-12T15:34:30.000Z</time></trkpt>
        <trkpt lat="29.5692252" lon="103.4128578"><ele>883.11</ele><time>2026-06-12T15:34:34.000Z</time></trkpt>
        <trkpt lat="29.5692666" lon="103.4128145"><ele>882.46</ele><time>2026-06-12T15:34:38.000Z</time></trkpt>
        <trkpt lat="29.5693094" lon="103.4127707"><ele>881.57</ele><time>2026-06-12T15:34:42.000Z</time></trkpt>
        <trkpt lat="29.5693596" lon="103.4127326"><ele>880.64</ele><time>2026-06-12T15:34:46.000Z</time></trkpt>
        <trkpt lat="29.5694022" lon="103.4126851"><ele>879.72</ele><time>2026-06-12T15:34:52.000Z</time></trkpt>
        <trkpt lat="29.5693926" lon="103.4126289"><ele>878.59</ele><time>2026-06-12T15:34:57.000Z</time></trkpt>
        <trkpt lat="29.569369" lon="103.4125609"><ele>877.91</ele><time>2026-06-12T15:35:04.000Z</time></trkpt>
        <trkpt lat="29.5693845" lon="103.4124868"><ele>877.34</ele><time>2026-06-12T15:35:09.000Z</time></trkpt>
        <trkpt lat="29.5693577" lon="103.4124127"><ele>876.77</ele><time>2026-06-12T15:35:18.000Z</time></trkpt>
        <trkpt lat="29.5693196" lon="103.4123383"><ele>874.8</ele><time>2026-06-12T15:35:22.000Z</time></trkpt>
        <trkpt lat="29.5693293" lon="103.4122753"><ele>873.47</ele><time>2026-06-12T15:35:26.000Z</time></trkpt>
        <trkpt lat="29.5693417" lon="103.4122119"><ele>872.62</ele><time>2026-06-12T15:35:34.000Z</time></trkpt>
        <trkpt lat="29.5693058" lon="103.4121841"><ele>871.71</ele><time>2026-06-12T15:35:44.000Z</time></trkpt>
        <trkpt lat="29.5692474" lon="103.4121816"><ele>870.72</ele><time>2026-06-12T15:35:52.000Z</time></trkpt>
        <trkpt lat="29.5691929" lon="103.4121963"><ele>869.63</ele><time>2026-06-12T15:35:56.000Z</time></trkpt>
        <trkpt lat="29.5691433" lon="103.4122036"><ele>868.67</ele><time>2026-06-12T15:36:00.000Z</time></trkpt>
        <trkpt lat="29.5690966" lon="103.4122083"><ele>867.91</ele><time>2026-06-12T15:36:04.000Z</time></trkpt>
        <trkpt lat="29.5690374" lon="103.412175"><ele>867.26</ele><time>2026-06-12T15:36:10.000Z</time></trkpt>
        <trkpt lat="29.5689912" lon="103.41212"><ele>866.33</ele><time>2026-06-12T15:36:16.000Z</time></trkpt>
        <trkpt lat="29.5689416" lon="103.4120904"><ele>865.24</ele><time>2026-06-12T15:36:20.000Z</time></trkpt>
        <trkpt lat="29.5689118" lon="103.4120371"><ele>864.54</ele><time>2026-06-12T15:36:24.000Z</time></trkpt>
        <trkpt lat="29.5688816" lon="103.411975"><ele>864.05</ele><time>2026-06-12T15:36:28.000Z</time></trkpt>
        <trkpt lat="29.568859" lon="103.4119222"><ele>863.47</ele><time>2026-06-12T15:36:32.000Z</time></trkpt>
        <trkpt lat="29.5688336" lon="103.4118713"><ele>862.62</ele><time>2026-06-12T15:36:36.000Z</time></trkpt>
        <trkpt lat="29.5687777" lon="103.4118513"><ele>861.32</ele><time>2026-06-12T15:36:42.000Z</time></trkpt>
        <trkpt lat="29.5687142" lon="103.4118512"><ele>858.73</ele><time>2026-06-12T15:36:46.000Z</time></trkpt>
        <trkpt lat="29.5686531" lon="103.4118442"><ele>856.4</ele><time>2026-06-12T15:36:52.000Z</time></trkpt>
        <trkpt lat="29.5686031" lon="103.4118402"><ele>853.95</ele><time>2026-06-12T15:36:56.000Z</time></trkpt>
        <trkpt lat="29.5685662" lon="103.4118127"><ele>851.86</ele><time>2026-06-12T15:37:00.000Z</time></trkpt>
        <trkpt lat="29.5685289" lon="103.4117812"><ele>850.42</ele><time>2026-06-12T15:37:06.000Z</time></trkpt>
        <trkpt lat="29.5684968" lon="103.4117405"><ele>849.12</ele><time>2026-06-12T15:37:10.000Z</time></trkpt>
        <trkpt lat="29.5684687" lon="103.4116871"><ele>848.16</ele><time>2026-06-12T15:37:14.000Z</time></trkpt>
        <trkpt lat="29.5684427" lon="103.4116363"><ele>847.19</ele><time>2026-06-12T15:37:18.000Z</time></trkpt>
        <trkpt lat="29.5684045" lon="103.4116"><ele>845.99</ele><time>2026-06-12T15:37:22.000Z</time></trkpt>
        <trkpt lat="29.5683702" lon="103.4115609"><ele>844.75</ele><time>2026-06-12T15:37:26.000Z</time></trkpt>
        <trkpt lat="29.5683691" lon="103.4115013"><ele>843.95</ele><time>2026-06-12T15:37:30.000Z</time></trkpt>
        <trkpt lat="29.5683902" lon="103.4114367"><ele>843.24</ele><time>2026-06-12T15:37:34.000Z</time></trkpt>
        <trkpt lat="29.5684126" lon="103.4113688"><ele>842.88</ele><time>2026-06-12T15:37:38.000Z</time></trkpt>
        <trkpt lat="29.5684346" lon="103.4113105"><ele>842.72</ele><time>2026-06-12T15:37:42.000Z</time></trkpt>
        <trkpt lat="29.5684551" lon="103.4112501"><ele>842.75</ele><time>2026-06-12T15:37:46.000Z</time></trkpt>
        <trkpt lat="29.5684783" lon="103.4111912"><ele>843.29</ele><time>2026-06-12T15:37:50.000Z</time></trkpt>
        <trkpt lat="29.568506" lon="103.4111316"><ele>843.85</ele><time>2026-06-12T15:37:54.000Z</time></trkpt>
        <trkpt lat="29.5685174" lon="103.4110617"><ele>844.26</ele><time>2026-06-12T15:37:58.000Z</time></trkpt>
        <trkpt lat="29.5685314" lon="103.4109868"><ele>844.32</ele><time>2026-06-12T15:38:04.000Z</time></trkpt>
        <trkpt lat="29.5685456" lon="103.4109219"><ele>843.71</ele><time>2026-06-12T15:38:08.000Z</time></trkpt>
        <trkpt lat="29.5685665" lon="103.4108624"><ele>842.8</ele><time>2026-06-12T15:38:12.000Z</time></trkpt>
        <trkpt lat="29.5685798" lon="103.4108035"><ele>841.68</ele><time>2026-06-12T15:38:16.000Z</time></trkpt>
        <trkpt lat="29.5685951" lon="103.410753"><ele>840.53</ele><time>2026-06-12T15:38:20.000Z</time></trkpt>
        <trkpt lat="29.5686177" lon="103.4106992"><ele>839.61</ele><time>2026-06-12T15:38:24.000Z</time></trkpt>
        <trkpt lat="29.5686341" lon="103.4106435"><ele>838.58</ele><time>2026-06-12T15:38:28.000Z</time></trkpt>
        <trkpt lat="29.5686442" lon="103.4105895"><ele>837.64</ele><time>2026-06-12T15:38:32.000Z</time></trkpt>
        <trkpt lat="29.5686458" lon="103.4105324"><ele>837.02</ele><time>2026-06-12T15:38:36.000Z</time></trkpt>
        <trkpt lat="29.568641" lon="103.4104666"><ele>836.45</ele><time>2026-06-12T15:38:40.000Z</time></trkpt>
        <trkpt lat="29.568637" lon="103.410399"><ele>835.83</ele><time>2026-06-12T15:38:44.000Z</time></trkpt>
        <trkpt lat="29.5686303" lon="103.4103325"><ele>835.13</ele><time>2026-06-12T15:38:48.000Z</time></trkpt>
        <trkpt lat="29.5686242" lon="103.4102719"><ele>834.26</ele><time>2026-06-12T15:38:52.000Z</time></trkpt>
        <trkpt lat="29.5686211" lon="103.410206"><ele>833.29</ele><time>2026-06-12T15:38:56.000Z</time></trkpt>
        <trkpt lat="29.568623" lon="103.4101442"><ele>832.52</ele><time>2026-06-12T15:39:00.000Z</time></trkpt>
        <trkpt lat="29.5686142" lon="103.410079"><ele>831.95</ele><time>2026-06-12T15:39:04.000Z</time></trkpt>
        <trkpt lat="29.5686149" lon="103.4100488"><ele>831.37</ele><time>2026-06-12T15:39:16.000Z</time></trkpt>
        <trkpt lat="29.5685819" lon="103.4100064"><ele>830.87</ele><time>2026-06-12T15:39:24.000Z</time></trkpt>
        <trkpt lat="29.5685425" lon="103.4099577"><ele>830.28</ele><time>2026-06-12T15:39:28.000Z</time></trkpt>
        <trkpt lat="29.5684988" lon="103.4099215"><ele>829.64</ele><time>2026-06-12T15:39:32.000Z</time></trkpt>
        <trkpt lat="29.5684534" lon="103.4099437"><ele>828.2</ele><time>2026-06-12T15:39:38.000Z</time></trkpt>
        <trkpt lat="29.5684034" lon="103.4099305"><ele>826.4</ele><time>2026-06-12T15:39:42.000Z</time></trkpt>
        <trkpt lat="29.5683597" lon="103.4098844"><ele>825.06</ele><time>2026-06-12T15:39:46.000Z</time></trkpt>
        <trkpt lat="29.5683301" lon="103.4098353"><ele>824.56</ele><time>2026-06-12T15:39:52.000Z</time></trkpt>
        <trkpt lat="29.5682882" lon="103.4097718"><ele>824.92</ele><time>2026-06-12T15:39:58.000Z</time></trkpt>
        <trkpt lat="29.5682547" lon="103.4097017"><ele>825.47</ele><time>2026-06-12T15:40:04.000Z</time></trkpt>
        <trkpt lat="29.568232" lon="103.4096368"><ele>826.04</ele><time>2026-06-12T15:40:10.000Z</time></trkpt>
        <trkpt lat="29.5682143" lon="103.40958"><ele>825.94</ele><time>2026-06-12T15:40:14.000Z</time></trkpt>
        <trkpt lat="29.5681862" lon="103.4095214"><ele>825.62</ele><time>2026-06-12T15:40:20.000Z</time></trkpt>
        <trkpt lat="29.5681663" lon="103.4094643"><ele>825.01</ele><time>2026-06-12T15:40:26.000Z</time></trkpt>
        <trkpt lat="29.5681458" lon="103.4094153"><ele>824.06</ele><time>2026-06-12T15:40:30.000Z</time></trkpt>
        <trkpt lat="29.5681172" lon="103.4093641"><ele>823</ele><time>2026-06-12T15:40:36.000Z</time></trkpt>
        <trkpt lat="29.5680868" lon="103.4093216"><ele>821.5</ele><time>2026-06-12T15:40:40.000Z</time></trkpt>
        <trkpt lat="29.5680585" lon="103.4092659"><ele>820.29</ele><time>2026-06-12T15:40:46.000Z</time></trkpt>
        <trkpt lat="29.5680364" lon="103.4092161"><ele>819.13</ele><time>2026-06-12T15:40:50.000Z</time></trkpt>
        <trkpt lat="29.5680091" lon="103.4091701"><ele>818.04</ele><time>2026-06-12T15:40:56.000Z</time></trkpt>
        <trkpt lat="29.5679857" lon="103.4091242"><ele>816.86</ele><time>2026-06-12T15:41:02.000Z</time></trkpt>
        <trkpt lat="29.5679552" lon="103.4090742"><ele>815.76</ele><time>2026-06-12T15:41:08.000Z</time></trkpt>
        <trkpt lat="29.5679294" lon="103.4090239"><ele>814.23</ele><time>2026-06-12T15:41:16.000Z</time></trkpt>
        <trkpt lat="29.5679107" lon="103.4089611"><ele>812.07</ele><time>2026-06-12T15:41:24.000Z</time></trkpt>
        <trkpt lat="29.5679045" lon="103.4088951"><ele>809.41</ele><time>2026-06-12T15:41:37.000Z</time></trkpt>
        <trkpt lat="29.5679224" lon="103.4088361"><ele>805.45</ele><time>2026-06-12T15:42:02.000Z</time></trkpt>
        <trkpt lat="29.5679245" lon="103.4087628"><ele>802.12</ele><time>2026-06-12T15:42:08.000Z</time></trkpt>
        <trkpt lat="29.5679026" lon="103.4087054"><ele>799.87</ele><time>2026-06-12T15:42:14.000Z</time></trkpt>
        <trkpt lat="29.5678707" lon="103.4086646"><ele>798.34</ele><time>2026-06-12T15:42:20.000Z</time></trkpt>
        <trkpt lat="29.5678326" lon="103.4086207"><ele>796.64</ele><time>2026-06-12T15:42:24.000Z</time></trkpt>
        <trkpt lat="29.5677935" lon="103.4085819"><ele>795.03</ele><time>2026-06-12T15:42:30.000Z</time></trkpt>
        <trkpt lat="29.5677688" lon="103.4085345"><ele>793.6</ele><time>2026-06-12T15:42:40.000Z</time></trkpt>
        <trkpt lat="29.5677311" lon="103.4084948"><ele>791.62</ele><time>2026-06-12T15:42:48.000Z</time></trkpt>
        <trkpt lat="29.5676794" lon="103.4084693"><ele>790.24</ele><time>2026-06-12T15:42:56.000Z</time></trkpt>
        <trkpt lat="29.5676306" lon="103.4084487"><ele>789.32</ele><time>2026-06-12T15:43:00.000Z</time></trkpt>
        <trkpt lat="29.5676102" lon="103.4085041"><ele>788.75</ele><time>2026-06-12T15:43:08.000Z</time></trkpt>
        <trkpt lat="29.5676029" lon="103.4085839"><ele>788.94</ele><time>2026-06-12T15:43:12.000Z</time></trkpt>
        <trkpt lat="29.5675817" lon="103.4086431"><ele>789.27</ele><time>2026-06-12T15:43:16.000Z</time></trkpt>
        <trkpt lat="29.5675238" lon="103.4086709"><ele>789.07</ele><time>2026-06-12T15:43:20.000Z</time></trkpt>
        <trkpt lat="29.56746" lon="103.4086551"><ele>788.61</ele><time>2026-06-12T15:43:24.000Z</time></trkpt>
        <trkpt lat="29.5673874" lon="103.4086309"><ele>788.09</ele><time>2026-06-12T15:43:28.000Z</time></trkpt>
        <trkpt lat="29.5673191" lon="103.4086029"><ele>787.49</ele><time>2026-06-12T15:43:32.000Z</time></trkpt>
        <trkpt lat="29.5672687" lon="103.4085731"><ele>786.72</ele><time>2026-06-12T15:43:36.000Z</time></trkpt>
        <trkpt lat="29.5672303" lon="103.408534"><ele>785.59</ele><time>2026-06-12T15:43:39.000Z</time></trkpt>
        <trkpt lat="29.5671979" lon="103.4084947"><ele>784.18</ele><time>2026-06-12T15:43:44.000Z</time></trkpt>
        <trkpt lat="29.567158" lon="103.4084688"><ele>782.77</ele><time>2026-06-12T15:43:48.000Z</time></trkpt>
        <trkpt lat="29.5671043" lon="103.4084559"><ele>781.28</ele><time>2026-06-12T15:43:52.000Z</time></trkpt>
        <trkpt lat="29.5670557" lon="103.4084522"><ele>779.65</ele><time>2026-06-12T15:43:56.000Z</time></trkpt>
        <trkpt lat="29.5670033" lon="103.408471"><ele>777.95</ele><time>2026-06-12T15:44:00.000Z</time></trkpt>
        <trkpt lat="29.5669496" lon="103.4084707"><ele>776.77</ele><time>2026-06-12T15:44:04.000Z</time></trkpt>
        <trkpt lat="29.566892" lon="103.4084716"><ele>775.88</ele><time>2026-06-12T15:44:08.000Z</time></trkpt>
        <trkpt lat="29.5668306" lon="103.4084593"><ele>775.07</ele><time>2026-06-12T15:44:12.000Z</time></trkpt>
        <trkpt lat="29.5667544" lon="103.4084497"><ele>774.31</ele><time>2026-06-12T15:44:18.000Z</time></trkpt>
        <trkpt lat="29.5666945" lon="103.4084206"><ele>773.06</ele><time>2026-06-12T15:44:22.000Z</time></trkpt>
        <trkpt lat="29.5666741" lon="103.4083694"><ele>772.43</ele><time>2026-06-12T15:44:26.000Z</time></trkpt>
        <trkpt lat="29.566649" lon="103.4082952"><ele>772.42</ele><time>2026-06-12T15:44:30.000Z</time></trkpt>
        <trkpt lat="29.5666486" lon="103.4082181"><ele>772.67</ele><time>2026-06-12T15:44:34.000Z</time></trkpt>
        <trkpt lat="29.5666563" lon="103.4081347"><ele>773.2</ele><time>2026-06-12T15:44:40.000Z</time></trkpt>
        <trkpt lat="29.5666863" lon="103.4080679"><ele>774.83</ele><time>2026-06-12T15:44:44.000Z</time></trkpt>
        <trkpt lat="29.5666893" lon="103.4080032"><ele>775.89</ele><time>2026-06-12T15:44:48.000Z</time></trkpt>
        <trkpt lat="29.5666715" lon="103.4079326"><ele>776.5</ele><time>2026-06-12T15:44:54.000Z</time></trkpt>
        <trkpt lat="29.5666404" lon="103.4078672"><ele>777.36</ele><time>2026-06-12T15:45:00.000Z</time></trkpt>
        <trkpt lat="29.5666246" lon="103.4077962"><ele>778.75</ele><time>2026-06-12T15:45:07.000Z</time></trkpt>
        <trkpt lat="29.5666095" lon="103.4077343"><ele>780.62</ele><time>2026-06-12T15:45:12.000Z</time></trkpt>
        <trkpt lat="29.5665784" lon="103.4076734"><ele>780.4</ele><time>2026-06-12T15:45:18.000Z</time></trkpt>
        <trkpt lat="29.5665463" lon="103.4076075"><ele>778.51</ele><time>2026-06-12T15:45:22.000Z</time></trkpt>
        <trkpt lat="29.566526" lon="103.4075495"><ele>777</ele><time>2026-06-12T15:45:26.000Z</time></trkpt>
        <trkpt lat="29.5665068" lon="103.407487"><ele>775.54</ele><time>2026-06-12T15:45:30.000Z</time></trkpt>
        <trkpt lat="29.5664725" lon="103.4074275"><ele>774.53</ele><time>2026-06-12T15:45:34.000Z</time></trkpt>
        <trkpt lat="29.56645" lon="103.4073592"><ele>774.04</ele><time>2026-06-12T15:45:38.000Z</time></trkpt>
        <trkpt lat="29.5664262" lon="103.407295"><ele>774.07</ele><time>2026-06-12T15:45:42.000Z</time></trkpt>
        <trkpt lat="29.5664192" lon="103.4072277"><ele>775.07</ele><time>2026-06-12T15:45:48.000Z</time></trkpt>
        <trkpt lat="29.5664182" lon="103.407163"><ele>776.2</ele><time>2026-06-12T15:45:52.000Z</time></trkpt>
        <trkpt lat="29.5664073" lon="103.4070907"><ele>776.5</ele><time>2026-06-12T15:45:56.000Z</time></trkpt>
        <trkpt lat="29.5664043" lon="103.407023"><ele>776.76</ele><time>2026-06-12T15:46:00.000Z</time></trkpt>
        <trkpt lat="29.566417" lon="103.4069575"><ele>777.08</ele><time>2026-06-12T15:46:04.000Z</time></trkpt>
        <trkpt lat="29.5664349" lon="103.4068814"><ele>777.09</ele><time>2026-06-12T15:46:08.000Z</time></trkpt>
        <trkpt lat="29.5664587" lon="103.4068188"><ele>776.71</ele><time>2026-06-12T15:46:12.000Z</time></trkpt>
        <trkpt lat="29.566505" lon="103.4067792"><ele>776.45</ele><time>2026-06-12T15:46:16.000Z</time></trkpt>
        <trkpt lat="29.5665602" lon="103.4067475"><ele>776.77</ele><time>2026-06-12T15:46:20.000Z</time></trkpt>
        <trkpt lat="29.566603" lon="103.4067072"><ele>777.21</ele><time>2026-06-12T15:46:24.000Z</time></trkpt>
        <trkpt lat="29.5666551" lon="103.4066738"><ele>777.85</ele><time>2026-06-12T15:46:30.000Z</time></trkpt>
        <trkpt lat="29.5667055" lon="103.4066339"><ele>777.36</ele><time>2026-06-12T15:46:33.000Z</time></trkpt>
        <trkpt lat="29.5667372" lon="103.4065913"><ele>776.47</ele><time>2026-06-12T15:46:38.000Z</time></trkpt>
        <trkpt lat="29.5667807" lon="103.4065364"><ele>774.51</ele><time>2026-06-12T15:46:44.000Z</time></trkpt>
        <trkpt lat="29.5668194" lon="103.4064848"><ele>771.58</ele><time>2026-06-12T15:46:48.000Z</time></trkpt>
        <trkpt lat="29.5668499" lon="103.4064313"><ele>769.26</ele><time>2026-06-12T15:46:52.000Z</time></trkpt>
        <trkpt lat="29.5668764" lon="103.4063763"><ele>767.34</ele><time>2026-06-12T15:46:56.000Z</time></trkpt>
        <trkpt lat="29.5669082" lon="103.4063321"><ele>765.52</ele><time>2026-06-12T15:47:00.000Z</time></trkpt>
        <trkpt lat="29.5669437" lon="103.4062858"><ele>764.44</ele><time>2026-06-12T15:47:04.000Z</time></trkpt>
        <trkpt lat="29.5669743" lon="103.4062333"><ele>763.77</ele><time>2026-06-12T15:47:07.000Z</time></trkpt>
        <trkpt lat="29.5669978" lon="103.4061833"><ele>763.48</ele><time>2026-06-12T15:47:12.000Z</time></trkpt>
        <trkpt lat="29.5670377" lon="103.4061321"><ele>763.32</ele><time>2026-06-12T15:47:16.000Z</time></trkpt>
        <trkpt lat="29.5670716" lon="103.4060841"><ele>763.22</ele><time>2026-06-12T15:47:20.000Z</time></trkpt>
        <trkpt lat="29.567085" lon="103.4060262"><ele>763.17</ele><time>2026-06-12T15:47:26.000Z</time></trkpt>
        <trkpt lat="29.5671148" lon="103.405977"><ele>763.1</ele><time>2026-06-12T15:47:30.000Z</time></trkpt>
        <trkpt lat="29.5671467" lon="103.4059239"><ele>763.1</ele><time>2026-06-12T15:47:34.000Z</time></trkpt>
        <trkpt lat="29.5671552" lon="103.4058679"><ele>762.97</ele><time>2026-06-12T15:47:38.000Z</time></trkpt>
        <trkpt lat="29.5671424" lon="103.4058022"><ele>762.81</ele><time>2026-06-12T15:47:42.000Z</time></trkpt>
        <trkpt lat="29.5671129" lon="103.405752"><ele>762.98</ele><time>2026-06-12T15:47:46.000Z</time></trkpt>
        <trkpt lat="29.5670728" lon="103.4057067"><ele>763.33</ele><time>2026-06-12T15:47:49.000Z</time></trkpt>
        <trkpt lat="29.5670232" lon="103.4056791"><ele>763.53</ele><time>2026-06-12T15:47:54.000Z</time></trkpt>
        <trkpt lat="29.5669854" lon="103.4056311"><ele>763.86</ele><time>2026-06-12T15:47:58.000Z</time></trkpt>
        <trkpt lat="29.5669358" lon="103.4055831"><ele>763.88</ele><time>2026-06-12T15:48:02.000Z</time></trkpt>
        <trkpt lat="29.5668869" lon="103.4055381"><ele>763.63</ele><time>2026-06-12T15:48:06.000Z</time></trkpt>
        <trkpt lat="29.5668466" lon="103.4054957"><ele>763.23</ele><time>2026-06-12T15:48:10.000Z</time></trkpt>
        <trkpt lat="29.5668134" lon="103.4054479"><ele>763</ele><time>2026-06-12T15:48:18.000Z</time></trkpt>
        <trkpt lat="29.5667637" lon="103.4053943"><ele>762.74</ele><time>2026-06-12T15:48:22.000Z</time></trkpt>
        <trkpt lat="29.5667363" lon="103.4053412"><ele>762.38</ele><time>2026-06-12T15:48:26.000Z</time></trkpt>
        <trkpt lat="29.5667263" lon="103.4052775"><ele>761.87</ele><time>2026-06-12T15:48:30.000Z</time></trkpt>
        <trkpt lat="29.5667219" lon="103.4051988"><ele>761.45</ele><time>2026-06-12T15:48:34.000Z</time></trkpt>
        <trkpt lat="29.5667256" lon="103.4051216"><ele>761.69</ele><time>2026-06-12T15:48:38.000Z</time></trkpt>
        <trkpt lat="29.5667612" lon="103.4050737"><ele>762.25</ele><time>2026-06-12T15:48:42.000Z</time></trkpt>
        <trkpt lat="29.5668087" lon="103.4050671"><ele>762.92</ele><time>2026-06-12T15:48:44.000Z</time></trkpt>
        <trkpt lat="29.5668571" lon="103.4050856"><ele>763.13</ele><time>2026-06-12T15:48:46.000Z</time></trkpt>
        <trkpt lat="29.5669126" lon="103.4051039"><ele>763.03</ele><time>2026-06-12T15:48:50.000Z</time></trkpt>
        <trkpt lat="29.5669698" lon="103.4051168"><ele>762.59</ele><time>2026-06-12T15:48:54.000Z</time></trkpt>
        <trkpt lat="29.5670253" lon="103.4051274"><ele>762.25</ele><time>2026-06-12T15:48:58.000Z</time></trkpt>
        <trkpt lat="29.5670822" lon="103.4051279"><ele>762.1</ele><time>2026-06-12T15:49:02.000Z</time></trkpt>
        <trkpt lat="29.5671343" lon="103.4051032"><ele>761.93</ele><time>2026-06-12T15:49:06.000Z</time></trkpt>
        <trkpt lat="29.567187" lon="103.4050735"><ele>761.83</ele><time>2026-06-12T15:49:10.000Z</time></trkpt>
        <trkpt lat="29.5672426" lon="103.4050587"><ele>761.82</ele><time>2026-06-12T15:49:14.000Z</time></trkpt>
        <trkpt lat="29.5673005" lon="103.405048"><ele>761.51</ele><time>2026-06-12T15:49:18.000Z</time></trkpt>
        <trkpt lat="29.5673541" lon="103.405041"><ele>761.07</ele><time>2026-06-12T15:49:22.000Z</time></trkpt>
        <trkpt lat="29.567401" lon="103.4050439"><ele>760.66</ele><time>2026-06-12T15:49:26.000Z</time></trkpt>
        <trkpt lat="29.5674493" lon="103.4050361"><ele>760.24</ele><time>2026-06-12T15:49:30.000Z</time></trkpt>
        <trkpt lat="29.567496" lon="103.4050388"><ele>759.71</ele><time>2026-06-12T15:49:34.000Z</time></trkpt>
        <trkpt lat="29.5675549" lon="103.4050518"><ele>758.8</ele><time>2026-06-12T15:49:38.000Z</time></trkpt>
        <trkpt lat="29.5676145" lon="103.4050667"><ele>758.07</ele><time>2026-06-12T15:49:42.000Z</time></trkpt>
        <trkpt lat="29.5676752" lon="103.4050904"><ele>757.18</ele><time>2026-06-12T15:49:48.000Z</time></trkpt>
        <trkpt lat="29.5677397" lon="103.4050929"><ele>756.72</ele><time>2026-06-12T15:49:54.000Z</time></trkpt>
        <trkpt lat="29.567799" lon="103.4050982"><ele>756.71</ele><time>2026-06-12T15:49:58.000Z</time></trkpt>
        <trkpt lat="29.5678498" lon="103.4051027"><ele>756.58</ele><time>2026-06-12T15:50:02.000Z</time></trkpt>
        <trkpt lat="29.5678989" lon="103.4050834"><ele>756.33</ele><time>2026-06-12T15:50:06.000Z</time></trkpt>
        <trkpt lat="29.5679529" lon="103.4050444"><ele>756.06</ele><time>2026-06-12T15:50:10.000Z</time></trkpt>
        <trkpt lat="29.5679915" lon="103.4049919"><ele>755.95</ele><time>2026-06-12T15:50:14.000Z</time></trkpt>
        <trkpt lat="29.5680182" lon="103.4049427"><ele>755.88</ele><time>2026-06-12T15:50:16.000Z</time></trkpt>
        <trkpt lat="29.5680676" lon="103.4049001"><ele>756.02</ele><time>2026-06-12T15:50:20.000Z</time></trkpt>
        <trkpt lat="29.5681239" lon="103.4048645"><ele>756.4</ele><time>2026-06-12T15:50:24.000Z</time></trkpt>
        <trkpt lat="29.5681808" lon="103.4048401"><ele>757.3</ele><time>2026-06-12T15:50:28.000Z</time></trkpt>
        <trkpt lat="29.5682372" lon="103.4048145"><ele>758.2</ele><time>2026-06-12T15:50:32.000Z</time></trkpt>
        <trkpt lat="29.5682879" lon="103.4047801"><ele>758.98</ele><time>2026-06-12T15:50:36.000Z</time></trkpt>
        <trkpt lat="29.5683301" lon="103.4047409"><ele>759.55</ele><time>2026-06-12T15:50:40.000Z</time></trkpt>
        <trkpt lat="29.568362" lon="103.4046914"><ele>760.04</ele><time>2026-06-12T15:50:44.000Z</time></trkpt>
        <trkpt lat="29.5683981" lon="103.4046499"><ele>760.8</ele><time>2026-06-12T15:50:48.000Z</time></trkpt>
        <trkpt lat="29.5684316" lon="103.4045995"><ele>761.49</ele><time>2026-06-12T15:50:54.000Z</time></trkpt>
        <trkpt lat="29.5684544" lon="103.4045484"><ele>761.45</ele><time>2026-06-12T15:50:58.000Z</time></trkpt>
        <trkpt lat="29.5684811" lon="103.4045"><ele>761.69</ele><time>2026-06-12T15:51:02.000Z</time></trkpt>
        <trkpt lat="29.5685149" lon="103.4044417"><ele>762.17</ele><time>2026-06-12T15:51:06.000Z</time></trkpt>
        <trkpt lat="29.5685439" lon="103.4043784"><ele>762.22</ele><time>2026-06-12T15:51:10.000Z</time></trkpt>
        <trkpt lat="29.5685722" lon="103.4043201"><ele>761.48</ele><time>2026-06-12T15:51:14.000Z</time></trkpt>
        <trkpt lat="29.5686016" lon="103.404268"><ele>760.07</ele><time>2026-06-12T15:51:18.000Z</time></trkpt>
        <trkpt lat="29.568639" lon="103.4042144"><ele>758.28</ele><time>2026-06-12T15:51:22.000Z</time></trkpt>
        <trkpt lat="29.568668" lon="103.404155"><ele>756.31</ele><time>2026-06-12T15:51:26.000Z</time></trkpt>
        <trkpt lat="29.5686998" lon="103.4040895"><ele>754.63</ele><time>2026-06-12T15:51:30.000Z</time></trkpt>
        <trkpt lat="29.5687353" lon="103.4040259"><ele>752.81</ele><time>2026-06-12T15:51:34.000Z</time></trkpt>
        <trkpt lat="29.5687672" lon="103.4039684"><ele>751.34</ele><time>2026-06-12T15:51:38.000Z</time></trkpt>
        <trkpt lat="29.5688037" lon="103.4039297"><ele>750.68</ele><time>2026-06-12T15:51:42.000Z</time></trkpt>
        <trkpt lat="29.5688571" lon="103.4039112"><ele>750.52</ele><time>2026-06-12T15:51:46.000Z</time></trkpt>
        <trkpt lat="29.5689151" lon="103.4039091"><ele>749.78</ele><time>2026-06-12T15:51:50.000Z</time></trkpt>
        <trkpt lat="29.5689751" lon="103.4039287"><ele>748.45</ele><time>2026-06-12T15:51:54.000Z</time></trkpt>
        <trkpt lat="29.569045" lon="103.4039557"><ele>747.18</ele><time>2026-06-12T15:51:58.000Z</time></trkpt>
        <trkpt lat="29.5691042" lon="103.4039769"><ele>746.37</ele><time>2026-06-12T15:52:02.000Z</time></trkpt>
        <trkpt lat="29.5691549" lon="103.4039733"><ele>745.7</ele><time>2026-06-12T15:52:06.000Z</time></trkpt>
        <trkpt lat="29.5692027" lon="103.4039362"><ele>744.75</ele><time>2026-06-12T15:52:10.000Z</time></trkpt>
        <trkpt lat="29.5692487" lon="103.4038981"><ele>743.44</ele><time>2026-06-12T15:52:14.000Z</time></trkpt>
        <trkpt lat="29.569297" lon="103.403867"><ele>742.05</ele><time>2026-06-12T15:52:18.000Z</time></trkpt>
        <trkpt lat="29.5693452" lon="103.4038385"><ele>740.74</ele><time>2026-06-12T15:52:22.000Z</time></trkpt>
        <trkpt lat="29.5693934" lon="103.4038151"><ele>739.47</ele><time>2026-06-12T15:52:26.000Z</time></trkpt>
        <trkpt lat="29.5694467" lon="103.4037873"><ele>738.41</ele><time>2026-06-12T15:52:30.000Z</time></trkpt>
        <trkpt lat="29.5694931" lon="103.4037539"><ele>738.02</ele><time>2026-06-12T15:52:34.000Z</time></trkpt>
        <trkpt lat="29.5695342" lon="103.4037247"><ele>738.05</ele><time>2026-06-12T15:52:38.000Z</time></trkpt>
        <trkpt lat="29.5695711" lon="103.4036888"><ele>738.07</ele><time>2026-06-12T15:52:42.000Z</time></trkpt>
        <trkpt lat="29.5696131" lon="103.4036453"><ele>738.43</ele><time>2026-06-12T15:52:46.000Z</time></trkpt>
        <trkpt lat="29.5696612" lon="103.4036107"><ele>739.23</ele><time>2026-06-12T15:52:50.000Z</time></trkpt>
        <trkpt lat="29.569709" lon="103.4035749"><ele>740.21</ele><time>2026-06-12T15:52:54.000Z</time></trkpt>
        <trkpt lat="29.5697463" lon="103.4035284"><ele>740.59</ele><time>2026-06-12T15:52:58.000Z</time></trkpt>
        <trkpt lat="29.5697808" lon="103.4034831"><ele>740.47</ele><time>2026-06-12T15:53:02.000Z</time></trkpt>
        <trkpt lat="29.5698173" lon="103.4034313"><ele>740.22</ele><time>2026-06-12T15:53:06.000Z</time></trkpt>
        <trkpt lat="29.5698525" lon="103.4033748"><ele>740</ele><time>2026-06-12T15:53:10.000Z</time></trkpt>
        <trkpt lat="29.569886" lon="103.4033233"><ele>740.13</ele><time>2026-06-12T15:53:14.000Z</time></trkpt>
        <trkpt lat="29.569924" lon="103.4032717"><ele>740.5</ele><time>2026-06-12T15:53:18.000Z</time></trkpt>
        <trkpt lat="29.5699589" lon="103.4032225"><ele>740.93</ele><time>2026-06-12T15:53:22.000Z</time></trkpt>
        <trkpt lat="29.5699824" lon="103.4031643"><ele>741.78</ele><time>2026-06-12T15:53:26.000Z</time></trkpt>
        <trkpt lat="29.5700093" lon="103.4031063"><ele>742.82</ele><time>2026-06-12T15:53:30.000Z</time></trkpt>
        <trkpt lat="29.5700307" lon="103.4030526"><ele>743.33</ele><time>2026-06-12T15:53:34.000Z</time></trkpt>
        <trkpt lat="29.570049" lon="103.4030019"><ele>743.32</ele><time>2026-06-12T15:53:38.000Z</time></trkpt>
        <trkpt lat="29.5700765" lon="103.402941"><ele>743.05</ele><time>2026-06-12T15:53:42.000Z</time></trkpt>
        <trkpt lat="29.570114" lon="103.4028986"><ele>742.68</ele><time>2026-06-12T15:53:46.000Z</time></trkpt>
        <trkpt lat="29.5701687" lon="103.4028597"><ele>742.69</ele><time>2026-06-12T15:53:50.000Z</time></trkpt>
        <trkpt lat="29.5702365" lon="103.4028338"><ele>742.74</ele><time>2026-06-12T15:53:54.000Z</time></trkpt>
        <trkpt lat="29.5703089" lon="103.4028283"><ele>743.24</ele><time>2026-06-12T15:53:58.000Z</time></trkpt>
        <trkpt lat="29.5703742" lon="103.4028254"><ele>743.57</ele><time>2026-06-12T15:54:02.000Z</time></trkpt>
        <trkpt lat="29.5704358" lon="103.4028182"><ele>743.75</ele><time>2026-06-12T15:54:06.000Z</time></trkpt>
        <trkpt lat="29.5704934" lon="103.4028045"><ele>743.39</ele><time>2026-06-12T15:54:10.000Z</time></trkpt>
        <trkpt lat="29.5705459" lon="103.4027907"><ele>742.83</ele><time>2026-06-12T15:54:14.000Z</time></trkpt>
        <trkpt lat="29.5705981" lon="103.4027895"><ele>742.09</ele><time>2026-06-12T15:54:20.000Z</time></trkpt>
        <trkpt lat="29.570667" lon="103.4027843"><ele>741.15</ele><time>2026-06-12T15:54:24.000Z</time></trkpt>
        <trkpt lat="29.5707333" lon="103.4027707"><ele>739.66</ele><time>2026-06-12T15:54:28.000Z</time></trkpt>
        <trkpt lat="29.5707842" lon="103.4027527"><ele>737.83</ele><time>2026-06-12T15:54:32.000Z</time></trkpt>
        <trkpt lat="29.5708392" lon="103.4027285"><ele>735.71</ele><time>2026-06-12T15:54:36.000Z</time></trkpt>
        <trkpt lat="29.5708876" lon="103.4027025"><ele>733.47</ele><time>2026-06-12T15:54:40.000Z</time></trkpt>
        <trkpt lat="29.5709326" lon="103.4026688"><ele>731.72</ele><time>2026-06-12T15:54:46.000Z</time></trkpt>
        <trkpt lat="29.5709754" lon="103.4026178"><ele>730.12</ele><time>2026-06-12T15:54:50.000Z</time></trkpt>
        <trkpt lat="29.5710191" lon="103.4025698"><ele>728.18</ele><time>2026-06-12T15:54:54.000Z</time></trkpt>
        <trkpt lat="29.5710548" lon="103.4025292"><ele>726.72</ele><time>2026-06-12T15:54:58.000Z</time></trkpt>
        <trkpt lat="29.5710938" lon="103.4024969"><ele>725.25</ele><time>2026-06-12T15:55:02.000Z</time></trkpt>
        <trkpt lat="29.5711272" lon="103.4024549"><ele>724.15</ele><time>2026-06-12T15:55:06.000Z</time></trkpt>
        <trkpt lat="29.571161" lon="103.4024051"><ele>723.36</ele><time>2026-06-12T15:55:10.000Z</time></trkpt>
        <trkpt lat="29.5712066" lon="103.4023489"><ele>722.86</ele><time>2026-06-12T15:55:14.000Z</time></trkpt>
        <trkpt lat="29.5712555" lon="103.4022935"><ele>722.88</ele><time>2026-06-12T15:55:20.000Z</time></trkpt>
        <trkpt lat="29.5712924" lon="103.402244"><ele>723.23</ele><time>2026-06-12T15:55:24.000Z</time></trkpt>
        <trkpt lat="29.5713271" lon="103.4021832"><ele>724.29</ele><time>2026-06-12T15:55:28.000Z</time></trkpt>
        <trkpt lat="29.5713637" lon="103.4021294"><ele>725.33</ele><time>2026-06-12T15:55:32.000Z</time></trkpt>
        <trkpt lat="29.5714028" lon="103.4020849"><ele>726.18</ele><time>2026-06-12T15:55:36.000Z</time></trkpt>
        <trkpt lat="29.571444" lon="103.4020388"><ele>726.96</ele><time>2026-06-12T15:55:40.000Z</time></trkpt>
        <trkpt lat="29.5714821" lon="103.4019901"><ele>727.62</ele><time>2026-06-12T15:55:44.000Z</time></trkpt>
        <trkpt lat="29.5715228" lon="103.4019417"><ele>728.65</ele><time>2026-06-12T15:55:48.000Z</time></trkpt>
        <trkpt lat="29.5715681" lon="103.4019058"><ele>729.44</ele><time>2026-06-12T15:55:54.000Z</time></trkpt>
        <trkpt lat="29.5716364" lon="103.4019009"><ele>730.63</ele><time>2026-06-12T15:55:58.000Z</time></trkpt>
        <trkpt lat="29.5717003" lon="103.4019141"><ele>731.61</ele><time>2026-06-12T15:56:02.000Z</time></trkpt>
        <trkpt lat="29.571756" lon="103.4019293"><ele>732.12</ele><time>2026-06-12T15:56:06.000Z</time></trkpt>
        <trkpt lat="29.5717883" lon="103.4019031"><ele>731.38</ele><time>2026-06-12T15:56:10.000Z</time></trkpt>
        <trkpt lat="29.5718009" lon="103.4018493"><ele>730.14</ele><time>2026-06-12T15:56:14.000Z</time></trkpt>
        <trkpt lat="29.5718052" lon="103.4017821"><ele>728.79</ele><time>2026-06-12T15:56:20.000Z</time></trkpt>
        <trkpt lat="29.5718258" lon="103.401716"><ele>727.33</ele><time>2026-06-12T15:56:28.000Z</time></trkpt>
        <trkpt lat="29.57186" lon="103.4016561"><ele>726.76</ele><time>2026-06-12T15:56:34.000Z</time></trkpt>
        <trkpt lat="29.5719041" lon="103.4016196"><ele>726.22</ele><time>2026-06-12T15:56:38.000Z</time></trkpt>
        <trkpt lat="29.5719535" lon="103.4015917"><ele>725.52</ele><time>2026-06-12T15:56:42.000Z</time></trkpt>
        <trkpt lat="29.5720013" lon="103.4015633"><ele>725.04</ele><time>2026-06-12T15:56:46.000Z</time></trkpt>
        <trkpt lat="29.5720314" lon="103.4015111"><ele>725.19</ele><time>2026-06-12T15:56:52.000Z</time></trkpt>
        <trkpt lat="29.5720335" lon="103.4014571"><ele>725.45</ele><time>2026-06-12T15:56:58.000Z</time></trkpt>
        <trkpt lat="29.5720298" lon="103.4014023"><ele>726.21</ele><time>2026-06-12T15:57:06.000Z</time></trkpt>
        <trkpt lat="29.5720298" lon="103.4013315"><ele>727.41</ele><time>2026-06-12T15:57:12.000Z</time></trkpt>
        <trkpt lat="29.5720137" lon="103.4012678"><ele>728.57</ele><time>2026-06-12T15:57:26.000Z</time></trkpt>
        <trkpt lat="29.5719871" lon="103.4012202"><ele>728.71</ele><time>2026-06-12T15:57:38.000Z</time></trkpt>
        <trkpt lat="29.5719129" lon="103.4012364"><ele>728.75</ele><time>2026-06-12T15:58:07.000Z</time></trkpt>
        <trkpt lat="29.5718863" lon="103.4011598"><ele>729.89</ele><time>2026-06-12T15:58:09.000Z</time></trkpt>
        <trkpt lat="29.5719166" lon="103.4011131"><ele>730.54</ele><time>2026-06-12T15:58:14.000Z</time></trkpt>
        <trkpt lat="29.5719166" lon="103.4011131"><ele>730.54</ele><time>2026-06-12T15:58:14.000Z</time></trkpt>
        <trkpt lat="29.5719232" lon="103.4009937"><ele>730.95</ele><time>2026-06-12T15:58:18.000Z</time></trkpt>
        <trkpt lat="29.5719232" lon="103.4009937"><ele>730.95</ele><time>2026-06-12T15:58:22.000Z</time></trkpt>
        <trkpt lat="29.5719073" lon="103.400928"><ele>731.23</ele><time>2026-06-12T15:58:28.000Z</time></trkpt>
        <trkpt lat="29.571942" lon="103.4009193"><ele>731.69</ele><time>2026-06-12T15:58:48.000Z</time></trkpt>
        <trkpt lat="29.571942" lon="103.4009193"><ele>731.69</ele><time>2026-06-12T15:59:18.000Z</time></trkpt>
        <trkpt lat="29.57197" lon="103.400885"><ele>734.36</ele><time>2026-06-12T15:59:32.000Z</time></trkpt>
        <trkpt lat="29.57197" lon="103.400885"><ele>734.36</ele><time>2026-06-12T16:00:02.000Z</time></trkpt>
        <trkpt lat="29.5719483" lon="103.4008367"><ele>737.35</ele><time>2026-06-12T16:00:09.000Z</time></trkpt>
        <trkpt lat="29.5719295" lon="103.4007883"><ele>739.09</ele><time>2026-06-12T16:00:16.000Z</time></trkpt>
        <trkpt lat="29.5719086" lon="103.4007246"><ele>740.47</ele><time>2026-06-12T16:00:22.000Z</time></trkpt>
        <trkpt lat="29.5718782" lon="103.400681"><ele>741.47</ele><time>2026-06-12T16:00:26.000Z</time></trkpt>
        <trkpt lat="29.5718458" lon="103.4006303"><ele>742.56</ele><time>2026-06-12T16:00:36.000Z</time></trkpt>
        <trkpt lat="29.5718331" lon="103.40057"><ele>746.15</ele><time>2026-06-12T16:00:44.000Z</time></trkpt>
        <trkpt lat="29.5718355" lon="103.4005125"><ele>750.34</ele><time>2026-06-12T16:00:54.000Z</time></trkpt>
        <trkpt lat="29.5718464" lon="103.4004491"><ele>754.71</ele><time>2026-06-12T16:01:08.000Z</time></trkpt>
        <trkpt lat="29.5718365" lon="103.4003811"><ele>758.36</ele><time>2026-06-12T16:01:18.000Z</time></trkpt>
        <trkpt lat="29.5718179" lon="103.4003182"><ele>760.57</ele><time>2026-06-12T16:01:30.000Z</time></trkpt>
        <trkpt lat="29.5718029" lon="103.400265"><ele>762.74</ele><time>2026-06-12T16:01:37.000Z</time></trkpt>
        <trkpt lat="29.5718138" lon="103.4002079"><ele>764.48</ele><time>2026-06-12T16:01:50.000Z</time></trkpt>
        <trkpt lat="29.5718193" lon="103.4001525"><ele>766.73</ele><time>2026-06-12T16:02:02.000Z</time></trkpt>
        <trkpt lat="29.5718014" lon="103.4001002"><ele>769.17</ele><time>2026-06-12T16:02:12.000Z</time></trkpt>
        <trkpt lat="29.5717772" lon="103.4000439"><ele>771.59</ele><time>2026-06-12T16:02:20.000Z</time></trkpt>
        <trkpt lat="29.571773" lon="103.3999859"><ele>774.26</ele><time>2026-06-12T16:02:32.000Z</time></trkpt>
        <trkpt lat="29.5717782" lon="103.3999273"><ele>776.95</ele><time>2026-06-12T16:02:44.000Z</time></trkpt>
        <trkpt lat="29.5718014" lon="103.3998724"><ele>779.38</ele><time>2026-06-12T16:03:02.000Z</time></trkpt>
        <trkpt lat="29.5718214" lon="103.3998178"><ele>781.62</ele><time>2026-06-12T16:03:10.000Z</time></trkpt>
        <trkpt lat="29.5718377" lon="103.3997606"><ele>782.9</ele><time>2026-06-12T16:03:18.000Z</time></trkpt>
        <trkpt lat="29.5718294" lon="103.3997061"><ele>783.93</ele><time>2026-06-12T16:03:28.000Z</time></trkpt>
        <trkpt lat="29.5718246" lon="103.3996514"><ele>784.87</ele><time>2026-06-12T16:03:40.000Z</time></trkpt>
        <trkpt lat="29.5718199" lon="103.3995953"><ele>785.66</ele><time>2026-06-12T16:03:48.000Z</time></trkpt>
        <trkpt lat="29.5718069" lon="103.3995399"><ele>786.75</ele><time>2026-06-12T16:03:54.000Z</time></trkpt>
        <trkpt lat="29.5718124" lon="103.3994723"><ele>788.02</ele><time>2026-06-12T16:04:00.000Z</time></trkpt>
        <trkpt lat="29.5718103" lon="103.3994015"><ele>789.95</ele><time>2026-06-12T16:04:09.000Z</time></trkpt>
        <trkpt lat="29.5717871" lon="103.3993352"><ele>791.48</ele><time>2026-06-12T16:04:15.000Z</time></trkpt>
        <trkpt lat="29.5717701" lon="103.3992786"><ele>792.69</ele><time>2026-06-12T16:04:24.000Z</time></trkpt>
        <trkpt lat="29.5717377" lon="103.399243"><ele>794.29</ele><time>2026-06-12T16:04:36.000Z</time></trkpt>
        <trkpt lat="29.571705" lon="103.3991997"><ele>796.31</ele><time>2026-06-12T16:04:42.000Z</time></trkpt>
        <trkpt lat="29.5716831" lon="103.3991483"><ele>797.64</ele><time>2026-06-12T16:04:48.000Z</time></trkpt>
        <trkpt lat="29.5716633" lon="103.3990923"><ele>798.91</ele><time>2026-06-12T16:04:52.000Z</time></trkpt>
        <trkpt lat="29.5716502" lon="103.3990363"><ele>799.77</ele><time>2026-06-12T16:04:57.000Z</time></trkpt>
        <trkpt lat="29.5716318" lon="103.3989793"><ele>801.16</ele><time>2026-06-12T16:05:06.000Z</time></trkpt>
        <trkpt lat="29.5716347" lon="103.3989135"><ele>802.81</ele><time>2026-06-12T16:05:12.000Z</time></trkpt>
        <trkpt lat="29.5716216" lon="103.3988545"><ele>803.71</ele><time>2026-06-12T16:05:16.000Z</time></trkpt>
        <trkpt lat="29.571604" lon="103.398795"><ele>805</ele><time>2026-06-12T16:05:19.000Z</time></trkpt>
        <trkpt lat="29.5716013" lon="103.3987288"><ele>806.63</ele><time>2026-06-12T16:05:23.000Z</time></trkpt>
        <trkpt lat="29.5715957" lon="103.3986678"><ele>807.69</ele><time>2026-06-12T16:05:28.000Z</time></trkpt>
        <trkpt lat="29.5715871" lon="103.3986077"><ele>808.13</ele><time>2026-06-12T16:05:32.000Z</time></trkpt>
        <trkpt lat="29.5715786" lon="103.3985467"><ele>808.24</ele><time>2026-06-12T16:05:36.000Z</time></trkpt>
        <trkpt lat="29.5715638" lon="103.3984877"><ele>808.4</ele><time>2026-06-12T16:05:42.000Z</time></trkpt>
        <trkpt lat="29.5715494" lon="103.3984269"><ele>808.48</ele><time>2026-06-12T16:05:46.000Z</time></trkpt>
        <trkpt lat="29.5715492" lon="103.3983691"><ele>808.66</ele><time>2026-06-12T16:05:49.000Z</time></trkpt>
        <trkpt lat="29.5715518" lon="103.398305"><ele>808.51</ele><time>2026-06-12T16:05:53.000Z</time></trkpt>
        <trkpt lat="29.5715524" lon="103.3982283"><ele>808.12</ele><time>2026-06-12T16:05:58.000Z</time></trkpt>
        <trkpt lat="29.5715591" lon="103.3981512"><ele>807.68</ele><time>2026-06-12T16:06:03.000Z</time></trkpt>
        <trkpt lat="29.5715692" lon="103.3980771"><ele>806.27</ele><time>2026-06-12T16:06:09.000Z</time></trkpt>
        <trkpt lat="29.5715676" lon="103.398011"><ele>804.78</ele><time>2026-06-12T16:06:16.000Z</time></trkpt>
        <trkpt lat="29.5715475" lon="103.397944"><ele>803.07</ele><time>2026-06-12T16:06:22.000Z</time></trkpt>
        <trkpt lat="29.5715311" lon="103.3978851"><ele>801.75</ele><time>2026-06-12T16:06:27.000Z</time></trkpt>
        <trkpt lat="29.5715085" lon="103.3978253"><ele>799.79</ele><time>2026-06-12T16:06:34.000Z</time></trkpt>
        <trkpt lat="29.5714941" lon="103.3977721"><ele>797.47</ele><time>2026-06-12T16:06:38.000Z</time></trkpt>
        <trkpt lat="29.5714721" lon="103.3977135"><ele>795.16</ele><time>2026-06-12T16:06:44.000Z</time></trkpt>
        <trkpt lat="29.5714446" lon="103.3976501"><ele>792.04</ele><time>2026-06-12T16:06:50.000Z</time></trkpt>
        <trkpt lat="29.5714229" lon="103.3975899"><ele>789.48</ele><time>2026-06-12T16:06:53.000Z</time></trkpt>
        <trkpt lat="29.5714215" lon="103.3975361"><ele>787.6</ele><time>2026-06-12T16:06:57.000Z</time></trkpt>
        <trkpt lat="29.5714523" lon="103.3974822"><ele>785.84</ele><time>2026-06-12T16:07:03.000Z</time></trkpt>
        <trkpt lat="29.5714788" lon="103.3974179"><ele>783.88</ele><time>2026-06-12T16:07:07.000Z</time></trkpt>
        <trkpt lat="29.5714951" lon="103.3973583"><ele>782.3</ele><time>2026-06-12T16:07:11.000Z</time></trkpt>
        <trkpt lat="29.5715066" lon="103.3973047"><ele>781.01</ele><time>2026-06-12T16:07:15.000Z</time></trkpt>
        <trkpt lat="29.5715365" lon="103.3972495"><ele>780.19</ele><time>2026-06-12T16:07:19.000Z</time></trkpt>
        <trkpt lat="29.5715607" lon="103.3971971"><ele>779.25</ele><time>2026-06-12T16:07:23.000Z</time></trkpt>
        <trkpt lat="29.5715972" lon="103.3971495"><ele>778.45</ele><time>2026-06-12T16:07:29.000Z</time></trkpt>
        <trkpt lat="29.5716291" lon="103.3970896"><ele>777.53</ele><time>2026-06-12T16:07:35.000Z</time></trkpt>
        <trkpt lat="29.5716674" lon="103.3970448"><ele>776.27</ele><time>2026-06-12T16:07:39.000Z</time></trkpt>
        <trkpt lat="29.5717016" lon="103.3970061"><ele>774.82</ele><time>2026-06-12T16:07:43.000Z</time></trkpt>
        <trkpt lat="29.5717352" lon="103.3969528"><ele>773.39</ele><time>2026-06-12T16:07:49.000Z</time></trkpt>
        <trkpt lat="29.5717748" lon="103.3968935"><ele>771.8</ele><time>2026-06-12T16:07:55.000Z</time></trkpt>
        <trkpt lat="29.5718128" lon="103.3968474"><ele>769.57</ele><time>2026-06-12T16:08:02.000Z</time></trkpt>
        <trkpt lat="29.5718525" lon="103.3968131"><ele>767</ele><time>2026-06-12T16:08:05.000Z</time></trkpt>
        <trkpt lat="29.5719028" lon="103.3967914"><ele>764.72</ele><time>2026-06-12T16:08:09.000Z</time></trkpt>
        <trkpt lat="29.5719542" lon="103.3967809"><ele>762.9</ele><time>2026-06-12T16:08:13.000Z</time></trkpt>
        <trkpt lat="29.5720104" lon="103.3967684"><ele>761.05</ele><time>2026-06-12T16:08:19.000Z</time></trkpt>
        <trkpt lat="29.572068" lon="103.3967602"><ele>758.36</ele><time>2026-06-12T16:08:25.000Z</time></trkpt>
        <trkpt lat="29.5721269" lon="103.3967417"><ele>755.32</ele><time>2026-06-12T16:08:31.000Z</time></trkpt>
        <trkpt lat="29.5721758" lon="103.3967353"><ele>752.78</ele><time>2026-06-12T16:08:37.000Z</time></trkpt>
        <trkpt lat="29.5722335" lon="103.396736"><ele>750.29</ele><time>2026-06-12T16:08:43.000Z</time></trkpt>
        <trkpt lat="29.5722834" lon="103.3967288"><ele>747.89</ele><time>2026-06-12T16:08:49.000Z</time></trkpt>
        <trkpt lat="29.5723278" lon="103.3967106"><ele>745.7</ele><time>2026-06-12T16:08:55.000Z</time></trkpt>
        <trkpt lat="29.5723566" lon="103.3966521"><ele>743.63</ele><time>2026-06-12T16:09:01.000Z</time></trkpt>
        <trkpt lat="29.5723639" lon="103.3965895"><ele>740.95</ele><time>2026-06-12T16:09:05.000Z</time></trkpt>
        <trkpt lat="29.5723583" lon="103.3965243"><ele>738.82</ele><time>2026-06-12T16:09:11.000Z</time></trkpt>
        <trkpt lat="29.5723421" lon="103.3964421"><ele>737.09</ele><time>2026-06-12T16:09:17.000Z</time></trkpt>
        <trkpt lat="29.5723475" lon="103.3963785"><ele>735.33</ele><time>2026-06-12T16:09:21.000Z</time></trkpt>
        <trkpt lat="29.5723635" lon="103.3963169"><ele>733.9</ele><time>2026-06-12T16:09:25.000Z</time></trkpt>
        <trkpt lat="29.5723629" lon="103.3962582"><ele>733.17</ele><time>2026-06-12T16:09:29.000Z</time></trkpt>
        <trkpt lat="29.572363" lon="103.3962042"><ele>733.18</ele><time>2026-06-12T16:09:33.000Z</time></trkpt>
        <trkpt lat="29.5723801" lon="103.3961478"><ele>733.53</ele><time>2026-06-12T16:09:37.000Z</time></trkpt>
        <trkpt lat="29.5724061" lon="103.3960876"><ele>734.08</ele><time>2026-06-12T16:09:41.000Z</time></trkpt>
        <trkpt lat="29.5724534" lon="103.3960435"><ele>734.47</ele><time>2026-06-12T16:09:45.000Z</time></trkpt>
        <trkpt lat="29.5725099" lon="103.3960067"><ele>734.27</ele><time>2026-06-12T16:09:49.000Z</time></trkpt>
        <trkpt lat="29.5725633" lon="103.3959768"><ele>733.29</ele><time>2026-06-12T16:09:53.000Z</time></trkpt>
        <trkpt lat="29.5726141" lon="103.3959422"><ele>731.96</ele><time>2026-06-12T16:09:59.000Z</time></trkpt>
        <trkpt lat="29.5726633" lon="103.3958927"><ele>729.66</ele><time>2026-06-12T16:10:05.000Z</time></trkpt>
        <trkpt lat="29.5727169" lon="103.395845"><ele>727.87</ele><time>2026-06-12T16:10:09.000Z</time></trkpt>
        <trkpt lat="29.5727608" lon="103.3958013"><ele>726.46</ele><time>2026-06-12T16:10:14.000Z</time></trkpt>
        <trkpt lat="29.5727984" lon="103.3957392"><ele>725.4</ele><time>2026-06-12T16:10:17.000Z</time></trkpt>
        <trkpt lat="29.5728353" lon="103.3956816"><ele>724.8</ele><time>2026-06-12T16:10:21.000Z</time></trkpt>
        <trkpt lat="29.5728614" lon="103.3956279"><ele>724.15</ele><time>2026-06-12T16:10:25.000Z</time></trkpt>
        <trkpt lat="29.5728824" lon="103.3955721"><ele>723.4</ele><time>2026-06-12T16:10:29.000Z</time></trkpt>
        <trkpt lat="29.5729013" lon="103.3955155"><ele>722.58</ele><time>2026-06-12T16:10:33.000Z</time></trkpt>
        <trkpt lat="29.5729174" lon="103.3954549"><ele>721.43</ele><time>2026-06-12T16:10:37.000Z</time></trkpt>
        <trkpt lat="29.5729419" lon="103.3954017"><ele>720.04</ele><time>2026-06-12T16:10:41.000Z</time></trkpt>
        <trkpt lat="29.572971" lon="103.395349"><ele>718.56</ele><time>2026-06-12T16:10:45.000Z</time></trkpt>
        <trkpt lat="29.5729816" lon="103.3952887"><ele>716.94</ele><time>2026-06-12T16:10:51.000Z</time></trkpt>
        <trkpt lat="29.5729574" lon="103.3952153"><ele>715.12</ele><time>2026-06-12T16:10:57.000Z</time></trkpt>
        <trkpt lat="29.5729314" lon="103.3951439"><ele>713.52</ele><time>2026-06-12T16:11:02.000Z</time></trkpt>
        <trkpt lat="29.5729158" lon="103.3950602"><ele>712.05</ele><time>2026-06-12T16:11:05.000Z</time></trkpt>
        <trkpt lat="29.5729117" lon="103.3949775"><ele>710.61</ele><time>2026-06-12T16:11:09.000Z</time></trkpt>
        <trkpt lat="29.5729181" lon="103.3949047"><ele>709.57</ele><time>2026-06-12T16:11:13.000Z</time></trkpt>
        <trkpt lat="29.5729153" lon="103.3948409"><ele>709.02</ele><time>2026-06-12T16:11:17.000Z</time></trkpt>
        <trkpt lat="29.5728882" lon="103.3948015"><ele>708.58</ele><time>2026-06-12T16:11:21.000Z</time></trkpt>
        <trkpt lat="29.5728573" lon="103.3947627"><ele>708.29</ele><time>2026-06-12T16:11:25.000Z</time></trkpt>
        <trkpt lat="29.5728213" lon="103.3947112"><ele>707.86</ele><time>2026-06-12T16:11:31.000Z</time></trkpt>
        <trkpt lat="29.5727794" lon="103.3946717"><ele>706.85</ele><time>2026-06-12T16:11:37.000Z</time></trkpt>
        <trkpt lat="29.5727487" lon="103.3946167"><ele>705.84</ele><time>2026-06-12T16:11:43.000Z</time></trkpt>
        <trkpt lat="29.5727578" lon="103.3945568"><ele>705.31</ele><time>2026-06-12T16:11:47.000Z</time></trkpt>
        <trkpt lat="29.5727699" lon="103.3945018"><ele>705.04</ele><time>2026-06-12T16:11:51.000Z</time></trkpt>
        <trkpt lat="29.5727772" lon="103.3944468"><ele>704.51</ele><time>2026-06-12T16:11:55.000Z</time></trkpt>
        <trkpt lat="29.5728038" lon="103.3943917"><ele>703.43</ele><time>2026-06-12T16:11:59.000Z</time></trkpt>
        <trkpt lat="29.5728294" lon="103.3943292"><ele>702.04</ele><time>2026-06-12T16:12:05.000Z</time></trkpt>
        <trkpt lat="29.5728547" lon="103.3942714"><ele>700.04</ele><time>2026-06-12T16:12:09.000Z</time></trkpt>
        <trkpt lat="29.5728767" lon="103.3942221"><ele>698.52</ele><time>2026-06-12T16:12:13.000Z</time></trkpt>
        <trkpt lat="29.5728997" lon="103.3941733"><ele>696.96</ele><time>2026-06-12T16:12:17.000Z</time></trkpt>
        <trkpt lat="29.5729268" lon="103.3941192"><ele>695.3</ele><time>2026-06-12T16:12:22.000Z</time></trkpt>
        <trkpt lat="29.5729504" lon="103.3940466"><ele>693.58</ele><time>2026-06-12T16:12:25.000Z</time></trkpt>
        <trkpt lat="29.5729699" lon="103.3939786"><ele>691.44</ele><time>2026-06-12T16:12:29.000Z</time></trkpt>
        <trkpt lat="29.5729942" lon="103.3939159"><ele>689.44</ele><time>2026-06-12T16:12:33.000Z</time></trkpt>
        <trkpt lat="29.5730181" lon="103.393858"><ele>687.4</ele><time>2026-06-12T16:12:37.000Z</time></trkpt>
        <trkpt lat="29.5730416" lon="103.3938005"><ele>685.68</ele><time>2026-06-12T16:12:42.000Z</time></trkpt>
        <trkpt lat="29.5730675" lon="103.3937478"><ele>684.36</ele><time>2026-06-12T16:12:45.000Z</time></trkpt>
        <trkpt lat="29.5731118" lon="103.3937217"><ele>683.69</ele><time>2026-06-12T16:12:49.000Z</time></trkpt>
        <trkpt lat="29.5731877" lon="103.3937175"><ele>683.56</ele><time>2026-06-12T16:12:53.000Z</time></trkpt>
        <trkpt lat="29.5732704" lon="103.3937221"><ele>683.28</ele><time>2026-06-12T16:12:57.000Z</time></trkpt>
        <trkpt lat="29.5733306" lon="103.3937178"><ele>682.77</ele><time>2026-06-12T16:13:01.000Z</time></trkpt>
        <trkpt lat="29.5733636" lon="103.3936787"><ele>682.7</ele><time>2026-06-12T16:13:05.000Z</time></trkpt>
        <trkpt lat="29.5733857" lon="103.3936265"><ele>682.78</ele><time>2026-06-12T16:13:09.000Z</time></trkpt>
        <trkpt lat="29.5734193" lon="103.3935925"><ele>683.31</ele><time>2026-06-12T16:13:13.000Z</time></trkpt>
        <trkpt lat="29.573495" lon="103.3935931"><ele>684.25</ele><time>2026-06-12T16:13:17.000Z</time></trkpt>
        <trkpt lat="29.5735661" lon="103.3935874"><ele>684.53</ele><time>2026-06-12T16:13:21.000Z</time></trkpt>
        <trkpt lat="29.573617" lon="103.3935537"><ele>684.04</ele><time>2026-06-12T16:13:25.000Z</time></trkpt>
        <trkpt lat="29.5736622" lon="103.3935165"><ele>683.77</ele><time>2026-06-12T16:13:29.000Z</time></trkpt>
        <trkpt lat="29.5737109" lon="103.3934705"><ele>683.57</ele><time>2026-06-12T16:13:33.000Z</time></trkpt>
        <trkpt lat="29.573764" lon="103.3934396"><ele>683.37</ele><time>2026-06-12T16:13:37.000Z</time></trkpt>
        <trkpt lat="29.5738226" lon="103.3934151"><ele>682.35</ele><time>2026-06-12T16:13:41.000Z</time></trkpt>
        <trkpt lat="29.5738769" lon="103.3933926"><ele>681.51</ele><time>2026-06-12T16:13:45.000Z</time></trkpt>
        <trkpt lat="29.5739216" lon="103.3933703"><ele>680.69</ele><time>2026-06-12T16:13:49.000Z</time></trkpt>
        <trkpt lat="29.5739616" lon="103.3933227"><ele>680.01</ele><time>2026-06-12T16:13:55.000Z</time></trkpt>
        <trkpt lat="29.5739879" lon="103.393248"><ele>678.76</ele><time>2026-06-12T16:14:01.000Z</time></trkpt>
        <trkpt lat="29.574001" lon="103.3931773"><ele>677.27</ele><time>2026-06-12T16:14:05.000Z</time></trkpt>
        <trkpt lat="29.5740116" lon="103.3931364"><ele>675.82</ele><time>2026-06-12T16:14:07.000Z</time></trkpt>
        <trkpt lat="29.5740162" lon="103.3930899"><ele>674.78</ele><time>2026-06-12T16:14:11.000Z</time></trkpt>
        <trkpt lat="29.5740183" lon="103.3930226"><ele>673.84</ele><time>2026-06-12T16:14:15.000Z</time></trkpt>
        <trkpt lat="29.5740302" lon="103.3929499"><ele>672.79</ele><time>2026-06-12T16:14:19.000Z</time></trkpt>
        <trkpt lat="29.5740474" lon="103.3928913"><ele>671.89</ele><time>2026-06-12T16:14:23.000Z</time></trkpt>
        <trkpt lat="29.5740714" lon="103.3928399"><ele>671.21</ele><time>2026-06-12T16:14:29.000Z</time></trkpt>
        <trkpt lat="29.5740937" lon="103.392777"><ele>670.26</ele><time>2026-06-12T16:14:35.000Z</time></trkpt>
        <trkpt lat="29.5740959" lon="103.392713"><ele>669.89</ele><time>2026-06-12T16:14:39.000Z</time></trkpt>
        <trkpt lat="29.5740944" lon="103.3926566"><ele>669.59</ele><time>2026-06-12T16:14:43.000Z</time></trkpt>
        <trkpt lat="29.5741037" lon="103.3925981"><ele>669.6</ele><time>2026-06-12T16:14:49.000Z</time></trkpt>
        <trkpt lat="29.5741115" lon="103.3925285"><ele>669.94</ele><time>2026-06-12T16:14:55.000Z</time></trkpt>
        <trkpt lat="29.574096" lon="103.3924637"><ele>670.18</ele><time>2026-06-12T16:15:01.000Z</time></trkpt>
        <trkpt lat="29.5741345" lon="103.3924437"><ele>670.32</ele><time>2026-06-12T16:15:09.000Z</time></trkpt>
        <trkpt lat="29.5741727" lon="103.3924013"><ele>669.67</ele><time>2026-06-12T16:15:22.000Z</time></trkpt>
        <trkpt lat="29.5741998" lon="103.3923533"><ele>667.74</ele><time>2026-06-12T16:15:28.000Z</time></trkpt>
        <trkpt lat="29.5742192" lon="103.3922995"><ele>665.96</ele><time>2026-06-12T16:15:42.000Z</time></trkpt>
        <trkpt lat="29.574163" lon="103.3923001"><ele>663.83</ele><time>2026-06-12T16:15:50.000Z</time></trkpt>
        <trkpt lat="29.5741209" lon="103.3922723"><ele>662.14</ele><time>2026-06-12T16:15:54.000Z</time></trkpt>
        <trkpt lat="29.574141" lon="103.3922176"><ele>661</ele><time>2026-06-12T16:15:56.000Z</time></trkpt>
        <trkpt lat="29.5741803" lon="103.3921769"><ele>660.23</ele><time>2026-06-12T16:15:58.000Z</time></trkpt>
        <trkpt lat="29.5741803" lon="103.3921769"><ele>660.23</ele><time>2026-06-12T16:16:02.000Z</time></trkpt>
        <trkpt lat="29.5742539" lon="103.3921071"><ele>659.57</ele><time>2026-06-12T16:16:08.000Z</time></trkpt>
        <trkpt lat="29.5742539" lon="103.3921071"><ele>659.57</ele><time>2026-06-12T16:16:08.000Z</time></trkpt>
        <trkpt lat="29.5741807" lon="103.3921414"><ele>657.69</ele><time>2026-06-12T16:16:12.000Z</time></trkpt>
        <trkpt lat="29.5741428" lon="103.3921127"><ele>656.83</ele><time>2026-06-12T16:16:28.000Z</time></trkpt>
        <trkpt lat="29.5740966" lon="103.3921067"><ele>656.35</ele><time>2026-06-12T16:17:10.000Z</time></trkpt>
        <trkpt lat="29.5740552" lon="103.392077"><ele>656.54</ele><time>2026-06-12T16:17:22.000Z</time></trkpt>
        <trkpt lat="29.574011" lon="103.3920684"><ele>656.61</ele><time>2026-06-12T16:17:36.000Z</time></trkpt>
        <trkpt lat="29.5739671" lon="103.3920874"><ele>656.52</ele><time>2026-06-12T16:17:58.000Z</time></trkpt>
        <trkpt lat="29.5739172" lon="103.3921035"><ele>657.59</ele><time>2026-06-12T16:18:10.000Z</time></trkpt>
        <trkpt lat="29.5738677" lon="103.3921192"><ele>658.15</ele><time>2026-06-12T16:18:18.000Z</time></trkpt>
        <trkpt lat="29.5737949" lon="103.3921278"><ele>658.04</ele><time>2026-06-12T16:18:22.000Z</time></trkpt>
        <trkpt lat="29.5737213" lon="103.3921032"><ele>657.85</ele><time>2026-06-12T16:18:26.000Z</time></trkpt>
        <trkpt lat="29.5736788" lon="103.3920742"><ele>657.57</ele><time>2026-06-12T16:18:28.000Z</time></trkpt>
        <trkpt lat="29.573641" lon="103.3920393"><ele>657.37</ele><time>2026-06-12T16:18:32.000Z</time></trkpt>
        <trkpt lat="29.5736298" lon="103.3919797"><ele>657.43</ele><time>2026-06-12T16:18:36.000Z</time></trkpt>
        <trkpt lat="29.5736225" lon="103.3919208"><ele>657.63</ele><time>2026-06-12T16:18:41.000Z</time></trkpt>
        <trkpt lat="29.5736083" lon="103.391854"><ele>656.97</ele><time>2026-06-12T16:18:48.000Z</time></trkpt>
        <trkpt lat="29.5735728" lon="103.3918016"><ele>656.17</ele><time>2026-06-12T16:18:54.000Z</time></trkpt>
        <trkpt lat="29.5735192" lon="103.3917529"><ele>655.19</ele><time>2026-06-12T16:18:58.000Z</time></trkpt>
        <trkpt lat="29.5734864" lon="103.3917027"><ele>654.21</ele><time>2026-06-12T16:19:06.000Z</time></trkpt>
        <trkpt lat="29.5734338" lon="103.3916817"><ele>653.3</ele><time>2026-06-12T16:19:10.000Z</time></trkpt>
        <trkpt lat="29.57337" lon="103.3916862"><ele>652.57</ele><time>2026-06-12T16:19:14.000Z</time></trkpt>
        <trkpt lat="29.5733104" lon="103.391706"><ele>651.89</ele><time>2026-06-12T16:19:18.000Z</time></trkpt>
        <trkpt lat="29.5732573" lon="103.3917077"><ele>651.51</ele><time>2026-06-12T16:19:26.000Z</time></trkpt>
        <trkpt lat="29.5732069" lon="103.3917397"><ele>651.55</ele><time>2026-06-12T16:19:30.000Z</time></trkpt>
        <trkpt lat="29.5731561" lon="103.39175"><ele>651.7</ele><time>2026-06-12T16:19:34.000Z</time></trkpt>
        <trkpt lat="29.5731111" lon="103.391767"><ele>652.17</ele><time>2026-06-12T16:19:38.000Z</time></trkpt>
        <trkpt lat="29.5730581" lon="103.3917554"><ele>652.96</ele><time>2026-06-12T16:19:42.000Z</time></trkpt>
        <trkpt lat="29.5729943" lon="103.3917582"><ele>654.53</ele><time>2026-06-12T16:19:48.000Z</time></trkpt>
        <trkpt lat="29.5729381" lon="103.3917965"><ele>656.97</ele><time>2026-06-12T16:19:52.000Z</time></trkpt>
        <trkpt lat="29.5728904" lon="103.3918277"><ele>659.52</ele><time>2026-06-12T16:19:56.000Z</time></trkpt>
        <trkpt lat="29.572852" lon="103.3918594"><ele>662.05</ele><time>2026-06-12T16:20:00.000Z</time></trkpt>
        <trkpt lat="29.5728103" lon="103.3918906"><ele>664.39</ele><time>2026-06-12T16:20:06.000Z</time></trkpt>
        <trkpt lat="29.5727516" lon="103.391895"><ele>666.42</ele><time>2026-06-12T16:20:12.000Z</time></trkpt>
        <trkpt lat="29.5727052" lon="103.3918669"><ele>668.56</ele><time>2026-06-12T16:20:18.000Z</time></trkpt>
        <trkpt lat="29.5726604" lon="103.3918558"><ele>670.69</ele><time>2026-06-12T16:20:22.000Z</time></trkpt>
        <trkpt lat="29.5726159" lon="103.3918772"><ele>672.41</ele><time>2026-06-12T16:20:26.000Z</time></trkpt>
        <trkpt lat="29.57257" lon="103.3919109"><ele>673.53</ele><time>2026-06-12T16:20:34.000Z</time></trkpt>
        <trkpt lat="29.572506" lon="103.3919162"><ele>674.5</ele><time>2026-06-12T16:20:42.000Z</time></trkpt>
        <trkpt lat="29.5724429" lon="103.3919072"><ele>675.71</ele><time>2026-06-12T16:20:46.000Z</time></trkpt>
        <trkpt lat="29.5723899" lon="103.3918886"><ele>676.99</ele><time>2026-06-12T16:20:50.000Z</time></trkpt>
        <trkpt lat="29.5723385" lon="103.3918465"><ele>677.68</ele><time>2026-06-12T16:20:54.000Z</time></trkpt>
        <trkpt lat="29.5722937" lon="103.3918082"><ele>677.86</ele><time>2026-06-12T16:20:58.000Z</time></trkpt>
        <trkpt lat="29.5722423" lon="103.3917944"><ele>677.88</ele><time>2026-06-12T16:21:04.000Z</time></trkpt>
        <trkpt lat="29.5721955" lon="103.391783"><ele>678.53</ele><time>2026-06-12T16:21:08.000Z</time></trkpt>
        <trkpt lat="29.5721379" lon="103.3917589"><ele>679.12</ele><time>2026-06-12T16:21:14.000Z</time></trkpt>
        <trkpt lat="29.5720863" lon="103.3917358"><ele>679.46</ele><time>2026-06-12T16:21:18.000Z</time></trkpt>
        <trkpt lat="29.5720385" lon="103.391726"><ele>679.22</ele><time>2026-06-12T16:21:22.000Z</time></trkpt>
        <trkpt lat="29.5719871" lon="103.39171"><ele>678.69</ele><time>2026-06-12T16:21:26.000Z</time></trkpt>
        <trkpt lat="29.5719378" lon="103.3916872"><ele>677.75</ele><time>2026-06-12T16:21:30.000Z</time></trkpt>
        <trkpt lat="29.5718844" lon="103.3916833"><ele>676.78</ele><time>2026-06-12T16:21:34.000Z</time></trkpt>
        <trkpt lat="29.5718357" lon="103.3916966"><ele>675.41</ele><time>2026-06-12T16:21:38.000Z</time></trkpt>
        <trkpt lat="29.5717839" lon="103.3916866"><ele>673.9</ele><time>2026-06-12T16:21:42.000Z</time></trkpt>
        <trkpt lat="29.5717307" lon="103.3916817"><ele>672.4</ele><time>2026-06-12T16:21:46.000Z</time></trkpt>
        <trkpt lat="29.5716684" lon="103.391673"><ele>670.98</ele><time>2026-06-12T16:21:50.000Z</time></trkpt>
        <trkpt lat="29.5716054" lon="103.3916666"><ele>669.78</ele><time>2026-06-12T16:21:56.000Z</time></trkpt>
        <trkpt lat="29.5715389" lon="103.3916537"><ele>668.54</ele><time>2026-06-12T16:22:03.000Z</time></trkpt>
        <trkpt lat="29.571479" lon="103.3916561"><ele>667.32</ele><time>2026-06-12T16:22:06.000Z</time></trkpt>
        <trkpt lat="29.5714219" lon="103.3916606"><ele>666.32</ele><time>2026-06-12T16:22:10.000Z</time></trkpt>
        <trkpt lat="29.5713556" lon="103.3916727"><ele>665.37</ele><time>2026-06-12T16:22:14.000Z</time></trkpt>
        <trkpt lat="29.5712982" lon="103.3916934"><ele>664.65</ele><time>2026-06-12T16:22:18.000Z</time></trkpt>
        <trkpt lat="29.5712408" lon="103.3917103"><ele>664.24</ele><time>2026-06-12T16:22:23.000Z</time></trkpt>
        <trkpt lat="29.5711917" lon="103.3917275"><ele>664.18</ele><time>2026-06-12T16:22:26.000Z</time></trkpt>
        <trkpt lat="29.5711406" lon="103.3917233"><ele>663.93</ele><time>2026-06-12T16:22:30.000Z</time></trkpt>
        <trkpt lat="29.5710819" lon="103.3917237"><ele>663.62</ele><time>2026-06-12T16:22:36.000Z</time></trkpt>
        <trkpt lat="29.5710491" lon="103.391688"><ele>663.27</ele><time>2026-06-12T16:22:48.000Z</time></trkpt>
        <trkpt lat="29.5710912" lon="103.3916745"><ele>663.67</ele><time>2026-06-12T16:22:54.000Z</time></trkpt>
        <trkpt lat="29.5710642" lon="103.3916689"><ele>664.46</ele><time>2026-06-12T16:23:06.000Z</time></trkpt>
        <trkpt lat="29.570996" lon="103.3916509"><ele>664.13</ele><time>2026-06-12T16:23:10.000Z</time></trkpt>
        <trkpt lat="29.570929" lon="103.3916343"><ele>663.73</ele><time>2026-06-12T16:23:16.000Z</time></trkpt>
        <trkpt lat="29.5708766" lon="103.391616"><ele>663.46</ele><time>2026-06-12T16:23:20.000Z</time></trkpt>
        <trkpt lat="29.5708223" lon="103.3915974"><ele>663.3</ele><time>2026-06-12T16:23:26.000Z</time></trkpt>
        <trkpt lat="29.5707747" lon="103.391595"><ele>663.3</ele><time>2026-06-12T16:23:30.000Z</time></trkpt>
        <trkpt lat="29.5707273" lon="103.3915661"><ele>663.39</ele><time>2026-06-12T16:23:38.000Z</time></trkpt>
        <trkpt lat="29.5706921" lon="103.391528"><ele>663.74</ele><time>2026-06-12T16:23:42.000Z</time></trkpt>
        <trkpt lat="29.5706586" lon="103.3914887"><ele>663.98</ele><time>2026-06-12T16:23:46.000Z</time></trkpt>
        <trkpt lat="29.5706163" lon="103.3914539"><ele>664.46</ele><time>2026-06-12T16:23:52.000Z</time></trkpt>
        <trkpt lat="29.5705715" lon="103.3914112"><ele>665.38</ele><time>2026-06-12T16:23:59.000Z</time></trkpt>
        <trkpt lat="29.5705536" lon="103.3913708"><ele>666.16</ele><time>2026-06-12T16:24:04.000Z</time></trkpt>
        <trkpt lat="29.5705457" lon="103.3913141"><ele>667.64</ele><time>2026-06-12T16:24:08.000Z</time></trkpt>
        <trkpt lat="29.5705139" lon="103.3912667"><ele>669.52</ele><time>2026-06-12T16:24:12.000Z</time></trkpt>
        <trkpt lat="29.5704745" lon="103.3912273"><ele>671.62</ele><time>2026-06-12T16:24:18.000Z</time></trkpt>
        <trkpt lat="29.5704294" lon="103.391226"><ele>673.85</ele><time>2026-06-12T16:24:24.000Z</time></trkpt>
        <trkpt lat="29.5703778" lon="103.3912206"><ele>675.2</ele><time>2026-06-12T16:24:30.000Z</time></trkpt>
        <trkpt lat="29.5703383" lon="103.3911888"><ele>676.45</ele><time>2026-06-12T16:24:38.000Z</time></trkpt>
        <trkpt lat="29.5703078" lon="103.3911452"><ele>677.89</ele><time>2026-06-12T16:24:44.000Z</time></trkpt>
        <trkpt lat="29.5702703" lon="103.3911069"><ele>679.31</ele><time>2026-06-12T16:24:52.000Z</time></trkpt>
        <trkpt lat="29.5702258" lon="103.3910741"><ele>680.81</ele><time>2026-06-12T16:25:00.000Z</time></trkpt>
        <trkpt lat="29.5701638" lon="103.3910701"><ele>682.92</ele><time>2026-06-12T16:25:06.000Z</time></trkpt>
        <trkpt lat="29.5701158" lon="103.3910425"><ele>685.19</ele><time>2026-06-12T16:25:12.000Z</time></trkpt>
        <trkpt lat="29.5700904" lon="103.3909859"><ele>687</ele><time>2026-06-12T16:25:18.000Z</time></trkpt>
        <trkpt lat="29.5700556" lon="103.390943"><ele>688.55</ele><time>2026-06-12T16:25:24.000Z</time></trkpt>
        <trkpt lat="29.5699985" lon="103.3909318"><ele>690.12</ele><time>2026-06-12T16:25:30.000Z</time></trkpt>
        <trkpt lat="29.569938" lon="103.3909488"><ele>691.66</ele><time>2026-06-12T16:25:36.000Z</time></trkpt>
        <trkpt lat="29.56988" lon="103.3909594"><ele>693.1</ele><time>2026-06-12T16:25:46.000Z</time></trkpt>
        <trkpt lat="29.5698199" lon="103.3909778"><ele>693.83</ele><time>2026-06-12T16:25:52.000Z</time></trkpt>
        <trkpt lat="29.5697631" lon="103.3909893"><ele>693.9</ele><time>2026-06-12T16:26:02.000Z</time></trkpt>
        <trkpt lat="29.5697215" lon="103.3909699"><ele>693</ele><time>2026-06-12T16:26:10.000Z</time></trkpt>
        <trkpt lat="29.5696704" lon="103.3909541"><ele>691.11</ele><time>2026-06-12T16:26:14.000Z</time></trkpt>
        <trkpt lat="29.5696162" lon="103.3909437"><ele>689.08</ele><time>2026-06-12T16:26:20.000Z</time></trkpt>
        <trkpt lat="29.5695598" lon="103.3909573"><ele>686.42</ele><time>2026-06-12T16:26:26.000Z</time></trkpt>
        <trkpt lat="29.5695076" lon="103.3909734"><ele>683.27</ele><time>2026-06-12T16:26:32.000Z</time></trkpt>
        <trkpt lat="29.5694524" lon="103.3909679"><ele>680.45</ele><time>2026-06-12T16:26:46.000Z</time></trkpt>
        <trkpt lat="29.5694008" lon="103.3909774"><ele>676.6</ele><time>2026-06-12T16:27:06.000Z</time></trkpt>
        <trkpt lat="29.5693695" lon="103.3909431"><ele>672.64</ele><time>2026-06-12T16:27:26.000Z</time></trkpt>
        <trkpt lat="29.5693204" lon="103.3909325"><ele>670.52</ele><time>2026-06-12T16:27:32.000Z</time></trkpt>
        <trkpt lat="29.5693037" lon="103.3908738"><ele>669.22</ele><time>2026-06-12T16:27:38.000Z</time></trkpt>
        <trkpt lat="29.5692529" lon="103.390845"><ele>668.57</ele><time>2026-06-12T16:27:45.000Z</time></trkpt>
        <trkpt lat="29.569203" lon="103.3908497"><ele>667.98</ele><time>2026-06-12T16:27:48.000Z</time></trkpt>
        <trkpt lat="29.5691557" lon="103.3908501"><ele>667.9</ele><time>2026-06-12T16:28:05.000Z</time></trkpt>
        <trkpt lat="29.5691036" lon="103.3908795"><ele>668.72</ele><time>2026-06-12T16:28:14.000Z</time></trkpt>
        <trkpt lat="29.5690512" lon="103.3908998"><ele>669.4</ele><time>2026-06-12T16:28:18.000Z</time></trkpt>
        <trkpt lat="29.5690027" lon="103.3909337"><ele>670.09</ele><time>2026-06-12T16:28:26.000Z</time></trkpt>
        <trkpt lat="29.5689495" lon="103.3909957"><ele>671.13</ele><time>2026-06-12T16:28:30.000Z</time></trkpt>
        <trkpt lat="29.5689196" lon="103.3910631"><ele>671.46</ele><time>2026-06-12T16:28:36.000Z</time></trkpt>
        <trkpt lat="29.5688921" lon="103.3911368"><ele>671.61</ele><time>2026-06-12T16:28:44.000Z</time></trkpt>
        <trkpt lat="29.5688719" lon="103.3912012"><ele>671.69</ele><time>2026-06-12T16:28:48.000Z</time></trkpt>
        <trkpt lat="29.5688435" lon="103.3912637"><ele>671.87</ele><time>2026-06-12T16:28:58.000Z</time></trkpt>
        <trkpt lat="29.5688013" lon="103.3912942"><ele>672.14</ele><time>2026-06-12T16:29:00.000Z</time></trkpt>
        <trkpt lat="29.5687491" lon="103.3913054"><ele>672.25</ele><time>2026-06-12T16:29:02.000Z</time></trkpt>
        <trkpt lat="29.5686802" lon="103.3913278"><ele>672.32</ele><time>2026-06-12T16:29:04.000Z</time></trkpt>
        <trkpt lat="29.5685862" lon="103.3913348"><ele>672.44</ele><time>2026-06-12T16:29:08.000Z</time></trkpt>
        <trkpt lat="29.5685032" lon="103.3913155"><ele>672.77</ele><time>2026-06-12T16:29:12.000Z</time></trkpt>
        <trkpt lat="29.5684439" lon="103.3912739"><ele>673.17</ele><time>2026-06-12T16:29:16.000Z</time></trkpt>
        <trkpt lat="29.5684439" lon="103.3912739"><ele>673.17</ele><time>2026-06-12T16:29:22.000Z</time></trkpt>
        <trkpt lat="29.5686045" lon="103.390929"><ele>673.48</ele><time>2026-06-12T16:29:36.000Z</time></trkpt>
        <trkpt lat="29.5686045" lon="103.390929"><ele>673.48</ele><time>2026-06-12T16:29:38.000Z</time></trkpt>
        <trkpt lat="29.568708" lon="103.3907319"><ele>674.95</ele><time>2026-06-12T16:29:40.000Z</time></trkpt>
        <trkpt lat="29.5686875" lon="103.3906816"><ele>676.31</ele><time>2026-06-12T16:29:44.000Z</time></trkpt>
        <trkpt lat="29.568636" lon="103.3906686"><ele>676.43</ele><time>2026-06-12T16:29:46.000Z</time></trkpt>
        <trkpt lat="29.5685972" lon="103.3906287"><ele>676.59</ele><time>2026-06-12T16:29:48.000Z</time></trkpt>
        <trkpt lat="29.5685207" lon="103.3906503"><ele>676.94</ele><time>2026-06-12T16:29:52.000Z</time></trkpt>
        <trkpt lat="29.5684674" lon="103.3907163"><ele>678.47</ele><time>2026-06-12T16:29:54.000Z</time></trkpt>
        <trkpt lat="29.568417" lon="103.3907817"><ele>679.64</ele><time>2026-06-12T16:30:00.000Z</time></trkpt>
        <trkpt lat="29.5683768" lon="103.3908345"><ele>680.92</ele><time>2026-06-12T16:30:04.000Z</time></trkpt>
        <trkpt lat="29.5683754" lon="103.3908628"><ele>683.19</ele><time>2026-06-12T16:30:21.000Z</time></trkpt>
        <trkpt lat="29.5684053" lon="103.390899"><ele>683.02</ele><time>2026-06-12T16:30:26.000Z</time></trkpt>
        <trkpt lat="29.5683928" lon="103.3909365"><ele>681.89</ele><time>2026-06-12T16:30:36.000Z</time></trkpt>
        <trkpt lat="29.5683443" lon="103.3909497"><ele>679.87</ele><time>2026-06-12T16:30:40.000Z</time></trkpt>
        <trkpt lat="29.5682884" lon="103.3909451"><ele>678.51</ele><time>2026-06-12T16:30:44.000Z</time></trkpt>
        <trkpt lat="29.5682559" lon="103.3909367"><ele>677.6</ele><time>2026-06-12T16:30:46.000Z</time></trkpt>
        <trkpt lat="29.5682111" lon="103.3909109"><ele>677.21</ele><time>2026-06-12T16:30:50.000Z</time></trkpt>
        <trkpt lat="29.5681589" lon="103.3908912"><ele>677.38</ele><time>2026-06-12T16:30:54.000Z</time></trkpt>
        <trkpt lat="29.5681007" lon="103.3908953"><ele>677.39</ele><time>2026-06-12T16:30:58.000Z</time></trkpt>
        <trkpt lat="29.5680723" lon="103.3909061"><ele>677.61</ele><time>2026-06-12T16:31:00.000Z</time></trkpt>
        <trkpt lat="29.5680366" lon="103.390892"><ele>677.91</ele><time>2026-06-12T16:31:09.000Z</time></trkpt>
        <trkpt lat="29.5679908" lon="103.390839"><ele>678.42</ele><time>2026-06-12T16:31:15.000Z</time></trkpt>
        <trkpt lat="29.567956" lon="103.390789"><ele>679.53</ele><time>2026-06-12T16:31:18.000Z</time></trkpt>
        <trkpt lat="29.5679231" lon="103.3907402"><ele>680.16</ele><time>2026-06-12T16:31:22.000Z</time></trkpt>
        <trkpt lat="29.5678793" lon="103.3907155"><ele>680.82</ele><time>2026-06-12T16:31:27.000Z</time></trkpt>
        <trkpt lat="29.5678312" lon="103.3907504"><ele>681.97</ele><time>2026-06-12T16:31:34.000Z</time></trkpt>
        <trkpt lat="29.5677781" lon="103.3908097"><ele>682.5</ele><time>2026-06-12T16:31:38.000Z</time></trkpt>
        <trkpt lat="29.5677275" lon="103.3908429"><ele>682.2</ele><time>2026-06-12T16:31:42.000Z</time></trkpt>
        <trkpt lat="29.5676821" lon="103.3908657"><ele>681.77</ele><time>2026-06-12T16:31:46.000Z</time></trkpt>
        <trkpt lat="29.5676412" lon="103.3909168"><ele>682.34</ele><time>2026-06-12T16:31:52.000Z</time></trkpt>
        <trkpt lat="29.5676105" lon="103.3908961"><ele>683.7</ele><time>2026-06-12T16:31:58.000Z</time></trkpt>
        <trkpt lat="29.5675944" lon="103.3908365"><ele>684.39</ele><time>2026-06-12T16:32:02.000Z</time></trkpt>
        <trkpt lat="29.5675805" lon="103.3907935"><ele>684.35</ele><time>2026-06-12T16:32:06.000Z</time></trkpt>
        <trkpt lat="29.5675385" lon="103.3907641"><ele>683.94</ele><time>2026-06-12T16:32:10.000Z</time></trkpt>
        <trkpt lat="29.5675044" lon="103.3907183"><ele>682.98</ele><time>2026-06-12T16:32:14.000Z</time></trkpt>
        <trkpt lat="29.5674818" lon="103.3906576"><ele>681.95</ele><time>2026-06-12T16:32:19.000Z</time></trkpt>
        <trkpt lat="29.5674748" lon="103.3905834"><ele>681.93</ele><time>2026-06-12T16:32:20.000Z</time></trkpt>
        <trkpt lat="29.5674705" lon="103.390522"><ele>682.18</ele><time>2026-06-12T16:32:22.000Z</time></trkpt>
        <trkpt lat="29.5674284" lon="103.3905141"><ele>682.44</ele><time>2026-06-12T16:32:24.000Z</time></trkpt>
        <trkpt lat="29.5673518" lon="103.3905133"><ele>682.21</ele><time>2026-06-12T16:32:28.000Z</time></trkpt>
        <trkpt lat="29.5672993" lon="103.3904697"><ele>681.43</ele><time>2026-06-12T16:32:32.000Z</time></trkpt>
        <trkpt lat="29.5672245" lon="103.3904071"><ele>680.47</ele><time>2026-06-12T16:32:36.000Z</time></trkpt>
        <trkpt lat="29.5672245" lon="103.3904071"><ele>680.47</ele><time>2026-06-12T16:32:38.000Z</time></trkpt>
        <trkpt lat="29.5671864" lon="103.3903483"><ele>679.67</ele><time>2026-06-12T16:32:40.000Z</time></trkpt>
        <trkpt lat="29.5671864" lon="103.3903483"><ele>679.67</ele><time>2026-06-12T16:32:40.000Z</time></trkpt>
        <trkpt lat="29.5671607" lon="103.3903846"><ele>679.94</ele><time>2026-06-12T16:32:46.000Z</time></trkpt>
        <trkpt lat="29.5671246" lon="103.390377"><ele>681.26</ele><time>2026-06-12T16:32:50.000Z</time></trkpt>
        <trkpt lat="29.567067" lon="103.3903751"><ele>683.04</ele><time>2026-06-12T16:32:54.000Z</time></trkpt>
        <trkpt lat="29.5670146" lon="103.3903908"><ele>684.36</ele><time>2026-06-12T16:32:56.000Z</time></trkpt>
        <trkpt lat="29.5669755" lon="103.3904381"><ele>684.8</ele><time>2026-06-12T16:32:58.000Z</time></trkpt>
        <trkpt lat="29.5669267" lon="103.3904822"><ele>685.02</ele><time>2026-06-12T16:33:04.000Z</time></trkpt>
        <trkpt lat="29.5668839" lon="103.3904578"><ele>683.93</ele><time>2026-06-12T16:33:08.000Z</time></trkpt>
        <trkpt lat="29.5668323" lon="103.390406"><ele>682.5</ele><time>2026-06-12T16:33:14.000Z</time></trkpt>
        <trkpt lat="29.5668012" lon="103.3903488"><ele>681.17</ele><time>2026-06-12T16:33:17.000Z</time></trkpt>
        <trkpt lat="29.5667453" lon="103.390299"><ele>680.54</ele><time>2026-06-12T16:33:23.000Z</time></trkpt>
        <trkpt lat="29.5666694" lon="103.3902526"><ele>680.31</ele><time>2026-06-12T16:33:27.000Z</time></trkpt>
        <trkpt lat="29.5666222" lon="103.3902132"><ele>680.73</ele><time>2026-06-12T16:33:29.000Z</time></trkpt>
        <trkpt lat="29.5665795" lon="103.3901577"><ele>681.54</ele><time>2026-06-12T16:33:33.000Z</time></trkpt>
        <trkpt lat="29.5665539" lon="103.390081"><ele>683.28</ele><time>2026-06-12T16:33:37.000Z</time></trkpt>
        <trkpt lat="29.5665378" lon="103.390001"><ele>685.83</ele><time>2026-06-12T16:33:41.000Z</time></trkpt>
        <trkpt lat="29.5665275" lon="103.3899264"><ele>688.4</ele><time>2026-06-12T16:33:45.000Z</time></trkpt>
        <trkpt lat="29.5664982" lon="103.389861"><ele>690.55</ele><time>2026-06-12T16:33:51.000Z</time></trkpt>
        <trkpt lat="29.566441" lon="103.3898331"><ele>692.55</ele><time>2026-06-12T16:33:59.000Z</time></trkpt>
        <trkpt lat="29.5663815" lon="103.3898297"><ele>694.68</ele><time>2026-06-12T16:34:03.000Z</time></trkpt>
        <trkpt lat="29.5663206" lon="103.3898305"><ele>696.02</ele><time>2026-06-12T16:34:09.000Z</time></trkpt>
        <trkpt lat="29.5662665" lon="103.3898127"><ele>697.04</ele><time>2026-06-12T16:34:12.000Z</time></trkpt>
        <trkpt lat="29.5662231" lon="103.3897691"><ele>697.8</ele><time>2026-06-12T16:34:18.000Z</time></trkpt>
        <trkpt lat="29.566186" lon="103.3897288"><ele>698.32</ele><time>2026-06-12T16:34:23.000Z</time></trkpt>
        <trkpt lat="29.5661469" lon="103.3896886"><ele>697.84</ele><time>2026-06-12T16:34:27.000Z</time></trkpt>
        <trkpt lat="29.5661026" lon="103.3896704"><ele>696.87</ele><time>2026-06-12T16:34:33.000Z</time></trkpt>
        <trkpt lat="29.5660437" lon="103.3896719"><ele>695.25</ele><time>2026-06-12T16:34:42.000Z</time></trkpt>
        <trkpt lat="29.5660071" lon="103.389707"><ele>693.04</ele><time>2026-06-12T16:34:53.000Z</time></trkpt>
        <trkpt lat="29.5659495" lon="103.3897353"><ele>692.8</ele><time>2026-06-12T16:35:00.000Z</time></trkpt>
        <trkpt lat="29.5658998" lon="103.3897671"><ele>693.75</ele><time>2026-06-12T16:35:04.000Z</time></trkpt>
        <trkpt lat="29.5658512" lon="103.3897591"><ele>694.67</ele><time>2026-06-12T16:35:11.000Z</time></trkpt>
        <trkpt lat="29.5657992" lon="103.3897733"><ele>696.32</ele><time>2026-06-12T16:35:16.000Z</time></trkpt>
        <trkpt lat="29.5657509" lon="103.38977"><ele>697.39</ele><time>2026-06-12T16:35:21.000Z</time></trkpt>
        <trkpt lat="29.5657016" lon="103.3897699"><ele>697.99</ele><time>2026-06-12T16:35:39.000Z</time></trkpt>
        <trkpt lat="29.5656556" lon="103.3897681"><ele>698.81</ele><time>2026-06-12T16:35:47.000Z</time></trkpt>
        <trkpt lat="29.565637" lon="103.389717"><ele>699.07</ele><time>2026-06-12T16:35:57.000Z</time></trkpt>
        <trkpt lat="29.5656007" lon="103.3896821"><ele>698.52</ele><time>2026-06-12T16:36:09.000Z</time></trkpt>
        <trkpt lat="29.5655702" lon="103.3896357"><ele>698.99</ele><time>2026-06-12T16:36:15.000Z</time></trkpt>
        <trkpt lat="29.565528" lon="103.3895734"><ele>699.64</ele><time>2026-06-12T16:36:19.000Z</time></trkpt>
        <trkpt lat="29.5654752" lon="103.3895524"><ele>700.61</ele><time>2026-06-12T16:36:25.000Z</time></trkpt>
        <trkpt lat="29.5654264" lon="103.389578"><ele>702.41</ele><time>2026-06-12T16:36:31.000Z</time></trkpt>
        <trkpt lat="29.5653699" lon="103.3895665"><ele>704.13</ele><time>2026-06-12T16:36:35.000Z</time></trkpt>
        <trkpt lat="29.5653209" lon="103.3895468"><ele>704.98</ele><time>2026-06-12T16:36:38.000Z</time></trkpt>
        <trkpt lat="29.5652677" lon="103.3895081"><ele>705.42</ele><time>2026-06-12T16:36:43.000Z</time></trkpt>
        <trkpt lat="29.565219" lon="103.3894643"><ele>706.1</ele><time>2026-06-12T16:36:51.000Z</time></trkpt>
        <trkpt lat="29.565176" lon="103.38943"><ele>707.22</ele><time>2026-06-12T16:36:56.000Z</time></trkpt>
        <trkpt lat="29.5651561" lon="103.3893689"><ele>707.34</ele><time>2026-06-12T16:37:05.000Z</time></trkpt>
        <trkpt lat="29.565123" lon="103.3893155"><ele>706.03</ele><time>2026-06-12T16:37:09.000Z</time></trkpt>
        <trkpt lat="29.5651023" lon="103.3892639"><ele>705.29</ele><time>2026-06-12T16:37:11.000Z</time></trkpt>
        <trkpt lat="29.56509" lon="103.389197"><ele>704.69</ele><time>2026-06-12T16:37:15.000Z</time></trkpt>
        <trkpt lat="29.5650624" lon="103.3891459"><ele>703.88</ele><time>2026-06-12T16:37:25.000Z</time></trkpt>
        <trkpt lat="29.5650096" lon="103.3891053"><ele>702.81</ele><time>2026-06-12T16:37:31.000Z</time></trkpt>
        <trkpt lat="29.5649655" lon="103.3890856"><ele>701.82</ele><time>2026-06-12T16:37:35.000Z</time></trkpt>
        <trkpt lat="29.5649137" lon="103.3890276"><ele>700.86</ele><time>2026-06-12T16:37:49.000Z</time></trkpt>
        <trkpt lat="29.5648657" lon="103.3889968"><ele>701.27</ele><time>2026-06-12T16:37:51.000Z</time></trkpt>
        <trkpt lat="29.5648147" lon="103.3889996"><ele>702.18</ele><time>2026-06-12T16:37:57.000Z</time></trkpt>
        <trkpt lat="29.5648228" lon="103.3889676"><ele>703.57</ele><time>2026-06-12T16:38:12.000Z</time></trkpt>
        <trkpt lat="29.5647801" lon="103.3889556"><ele>704.14</ele><time>2026-06-12T16:38:19.000Z</time></trkpt>
        <trkpt lat="29.5647296" lon="103.3889492"><ele>704.17</ele><time>2026-06-12T16:38:23.000Z</time></trkpt>
        <trkpt lat="29.5646772" lon="103.3889503"><ele>704.27</ele><time>2026-06-12T16:38:27.000Z</time></trkpt>
        <trkpt lat="29.5646253" lon="103.388941"><ele>703.85</ele><time>2026-06-12T16:38:33.000Z</time></trkpt>
        <trkpt lat="29.5645741" lon="103.3889183"><ele>702.88</ele><time>2026-06-12T16:38:39.000Z</time></trkpt>
        <trkpt lat="29.5645248" lon="103.3889134"><ele>702.16</ele><time>2026-06-12T16:38:43.000Z</time></trkpt>
        <trkpt lat="29.5644775" lon="103.3889334"><ele>701.62</ele><time>2026-06-12T16:38:47.000Z</time></trkpt>
        <trkpt lat="29.5644273" lon="103.3889444"><ele>701.48</ele><time>2026-06-12T16:38:51.000Z</time></trkpt>
        <trkpt lat="29.5643782" lon="103.3889279"><ele>701.53</ele><time>2026-06-12T16:38:57.000Z</time></trkpt>
        <trkpt lat="29.5643636" lon="103.3888959"><ele>701.65</ele><time>2026-06-12T16:39:07.000Z</time></trkpt>
        <trkpt lat="29.5643289" lon="103.3889035"><ele>702.06</ele><time>2026-06-12T16:39:25.000Z</time></trkpt>
        <trkpt lat="29.5643138" lon="103.3888569"><ele>702.63</ele><time>2026-06-12T16:39:33.000Z</time></trkpt>
        <trkpt lat="29.5642709" lon="103.3888543"><ele>704.51</ele><time>2026-06-12T16:39:43.000Z</time></trkpt>
        <trkpt lat="29.5642244" lon="103.3888425"><ele>707.09</ele><time>2026-06-12T16:39:53.000Z</time></trkpt>
        <trkpt lat="29.5641649" lon="103.3888398"><ele>709.72</ele><time>2026-06-12T16:40:09.000Z</time></trkpt>
        <trkpt lat="29.5641215" lon="103.3888868"><ele>711.95</ele><time>2026-06-12T16:40:15.000Z</time></trkpt>
        <trkpt lat="29.5640763" lon="103.3889061"><ele>713.39</ele><time>2026-06-12T16:40:21.000Z</time></trkpt>
        <trkpt lat="29.5640264" lon="103.3889424"><ele>714.34</ele><time>2026-06-12T16:40:27.000Z</time></trkpt>
        <trkpt lat="29.5639721" lon="103.3889535"><ele>715.05</ele><time>2026-06-12T16:40:37.000Z</time></trkpt>
        <trkpt lat="29.5639141" lon="103.388972"><ele>715.29</ele><time>2026-06-12T16:40:45.000Z</time></trkpt>
        <trkpt lat="29.5638512" lon="103.3889527"><ele>715.16</ele><time>2026-06-12T16:40:51.000Z</time></trkpt>
        <trkpt lat="29.5637907" lon="103.3889359"><ele>714.79</ele><time>2026-06-12T16:40:55.000Z</time></trkpt>
        <trkpt lat="29.5637379" lon="103.3889159"><ele>714.45</ele><time>2026-06-12T16:40:59.000Z</time></trkpt>
        <trkpt lat="29.5636904" lon="103.3889069"><ele>714.17</ele><time>2026-06-12T16:41:03.000Z</time></trkpt>
        <trkpt lat="29.5636396" lon="103.3889052"><ele>713.8</ele><time>2026-06-12T16:41:07.000Z</time></trkpt>
        <trkpt lat="29.5635895" lon="103.3888971"><ele>713.58</ele><time>2026-06-12T16:41:11.000Z</time></trkpt>
        <trkpt lat="29.5635422" lon="103.3888849"><ele>713.59</ele><time>2026-06-12T16:41:15.000Z</time></trkpt>
        <trkpt lat="29.5634945" lon="103.3888901"><ele>714.28</ele><time>2026-06-12T16:41:25.000Z</time></trkpt>
        <trkpt lat="29.563454" lon="103.3889244"><ele>716.83</ele><time>2026-06-12T16:41:29.000Z</time></trkpt>
        <trkpt lat="29.5634036" lon="103.3889348"><ele>719.31</ele><time>2026-06-12T16:41:35.000Z</time></trkpt>
        <trkpt lat="29.5633428" lon="103.3889393"><ele>722.19</ele><time>2026-06-12T16:41:39.000Z</time></trkpt>
        <trkpt lat="29.5632835" lon="103.388947"><ele>724.56</ele><time>2026-06-12T16:41:43.000Z</time></trkpt>
        <trkpt lat="29.5632205" lon="103.3889726"><ele>726.56</ele><time>2026-06-12T16:41:51.000Z</time></trkpt>
        <trkpt lat="29.5631665" lon="103.388986"><ele>729.28</ele><time>2026-06-12T16:41:55.000Z</time></trkpt>
        <trkpt lat="29.5631074" lon="103.3890165"><ele>731.61</ele><time>2026-06-12T16:42:01.000Z</time></trkpt>
        <trkpt lat="29.5630611" lon="103.3890522"><ele>733.72</ele><time>2026-06-12T16:42:05.000Z</time></trkpt>
        <trkpt lat="29.5630222" lon="103.3890965"><ele>735.39</ele><time>2026-06-12T16:42:09.000Z</time></trkpt>
        <trkpt lat="29.562974" lon="103.3891143"><ele>736.81</ele><time>2026-06-12T16:42:13.000Z</time></trkpt>
        <trkpt lat="29.5629205" lon="103.3891367"><ele>738.18</ele><time>2026-06-12T16:42:17.000Z</time></trkpt>
        <trkpt lat="29.5628713" lon="103.3891442"><ele>739.09</ele><time>2026-06-12T16:42:21.000Z</time></trkpt>
        <trkpt lat="29.5628204" lon="103.3891502"><ele>739.57</ele><time>2026-06-12T16:42:27.000Z</time></trkpt>
        <trkpt lat="29.5627663" lon="103.389148"><ele>739.75</ele><time>2026-06-12T16:42:31.000Z</time></trkpt>
        <trkpt lat="29.5627035" lon="103.3891508"><ele>739.86</ele><time>2026-06-12T16:42:37.000Z</time></trkpt>
        <trkpt lat="29.5626454" lon="103.3891587"><ele>739.58</ele><time>2026-06-12T16:42:43.000Z</time></trkpt>
        <trkpt lat="29.5625807" lon="103.3891687"><ele>739.33</ele><time>2026-06-12T16:42:49.000Z</time></trkpt>
        <trkpt lat="29.5625149" lon="103.3891704"><ele>739.45</ele><time>2026-06-12T16:42:55.000Z</time></trkpt>
        <trkpt lat="29.5624755" lon="103.38913"><ele>739.81</ele><time>2026-06-12T16:43:01.000Z</time></trkpt>
        <trkpt lat="29.5624309" lon="103.3890646"><ele>739.94</ele><time>2026-06-12T16:43:05.000Z</time></trkpt>
        <trkpt lat="29.5623868" lon="103.3890263"><ele>740.35</ele><time>2026-06-12T16:43:09.000Z</time></trkpt>
        <trkpt lat="29.5623388" lon="103.3890319"><ele>740.76</ele><time>2026-06-12T16:43:13.000Z</time></trkpt>
        <trkpt lat="29.5622892" lon="103.3890586"><ele>740.91</ele><time>2026-06-12T16:43:17.000Z</time></trkpt>
        <trkpt lat="29.5622352" lon="103.3890666"><ele>740.86</ele><time>2026-06-12T16:43:21.000Z</time></trkpt>
        <trkpt lat="29.5621848" lon="103.389073"><ele>740.53</ele><time>2026-06-12T16:43:25.000Z</time></trkpt>
        <trkpt lat="29.5621285" lon="103.3890709"><ele>740</ele><time>2026-06-12T16:43:31.000Z</time></trkpt>
        <trkpt lat="29.5620713" lon="103.3890933"><ele>739.49</ele><time>2026-06-12T16:43:37.000Z</time></trkpt>
        <trkpt lat="29.5620291" lon="103.3891325"><ele>739.23</ele><time>2026-06-12T16:43:41.000Z</time></trkpt>
        <trkpt lat="29.56201" lon="103.3891868"><ele>739.35</ele><time>2026-06-12T16:43:45.000Z</time></trkpt>
        <trkpt lat="29.5620001" lon="103.3892414"><ele>739.59</ele><time>2026-06-12T16:43:49.000Z</time></trkpt>
        <trkpt lat="29.5620443" lon="103.3892831"><ele>739.29</ele><time>2026-06-12T16:43:57.000Z</time></trkpt>
        <trkpt lat="29.5620757" lon="103.3893305"><ele>738.82</ele><time>2026-06-12T16:44:01.000Z</time></trkpt>
        <trkpt lat="29.5620987" lon="103.3893866"><ele>738.86</ele><time>2026-06-12T16:44:05.000Z</time></trkpt>
        <trkpt lat="29.5620849" lon="103.3894455"><ele>738.92</ele><time>2026-06-12T16:44:09.000Z</time></trkpt>
        <trkpt lat="29.5620511" lon="103.3894975"><ele>739.13</ele><time>2026-06-12T16:44:15.000Z</time></trkpt>
        <trkpt lat="29.5620044" lon="103.3895151"><ele>739.37</ele><time>2026-06-12T16:44:19.000Z</time></trkpt>
        <trkpt lat="29.5619538" lon="103.3895091"><ele>739.51</ele><time>2026-06-12T16:44:23.000Z</time></trkpt>
        <trkpt lat="29.5619036" lon="103.3894939"><ele>739.29</ele><time>2026-06-12T16:44:27.000Z</time></trkpt>
        <trkpt lat="29.5618536" lon="103.3894951"><ele>738.99</ele><time>2026-06-12T16:44:31.000Z</time></trkpt>
        <trkpt lat="29.5617979" lon="103.3894929"><ele>738.7</ele><time>2026-06-12T16:44:37.000Z</time></trkpt>
        <trkpt lat="29.5617555" lon="103.3894568"><ele>738.61</ele><time>2026-06-12T16:44:41.000Z</time></trkpt>
        <trkpt lat="29.5617109" lon="103.3894162"><ele>738.65</ele><time>2026-06-12T16:44:45.000Z</time></trkpt>
        <trkpt lat="29.5616587" lon="103.3894008"><ele>738.93</ele><time>2026-06-12T16:44:49.000Z</time></trkpt>
        <trkpt lat="29.5615987" lon="103.3893922"><ele>739.13</ele><time>2026-06-12T16:44:53.000Z</time></trkpt>
        <trkpt lat="29.5615386" lon="103.3893766"><ele>739.2</ele><time>2026-06-12T16:44:57.000Z</time></trkpt>
        <trkpt lat="29.5614905" lon="103.389384"><ele>739.16</ele><time>2026-06-12T16:45:01.000Z</time></trkpt>
        <trkpt lat="29.5614369" lon="103.3893861"><ele>739.22</ele><time>2026-06-12T16:45:05.000Z</time></trkpt>
        <trkpt lat="29.5613672" lon="103.3893586"><ele>739.04</ele><time>2026-06-12T16:45:09.000Z</time></trkpt>
        <trkpt lat="29.5613041" lon="103.3893224"><ele>738.72</ele><time>2026-06-12T16:45:13.000Z</time></trkpt>
        <trkpt lat="29.5612455" lon="103.3893208"><ele>738.45</ele><time>2026-06-12T16:45:17.000Z</time></trkpt>
        <trkpt lat="29.5611976" lon="103.3893256"><ele>738.26</ele><time>2026-06-12T16:45:21.000Z</time></trkpt>
        <trkpt lat="29.5611533" lon="103.3893302"><ele>738.15</ele><time>2026-06-12T16:45:25.000Z</time></trkpt>
        <trkpt lat="29.5611071" lon="103.3893525"><ele>738.17</ele><time>2026-06-12T16:45:31.000Z</time></trkpt>
        <trkpt lat="29.5610623" lon="103.3893669"><ele>738.57</ele><time>2026-06-12T16:45:35.000Z</time></trkpt>
        <trkpt lat="29.5610164" lon="103.3893848"><ele>738.93</ele><time>2026-06-12T16:45:39.000Z</time></trkpt>
        <trkpt lat="29.560965" lon="103.3894074"><ele>739.39</ele><time>2026-06-12T16:45:43.000Z</time></trkpt>
        <trkpt lat="29.5609103" lon="103.3894215"><ele>740.3</ele><time>2026-06-12T16:45:47.000Z</time></trkpt>
        <trkpt lat="29.5608572" lon="103.389437"><ele>741.12</ele><time>2026-06-12T16:45:51.000Z</time></trkpt>
        <trkpt lat="29.5607987" lon="103.389452"><ele>741.5</ele><time>2026-06-12T16:45:55.000Z</time></trkpt>
        <trkpt lat="29.5607384" lon="103.3894644"><ele>741.54</ele><time>2026-06-12T16:45:59.000Z</time></trkpt>
        <trkpt lat="29.5606739" lon="103.3894696"><ele>741.95</ele><time>2026-06-12T16:46:03.000Z</time></trkpt>
        <trkpt lat="29.560612" lon="103.3894824"><ele>742.53</ele><time>2026-06-12T16:46:07.000Z</time></trkpt>
        <trkpt lat="29.5605464" lon="103.3894972"><ele>742.73</ele><time>2026-06-12T16:46:11.000Z</time></trkpt>
        <trkpt lat="29.560487" lon="103.3894925"><ele>742.63</ele><time>2026-06-12T16:46:15.000Z</time></trkpt>
        <trkpt lat="29.5604326" lon="103.3894705"><ele>742.62</ele><time>2026-06-12T16:46:19.000Z</time></trkpt>
        <trkpt lat="29.5603811" lon="103.3894569"><ele>742.87</ele><time>2026-06-12T16:46:23.000Z</time></trkpt>
        <trkpt lat="29.560334" lon="103.3894591"><ele>742.75</ele><time>2026-06-12T16:46:27.000Z</time></trkpt>
        <trkpt lat="29.5602882" lon="103.3894649"><ele>742.52</ele><time>2026-06-12T16:46:31.000Z</time></trkpt>
        <trkpt lat="29.5602361" lon="103.3894713"><ele>742.59</ele><time>2026-06-12T16:46:37.000Z</time></trkpt>
        <trkpt lat="29.5602328" lon="103.389411"><ele>743.8</ele><time>2026-06-12T16:46:43.000Z</time></trkpt>
        <trkpt lat="29.5602399" lon="103.3893335"><ele>746.08</ele><time>2026-06-12T16:46:49.000Z</time></trkpt>
        <trkpt lat="29.5602446" lon="103.3892845"><ele>748.71</ele><time>2026-06-12T16:46:55.000Z</time></trkpt>
        <trkpt lat="29.5602001" lon="103.3892725"><ele>751.42</ele><time>2026-06-12T16:47:05.000Z</time></trkpt>
        <trkpt lat="29.560163" lon="103.3892364"><ele>752.23</ele><time>2026-06-12T16:47:11.000Z</time></trkpt>
        <trkpt lat="29.5601371" lon="103.3891705"><ele>752.39</ele><time>2026-06-12T16:47:15.000Z</time></trkpt>
        <trkpt lat="29.5601349" lon="103.3890941"><ele>752.39</ele><time>2026-06-12T16:47:19.000Z</time></trkpt>
        <trkpt lat="29.560131" lon="103.3890318"><ele>752.65</ele><time>2026-06-12T16:47:23.000Z</time></trkpt>
        <trkpt lat="29.5601215" lon="103.3889662"><ele>753.1</ele><time>2026-06-12T16:47:29.000Z</time></trkpt>
        <trkpt lat="29.5601141" lon="103.3889069"><ele>753.83</ele><time>2026-06-12T16:47:35.000Z</time></trkpt>
        <trkpt lat="29.5601051" lon="103.3888526"><ele>754.94</ele><time>2026-06-12T16:47:43.000Z</time></trkpt>
        <trkpt lat="29.5601366" lon="103.3888299"><ele>757.03</ele><time>2026-06-12T16:47:47.000Z</time></trkpt>
        <trkpt lat="29.5601742" lon="103.3887908"><ele>758.91</ele><time>2026-06-12T16:47:51.000Z</time></trkpt>
        <trkpt lat="29.5601705" lon="103.3887376"><ele>760.63</ele><time>2026-06-12T16:47:57.000Z</time></trkpt>
        <trkpt lat="29.5601264" lon="103.3887266"><ele>761.86</ele><time>2026-06-12T16:48:01.000Z</time></trkpt>
        <trkpt lat="29.560059" lon="103.388703"><ele>762.91</ele><time>2026-06-12T16:48:05.000Z</time></trkpt>
        <trkpt lat="29.560001" lon="103.3886703"><ele>763.59</ele><time>2026-06-12T16:48:09.000Z</time></trkpt>
        <trkpt lat="29.5599482" lon="103.3886301"><ele>763.77</ele><time>2026-06-12T16:48:13.000Z</time></trkpt>
        <trkpt lat="29.5598969" lon="103.3885776"><ele>763.74</ele><time>2026-06-12T16:48:17.000Z</time></trkpt>
        <trkpt lat="29.5598553" lon="103.3885324"><ele>763.72</ele><time>2026-06-12T16:48:21.000Z</time></trkpt>
        <trkpt lat="29.559816" lon="103.3884908"><ele>762.94</ele><time>2026-06-12T16:48:25.000Z</time></trkpt>
        <trkpt lat="29.5597732" lon="103.388462"><ele>762.32</ele><time>2026-06-12T16:48:29.000Z</time></trkpt>
        <trkpt lat="29.5597313" lon="103.3884377"><ele>761.88</ele><time>2026-06-12T16:48:33.000Z</time></trkpt>
        <trkpt lat="29.559691" lon="103.388413"><ele>761.72</ele><time>2026-06-12T16:48:37.000Z</time></trkpt>
        <trkpt lat="29.5596787" lon="103.3883437"><ele>762.14</ele><time>2026-06-12T16:48:43.000Z</time></trkpt>
        <trkpt lat="29.5596765" lon="103.3882716"><ele>762.55</ele><time>2026-06-12T16:48:47.000Z</time></trkpt>
        <trkpt lat="29.5596677" lon="103.3882044"><ele>762.57</ele><time>2026-06-12T16:48:51.000Z</time></trkpt>
        <trkpt lat="29.5596388" lon="103.3881379"><ele>762.46</ele><time>2026-06-12T16:48:55.000Z</time></trkpt>
        <trkpt lat="29.5596009" lon="103.3880696"><ele>762.09</ele><time>2026-06-12T16:48:59.000Z</time></trkpt>
        <trkpt lat="29.5595568" lon="103.3880158"><ele>761.71</ele><time>2026-06-12T16:49:03.000Z</time></trkpt>
        <trkpt lat="29.559514" lon="103.3879726"><ele>761.27</ele><time>2026-06-12T16:49:07.000Z</time></trkpt>
        <trkpt lat="29.5594637" lon="103.3879364"><ele>760.55</ele><time>2026-06-12T16:49:11.000Z</time></trkpt>
        <trkpt lat="29.5594173" lon="103.3878992"><ele>759.97</ele><time>2026-06-12T16:49:15.000Z</time></trkpt>
        <trkpt lat="29.559378" lon="103.3878657"><ele>759.42</ele><time>2026-06-12T16:49:19.000Z</time></trkpt>
        <trkpt lat="29.5593314" lon="103.387827"><ele>758.77</ele><time>2026-06-12T16:49:23.000Z</time></trkpt>
        <trkpt lat="29.559288" lon="103.3877797"><ele>758.78</ele><time>2026-06-12T16:49:27.000Z</time></trkpt>
        <trkpt lat="29.5592423" lon="103.3877431"><ele>758.92</ele><time>2026-06-12T16:49:31.000Z</time></trkpt>
        <trkpt lat="29.5591831" lon="103.3877347"><ele>758.82</ele><time>2026-06-12T16:49:35.000Z</time></trkpt>
        <trkpt lat="29.5591229" lon="103.3877312"><ele>758.9</ele><time>2026-06-12T16:49:39.000Z</time></trkpt>
        <trkpt lat="29.5590631" lon="103.3877278"><ele>758.73</ele><time>2026-06-12T16:49:43.000Z</time></trkpt>
        <trkpt lat="29.5590014" lon="103.3877509"><ele>758.59</ele><time>2026-06-12T16:49:47.000Z</time></trkpt>
        <trkpt lat="29.558943" lon="103.3877917"><ele>758.72</ele><time>2026-06-12T16:49:51.000Z</time></trkpt>
        <trkpt lat="29.558891" lon="103.3878085"><ele>758.93</ele><time>2026-06-12T16:49:55.000Z</time></trkpt>
        <trkpt lat="29.5588401" lon="103.3877945"><ele>759.22</ele><time>2026-06-12T16:49:59.000Z</time></trkpt>
        <trkpt lat="29.5587804" lon="103.3877946"><ele>759.6</ele><time>2026-06-12T16:50:03.000Z</time></trkpt>
        <trkpt lat="29.5587285" lon="103.3877867"><ele>760.07</ele><time>2026-06-12T16:50:07.000Z</time></trkpt>
        <trkpt lat="29.5586786" lon="103.3877622"><ele>760.77</ele><time>2026-06-12T16:50:11.000Z</time></trkpt>
        <trkpt lat="29.5586391" lon="103.387716"><ele>761.56</ele><time>2026-06-12T16:50:15.000Z</time></trkpt>
        <trkpt lat="29.5585819" lon="103.3877107"><ele>762.78</ele><time>2026-06-12T16:50:21.000Z</time></trkpt>
        <trkpt lat="29.5585251" lon="103.3877158"><ele>764.08</ele><time>2026-06-12T16:50:25.000Z</time></trkpt>
        <trkpt lat="29.5584828" lon="103.3876884"><ele>764.99</ele><time>2026-06-12T16:50:29.000Z</time></trkpt>
        <trkpt lat="29.5584611" lon="103.3876241"><ele>765.68</ele><time>2026-06-12T16:50:33.000Z</time></trkpt>
        <trkpt lat="29.5584125" lon="103.3875838"><ele>766.21</ele><time>2026-06-12T16:50:39.000Z</time></trkpt>
        <trkpt lat="29.5583652" lon="103.3875498"><ele>766.07</ele><time>2026-06-12T16:50:43.000Z</time></trkpt>
        <trkpt lat="29.5583164" lon="103.3875044"><ele>765.31</ele><time>2026-06-12T16:50:47.000Z</time></trkpt>
        <trkpt lat="29.558295" lon="103.3874509"><ele>764.49</ele><time>2026-06-12T16:50:51.000Z</time></trkpt>
        <trkpt lat="29.5582964" lon="103.387381"><ele>763.93</ele><time>2026-06-12T16:51:01.000Z</time></trkpt>
        <trkpt lat="29.5582746" lon="103.3873358"><ele>763.32</ele><time>2026-06-12T16:51:07.000Z</time></trkpt>
        <trkpt lat="29.558235" lon="103.3872998"><ele>763.31</ele><time>2026-06-12T16:51:11.000Z</time></trkpt>
        <trkpt lat="29.5581877" lon="103.3872839"><ele>763.09</ele><time>2026-06-12T16:51:13.000Z</time></trkpt>
        <trkpt lat="29.5581275" lon="103.3872895"><ele>763.61</ele><time>2026-06-12T16:51:17.000Z</time></trkpt>
        <trkpt lat="29.5580673" lon="103.3872952"><ele>764.47</ele><time>2026-06-12T16:51:25.000Z</time></trkpt>
        <trkpt lat="29.5580209" lon="103.3872651"><ele>765.86</ele><time>2026-06-12T16:51:29.000Z</time></trkpt>
        <trkpt lat="29.5579877" lon="103.3872146"><ele>767.17</ele><time>2026-06-12T16:51:34.000Z</time></trkpt>
        <trkpt lat="29.5579626" lon="103.387158"><ele>768.69</ele><time>2026-06-12T16:51:38.000Z</time></trkpt>
        <trkpt lat="29.5579258" lon="103.3871148"><ele>770.24</ele><time>2026-06-12T16:51:44.000Z</time></trkpt>
        <trkpt lat="29.5578838" lon="103.3870866"><ele>771.77</ele><time>2026-06-12T16:51:48.000Z</time></trkpt>
        <trkpt lat="29.5578288" lon="103.3870701"><ele>772.95</ele><time>2026-06-12T16:51:52.000Z</time></trkpt>
        <trkpt lat="29.5577794" lon="103.3870658"><ele>774.04</ele><time>2026-06-12T16:51:58.000Z</time></trkpt>
        <trkpt lat="29.5577266" lon="103.3870536"><ele>775.01</ele><time>2026-06-12T16:52:06.000Z</time></trkpt>
        <trkpt lat="29.5576854" lon="103.387026"><ele>776.13</ele><time>2026-06-12T16:52:12.000Z</time></trkpt>
        <trkpt lat="29.5576812" lon="103.3869625"><ele>777.66</ele><time>2026-06-12T16:52:16.000Z</time></trkpt>
        <trkpt lat="29.5576687" lon="103.3868929"><ele>779.1</ele><time>2026-06-12T16:52:26.000Z</time></trkpt>
        <trkpt lat="29.5576547" lon="103.3868234"><ele>781.47</ele><time>2026-06-12T16:52:33.000Z</time></trkpt>
        <trkpt lat="29.5576181" lon="103.3867592"><ele>783.76</ele><time>2026-06-12T16:52:39.000Z</time></trkpt>
        <trkpt lat="29.5575729" lon="103.3867192"><ele>785.37</ele><time>2026-06-12T16:52:43.000Z</time></trkpt>
        <trkpt lat="29.557542" lon="103.3866705"><ele>786.54</ele><time>2026-06-12T16:52:47.000Z</time></trkpt>
        <trkpt lat="29.5575297" lon="103.3866037"><ele>787.43</ele><time>2026-06-12T16:52:51.000Z</time></trkpt>
        <trkpt lat="29.5574866" lon="103.3865765"><ele>788.41</ele><time>2026-06-12T16:53:03.000Z</time></trkpt>
        <trkpt lat="29.5574347" lon="103.3865557"><ele>789.91</ele><time>2026-06-12T16:53:07.000Z</time></trkpt>
        <trkpt lat="29.557387" lon="103.3865345"><ele>790.85</ele><time>2026-06-12T16:53:11.000Z</time></trkpt>
        <trkpt lat="29.5573394" lon="103.3865055"><ele>791.47</ele><time>2026-06-12T16:53:15.000Z</time></trkpt>
        <trkpt lat="29.5572858" lon="103.3864743"><ele>791.79</ele><time>2026-06-12T16:53:23.000Z</time></trkpt>
        <trkpt lat="29.5572291" lon="103.3864525"><ele>791.36</ele><time>2026-06-12T16:53:29.000Z</time></trkpt>
        <trkpt lat="29.5571715" lon="103.3864592"><ele>790.91</ele><time>2026-06-12T16:53:35.000Z</time></trkpt>
        <trkpt lat="29.5571254" lon="103.3864797"><ele>790.82</ele><time>2026-06-12T16:53:39.000Z</time></trkpt>
        <trkpt lat="29.5570774" lon="103.3864897"><ele>790.68</ele><time>2026-06-12T16:53:43.000Z</time></trkpt>
        <trkpt lat="29.5570332" lon="103.386449"><ele>790.17</ele><time>2026-06-12T16:53:49.000Z</time></trkpt>
        <trkpt lat="29.5570116" lon="103.3863958"><ele>789.02</ele><time>2026-06-12T16:53:53.000Z</time></trkpt>
        <trkpt lat="29.5570054" lon="103.3863356"><ele>788.41</ele><time>2026-06-12T16:53:57.000Z</time></trkpt>
        <trkpt lat="29.5570085" lon="103.3862774"><ele>788.32</ele><time>2026-06-12T16:54:01.000Z</time></trkpt>
        <trkpt lat="29.5569996" lon="103.3862202"><ele>788.31</ele><time>2026-06-12T16:54:05.000Z</time></trkpt>
        <trkpt lat="29.5569562" lon="103.3861665"><ele>788.18</ele><time>2026-06-12T16:54:11.000Z</time></trkpt>
        <trkpt lat="29.5569089" lon="103.3861269"><ele>788.14</ele><time>2026-06-12T16:54:15.000Z</time></trkpt>
        <trkpt lat="29.5568821" lon="103.3860812"><ele>788.38</ele><time>2026-06-12T16:54:29.000Z</time></trkpt>
        <trkpt lat="29.5568439" lon="103.3860462"><ele>787.87</ele><time>2026-06-12T16:54:42.000Z</time></trkpt>
        <trkpt lat="29.5567973" lon="103.3860438"><ele>787.89</ele><time>2026-06-12T16:54:48.000Z</time></trkpt>
        <trkpt lat="29.556753" lon="103.3860853"><ele>787.63</ele><time>2026-06-12T16:54:54.000Z</time></trkpt>
        <trkpt lat="29.5567065" lon="103.3861257"><ele>787.49</ele><time>2026-06-12T16:54:58.000Z</time></trkpt>
        <trkpt lat="29.5566518" lon="103.3861559"><ele>787.37</ele><time>2026-06-12T16:55:02.000Z</time></trkpt>
        <trkpt lat="29.5566069" lon="103.3861843"><ele>787.6</ele><time>2026-06-12T16:55:14.000Z</time></trkpt>
        <trkpt lat="29.5565625" lon="103.3861841"><ele>788.72</ele><time>2026-06-12T16:55:51.000Z</time></trkpt>
        <trkpt lat="29.5565166" lon="103.3861671"><ele>790.77</ele><time>2026-06-12T16:56:11.000Z</time></trkpt>
        <trkpt lat="29.5565166" lon="103.3861671"><ele>790.77</ele><time>2026-06-12T16:56:18.000Z</time></trkpt>
        <trkpt lat="29.5564021" lon="103.3860073"><ele>792.81</ele><time>2026-06-12T16:57:12.000Z</time></trkpt>
        <trkpt lat="29.5564021" lon="103.3860073"><ele>792.81</ele><time>2026-06-12T16:57:17.000Z</time></trkpt>
        <trkpt lat="29.5563672" lon="103.3860507"><ele>800.29</ele><time>2026-06-12T16:57:29.000Z</time></trkpt>
        <trkpt lat="29.5563278" lon="103.3860908"><ele>805.2</ele><time>2026-06-12T16:57:37.000Z</time></trkpt>
        <trkpt lat="29.5562851" lon="103.3861341"><ele>808.3</ele><time>2026-06-12T16:57:50.000Z</time></trkpt>
        <trkpt lat="29.5562382" lon="103.3861494"><ele>811.05</ele><time>2026-06-12T16:58:00.000Z</time></trkpt>
        <trkpt lat="29.5561891" lon="103.3861498"><ele>813.22</ele><time>2026-06-12T16:58:08.000Z</time></trkpt>
        <trkpt lat="29.5561397" lon="103.3861471"><ele>814.33</ele><time>2026-06-12T16:58:14.000Z</time></trkpt>
        <trkpt lat="29.5560994" lon="103.3861044"><ele>815.39</ele><time>2026-06-12T16:58:26.000Z</time></trkpt>
        <trkpt lat="29.5560501" lon="103.3860743"><ele>816.17</ele><time>2026-06-12T16:58:34.000Z</time></trkpt>
        <trkpt lat="29.5560009" lon="103.3860653"><ele>816.7</ele><time>2026-06-12T16:58:54.000Z</time></trkpt>
        <trkpt lat="29.5559871" lon="103.3860222"><ele>818.03</ele><time>2026-06-12T16:59:06.000Z</time></trkpt>
        <trkpt lat="29.5559501" lon="103.3860171"><ele>818.49</ele><time>2026-06-12T16:59:12.000Z</time></trkpt>
        <trkpt lat="29.5559114" lon="103.3859973"><ele>818.8</ele><time>2026-06-12T16:59:22.000Z</time></trkpt>
        <trkpt lat="29.5558901" lon="103.3859546"><ele>819.62</ele><time>2026-06-12T16:59:32.000Z</time></trkpt>
        <trkpt lat="29.5559266" lon="103.3859337"><ele>821.42</ele><time>2026-06-12T16:59:36.000Z</time></trkpt>
        <trkpt lat="29.5559784" lon="103.3859308"><ele>822.87</ele><time>2026-06-12T16:59:42.000Z</time></trkpt>
        <trkpt lat="29.5560422" lon="103.3859465"><ele>824.65</ele><time>2026-06-12T17:00:04.000Z</time></trkpt>
        <trkpt lat="29.5561002" lon="103.3859477"><ele>828.37</ele><time>2026-06-12T17:00:10.000Z</time></trkpt>
        <trkpt lat="29.556115" lon="103.3859094"><ele>831.14</ele><time>2026-06-12T17:00:18.000Z</time></trkpt>
        <trkpt lat="29.5560808" lon="103.3859042"><ele>832.67</ele><time>2026-06-12T17:00:24.000Z</time></trkpt>
        <trkpt lat="29.5560268" lon="103.3859106"><ele>833.46</ele><time>2026-06-12T17:00:36.000Z</time></trkpt>
        <trkpt lat="29.5559856" lon="103.3858755"><ele>834.21</ele><time>2026-06-12T17:00:48.000Z</time></trkpt>
        <trkpt lat="29.5559971" lon="103.3858305"><ele>835.15</ele><time>2026-06-12T17:00:54.000Z</time></trkpt>
        <trkpt lat="29.556039" lon="103.3857987"><ele>836.2</ele><time>2026-06-12T17:01:00.000Z</time></trkpt>
        <trkpt lat="29.5560744" lon="103.3857531"><ele>837.79</ele><time>2026-06-12T17:01:08.000Z</time></trkpt>
        <trkpt lat="29.5560757" lon="103.3857012"><ele>839.9</ele><time>2026-06-12T17:01:18.000Z</time></trkpt>
        <trkpt lat="29.5560609" lon="103.3856429"><ele>841.54</ele><time>2026-06-12T17:01:24.000Z</time></trkpt>
        <trkpt lat="29.5560703" lon="103.3855817"><ele>843.2</ele><time>2026-06-12T17:01:30.000Z</time></trkpt>
        <trkpt lat="29.5560849" lon="103.3855202"><ele>844.96</ele><time>2026-06-12T17:01:36.000Z</time></trkpt>
        <trkpt lat="29.5560923" lon="103.3854629"><ele>846.79</ele><time>2026-06-12T17:01:44.000Z</time></trkpt>
        <trkpt lat="29.5560851" lon="103.3854927"><ele>849.11</ele><time>2026-06-12T17:02:00.000Z</time></trkpt>
        <trkpt lat="29.5560502" lon="103.3855366"><ele>851.17</ele><time>2026-06-12T17:02:06.000Z</time></trkpt>
        <trkpt lat="29.5560186" lon="103.3855884"><ele>852.78</ele><time>2026-06-12T17:02:14.000Z</time></trkpt>
        <trkpt lat="29.5559863" lon="103.385641"><ele>854.34</ele><time>2026-06-12T17:02:20.000Z</time></trkpt>
        <trkpt lat="29.5559422" lon="103.3856542"><ele>855.91</ele><time>2026-06-12T17:02:26.000Z</time></trkpt>
        <trkpt lat="29.5559092" lon="103.3856204"><ele>857.2</ele><time>2026-06-12T17:02:36.000Z</time></trkpt>
        <trkpt lat="29.5559088" lon="103.3855635"><ele>859.01</ele><time>2026-06-12T17:02:40.000Z</time></trkpt>
        <trkpt lat="29.5558826" lon="103.3855704"><ele>860.16</ele><time>2026-06-12T17:02:58.000Z</time></trkpt>
        <trkpt lat="29.5558426" lon="103.3856011"><ele>862.55</ele><time>2026-06-12T17:03:12.000Z</time></trkpt>
        <trkpt lat="29.555793" lon="103.3856136"><ele>865.36</ele><time>2026-06-12T17:03:22.000Z</time></trkpt>
        <trkpt lat="29.5557622" lon="103.3855822"><ele>868.39</ele><time>2026-06-12T17:03:34.000Z</time></trkpt>
        <trkpt lat="29.5557668" lon="103.3855194"><ele>871.1</ele><time>2026-06-12T17:03:49.000Z</time></trkpt>
        <trkpt lat="29.5557363" lon="103.3854775"><ele>872.82</ele><time>2026-06-12T17:04:01.000Z</time></trkpt>
        <trkpt lat="29.5557058" lon="103.3854349"><ele>874.58</ele><time>2026-06-12T17:04:17.000Z</time></trkpt>
        <trkpt lat="29.5556698" lon="103.3854"><ele>875.92</ele><time>2026-06-12T17:04:39.000Z</time></trkpt>
        <trkpt lat="29.5556397" lon="103.3853493"><ele>878.36</ele><time>2026-06-12T17:04:51.000Z</time></trkpt>
        <trkpt lat="29.5556448" lon="103.3852964"><ele>880.83</ele><time>2026-06-12T17:05:05.000Z</time></trkpt>
        <trkpt lat="29.5556703" lon="103.3852446"><ele>883.48</ele><time>2026-06-12T17:05:15.000Z</time></trkpt>
        <trkpt lat="29.5557113" lon="103.3852626"><ele>885.94</ele><time>2026-06-12T17:05:41.000Z</time></trkpt>
        <trkpt lat="29.5557113" lon="103.3852626"><ele>885.94</ele><time>2026-06-12T17:06:08.000Z</time></trkpt>
        <trkpt lat="29.5557113" lon="103.3852626"><ele>885.94</ele><time>2026-06-12T17:09:54.000Z</time></trkpt>
        <trkpt lat="29.5557113" lon="103.3852626"><ele>885.94</ele><time>2026-06-12T17:10:26.000Z</time></trkpt>
        <trkpt lat="29.5556677" lon="103.3852528"><ele>888.25</ele><time>2026-06-12T17:10:40.000Z</time></trkpt>
        <trkpt lat="29.5556677" lon="103.3852528"><ele>888.25</ele><time>2026-06-12T17:10:48.000Z</time></trkpt>
        <trkpt lat="29.5556523" lon="103.3851996"><ele>885.99</ele><time>2026-06-12T17:10:54.000Z</time></trkpt>
        <trkpt lat="29.555658" lon="103.3851429"><ele>885.39</ele><time>2026-06-12T17:11:06.000Z</time></trkpt>
        <trkpt lat="29.5556762" lon="103.3850814"><ele>885.83</ele><time>2026-06-12T17:11:14.000Z</time></trkpt>
        <trkpt lat="29.5556488" lon="103.3850588"><ele>886.93</ele><time>2026-06-12T17:11:28.000Z</time></trkpt>
        <trkpt lat="29.555607" lon="103.3850383"><ele>888.77</ele><time>2026-06-12T17:11:59.000Z</time></trkpt>
        <trkpt lat="29.5555716" lon="103.3850707"><ele>891.02</ele><time>2026-06-12T17:12:23.000Z</time></trkpt>
        <trkpt lat="29.5555078" lon="103.3851024"><ele>893.16</ele><time>2026-06-12T17:12:33.000Z</time></trkpt>
        <trkpt lat="29.555448" lon="103.3851041"><ele>894.04</ele><time>2026-06-12T17:12:37.000Z</time></trkpt>
        <trkpt lat="29.5554327" lon="103.3850505"><ele>894.15</ele><time>2026-06-12T17:12:50.000Z</time></trkpt>
        <trkpt lat="29.5553944" lon="103.3850049"><ele>894.73</ele><time>2026-06-12T17:13:02.000Z</time></trkpt>
        <trkpt lat="29.5553495" lon="103.3849844"><ele>894.85</ele><time>2026-06-12T17:13:06.000Z</time></trkpt>
        <trkpt lat="29.5553035" lon="103.3849794"><ele>895.17</ele><time>2026-06-12T17:13:10.000Z</time></trkpt>
        <trkpt lat="29.5552526" lon="103.3849958"><ele>895.74</ele><time>2026-06-12T17:13:14.000Z</time></trkpt>
        <trkpt lat="29.5552002" lon="103.3850225"><ele>896.2</ele><time>2026-06-12T17:13:32.000Z</time></trkpt>
        <trkpt lat="29.5551515" lon="103.385006"><ele>899.47</ele><time>2026-06-12T17:13:40.000Z</time></trkpt>
        <trkpt lat="29.5551081" lon="103.3850212"><ele>903.01</ele><time>2026-06-12T17:13:46.000Z</time></trkpt>
        <trkpt lat="29.5550542" lon="103.3850357"><ele>905.97</ele><time>2026-06-12T17:13:53.000Z</time></trkpt>
        <trkpt lat="29.5550098" lon="103.3850139"><ele>909</ele><time>2026-06-12T17:13:58.000Z</time></trkpt>
        <trkpt lat="29.5549756" lon="103.3849735"><ele>911.45</ele><time>2026-06-12T17:14:06.000Z</time></trkpt>
        <trkpt lat="29.5549311" lon="103.3849567"><ele>914.31</ele><time>2026-06-12T17:14:12.000Z</time></trkpt>
        <trkpt lat="29.5548946" lon="103.3849093"><ele>916.37</ele><time>2026-06-12T17:14:18.000Z</time></trkpt>
        <trkpt lat="29.5548499" lon="103.3848805"><ele>918.36</ele><time>2026-06-12T17:14:26.000Z</time></trkpt>
        <trkpt lat="29.554812" lon="103.3848336"><ele>920.1</ele><time>2026-06-12T17:14:34.000Z</time></trkpt>
        <trkpt lat="29.554783" lon="103.3847888"><ele>921.6</ele><time>2026-06-12T17:14:38.000Z</time></trkpt>
        <trkpt lat="29.5547545" lon="103.3847444"><ele>922.98</ele><time>2026-06-12T17:14:42.000Z</time></trkpt>
        <trkpt lat="29.5547056" lon="103.3847154"><ele>924.24</ele><time>2026-06-12T17:14:48.000Z</time></trkpt>
        <trkpt lat="29.5546614" lon="103.3846773"><ele>925.81</ele><time>2026-06-12T17:15:09.000Z</time></trkpt>
        <trkpt lat="29.5546261" lon="103.3846313"><ele>928.43</ele><time>2026-06-12T17:15:17.000Z</time></trkpt>
        <trkpt lat="29.5545994" lon="103.3845862"><ele>930.57</ele><time>2026-06-12T17:15:25.000Z</time></trkpt>
        <trkpt lat="29.5546116" lon="103.3845345"><ele>931.66</ele><time>2026-06-12T17:15:35.000Z</time></trkpt>
        <trkpt lat="29.5546576" lon="103.3845069"><ele>932.88</ele><time>2026-06-12T17:15:41.000Z</time></trkpt>
        <trkpt lat="29.5547133" lon="103.384496"><ele>933.88</ele><time>2026-06-12T17:15:53.000Z</time></trkpt>
        <trkpt lat="29.5547694" lon="103.3845053"><ele>935.65</ele><time>2026-06-12T17:16:03.000Z</time></trkpt>
        <trkpt lat="29.5547694" lon="103.3845053"><ele>935.65</ele><time>2026-06-12T17:16:04.000Z</time></trkpt>
        <trkpt lat="29.5548451" lon="103.3844783"><ele>937.48</ele><time>2026-06-12T17:16:32.000Z</time></trkpt>
        <trkpt lat="29.5548451" lon="103.3844783"><ele>937.48</ele><time>2026-06-12T17:16:33.000Z</time></trkpt>
        <trkpt lat="29.5548679" lon="103.384429"><ele>940.33</ele><time>2026-06-12T17:16:43.000Z</time></trkpt>
        <trkpt lat="29.5548982" lon="103.3843854"><ele>942.21</ele><time>2026-06-12T17:16:53.000Z</time></trkpt>
        <trkpt lat="29.5549434" lon="103.3843532"><ele>943.45</ele><time>2026-06-12T17:17:04.000Z</time></trkpt>
        <trkpt lat="29.5549902" lon="103.3843183"><ele>944.07</ele><time>2026-06-12T17:17:12.000Z</time></trkpt>
        <trkpt lat="29.5550355" lon="103.3842933"><ele>944.43</ele><time>2026-06-12T17:17:22.000Z</time></trkpt>
        <trkpt lat="29.5550747" lon="103.3842645"><ele>945.41</ele><time>2026-06-12T17:17:34.000Z</time></trkpt>
        <trkpt lat="29.5550652" lon="103.3842162"><ele>946.69</ele><time>2026-06-12T17:17:50.000Z</time></trkpt>
        <trkpt lat="29.5550343" lon="103.3841619"><ele>949.23</ele><time>2026-06-12T17:18:00.000Z</time></trkpt>
        <trkpt lat="29.5549897" lon="103.3841128"><ele>952.02</ele><time>2026-06-12T17:18:08.000Z</time></trkpt>
        <trkpt lat="29.554969" lon="103.3840501"><ele>954.81</ele><time>2026-06-12T17:18:14.000Z</time></trkpt>
        <trkpt lat="29.5549692" lon="103.3839901"><ele>956.74</ele><time>2026-06-12T17:18:26.000Z</time></trkpt>
        <trkpt lat="29.5549606" lon="103.383932"><ele>957.97</ele><time>2026-06-12T17:18:32.000Z</time></trkpt>
        <trkpt lat="29.5549501" lon="103.3838774"><ele>958.93</ele><time>2026-06-12T17:18:36.000Z</time></trkpt>
        <trkpt lat="29.5549675" lon="103.3838253"><ele>960.03</ele><time>2026-06-12T17:18:40.000Z</time></trkpt>
        <trkpt lat="29.5550063" lon="103.3837865"><ele>960.92</ele><time>2026-06-12T17:18:44.000Z</time></trkpt>
        <trkpt lat="29.5550428" lon="103.3837286"><ele>961.6</ele><time>2026-06-12T17:18:50.000Z</time></trkpt>
        <trkpt lat="29.5550475" lon="103.3836716"><ele>961.3</ele><time>2026-06-12T17:18:54.000Z</time></trkpt>
        <trkpt lat="29.5550473" lon="103.3836068"><ele>960.83</ele><time>2026-06-12T17:18:58.000Z</time></trkpt>
        <trkpt lat="29.5550215" lon="103.3835494"><ele>960.04</ele><time>2026-06-12T17:19:03.000Z</time></trkpt>
        <trkpt lat="29.5549847" lon="103.383489"><ele>959.16</ele><time>2026-06-12T17:19:09.000Z</time></trkpt>
        <trkpt lat="29.5549396" lon="103.383455"><ele>957.63</ele><time>2026-06-12T17:19:15.000Z</time></trkpt>
        <trkpt lat="29.554883" lon="103.3834282"><ele>955.42</ele><time>2026-06-12T17:19:19.000Z</time></trkpt>
        <trkpt lat="29.5548298" lon="103.3833964"><ele>952.88</ele><time>2026-06-12T17:19:23.000Z</time></trkpt>
        <trkpt lat="29.5547804" lon="103.3833641"><ele>950.86</ele><time>2026-06-12T17:19:27.000Z</time></trkpt>
        <trkpt lat="29.5547342" lon="103.3833414"><ele>949.55</ele><time>2026-06-12T17:19:31.000Z</time></trkpt>
        <trkpt lat="29.5546866" lon="103.3833107"><ele>948.45</ele><time>2026-06-12T17:19:37.000Z</time></trkpt>
        <trkpt lat="29.554646" lon="103.3832703"><ele>947.4</ele><time>2026-06-12T17:19:41.000Z</time></trkpt>
        <trkpt lat="29.5545741" lon="103.3832589"><ele>946.92</ele><time>2026-06-12T17:19:45.000Z</time></trkpt>
        <trkpt lat="29.5545242" lon="103.3832726"><ele>946.66</ele><time>2026-06-12T17:19:47.000Z</time></trkpt>
        <trkpt lat="29.5544714" lon="103.3832942"><ele>946.37</ele><time>2026-06-12T17:19:51.000Z</time></trkpt>
        <trkpt lat="29.5544546" lon="103.383304"><ele>945.78</ele><time>2026-06-12T17:19:53.000Z</time></trkpt>
        <trkpt lat="29.5544384" lon="103.3832617"><ele>945.19</ele><time>2026-06-12T17:19:57.000Z</time></trkpt>
        <trkpt lat="29.5544116" lon="103.3832128"><ele>944.16</ele><time>2026-06-12T17:20:01.000Z</time></trkpt>
        <trkpt lat="29.5544163" lon="103.3831591"><ele>943.4</ele><time>2026-06-12T17:20:05.000Z</time></trkpt>
        <trkpt lat="29.5544374" lon="103.3830956"><ele>943.27</ele><time>2026-06-12T17:20:09.000Z</time></trkpt>
        <trkpt lat="29.5544427" lon="103.3830346"><ele>944.36</ele><time>2026-06-12T17:20:15.000Z</time></trkpt>
        <trkpt lat="29.5544593" lon="103.3829784"><ele>946.4</ele><time>2026-06-12T17:20:21.000Z</time></trkpt>
        <trkpt lat="29.554436" lon="103.3829343"><ele>948.94</ele><time>2026-06-12T17:20:29.000Z</time></trkpt>
        <trkpt lat="29.5543988" lon="103.3828935"><ele>952.84</ele><time>2026-06-12T17:20:39.000Z</time></trkpt>
        <trkpt lat="29.5544122" lon="103.3828481"><ele>958.76</ele><time>2026-06-12T17:20:49.000Z</time></trkpt>
        <trkpt lat="29.5543931" lon="103.3828044"><ele>962.43</ele><time>2026-06-12T17:21:04.000Z</time></trkpt>
        <trkpt lat="29.554413" lon="103.3827586"><ele>965.26</ele><time>2026-06-12T17:21:16.000Z</time></trkpt>
        <trkpt lat="29.5544228" lon="103.3827021"><ele>967.17</ele><time>2026-06-12T17:21:28.000Z</time></trkpt>
        <trkpt lat="29.5544023" lon="103.3826566"><ele>969.33</ele><time>2026-06-12T17:21:34.000Z</time></trkpt>
        <trkpt lat="29.5543777" lon="103.3826109"><ele>971.6</ele><time>2026-06-12T17:21:44.000Z</time></trkpt>
        <trkpt lat="29.5543507" lon="103.382561"><ele>974.09</ele><time>2026-06-12T17:21:52.000Z</time></trkpt>
        <trkpt lat="29.55431" lon="103.3825369"><ele>976.33</ele><time>2026-06-12T17:21:56.000Z</time></trkpt>
        <trkpt lat="29.554275" lon="103.3824962"><ele>978.21</ele><time>2026-06-12T17:22:08.000Z</time></trkpt>
        <trkpt lat="29.5542444" lon="103.3824419"><ele>980.62</ele><time>2026-06-12T17:22:14.000Z</time></trkpt>
        <trkpt lat="29.5542232" lon="103.3823877"><ele>982.59</ele><time>2026-06-12T17:22:18.000Z</time></trkpt>
        <trkpt lat="29.5542242" lon="103.3823307"><ele>984.1</ele><time>2026-06-12T17:22:24.000Z</time></trkpt>
        <trkpt lat="29.5542389" lon="103.3822593"><ele>985.26</ele><time>2026-06-12T17:22:30.000Z</time></trkpt>
        <trkpt lat="29.5542459" lon="103.3822007"><ele>986.4</ele><time>2026-06-12T17:22:34.000Z</time></trkpt>
        <trkpt lat="29.5542472" lon="103.3821301"><ele>987.52</ele><time>2026-06-12T17:22:40.000Z</time></trkpt>
        <trkpt lat="29.5542449" lon="103.3820662"><ele>988.54</ele><time>2026-06-12T17:22:46.000Z</time></trkpt>
        <trkpt lat="29.5542362" lon="103.3820004"><ele>989.34</ele><time>2026-06-12T17:22:50.000Z</time></trkpt>
        <trkpt lat="29.5542118" lon="103.3819438"><ele>989.97</ele><time>2026-06-12T17:22:54.000Z</time></trkpt>
        <trkpt lat="29.5541845" lon="103.3818844"><ele>990.28</ele><time>2026-06-12T17:23:00.000Z</time></trkpt>
        <trkpt lat="29.5541887" lon="103.3818285"><ele>991.02</ele><time>2026-06-12T17:23:07.000Z</time></trkpt>
        <trkpt lat="29.55417" lon="103.3817813"><ele>991.36</ele><time>2026-06-12T17:23:17.000Z</time></trkpt>
        <trkpt lat="29.5541479" lon="103.3817271"><ele>991.68</ele><time>2026-06-12T17:23:23.000Z</time></trkpt>
        <trkpt lat="29.5541051" lon="103.3816734"><ele>992.25</ele><time>2026-06-12T17:23:29.000Z</time></trkpt>
        <trkpt lat="29.5540626" lon="103.3816199"><ele>993.17</ele><time>2026-06-12T17:23:33.000Z</time></trkpt>
        <trkpt lat="29.5540481" lon="103.3815653"><ele>994.17</ele><time>2026-06-12T17:23:37.000Z</time></trkpt>
        <trkpt lat="29.5540356" lon="103.3814928"><ele>995</ele><time>2026-06-12T17:23:43.000Z</time></trkpt>
        <trkpt lat="29.5540241" lon="103.3814338"><ele>995.95</ele><time>2026-06-12T17:23:47.000Z</time></trkpt>
        <trkpt lat="29.5540246" lon="103.3813569"><ele>996.87</ele><time>2026-06-12T17:23:53.000Z</time></trkpt>
        <trkpt lat="29.5540179" lon="103.3812859"><ele>997.57</ele><time>2026-06-12T17:23:57.000Z</time></trkpt>
        <trkpt lat="29.5539913" lon="103.3812203"><ele>997.97</ele><time>2026-06-12T17:24:02.000Z</time></trkpt>
        <trkpt lat="29.5539512" lon="103.3811732"><ele>998.37</ele><time>2026-06-12T17:24:06.000Z</time></trkpt>
        <trkpt lat="29.5539222" lon="103.3811263"><ele>998.43</ele><time>2026-06-12T17:24:10.000Z</time></trkpt>
        <trkpt lat="29.5538985" lon="103.3810734"><ele>998.54</ele><time>2026-06-12T17:24:16.000Z</time></trkpt>
        <trkpt lat="29.5539094" lon="103.3810226"><ele>999.6</ele><time>2026-06-12T17:24:20.000Z</time></trkpt>
        <trkpt lat="29.5539014" lon="103.3809727"><ele>1000.5</ele><time>2026-06-12T17:24:24.000Z</time></trkpt>
        <trkpt lat="29.5539246" lon="103.3809092"><ele>1001.32</ele><time>2026-06-12T17:24:28.000Z</time></trkpt>
        <trkpt lat="29.5539453" lon="103.3808506"><ele>1002</ele><time>2026-06-12T17:24:32.000Z</time></trkpt>
        <trkpt lat="29.5539721" lon="103.3807807"><ele>1003.16</ele><time>2026-06-12T17:24:38.000Z</time></trkpt>
        <trkpt lat="29.5540042" lon="103.3807168"><ele>1004.47</ele><time>2026-06-12T17:24:42.000Z</time></trkpt>
        <trkpt lat="29.5540299" lon="103.3806646"><ele>1005.51</ele><time>2026-06-12T17:24:46.000Z</time></trkpt>
        <trkpt lat="29.5540564" lon="103.3806028"><ele>1006.02</ele><time>2026-06-12T17:24:54.000Z</time></trkpt>
        <trkpt lat="29.5540555" lon="103.380547"><ele>1007.05</ele><time>2026-06-12T17:24:58.000Z</time></trkpt>
        <trkpt lat="29.5540459" lon="103.380491"><ele>1007.89</ele><time>2026-06-12T17:25:02.000Z</time></trkpt>
        <trkpt lat="29.5540421" lon="103.3804272"><ele>1008.71</ele><time>2026-06-12T17:25:07.000Z</time></trkpt>
        <trkpt lat="29.5540417" lon="103.380358"><ele>1009.05</ele><time>2026-06-12T17:25:11.000Z</time></trkpt>
        <trkpt lat="29.5540428" lon="103.3803009"><ele>1009.37</ele><time>2026-06-12T17:25:15.000Z</time></trkpt>
        <trkpt lat="29.5540428" lon="103.3803009"><ele>1009.37</ele><time>2026-06-12T17:25:18.000Z</time></trkpt>
        <trkpt lat="29.554042" lon="103.38023"><ele>1009.34</ele><time>2026-06-12T17:25:22.000Z</time></trkpt>
        <trkpt lat="29.554042" lon="103.38023"><ele>1009.34</ele><time>2026-06-12T17:25:23.000Z</time></trkpt>
        <trkpt lat="29.5540304" lon="103.3801686"><ele>1009.62</ele><time>2026-06-12T17:25:27.000Z</time></trkpt>
        <trkpt lat="29.5540137" lon="103.3801125"><ele>1010.56</ele><time>2026-06-12T17:25:31.000Z</time></trkpt>
        <trkpt lat="29.554012" lon="103.3800882"><ele>1011.22</ele><time>2026-06-12T17:25:33.000Z</time></trkpt>
        <trkpt lat="29.5540014" lon="103.3800362"><ele>1011.69</ele><time>2026-06-12T17:25:41.000Z</time></trkpt>
        <trkpt lat="29.5539907" lon="103.3799759"><ele>1012.17</ele><time>2026-06-12T17:25:49.000Z</time></trkpt>
        <trkpt lat="29.5539715" lon="103.3799244"><ele>1012.35</ele><time>2026-06-12T17:25:57.000Z</time></trkpt>
        <trkpt lat="29.5539268" lon="103.379893"><ele>1012.67</ele><time>2026-06-12T17:26:10.000Z</time></trkpt>
        <trkpt lat="29.5539196" lon="103.3798401"><ele>1013.5</ele><time>2026-06-12T17:26:18.000Z</time></trkpt>
        <trkpt lat="29.5539196" lon="103.3798401"><ele>1013.5</ele><time>2026-06-12T17:26:24.000Z</time></trkpt>
        <trkpt lat="29.5539404" lon="103.3797266"><ele>1014.83</ele><time>2026-06-12T17:26:28.000Z</time></trkpt>
        <trkpt lat="29.5539404" lon="103.3797266"><ele>1014.83</ele><time>2026-06-12T17:26:46.000Z</time></trkpt>
        <trkpt lat="29.553926" lon="103.3796681"><ele>1016.76</ele><time>2026-06-12T17:26:54.000Z</time></trkpt>
        <trkpt lat="29.5539077" lon="103.3796105"><ele>1018.02</ele><time>2026-06-12T17:27:02.000Z</time></trkpt>
        <trkpt lat="29.5538992" lon="103.3795522"><ele>1019.69</ele><time>2026-06-12T17:27:09.000Z</time></trkpt>
        <trkpt lat="29.5538823" lon="103.3794987"><ele>1021.67</ele><time>2026-06-12T17:27:17.000Z</time></trkpt>
        <trkpt lat="29.5538773" lon="103.3794445"><ele>1023.75</ele><time>2026-06-12T17:27:25.000Z</time></trkpt>
        <trkpt lat="29.5538707" lon="103.3793811"><ele>1026.05</ele><time>2026-06-12T17:27:33.000Z</time></trkpt>
        <trkpt lat="29.5538544" lon="103.3793168"><ele>1028.44</ele><time>2026-06-12T17:27:41.000Z</time></trkpt>
        <trkpt lat="29.5538531" lon="103.3792588"><ele>1030.74</ele><time>2026-06-12T17:27:47.000Z</time></trkpt>
        <trkpt lat="29.5538265" lon="103.3792185"><ele>1032.49</ele><time>2026-06-12T17:27:55.000Z</time></trkpt>
        <trkpt lat="29.553785" lon="103.3792333"><ele>1033.74</ele><time>2026-06-12T17:28:06.000Z</time></trkpt>
        <trkpt lat="29.553785" lon="103.3792333"><ele>1033.74</ele><time>2026-06-12T17:28:48.000Z</time></trkpt>
        <trkpt lat="29.5538033" lon="103.379165"><ele>1033.12</ele><time>2026-06-12T17:29:20.000Z</time></trkpt>
        <trkpt lat="29.5538033" lon="103.379165"><ele>1033.12</ele><time>2026-06-12T17:29:44.000Z</time></trkpt>
        <trkpt lat="29.5537759" lon="103.3791212"><ele>1033.28</ele><time>2026-06-12T17:29:50.000Z</time></trkpt>
        <trkpt lat="29.5537556" lon="103.3790649"><ele>1033.59</ele><time>2026-06-12T17:29:54.000Z</time></trkpt>
        <trkpt lat="29.553754" lon="103.3790036"><ele>1034.2</ele><time>2026-06-12T17:29:58.000Z</time></trkpt>
        <trkpt lat="29.5537724" lon="103.3789458"><ele>1035.02</ele><time>2026-06-12T17:30:02.000Z</time></trkpt>
        <trkpt lat="29.5538009" lon="103.3788911"><ele>1036.04</ele><time>2026-06-12T17:30:06.000Z</time></trkpt>
        <trkpt lat="29.5538162" lon="103.3788238"><ele>1037.06</ele><time>2026-06-12T17:30:10.000Z</time></trkpt>
        <trkpt lat="29.5538127" lon="103.3787594"><ele>1037.85</ele><time>2026-06-12T17:30:16.000Z</time></trkpt>
        <trkpt lat="29.5538197" lon="103.3786904"><ele>1038.86</ele><time>2026-06-12T17:30:22.000Z</time></trkpt>
        <trkpt lat="29.553809" lon="103.3786287"><ele>1040.21</ele><time>2026-06-12T17:30:28.000Z</time></trkpt>
        <trkpt lat="29.5537893" lon="103.3785775"><ele>1041.88</ele><time>2026-06-12T17:30:36.000Z</time></trkpt>
        <trkpt lat="29.5537873" lon="103.3785224"><ele>1043.78</ele><time>2026-06-12T17:30:48.000Z</time></trkpt>
        <trkpt lat="29.5537778" lon="103.3784652"><ele>1045.3</ele><time>2026-06-12T17:31:00.000Z</time></trkpt>
        <trkpt lat="29.5537587" lon="103.3784083"><ele>1046.85</ele><time>2026-06-12T17:31:10.000Z</time></trkpt>
        <trkpt lat="29.5537427" lon="103.3783529"><ele>1048.93</ele><time>2026-06-12T17:31:22.000Z</time></trkpt>
        <trkpt lat="29.5537427" lon="103.3783529"><ele>1048.93</ele><time>2026-06-12T17:31:22.000Z</time></trkpt>
        <trkpt lat="29.5537133" lon="103.3783104"><ele>1051.2</ele><time>2026-06-12T17:31:24.000Z</time></trkpt>
        <trkpt lat="29.5537133" lon="103.3783104"><ele>1051.2</ele><time>2026-06-12T17:31:28.000Z</time></trkpt>
        <trkpt lat="29.5536754" lon="103.3782739"><ele>1052.1</ele><time>2026-06-12T17:31:34.000Z</time></trkpt>
        <trkpt lat="29.5536416" lon="103.3782238"><ele>1052.7</ele><time>2026-06-12T17:31:42.000Z</time></trkpt>
        <trkpt lat="29.5536313" lon="103.3781643"><ele>1053</ele><time>2026-06-12T17:31:52.000Z</time></trkpt>
        <trkpt lat="29.5536112" lon="103.3781066"><ele>1053.3</ele><time>2026-06-12T17:32:02.000Z</time></trkpt>
        <trkpt lat="29.5535788" lon="103.3780654"><ele>1054.03</ele><time>2026-06-12T17:32:12.000Z</time></trkpt>
        <trkpt lat="29.5535281" lon="103.3779992"><ele>1055.7</ele><time>2026-06-12T17:32:58.000Z</time></trkpt>
        <trkpt lat="29.5535281" lon="103.3779992"><ele>1055.7</ele><time>2026-06-12T17:33:08.000Z</time></trkpt>
        <trkpt lat="29.5532135" lon="103.3776832"><ele>1058.71</ele><time>2026-06-12T17:34:52.000Z</time></trkpt>
        <trkpt lat="29.5532135" lon="103.3776832"><ele>1058.71</ele><time>2026-06-12T17:35:06.000Z</time></trkpt>
        <trkpt lat="29.5531677" lon="103.377647"><ele>1068.34</ele><time>2026-06-12T17:35:12.000Z</time></trkpt>
        <trkpt lat="29.5531396" lon="103.3775979"><ele>1074.52</ele><time>2026-06-12T17:35:22.000Z</time></trkpt>
        <trkpt lat="29.5531689" lon="103.3775765"><ele>1079.07</ele><time>2026-06-12T17:35:28.000Z</time></trkpt>
        <trkpt lat="29.5531504" lon="103.3775486"><ele>1082.52</ele><time>2026-06-12T17:35:38.000Z</time></trkpt>
        <trkpt lat="29.5531044" lon="103.3775233"><ele>1084.79</ele><time>2026-06-12T17:35:46.000Z</time></trkpt>
        <trkpt lat="29.5531044" lon="103.3775233"><ele>1084.79</ele><time>2026-06-12T17:35:46.000Z</time></trkpt>
        <trkpt lat="29.5529781" lon="103.3774123"><ele>1086.52</ele><time>2026-06-12T17:36:12.000Z</time></trkpt>
        <trkpt lat="29.5529781" lon="103.3774123"><ele>1086.52</ele><time>2026-06-12T17:36:22.000Z</time></trkpt>
        <trkpt lat="29.5529333" lon="103.3773449"><ele>1088.92</ele><time>2026-06-12T17:36:50.000Z</time></trkpt>
        <trkpt lat="29.5528852" lon="103.3773108"><ele>1092.74</ele><time>2026-06-12T17:36:58.000Z</time></trkpt>
        <trkpt lat="29.5528564" lon="103.3772694"><ele>1095.69</ele><time>2026-06-12T17:37:10.000Z</time></trkpt>
        <trkpt lat="29.5528564" lon="103.3772694"><ele>1095.69</ele><time>2026-06-12T17:37:40.000Z</time></trkpt>
        <trkpt lat="29.5526085" lon="103.3771384"><ele>1098.06</ele><time>2026-06-12T17:38:14.000Z</time></trkpt>
        <trkpt lat="29.5526085" lon="103.3771384"><ele>1098.06</ele><time>2026-06-12T17:38:18.000Z</time></trkpt>
        <trkpt lat="29.5525668" lon="103.3771271"><ele>1104.23</ele><time>2026-06-12T17:38:48.000Z</time></trkpt>
        <trkpt lat="29.5525668" lon="103.3771271"><ele>1104.23</ele><time>2026-06-12T17:38:52.000Z</time></trkpt>
        <trkpt lat="29.5524259" lon="103.3770839"><ele>1110.97</ele><time>2026-06-12T17:39:20.000Z</time></trkpt>
        <trkpt lat="29.5524259" lon="103.3770839"><ele>1110.97</ele><time>2026-06-12T17:39:36.000Z</time></trkpt>
        <trkpt lat="29.5523796" lon="103.3770858"><ele>1115.33</ele><time>2026-06-12T17:39:42.000Z</time></trkpt>
        <trkpt lat="29.5523332" lon="103.3770671"><ele>1117.64</ele><time>2026-06-12T17:39:58.000Z</time></trkpt>
        <trkpt lat="29.5522879" lon="103.3770423"><ele>1120.76</ele><time>2026-06-12T17:40:08.000Z</time></trkpt>
        <trkpt lat="29.5522879" lon="103.3770423"><ele>1120.76</ele><time>2026-06-12T17:40:08.000Z</time></trkpt>
        <trkpt lat="29.552035" lon="103.376905"><ele>1128.7</ele><time>2026-06-12T17:40:47.000Z</time></trkpt>
        <trkpt lat="29.552035" lon="103.376905"><ele>1128.7</ele><time>2026-06-12T17:40:52.000Z</time></trkpt>
        <trkpt lat="29.5520967" lon="103.3769167"><ele>1128.7</ele><time>2026-06-12T17:40:56.000Z</time></trkpt>
        <trkpt lat="29.5520836" lon="103.3768818"><ele>1128.83</ele><time>2026-06-12T17:41:06.000Z</time></trkpt>
        <trkpt lat="29.5520496" lon="103.3768464"><ele>1129.16</ele><time>2026-06-12T17:41:17.000Z</time></trkpt>
        <trkpt lat="29.5520149" lon="103.3768733"><ele>1130.51</ele><time>2026-06-12T17:41:31.000Z</time></trkpt>
        <trkpt lat="29.5519691" lon="103.3768795"><ele>1132.14</ele><time>2026-06-12T17:41:39.000Z</time></trkpt>
        <trkpt lat="29.5518919" lon="103.3768818"><ele>1132.21</ele><time>2026-06-12T17:42:03.000Z</time></trkpt>
        <trkpt lat="29.5518322" lon="103.3768861"><ele>1131.47</ele><time>2026-06-12T17:42:05.000Z</time></trkpt>
        <trkpt lat="29.5517828" lon="103.3768911"><ele>1130.88</ele><time>2026-06-12T17:42:07.000Z</time></trkpt>
        <trkpt lat="29.5517387" lon="103.376875"><ele>1130.59</ele><time>2026-06-12T17:42:11.000Z</time></trkpt>
        <trkpt lat="29.5517438" lon="103.3768273"><ele>1130.81</ele><time>2026-06-12T17:42:13.000Z</time></trkpt>
        <trkpt lat="29.5517639" lon="103.3767692"><ele>1131.36</ele><time>2026-06-12T17:42:15.000Z</time></trkpt>
        <trkpt lat="29.5518078" lon="103.3767372"><ele>1131.94</ele><time>2026-06-12T17:42:19.000Z</time></trkpt>
        <trkpt lat="29.5518455" lon="103.3767277"><ele>1133</ele><time>2026-06-12T17:42:45.000Z</time></trkpt>
        <trkpt lat="29.5518455" lon="103.3767277"><ele>1133</ele><time>2026-06-12T17:42:54.000Z</time></trkpt>
        <trkpt lat="29.5518182" lon="103.3766984"><ele>1138.68</ele><time>2026-06-12T17:42:59.000Z</time></trkpt>
        <trkpt lat="29.5518182" lon="103.3766984"><ele>1138.68</ele><time>2026-06-12T17:43:13.000Z</time></trkpt>
        <trkpt lat="29.5517937" lon="103.3766442"><ele>1141.22</ele><time>2026-06-12T17:43:21.000Z</time></trkpt>
        <trkpt lat="29.5517937" lon="103.3766442"><ele>1141.22</ele><time>2026-06-12T17:43:34.000Z</time></trkpt>
        <trkpt lat="29.5517937" lon="103.3766442"><ele>1141.22</ele><time>2026-06-12T17:43:47.000Z</time></trkpt>
        <trkpt lat="29.5517937" lon="103.3766442"><ele>1141.22</ele><time>2026-06-12T17:43:58.000Z</time></trkpt>
        <trkpt lat="29.5518171" lon="103.3766425"><ele>1142.59</ele><time>2026-06-12T17:44:09.000Z</time></trkpt>
        <trkpt lat="29.5518171" lon="103.3766425"><ele>1142.59</ele><time>2026-06-12T17:44:19.000Z</time></trkpt>
        <trkpt lat="29.5518171" lon="103.3766425"><ele>1142.59</ele><time>2026-06-12T17:44:32.000Z</time></trkpt>
        <trkpt lat="29.5517783" lon="103.3766683"><ele>1143.45</ele><time>2026-06-12T17:46:53.000Z</time></trkpt>
        <trkpt lat="29.5517783" lon="103.3766683"><ele>1143.45</ele><time>2026-06-12T17:47:01.000Z</time></trkpt>
        <trkpt lat="29.551785" lon="103.37659"><ele>1143.99</ele><time>2026-06-12T17:47:25.000Z</time></trkpt>
        <trkpt lat="29.5518058" lon="103.3765371"><ele>1145.63</ele><time>2026-06-12T17:47:39.000Z</time></trkpt>
        <trkpt lat="29.5517827" lon="103.3764744"><ele>1149.06</ele><time>2026-06-12T17:47:51.000Z</time></trkpt>
        <trkpt lat="29.5517624" lon="103.3764115"><ele>1152</ele><time>2026-06-12T17:48:38.000Z</time></trkpt>
        <trkpt lat="29.5517153" lon="103.3763695"><ele>1157.38</ele><time>2026-06-12T17:48:56.000Z</time></trkpt>
        <trkpt lat="29.5516919" lon="103.3763228"><ele>1161.3</ele><time>2026-06-12T17:49:06.000Z</time></trkpt>
        <trkpt lat="29.5517028" lon="103.3762769"><ele>1164.01</ele><time>2026-06-12T17:49:11.000Z</time></trkpt>
        <trkpt lat="29.5517424" lon="103.3762497"><ele>1166.8</ele><time>2026-06-12T17:49:21.000Z</time></trkpt>
        <trkpt lat="29.5517478" lon="103.3761991"><ele>1169.34</ele><time>2026-06-12T17:49:33.000Z</time></trkpt>
        <trkpt lat="29.5517282" lon="103.3761512"><ele>1170.96</ele><time>2026-06-12T17:49:41.000Z</time></trkpt>
        <trkpt lat="29.5517223" lon="103.3760926"><ele>1172.4</ele><time>2026-06-12T17:49:59.000Z</time></trkpt>
        <trkpt lat="29.5517106" lon="103.3759988"><ele>1174.03</ele><time>2026-06-12T17:50:28.000Z</time></trkpt>
        <trkpt lat="29.5517294" lon="103.3759406"><ele>1176.94</ele><time>2026-06-12T17:50:34.000Z</time></trkpt>
        <trkpt lat="29.551716" lon="103.3758914"><ele>1179.42</ele><time>2026-06-12T17:50:40.000Z</time></trkpt>
        <trkpt lat="29.5516942" lon="103.3758334"><ele>1181.48</ele><time>2026-06-12T17:50:46.000Z</time></trkpt>
        <trkpt lat="29.551673" lon="103.3757626"><ele>1182.52</ele><time>2026-06-12T17:50:52.000Z</time></trkpt>
        <trkpt lat="29.5516554" lon="103.3757009"><ele>1183.63</ele><time>2026-06-12T17:50:56.000Z</time></trkpt>
        <trkpt lat="29.5516271" lon="103.3756345"><ele>1184.95</ele><time>2026-06-12T17:51:02.000Z</time></trkpt>
        <trkpt lat="29.5515937" lon="103.3755825"><ele>1186.35</ele><time>2026-06-12T17:51:06.000Z</time></trkpt>
        <trkpt lat="29.551544" lon="103.3755397"><ele>1187.4</ele><time>2026-06-12T17:51:12.000Z</time></trkpt>
        <trkpt lat="29.551499" lon="103.3755047"><ele>1187.96</ele><time>2026-06-12T17:51:16.000Z</time></trkpt>
        <trkpt lat="29.5514682" lon="103.3754603"><ele>1187.89</ele><time>2026-06-12T17:51:20.000Z</time></trkpt>
        <trkpt lat="29.551433" lon="103.375404"><ele>1187.29</ele><time>2026-06-12T17:51:26.000Z</time></trkpt>
        <trkpt lat="29.551388" lon="103.3753548"><ele>1187.17</ele><time>2026-06-12T17:51:32.000Z</time></trkpt>
        <trkpt lat="29.551342" lon="103.3753276"><ele>1188.13</ele><time>2026-06-12T17:51:36.000Z</time></trkpt>
        <trkpt lat="29.551296" lon="103.3753247"><ele>1189.23</ele><time>2026-06-12T17:51:42.000Z</time></trkpt>
        <trkpt lat="29.5512467" lon="103.3753357"><ele>1190.38</ele><time>2026-06-12T17:51:50.000Z</time></trkpt>
        <trkpt lat="29.5512" lon="103.3753411"><ele>1191.29</ele><time>2026-06-12T17:52:04.000Z</time></trkpt>
        <trkpt lat="29.5511633" lon="103.375315"><ele>1192.29</ele><time>2026-06-12T17:52:13.000Z</time></trkpt>
        <trkpt lat="29.5511254" lon="103.3752868"><ele>1192.89</ele><time>2026-06-12T17:52:19.000Z</time></trkpt>
        <trkpt lat="29.5510763" lon="103.375273"><ele>1193.67</ele><time>2026-06-12T17:52:25.000Z</time></trkpt>
        <trkpt lat="29.5510205" lon="103.375274"><ele>1194.67</ele><time>2026-06-12T17:52:37.000Z</time></trkpt>
        <trkpt lat="29.5509689" lon="103.3752801"><ele>1196.06</ele><time>2026-06-12T17:52:47.000Z</time></trkpt>
        <trkpt lat="29.5509096" lon="103.3752909"><ele>1197.11</ele><time>2026-06-12T17:52:55.000Z</time></trkpt>
        <trkpt lat="29.5508525" lon="103.3752887"><ele>1198.78</ele><time>2026-06-12T17:53:01.000Z</time></trkpt>
        <trkpt lat="29.5507942" lon="103.3752662"><ele>1200.21</ele><time>2026-06-12T17:53:05.000Z</time></trkpt>
        <trkpt lat="29.5507481" lon="103.3752278"><ele>1201.2</ele><time>2026-06-12T17:53:09.000Z</time></trkpt>
        <trkpt lat="29.5507078" lon="103.3751836"><ele>1202.01</ele><time>2026-06-12T17:53:13.000Z</time></trkpt>
        <trkpt lat="29.5506528" lon="103.3751614"><ele>1202.44</ele><time>2026-06-12T17:53:19.000Z</time></trkpt>
        <trkpt lat="29.5506056" lon="103.3751459"><ele>1202.51</ele><time>2026-06-12T17:53:23.000Z</time></trkpt>
        <trkpt lat="29.5505654" lon="103.3751109"><ele>1202.81</ele><time>2026-06-12T17:53:27.000Z</time></trkpt>
        <trkpt lat="29.5505252" lon="103.3750819"><ele>1203.28</ele><time>2026-06-12T17:53:31.000Z</time></trkpt>
        <trkpt lat="29.5504781" lon="103.3750634"><ele>1203.67</ele><time>2026-06-12T17:53:35.000Z</time></trkpt>
        <trkpt lat="29.5504246" lon="103.3750324"><ele>1203.9</ele><time>2026-06-12T17:53:41.000Z</time></trkpt>
        <trkpt lat="29.5503852" lon="103.3749875"><ele>1203.68</ele><time>2026-06-12T17:53:45.000Z</time></trkpt>
        <trkpt lat="29.550344" lon="103.3749505"><ele>1203.61</ele><time>2026-06-12T17:53:49.000Z</time></trkpt>
        <trkpt lat="29.5502978" lon="103.3749324"><ele>1203.47</ele><time>2026-06-12T17:53:53.000Z</time></trkpt>
        <trkpt lat="29.5502345" lon="103.3749224"><ele>1203.14</ele><time>2026-06-12T17:53:59.000Z</time></trkpt>
        <trkpt lat="29.5501903" lon="103.3749346"><ele>1202.48</ele><time>2026-06-12T17:54:05.000Z</time></trkpt>
        <trkpt lat="29.5501416" lon="103.37494"><ele>1201.58</ele><time>2026-06-12T17:54:11.000Z</time></trkpt>
        <trkpt lat="29.5500919" lon="103.374915"><ele>1200.43</ele><time>2026-06-12T17:54:18.000Z</time></trkpt>
        <trkpt lat="29.5500357" lon="103.3748958"><ele>1199.3</ele><time>2026-06-12T17:54:22.000Z</time></trkpt>
        <trkpt lat="29.549972" lon="103.3748701"><ele>1198.52</ele><time>2026-06-12T17:54:28.000Z</time></trkpt>
        <trkpt lat="29.5499211" lon="103.3748437"><ele>1197.7</ele><time>2026-06-12T17:54:32.000Z</time></trkpt>
        <trkpt lat="29.5498904" lon="103.3748339"><ele>1197.01</ele><time>2026-06-12T17:54:36.000Z</time></trkpt>
        <trkpt lat="29.549853" lon="103.3747942"><ele>1196.27</ele><time>2026-06-12T17:54:42.000Z</time></trkpt>
        <trkpt lat="29.5498119" lon="103.3747692"><ele>1195.81</ele><time>2026-06-12T17:54:46.000Z</time></trkpt>
        <trkpt lat="29.5498429" lon="103.3747244"><ele>1195.72</ele><time>2026-06-12T17:54:54.000Z</time></trkpt>
        <trkpt lat="29.549889" lon="103.3746836"><ele>1195.75</ele><time>2026-06-12T17:54:56.000Z</time></trkpt>
        <trkpt lat="29.5499443" lon="103.3746352"><ele>1195.6</ele><time>2026-06-12T17:55:00.000Z</time></trkpt>
        <trkpt lat="29.5499912" lon="103.3745881"><ele>1195.09</ele><time>2026-06-12T17:55:08.000Z</time></trkpt>
        <trkpt lat="29.5500305" lon="103.3745358"><ele>1193.63</ele><time>2026-06-12T17:55:20.000Z</time></trkpt>
        <trkpt lat="29.5500439" lon="103.3744518"><ele>1191.38</ele><time>2026-06-12T17:55:36.000Z</time></trkpt>
        <trkpt lat="29.550014" lon="103.3743754"><ele>1190.23</ele><time>2026-06-12T17:55:40.000Z</time></trkpt>
        <trkpt lat="29.5499761" lon="103.3743276"><ele>1191.2</ele><time>2026-06-12T17:55:43.000Z</time></trkpt>
        <trkpt lat="29.5499972" lon="103.3743508"><ele>1193.57</ele><time>2026-06-12T17:55:54.000Z</time></trkpt>
        <trkpt lat="29.5500283" lon="103.3744026"><ele>1197.75</ele><time>2026-06-12T17:55:58.000Z</time></trkpt>
        <trkpt lat="29.5500934" lon="103.3744353"><ele>1201.39</ele><time>2026-06-12T17:56:08.000Z</time></trkpt>
        <trkpt lat="29.5501605" lon="103.3744243"><ele>1207.37</ele><time>2026-06-12T17:56:12.000Z</time></trkpt>
        <trkpt lat="29.5502006" lon="103.3743852"><ele>1212.03</ele><time>2026-06-12T17:56:16.000Z</time></trkpt>
        <trkpt lat="29.5502618" lon="103.3743476"><ele>1215.89</ele><time>2026-06-12T17:56:23.000Z</time></trkpt>
        <trkpt lat="29.550325" lon="103.3743155"><ele>1220.58</ele><time>2026-06-12T17:56:29.000Z</time></trkpt>
        <trkpt lat="29.550387" lon="103.374288"><ele>1224.85</ele><time>2026-06-12T17:56:35.000Z</time></trkpt>
        <trkpt lat="29.5504455" lon="103.3742687"><ele>1228.44</ele><time>2026-06-12T17:56:39.000Z</time></trkpt>
        <trkpt lat="29.5505024" lon="103.3742512"><ele>1231.18</ele><time>2026-06-12T17:56:45.000Z</time></trkpt>
        <trkpt lat="29.5505138" lon="103.3742075"><ele>1234.03</ele><time>2026-06-12T17:56:51.000Z</time></trkpt>
        <trkpt lat="29.5505237" lon="103.3741777"><ele>1235.52</ele><time>2026-06-12T17:56:53.000Z</time></trkpt>
        <trkpt lat="29.5505519" lon="103.3741442"><ele>1236.5</ele><time>2026-06-12T17:56:57.000Z</time></trkpt>
        <trkpt lat="29.5505807" lon="103.3741206"><ele>1237.15</ele><time>2026-06-12T17:57:01.000Z</time></trkpt>
        <trkpt lat="29.5506345" lon="103.3741144"><ele>1237</ele><time>2026-06-12T17:57:05.000Z</time></trkpt>
        <trkpt lat="29.5506898" lon="103.3741392"><ele>1236.48</ele><time>2026-06-12T17:57:09.000Z</time></trkpt>
        <trkpt lat="29.5507342" lon="103.3741566"><ele>1236.02</ele><time>2026-06-12T17:57:15.000Z</time></trkpt>
        <trkpt lat="29.5507712" lon="103.3741377"><ele>1235.75</ele><time>2026-06-12T17:57:20.000Z</time></trkpt>
        <trkpt lat="29.5507944" lon="103.3740696"><ele>1235.94</ele><time>2026-06-12T17:57:26.000Z</time></trkpt>
        <trkpt lat="29.5507943" lon="103.3739988"><ele>1236.14</ele><time>2026-06-12T17:57:28.000Z</time></trkpt>
        <trkpt lat="29.5508242" lon="103.3739506"><ele>1235.99</ele><time>2026-06-12T17:57:36.000Z</time></trkpt>
        <trkpt lat="29.5508694" lon="103.373934"><ele>1234.45</ele><time>2026-06-12T17:57:40.000Z</time></trkpt>
        <trkpt lat="29.5509233" lon="103.37392"><ele>1232.88</ele><time>2026-06-12T17:57:44.000Z</time></trkpt>
        <trkpt lat="29.5509754" lon="103.3739201"><ele>1231.77</ele><time>2026-06-12T17:57:48.000Z</time></trkpt>
        <trkpt lat="29.5510044" lon="103.373883"><ele>1230.71</ele><time>2026-06-12T17:57:54.000Z</time></trkpt>
        <trkpt lat="29.5510508" lon="103.3738571"><ele>1230.1</ele><time>2026-06-12T17:58:00.000Z</time></trkpt>
        <trkpt lat="29.5511246" lon="103.3738543"><ele>1230.14</ele><time>2026-06-12T17:58:04.000Z</time></trkpt>
        <trkpt lat="29.5511792" lon="103.3738687"><ele>1230.47</ele><time>2026-06-12T17:58:06.000Z</time></trkpt>
        <trkpt lat="29.5512463" lon="103.3738694"><ele>1230.57</ele><time>2026-06-12T17:58:10.000Z</time></trkpt>
        <trkpt lat="29.5513144" lon="103.3738347"><ele>1231.01</ele><time>2026-06-12T17:58:14.000Z</time></trkpt>
        <trkpt lat="29.5513547" lon="103.3737933"><ele>1231.22</ele><time>2026-06-12T17:58:18.000Z</time></trkpt>
        <trkpt lat="29.5514094" lon="103.3737688"><ele>1231.21</ele><time>2026-06-12T17:58:25.000Z</time></trkpt>
        <trkpt lat="29.5514433" lon="103.3737306"><ele>1231.21</ele><time>2026-06-12T17:58:29.000Z</time></trkpt>
        <trkpt lat="29.5514606" lon="103.3736784"><ele>1230.52</ele><time>2026-06-12T17:58:33.000Z</time></trkpt>
        <trkpt lat="29.5514342" lon="103.3736067"><ele>1229.3</ele><time>2026-06-12T17:58:37.000Z</time></trkpt>
        <trkpt lat="29.5514009" lon="103.3735377"><ele>1227.32</ele><time>2026-06-12T17:58:41.000Z</time></trkpt>
        <trkpt lat="29.5513844" lon="103.3734627"><ele>1224.86</ele><time>2026-06-12T17:58:43.000Z</time></trkpt>
        <trkpt lat="29.5513686" lon="103.3733799"><ele>1222.47</ele><time>2026-06-12T17:58:47.000Z</time></trkpt>
        <trkpt lat="29.5513646" lon="103.373305"><ele>1220.76</ele><time>2026-06-12T17:58:51.000Z</time></trkpt>
        <trkpt lat="29.5513562" lon="103.3732475"><ele>1220.09</ele><time>2026-06-12T17:58:55.000Z</time></trkpt>
        <trkpt lat="29.5513167" lon="103.373204"><ele>1219.92</ele><time>2026-06-12T17:58:59.000Z</time></trkpt>
        <trkpt lat="29.551272" lon="103.3731545"><ele>1218.97</ele><time>2026-06-12T17:59:05.000Z</time></trkpt>
        <trkpt lat="29.5512096" lon="103.3731317"><ele>1217.69</ele><time>2026-06-12T17:59:09.000Z</time></trkpt>
        <trkpt lat="29.5511544" lon="103.3731033"><ele>1216.49</ele><time>2026-06-12T17:59:13.000Z</time></trkpt>
        <trkpt lat="29.5511197" lon="103.3730498"><ele>1215.16</ele><time>2026-06-12T17:59:19.000Z</time></trkpt>
        <trkpt lat="29.5511066" lon="103.3729891"><ele>1213.11</ele><time>2026-06-12T17:59:24.000Z</time></trkpt>
        <trkpt lat="29.5510932" lon="103.3729457"><ele>1211.09</ele><time>2026-06-12T17:59:32.000Z</time></trkpt>
        <trkpt lat="29.5510628" lon="103.3729684"><ele>1208.9</ele><time>2026-06-12T17:59:36.000Z</time></trkpt>
        <trkpt lat="29.5509942" lon="103.3729873"><ele>1207.14</ele><time>2026-06-12T17:59:40.000Z</time></trkpt>
        <trkpt lat="29.5509308" lon="103.3729746"><ele>1205.61</ele><time>2026-06-12T17:59:44.000Z</time></trkpt>
        <trkpt lat="29.5508717" lon="103.3729573"><ele>1204.23</ele><time>2026-06-12T17:59:48.000Z</time></trkpt>
        <trkpt lat="29.55081" lon="103.3729516"><ele>1202.8</ele><time>2026-06-12T17:59:54.000Z</time></trkpt>
        <trkpt lat="29.5507653" lon="103.3729533"><ele>1200.95</ele><time>2026-06-12T17:59:58.000Z</time></trkpt>
        <trkpt lat="29.5507058" lon="103.3729524"><ele>1199.38</ele><time>2026-06-12T18:00:04.000Z</time></trkpt>
        <trkpt lat="29.5506563" lon="103.3729613"><ele>1197.97</ele><time>2026-06-12T18:00:08.000Z</time></trkpt>
        <trkpt lat="29.5506084" lon="103.3729686"><ele>1196.61</ele><time>2026-06-12T18:00:12.000Z</time></trkpt>
        <trkpt lat="29.550557" lon="103.3729646"><ele>1195.48</ele><time>2026-06-12T18:00:16.000Z</time></trkpt>
        <trkpt lat="29.5505015" lon="103.3729714"><ele>1194.46</ele><time>2026-06-12T18:00:20.000Z</time></trkpt>
        <trkpt lat="29.5504809" lon="103.3729762"><ele>1193.36</ele><time>2026-06-12T18:00:21.000Z</time></trkpt>
        <trkpt lat="29.5504445" lon="103.3730089"><ele>1192.43</ele><time>2026-06-12T18:00:26.000Z</time></trkpt>
        <trkpt lat="29.5504294" lon="103.3730855"><ele>1191.13</ele><time>2026-06-12T18:00:37.000Z</time></trkpt>
        <trkpt lat="29.5503668" lon="103.3731189"><ele>1189.27</ele><time>2026-06-12T18:00:41.000Z</time></trkpt>
        <trkpt lat="29.5502983" lon="103.3731334"><ele>1187.86</ele><time>2026-06-12T18:00:43.000Z</time></trkpt>
        <trkpt lat="29.550242" lon="103.3731265"><ele>1186.8</ele><time>2026-06-12T18:00:47.000Z</time></trkpt>
        <trkpt lat="29.5502103" lon="103.3730719"><ele>1185.81</ele><time>2026-06-12T18:00:49.000Z</time></trkpt>
        <trkpt lat="29.5501903" lon="103.3729755"><ele>1185.16</ele><time>2026-06-12T18:00:51.000Z</time></trkpt>
        <trkpt lat="29.5501205" lon="103.3729425"><ele>1184.79</ele><time>2026-06-12T18:00:59.000Z</time></trkpt>
        <trkpt lat="29.5500563" lon="103.3729532"><ele>1184.28</ele><time>2026-06-12T18:01:01.000Z</time></trkpt>
        <trkpt lat="29.5500963" lon="103.3729323"><ele>1183.94</ele><time>2026-06-12T18:01:09.000Z</time></trkpt>
        <trkpt lat="29.5501488" lon="103.3728994"><ele>1183.58</ele><time>2026-06-12T18:01:11.000Z</time></trkpt>
        <trkpt lat="29.550217" lon="103.3728633"><ele>1183.59</ele><time>2026-06-12T18:01:13.000Z</time></trkpt>
        <trkpt lat="29.550271" lon="103.3728369"><ele>1183.77</ele><time>2026-06-12T18:01:15.000Z</time></trkpt>
        <trkpt lat="29.5503059" lon="103.3727732"><ele>1184.04</ele><time>2026-06-12T18:01:19.000Z</time></trkpt>
        <trkpt lat="29.5503494" lon="103.3727333"><ele>1185.14</ele><time>2026-06-12T18:01:21.000Z</time></trkpt>
        <trkpt lat="29.550433" lon="103.3727089"><ele>1186.59</ele><time>2026-06-12T18:01:25.000Z</time></trkpt>
        <trkpt lat="29.5504799" lon="103.3726499"><ele>1188.61</ele><time>2026-06-12T18:01:29.000Z</time></trkpt>
        <trkpt lat="29.5505199" lon="103.3725747"><ele>1190.59</ele><time>2026-06-12T18:01:33.000Z</time></trkpt>
        <trkpt lat="29.5505707" lon="103.3725251"><ele>1191.97</ele><time>2026-06-12T18:01:38.000Z</time></trkpt>
        <trkpt lat="29.5505849" lon="103.3725026"><ele>1192.97</ele><time>2026-06-12T18:01:41.000Z</time></trkpt>
        <trkpt lat="29.5505781" lon="103.3724494"><ele>1193.54</ele><time>2026-06-12T18:01:45.000Z</time></trkpt>
        <trkpt lat="29.5505931" lon="103.3723958"><ele>1193.91</ele><time>2026-06-12T18:01:49.000Z</time></trkpt>
        <trkpt lat="29.5506057" lon="103.3723679"><ele>1194.21</ele><time>2026-06-12T18:01:51.000Z</time></trkpt>
        <trkpt lat="29.5506349" lon="103.3723309"><ele>1194.46</ele><time>2026-06-12T18:01:55.000Z</time></trkpt>
        <trkpt lat="29.5506665" lon="103.3722856"><ele>1194.95</ele><time>2026-06-12T18:01:59.000Z</time></trkpt>
        <trkpt lat="29.5506906" lon="103.3722285"><ele>1195.62</ele><time>2026-06-12T18:02:03.000Z</time></trkpt>
        <trkpt lat="29.5506864" lon="103.3721599"><ele>1196.21</ele><time>2026-06-12T18:02:07.000Z</time></trkpt>
        <trkpt lat="29.5506744" lon="103.3720879"><ele>1196.72</ele><time>2026-06-12T18:02:11.000Z</time></trkpt>
        <trkpt lat="29.5506649" lon="103.3720283"><ele>1197.7</ele><time>2026-06-12T18:02:15.000Z</time></trkpt>
        <trkpt lat="29.5506389" lon="103.3719753"><ele>1198.82</ele><time>2026-06-12T18:02:19.000Z</time></trkpt>
        <trkpt lat="29.5506098" lon="103.3719231"><ele>1199.84</ele><time>2026-06-12T18:02:23.000Z</time></trkpt>
        <trkpt lat="29.5505934" lon="103.3718707"><ele>1200.81</ele><time>2026-06-12T18:02:28.000Z</time></trkpt>
        <trkpt lat="29.5505573" lon="103.3718142"><ele>1201.5</ele><time>2026-06-12T18:02:34.000Z</time></trkpt>
        <trkpt lat="29.5505251" lon="103.3717598"><ele>1201.15</ele><time>2026-06-12T18:02:37.000Z</time></trkpt>
        <trkpt lat="29.5505089" lon="103.371715"><ele>1200.49</ele><time>2026-06-12T18:02:41.000Z</time></trkpt>
        <trkpt lat="29.5504789" lon="103.3716587"><ele>1199.8</ele><time>2026-06-12T18:02:50.000Z</time></trkpt>
        <trkpt lat="29.5504231" lon="103.3716152"><ele>1199.41</ele><time>2026-06-12T18:02:56.000Z</time></trkpt>
        <trkpt lat="29.5503782" lon="103.3715654"><ele>1199.02</ele><time>2026-06-12T18:03:03.000Z</time></trkpt>
        <trkpt lat="29.5503264" lon="103.3715391"><ele>1198.54</ele><time>2026-06-12T18:03:08.000Z</time></trkpt>
        <trkpt lat="29.5502661" lon="103.3715365"><ele>1198.14</ele><time>2026-06-12T18:03:12.000Z</time></trkpt>
        <trkpt lat="29.5502133" lon="103.37152"><ele>1197.73</ele><time>2026-06-12T18:03:16.000Z</time></trkpt>
        <trkpt lat="29.5502264" lon="103.3714751"><ele>1197.16</ele><time>2026-06-12T18:03:23.000Z</time></trkpt>
        <trkpt lat="29.5502612" lon="103.3714172"><ele>1196.57</ele><time>2026-06-12T18:03:28.000Z</time></trkpt>
        <trkpt lat="29.5503091" lon="103.3713608"><ele>1196.03</ele><time>2026-06-12T18:03:36.000Z</time></trkpt>
        <trkpt lat="29.5503598" lon="103.3712852"><ele>1195.5</ele><time>2026-06-12T18:03:39.000Z</time></trkpt>
        <trkpt lat="29.5503879" lon="103.3712158"><ele>1196.1</ele><time>2026-06-12T18:03:45.000Z</time></trkpt>
        <trkpt lat="29.5504302" lon="103.3711739"><ele>1197.74</ele><time>2026-06-12T18:03:51.000Z</time></trkpt>
        <trkpt lat="29.5504619" lon="103.3711349"><ele>1198.97</ele><time>2026-06-12T18:03:55.000Z</time></trkpt>
        <trkpt lat="29.5504879" lon="103.3710844"><ele>1199.63</ele><time>2026-06-12T18:03:59.000Z</time></trkpt>
        <trkpt lat="29.5505096" lon="103.3710277"><ele>1200</ele><time>2026-06-12T18:04:03.000Z</time></trkpt>
        <trkpt lat="29.5505077" lon="103.3709713"><ele>1200.17</ele><time>2026-06-12T18:04:07.000Z</time></trkpt>
        <trkpt lat="29.5504939" lon="103.3709405"><ele>1200.4</ele><time>2026-06-12T18:04:09.000Z</time></trkpt>
        <trkpt lat="29.5504535" lon="103.3709169"><ele>1200.62</ele><time>2026-06-12T18:04:16.000Z</time></trkpt>
        <trkpt lat="29.5504099" lon="103.3708807"><ele>1200.18</ele><time>2026-06-12T18:04:20.000Z</time></trkpt>
        <trkpt lat="29.5503749" lon="103.3708326"><ele>1199.84</ele><time>2026-06-12T18:04:25.000Z</time></trkpt>
        <trkpt lat="29.5503281" lon="103.3707929"><ele>1199.61</ele><time>2026-06-12T18:04:31.000Z</time></trkpt>
        <trkpt lat="29.550321" lon="103.3707443"><ele>1199.69</ele><time>2026-06-12T18:04:39.000Z</time></trkpt>
        <trkpt lat="29.5503443" lon="103.3706875"><ele>1200.73</ele><time>2026-06-12T18:04:43.000Z</time></trkpt>
        <trkpt lat="29.5503218" lon="103.3706694"><ele>1201.88</ele><time>2026-06-12T18:04:52.000Z</time></trkpt>
        <trkpt lat="29.5503489" lon="103.3706624"><ele>1203.35</ele><time>2026-06-12T18:04:56.000Z</time></trkpt>
        <trkpt lat="29.5503213" lon="103.3706677"><ele>1205.05</ele><time>2026-06-12T18:05:15.000Z</time></trkpt>
        <trkpt lat="29.5503192" lon="103.3706346"><ele>1201.72</ele><time>2026-06-12T18:05:23.000Z</time></trkpt>
        <trkpt lat="29.5503146" lon="103.3705998"><ele>1199.04</ele><time>2026-06-12T18:05:30.000Z</time></trkpt>
        <trkpt lat="29.5503699" lon="103.3705581"><ele>1195.88</ele><time>2026-06-12T18:05:35.000Z</time></trkpt>
        <trkpt lat="29.5503908" lon="103.3705348"><ele>1193.09</ele><time>2026-06-12T18:05:37.000Z</time></trkpt>
        <trkpt lat="29.5503331" lon="103.3705152"><ele>1190.95</ele><time>2026-06-12T18:05:40.000Z</time></trkpt>
        <trkpt lat="29.5502656" lon="103.3705039"><ele>1188.73</ele><time>2026-06-12T18:05:42.000Z</time></trkpt>
        <trkpt lat="29.5502264" lon="103.3704902"><ele>1187</ele><time>2026-06-12T18:05:45.000Z</time></trkpt>
        <trkpt lat="29.5502706" lon="103.3704635"><ele>1185.54</ele><time>2026-06-12T18:05:46.000Z</time></trkpt>
        <trkpt lat="29.5503315" lon="103.3704243"><ele>1184.7</ele><time>2026-06-12T18:05:49.000Z</time></trkpt>
        <trkpt lat="29.5503875" lon="103.3703949"><ele>1184.19</ele><time>2026-06-12T18:05:53.000Z</time></trkpt>
        <trkpt lat="29.5504135" lon="103.3704165"><ele>1183.72</ele><time>2026-06-12T18:05:59.000Z</time></trkpt>
        <trkpt lat="29.5504068" lon="103.3703902"><ele>1182.08</ele><time>2026-06-12T18:06:13.000Z</time></trkpt>
        <trkpt lat="29.5504117" lon="103.3703412"><ele>1182.86</ele><time>2026-06-12T18:06:21.000Z</time></trkpt>
        <trkpt lat="29.5503954" lon="103.370285"><ele>1185.37</ele><time>2026-06-12T18:06:33.000Z</time></trkpt>
        <trkpt lat="29.5503545" lon="103.370253"><ele>1187.36</ele><time>2026-06-12T18:06:41.000Z</time></trkpt>
        <trkpt lat="29.5503172" lon="103.3702113"><ele>1189.83</ele><time>2026-06-12T18:06:53.000Z</time></trkpt>
        <trkpt lat="29.5503098" lon="103.3701516"><ele>1191.97</ele><time>2026-06-12T18:07:03.000Z</time></trkpt>
        <trkpt lat="29.5502803" lon="103.3700931"><ele>1192.76</ele><time>2026-06-12T18:07:09.000Z</time></trkpt>
        <trkpt lat="29.5502792" lon="103.3700236"><ele>1192.39</ele><time>2026-06-12T18:07:15.000Z</time></trkpt>
        <trkpt lat="29.5502991" lon="103.3699669"><ele>1191.79</ele><time>2026-06-12T18:07:19.000Z</time></trkpt>
        <trkpt lat="29.5503116" lon="103.369912"><ele>1191.49</ele><time>2026-06-12T18:07:25.000Z</time></trkpt>
        <trkpt lat="29.5503247" lon="103.3698612"><ele>1191.41</ele><time>2026-06-12T18:07:30.000Z</time></trkpt>
        <trkpt lat="29.5503161" lon="103.3698105"><ele>1191.41</ele><time>2026-06-12T18:07:34.000Z</time></trkpt>
        <trkpt lat="29.550283" lon="103.369757"><ele>1191.75</ele><time>2026-06-12T18:07:49.000Z</time></trkpt>
        <trkpt lat="29.5502457" lon="103.3697135"><ele>1193.19</ele><time>2026-06-12T18:08:09.000Z</time></trkpt>
        <trkpt lat="29.5502777" lon="103.3696825"><ele>1195.69</ele><time>2026-06-12T18:08:19.000Z</time></trkpt>
        <trkpt lat="29.5502523" lon="103.3696794"><ele>1198.45</ele><time>2026-06-12T18:08:29.000Z</time></trkpt>
        <trkpt lat="29.5502052" lon="103.3696967"><ele>1201.14</ele><time>2026-06-12T18:08:39.000Z</time></trkpt>
        <trkpt lat="29.5501918" lon="103.3696669"><ele>1203.74</ele><time>2026-06-12T18:09:01.000Z</time></trkpt>
        <trkpt lat="29.5501551" lon="103.3696677"><ele>1207.21</ele><time>2026-06-12T18:09:11.000Z</time></trkpt>
        <trkpt lat="29.5501668" lon="103.3696336"><ele>1210.26</ele><time>2026-06-12T18:09:23.000Z</time></trkpt>
        <trkpt lat="29.5501706" lon="103.3695795"><ele>1213.2</ele><time>2026-06-12T18:09:47.000Z</time></trkpt>
        <trkpt lat="29.5501367" lon="103.3695496"><ele>1213.63</ele><time>2026-06-12T18:10:01.000Z</time></trkpt>
        <trkpt lat="29.5500897" lon="103.3695216"><ele>1213.92</ele><time>2026-06-12T18:10:29.000Z</time></trkpt>
        <trkpt lat="29.5500383" lon="103.3695165"><ele>1215.8</ele><time>2026-06-12T18:10:38.000Z</time></trkpt>
        <trkpt lat="29.5499994" lon="103.3694757"><ele>1217.52</ele><time>2026-06-12T18:10:48.000Z</time></trkpt>
        <trkpt lat="29.5499774" lon="103.3694153"><ele>1219.45</ele><time>2026-06-12T18:10:56.000Z</time></trkpt>
        <trkpt lat="29.5499527" lon="103.3693479"><ele>1220.76</ele><time>2026-06-12T18:11:02.000Z</time></trkpt>
        <trkpt lat="29.5499186" lon="103.3693008"><ele>1221.64</ele><time>2026-06-12T18:11:06.000Z</time></trkpt>
        <trkpt lat="29.5498831" lon="103.3692574"><ele>1222.35</ele><time>2026-06-12T18:11:10.000Z</time></trkpt>
        <trkpt lat="29.54986" lon="103.36921"><ele>1222.89</ele><time>2026-06-12T18:11:16.000Z</time></trkpt>
        <trkpt lat="29.5498529" lon="103.3691756"><ele>1223.37</ele><time>2026-06-12T18:11:20.000Z</time></trkpt>
        <trkpt lat="29.5498962" lon="103.3691574"><ele>1223.42</ele><time>2026-06-12T18:11:26.000Z</time></trkpt>
        <trkpt lat="29.549923" lon="103.3691167"><ele>1223.63</ele><time>2026-06-12T18:11:41.000Z</time></trkpt>
        <trkpt lat="29.5499152" lon="103.3690628"><ele>1223.36</ele><time>2026-06-12T18:12:19.000Z</time></trkpt>
        <trkpt lat="29.5499178" lon="103.3690009"><ele>1226.73</ele><time>2026-06-12T18:12:29.000Z</time></trkpt>
        <trkpt lat="29.5499118" lon="103.3689421"><ele>1229.9</ele><time>2026-06-12T18:12:40.000Z</time></trkpt>
        <trkpt lat="29.5499178" lon="103.3688892"><ele>1232.83</ele><time>2026-06-12T18:13:26.000Z</time></trkpt>
        <trkpt lat="29.5499564" lon="103.3688851"><ele>1238.84</ele><time>2026-06-12T18:13:41.000Z</time></trkpt>
        <trkpt lat="29.5499377" lon="103.3688636"><ele>1243.6</ele><time>2026-06-12T18:13:53.000Z</time></trkpt>
        <trkpt lat="29.5498922" lon="103.3688568"><ele>1248.29</ele><time>2026-06-12T18:13:59.000Z</time></trkpt>
        <trkpt lat="29.5498379" lon="103.3688637"><ele>1251.6</ele><time>2026-06-12T18:14:09.000Z</time></trkpt>
        <trkpt lat="29.5497954" lon="103.3688958"><ele>1253.15</ele><time>2026-06-12T18:14:13.000Z</time></trkpt>
        <trkpt lat="29.5497753" lon="103.3688668"><ele>1253.9</ele><time>2026-06-12T18:14:25.000Z</time></trkpt>
        <trkpt lat="29.5497701" lon="103.3688136"><ele>1253.21</ele><time>2026-06-12T18:14:36.000Z</time></trkpt>
        <trkpt lat="29.5497379" lon="103.3688125"><ele>1252.39</ele><time>2026-06-12T18:14:44.000Z</time></trkpt>
        <trkpt lat="29.5497032" lon="103.3687892"><ele>1251.53</ele><time>2026-06-12T18:14:48.000Z</time></trkpt>
        <trkpt lat="29.5496759" lon="103.3687437"><ele>1251.09</ele><time>2026-06-12T18:14:52.000Z</time></trkpt>
        <trkpt lat="29.5496419" lon="103.3686805"><ele>1250.84</ele><time>2026-06-12T18:15:00.000Z</time></trkpt>
        <trkpt lat="29.5496077" lon="103.3686285"><ele>1251.12</ele><time>2026-06-12T18:15:08.000Z</time></trkpt>
        <trkpt lat="29.5496377" lon="103.3686012"><ele>1252.4</ele><time>2026-06-12T18:15:32.000Z</time></trkpt>
        <trkpt lat="29.5496699" lon="103.3685631"><ele>1255.93</ele><time>2026-06-12T18:15:41.000Z</time></trkpt>
        <trkpt lat="29.5497121" lon="103.3685186"><ele>1259.06</ele><time>2026-06-12T18:16:09.000Z</time></trkpt>
        <trkpt lat="29.549746" lon="103.3685407"><ele>1262.99</ele><time>2026-06-12T18:16:27.000Z</time></trkpt>
        <trkpt lat="29.5497966" lon="103.3685811"><ele>1266.31</ele><time>2026-06-12T18:16:33.000Z</time></trkpt>
        <trkpt lat="29.5498491" lon="103.3686185"><ele>1268.33</ele><time>2026-06-12T18:16:37.000Z</time></trkpt>
        <trkpt lat="29.5498286" lon="103.3685781"><ele>1269.48</ele><time>2026-06-12T18:16:42.000Z</time></trkpt>
        <trkpt lat="29.5497744" lon="103.3685204"><ele>1270.56</ele><time>2026-06-12T18:16:46.000Z</time></trkpt>
        <trkpt lat="29.5497179" lon="103.3684938"><ele>1271.74</ele><time>2026-06-12T18:16:54.000Z</time></trkpt>
        <trkpt lat="29.5497343" lon="103.3684914"><ele>1273.66</ele><time>2026-06-12T18:17:06.000Z</time></trkpt>
        <trkpt lat="29.549737" lon="103.3684487"><ele>1276.56</ele><time>2026-06-12T18:17:36.000Z</time></trkpt>
        <trkpt lat="29.5497193" lon="103.3683962"><ele>1279.33</ele><time>2026-06-12T18:17:44.000Z</time></trkpt>
        <trkpt lat="29.5497134" lon="103.3683315"><ele>1281.04</ele><time>2026-06-12T18:18:07.000Z</time></trkpt>
        <trkpt lat="29.5497726" lon="103.3683213"><ele>1283.6</ele><time>2026-06-12T18:18:14.000Z</time></trkpt>
        <trkpt lat="29.549824" lon="103.3683825"><ele>1284.63</ele><time>2026-06-12T18:18:18.000Z</time></trkpt>
        <trkpt lat="29.5498764" lon="103.3684248"><ele>1284.66</ele><time>2026-06-12T18:18:22.000Z</time></trkpt>
        <trkpt lat="29.5499276" lon="103.3684302"><ele>1283.86</ele><time>2026-06-12T18:18:34.000Z</time></trkpt>
        <trkpt lat="29.5499424" lon="103.368379"><ele>1282.11</ele><time>2026-06-12T18:18:38.000Z</time></trkpt>
        <trkpt lat="29.5499098" lon="103.3683471"><ele>1280.52</ele><time>2026-06-12T18:18:46.000Z</time></trkpt>
        <trkpt lat="29.5498565" lon="103.368336"><ele>1278.62</ele><time>2026-06-12T18:18:54.000Z</time></trkpt>
        <trkpt lat="29.5498031" lon="103.3683272"><ele>1278.61</ele><time>2026-06-12T18:19:00.000Z</time></trkpt>
        <trkpt lat="29.5497613" lon="103.3683548"><ele>1282</ele><time>2026-06-12T18:19:14.000Z</time></trkpt>
        <trkpt lat="29.549758" lon="103.3683689"><ele>1288.37</ele><time>2026-06-12T18:19:16.000Z</time></trkpt>
        <trkpt lat="29.5497877" lon="103.3683421"><ele>1292.68</ele><time>2026-06-12T18:19:20.000Z</time></trkpt>
        <trkpt lat="29.549825" lon="103.3682974"><ele>1295.7</ele><time>2026-06-12T18:19:28.000Z</time></trkpt>
        <trkpt lat="29.5498734" lon="103.3682668"><ele>1298.11</ele><time>2026-06-12T18:19:47.000Z</time></trkpt>
        <trkpt lat="29.5499052" lon="103.3682185"><ele>1299.61</ele><time>2026-06-12T18:20:01.000Z</time></trkpt>
        <trkpt lat="29.5499406" lon="103.3681803"><ele>1299.18</ele><time>2026-06-12T18:20:21.000Z</time></trkpt>
        <trkpt lat="29.549921" lon="103.368197"><ele>1298.15</ele><time>2026-06-12T18:20:56.000Z</time></trkpt>
        <trkpt lat="29.5498911" lon="103.3681699"><ele>1300.54</ele><time>2026-06-12T18:21:04.000Z</time></trkpt>
        <trkpt lat="29.5498942" lon="103.3681251"><ele>1302.54</ele><time>2026-06-12T18:21:16.000Z</time></trkpt>
        <trkpt lat="29.5499064" lon="103.3680697"><ele>1303.99</ele><time>2026-06-12T18:21:26.000Z</time></trkpt>
        <trkpt lat="29.5499239" lon="103.3680092"><ele>1305.63</ele><time>2026-06-12T18:21:36.000Z</time></trkpt>
        <trkpt lat="29.549916" lon="103.3679546"><ele>1306.99</ele><time>2026-06-12T18:21:53.000Z</time></trkpt>
        <trkpt lat="29.5498906" lon="103.3679844"><ele>1310.26</ele><time>2026-06-12T18:22:07.000Z</time></trkpt>
        <trkpt lat="29.5499" lon="103.3679663"><ele>1313.85</ele><time>2026-06-12T18:22:29.000Z</time></trkpt>
        <trkpt lat="29.5499071" lon="103.3679188"><ele>1317.74</ele><time>2026-06-12T18:22:50.000Z</time></trkpt>
        <trkpt lat="29.5499463" lon="103.3678845"><ele>1321.42</ele><time>2026-06-12T18:22:58.000Z</time></trkpt>
        <trkpt lat="29.5499189" lon="103.3678668"><ele>1324.12</ele><time>2026-06-12T18:23:12.000Z</time></trkpt>
        <trkpt lat="29.5498716" lon="103.3678791"><ele>1325.71</ele><time>2026-06-12T18:23:18.000Z</time></trkpt>
        <trkpt lat="29.5499021" lon="103.3678503"><ele>1327.42</ele><time>2026-06-12T18:23:34.000Z</time></trkpt>
        <trkpt lat="29.5499498" lon="103.3678344"><ele>1329.87</ele><time>2026-06-12T18:23:46.000Z</time></trkpt>
        <trkpt lat="29.5500034" lon="103.3678294"><ele>1333.32</ele><time>2026-06-12T18:24:00.000Z</time></trkpt>
        <trkpt lat="29.5499951" lon="103.3677995"><ele>1336.62</ele><time>2026-06-12T18:24:14.000Z</time></trkpt>
        <trkpt lat="29.5499452" lon="103.3677886"><ele>1339.54</ele><time>2026-06-12T18:24:24.000Z</time></trkpt>
        <trkpt lat="29.5499539" lon="103.3677532"><ele>1343.01</ele><time>2026-06-12T18:24:40.000Z</time></trkpt>
        <trkpt lat="29.5499963" lon="103.3677396"><ele>1347.56</ele><time>2026-06-12T18:24:45.000Z</time></trkpt>
        <trkpt lat="29.5500223" lon="103.3676999"><ele>1350.29</ele><time>2026-06-12T18:25:05.000Z</time></trkpt>
        <trkpt lat="29.5500397" lon="103.3676489"><ele>1352.44</ele><time>2026-06-12T18:25:33.000Z</time></trkpt>
        <trkpt lat="29.5500811" lon="103.3676149"><ele>1355.05</ele><time>2026-06-12T18:25:45.000Z</time></trkpt>
        <trkpt lat="29.550129" lon="103.3676058"><ele>1358.04</ele><time>2026-06-12T18:25:50.000Z</time></trkpt>
        <trkpt lat="29.5501668" lon="103.367568"><ele>1360.13</ele><time>2026-06-12T18:25:58.000Z</time></trkpt>
        <trkpt lat="29.5501824" lon="103.3675169"><ele>1362.53</ele><time>2026-06-12T18:26:08.000Z</time></trkpt>
        <trkpt lat="29.5501624" lon="103.3674566"><ele>1365.01</ele><time>2026-06-12T18:26:54.000Z</time></trkpt>
        <trkpt lat="29.5501844" lon="103.3674168"><ele>1366.25</ele><time>2026-06-12T18:27:06.000Z</time></trkpt>
        <trkpt lat="29.5501956" lon="103.3673642"><ele>1368.6</ele><time>2026-06-12T18:27:16.000Z</time></trkpt>
        <trkpt lat="29.5501782" lon="103.367384"><ele>1372.38</ele><time>2026-06-12T18:27:50.000Z</time></trkpt>
        <trkpt lat="29.5501353" lon="103.3674045"><ele>1377.42</ele><time>2026-06-12T18:28:02.000Z</time></trkpt>
        <trkpt lat="29.5500835" lon="103.3674101"><ele>1381.11</ele><time>2026-06-12T18:28:18.000Z</time></trkpt>
        <trkpt lat="29.5500645" lon="103.3673732"><ele>1384.81</ele><time>2026-06-12T18:28:28.000Z</time></trkpt>
        <trkpt lat="29.550053" lon="103.3673218"><ele>1387.21</ele><time>2026-06-12T18:28:46.000Z</time></trkpt>
        <trkpt lat="29.550077" lon="103.3672673"><ele>1388.41</ele><time>2026-06-12T18:28:55.000Z</time></trkpt>
        <trkpt lat="29.5501145" lon="103.3672174"><ele>1389.48</ele><time>2026-06-12T18:29:01.000Z</time></trkpt>
        <trkpt lat="29.5501343" lon="103.3671553"><ele>1390.35</ele><time>2026-06-12T18:29:17.000Z</time></trkpt>
        <trkpt lat="29.5501508" lon="103.3670979"><ele>1390.93</ele><time>2026-06-12T18:29:25.000Z</time></trkpt>
        <trkpt lat="29.5501696" lon="103.3670469"><ele>1391.35</ele><time>2026-06-12T18:29:31.000Z</time></trkpt>
        <trkpt lat="29.5501845" lon="103.3669959"><ele>1391.76</ele><time>2026-06-12T18:29:39.000Z</time></trkpt>
        <trkpt lat="29.5502191" lon="103.3669685"><ele>1392.29</ele><time>2026-06-12T18:29:47.000Z</time></trkpt>
        <trkpt lat="29.5502636" lon="103.3669633"><ele>1393.07</ele><time>2026-06-12T18:29:56.000Z</time></trkpt>
        <trkpt lat="29.5503007" lon="103.3669336"><ele>1394.12</ele><time>2026-06-12T18:30:01.000Z</time></trkpt>
        <trkpt lat="29.5503391" lon="103.3669518"><ele>1394.67</ele><time>2026-06-12T18:30:09.000Z</time></trkpt>
        <trkpt lat="29.5503302" lon="103.366904"><ele>1394.81</ele><time>2026-06-12T18:30:19.000Z</time></trkpt>
        <trkpt lat="29.5503076" lon="103.3668408"><ele>1395.41</ele><time>2026-06-12T18:30:23.000Z</time></trkpt>
        <trkpt lat="29.5502562" lon="103.3668032"><ele>1395.88</ele><time>2026-06-12T18:30:32.000Z</time></trkpt>
        <trkpt lat="29.5501989" lon="103.3668195"><ele>1396.45</ele><time>2026-06-12T18:30:43.000Z</time></trkpt>
        <trkpt lat="29.5501684" lon="103.3667876"><ele>1397.42</ele><time>2026-06-12T18:30:52.000Z</time></trkpt>
        <trkpt lat="29.5501367" lon="103.3667417"><ele>1399.04</ele><time>2026-06-12T18:32:14.000Z</time></trkpt>
        <trkpt lat="29.5501433" lon="103.36669"><ele>1402.68</ele><time>2026-06-12T18:32:26.000Z</time></trkpt>
        <trkpt lat="29.5501021" lon="103.3666792"><ele>1404.63</ele><time>2026-06-12T18:32:36.000Z</time></trkpt>
        <trkpt lat="29.5500536" lon="103.3666706"><ele>1407.11</ele><time>2026-06-12T18:32:58.000Z</time></trkpt>
        <trkpt lat="29.5500076" lon="103.3666477"><ele>1411.66</ele><time>2026-06-12T18:33:14.000Z</time></trkpt>
        <trkpt lat="29.5499446" lon="103.3666379"><ele>1416.67</ele><time>2026-06-12T18:33:44.000Z</time></trkpt>
        <trkpt lat="29.5498999" lon="103.3666042"><ele>1421.37</ele><time>2026-06-12T18:33:59.000Z</time></trkpt>
        <trkpt lat="29.5498505" lon="103.3666088"><ele>1423.58</ele><time>2026-06-12T18:34:19.000Z</time></trkpt>
        <trkpt lat="29.549803" lon="103.3666095"><ele>1425.91</ele><time>2026-06-12T18:34:25.000Z</time></trkpt>
        <trkpt lat="29.5497563" lon="103.3666211"><ele>1428.01</ele><time>2026-06-12T18:34:33.000Z</time></trkpt>
        <trkpt lat="29.549706" lon="103.3666247"><ele>1430.33</ele><time>2026-06-12T18:34:45.000Z</time></trkpt>
        <trkpt lat="29.5496518" lon="103.3666182"><ele>1433.03</ele><time>2026-06-12T18:35:06.000Z</time></trkpt>
        <trkpt lat="29.5496076" lon="103.3665816"><ele>1435.98</ele><time>2026-06-12T18:35:28.000Z</time></trkpt>
        <trkpt lat="29.5495699" lon="103.3665396"><ele>1438.66</ele><time>2026-06-12T18:35:52.000Z</time></trkpt>
        <trkpt lat="29.5495292" lon="103.3665101"><ele>1440.74</ele><time>2026-06-12T18:36:15.000Z</time></trkpt>
        <trkpt lat="29.5494855" lon="103.3665077"><ele>1442.92</ele><time>2026-06-12T18:36:35.000Z</time></trkpt>
        <trkpt lat="29.5494407" lon="103.366489"><ele>1445.62</ele><time>2026-06-12T18:36:51.000Z</time></trkpt>
        <trkpt lat="29.5494105" lon="103.3664516"><ele>1448.24</ele><time>2026-06-12T18:37:05.000Z</time></trkpt>
        <trkpt lat="29.5493883" lon="103.3664049"><ele>1450.2</ele><time>2026-06-12T18:37:29.000Z</time></trkpt>
        <trkpt lat="29.549377" lon="103.3663496"><ele>1452.52</ele><time>2026-06-12T18:37:58.000Z</time></trkpt>
        <trkpt lat="29.5493765" lon="103.3662949"><ele>1455.61</ele><time>2026-06-12T18:38:08.000Z</time></trkpt>
        <trkpt lat="29.5493462" lon="103.3663252"><ele>1457.67</ele><time>2026-06-12T18:38:28.000Z</time></trkpt>
        <trkpt lat="29.5492964" lon="103.3663671"><ele>1459.32</ele><time>2026-06-12T18:38:36.000Z</time></trkpt>
        <trkpt lat="29.5493169" lon="103.3663676"><ele>1460.64</ele><time>2026-06-12T18:39:03.000Z</time></trkpt>
        <trkpt lat="29.5493647" lon="103.3663274"><ele>1461.01</ele><time>2026-06-12T18:39:13.000Z</time></trkpt>
        <trkpt lat="29.5494145" lon="103.3662918"><ele>1461.01</ele><time>2026-06-12T18:39:19.000Z</time></trkpt>
        <trkpt lat="29.5494656" lon="103.3662718"><ele>1460.7</ele><time>2026-06-12T18:39:49.000Z</time></trkpt>
        <trkpt lat="29.5495143" lon="103.3662473"><ele>1460.53</ele><time>2026-06-12T18:39:55.000Z</time></trkpt>
        <trkpt lat="29.5495635" lon="103.3662135"><ele>1460.43</ele><time>2026-06-12T18:40:00.000Z</time></trkpt>
        <trkpt lat="29.5496101" lon="103.3661788"><ele>1460.25</ele><time>2026-06-12T18:40:10.000Z</time></trkpt>
        <trkpt lat="29.5496404" lon="103.3661356"><ele>1459.71</ele><time>2026-06-12T18:40:18.000Z</time></trkpt>
        <trkpt lat="29.5496598" lon="103.3660609"><ele>1459.36</ele><time>2026-06-12T18:40:22.000Z</time></trkpt>
        <trkpt lat="29.5496974" lon="103.3660216"><ele>1459.21</ele><time>2026-06-12T18:40:30.000Z</time></trkpt>
        <trkpt lat="29.549719" lon="103.3659723"><ele>1459.72</ele><time>2026-06-12T18:40:40.000Z</time></trkpt>
        <trkpt lat="29.5496828" lon="103.3659385"><ele>1461.3</ele><time>2026-06-12T18:40:48.000Z</time></trkpt>
        <trkpt lat="29.5496464" lon="103.3658993"><ele>1463.58</ele><time>2026-06-12T18:40:54.000Z</time></trkpt>
        <trkpt lat="29.5496107" lon="103.3658484"><ele>1466.08</ele><time>2026-06-12T18:41:05.000Z</time></trkpt>
        <trkpt lat="29.5495861" lon="103.3657883"><ele>1469.15</ele><time>2026-06-12T18:41:19.000Z</time></trkpt>
        <trkpt lat="29.5495789" lon="103.365724"><ele>1473.17</ele><time>2026-06-12T18:41:31.000Z</time></trkpt>
        <trkpt lat="29.549578" lon="103.3656552"><ele>1475.38</ele><time>2026-06-12T18:41:37.000Z</time></trkpt>
        <trkpt lat="29.5495534" lon="103.3656106"><ele>1476.38</ele><time>2026-06-12T18:41:43.000Z</time></trkpt>
        <trkpt lat="29.5495029" lon="103.3655816"><ele>1476.39</ele><time>2026-06-12T18:41:49.000Z</time></trkpt>
        <trkpt lat="29.5495214" lon="103.3655335"><ele>1475.45</ele><time>2026-06-12T18:41:57.000Z</time></trkpt>
        <trkpt lat="29.5495708" lon="103.3654796"><ele>1474.14</ele><time>2026-06-12T18:42:01.000Z</time></trkpt>
        <trkpt lat="29.5496212" lon="103.3654376"><ele>1473.3</ele><time>2026-06-12T18:42:05.000Z</time></trkpt>
        <trkpt lat="29.54967" lon="103.365413"><ele>1471.88</ele><time>2026-06-12T18:42:10.000Z</time></trkpt>
        <trkpt lat="29.5497139" lon="103.365383"><ele>1470.86</ele><time>2026-06-12T18:42:14.000Z</time></trkpt>
        <trkpt lat="29.5497565" lon="103.3653337"><ele>1469.93</ele><time>2026-06-12T18:42:20.000Z</time></trkpt>
        <trkpt lat="29.5497897" lon="103.3652845"><ele>1469.19</ele><time>2026-06-12T18:42:26.000Z</time></trkpt>
        <trkpt lat="29.5498157" lon="103.3652312"><ele>1468.46</ele><time>2026-06-12T18:42:30.000Z</time></trkpt>
        <trkpt lat="29.5498495" lon="103.3651881"><ele>1467.66</ele><time>2026-06-12T18:42:34.000Z</time></trkpt>
        <trkpt lat="29.5498907" lon="103.365133"><ele>1467.12</ele><time>2026-06-12T18:42:40.000Z</time></trkpt>
        <trkpt lat="29.5499206" lon="103.3650832"><ele>1466.64</ele><time>2026-06-12T18:42:44.000Z</time></trkpt>
        <trkpt lat="29.549941" lon="103.3650258"><ele>1466.49</ele><time>2026-06-12T18:42:48.000Z</time></trkpt>
        <trkpt lat="29.5499571" lon="103.3649668"><ele>1466.5</ele><time>2026-06-12T18:42:52.000Z</time></trkpt>
        <trkpt lat="29.5499861" lon="103.3649215"><ele>1466.5</ele><time>2026-06-12T18:42:58.000Z</time></trkpt>
        <trkpt lat="29.5500266" lon="103.3648951"><ele>1466.63</ele><time>2026-06-12T18:43:02.000Z</time></trkpt>
        <trkpt lat="29.550071" lon="103.3648602"><ele>1466.7</ele><time>2026-06-12T18:43:06.000Z</time></trkpt>
        <trkpt lat="29.5500923" lon="103.3648107"><ele>1466.92</ele><time>2026-06-12T18:43:10.000Z</time></trkpt>
        <trkpt lat="29.5500981" lon="103.3647544"><ele>1467.34</ele><time>2026-06-12T18:43:14.000Z</time></trkpt>
        <trkpt lat="29.5500879" lon="103.3646888"><ele>1467.97</ele><time>2026-06-12T18:43:20.000Z</time></trkpt>
        <trkpt lat="29.550077" lon="103.3646242"><ele>1468.93</ele><time>2026-06-12T18:43:24.000Z</time></trkpt>
        <trkpt lat="29.5500849" lon="103.3645634"><ele>1470.21</ele><time>2026-06-12T18:43:28.000Z</time></trkpt>
        <trkpt lat="29.5501232" lon="103.3645107"><ele>1471.62</ele><time>2026-06-12T18:43:34.000Z</time></trkpt>
        <trkpt lat="29.5501769" lon="103.3644772"><ele>1472.9</ele><time>2026-06-12T18:43:40.000Z</time></trkpt>
        <trkpt lat="29.5502194" lon="103.3644253"><ele>1473.89</ele><time>2026-06-12T18:43:46.000Z</time></trkpt>
        <trkpt lat="29.5502583" lon="103.3643779"><ele>1474.2</ele><time>2026-06-12T18:43:50.000Z</time></trkpt>
        <trkpt lat="29.550288" lon="103.3643199"><ele>1474.41</ele><time>2026-06-12T18:43:56.000Z</time></trkpt>
        <trkpt lat="29.5503231" lon="103.3642706"><ele>1474.71</ele><time>2026-06-12T18:44:02.000Z</time></trkpt>
        <trkpt lat="29.5503332" lon="103.3642136"><ele>1474.7</ele><time>2026-06-12T18:44:07.000Z</time></trkpt>
        <trkpt lat="29.5503203" lon="103.3641537"><ele>1474.62</ele><time>2026-06-12T18:44:13.000Z</time></trkpt>
        <trkpt lat="29.5503204" lon="103.364093"><ele>1475.17</ele><time>2026-06-12T18:44:19.000Z</time></trkpt>
        <trkpt lat="29.5503309" lon="103.3640399"><ele>1476.43</ele><time>2026-06-12T18:44:31.000Z</time></trkpt>
        <trkpt lat="29.5503457" lon="103.363986"><ele>1478.18</ele><time>2026-06-12T18:44:55.000Z</time></trkpt>
        <trkpt lat="29.5503866" lon="103.3639778"><ele>1481.24</ele><time>2026-06-12T18:45:03.000Z</time></trkpt>
        <trkpt lat="29.5504279" lon="103.3640101"><ele>1483.42</ele><time>2026-06-12T18:45:09.000Z</time></trkpt>
        <trkpt lat="29.5504279" lon="103.3640101"><ele>1483.42</ele><time>2026-06-12T18:45:32.000Z</time></trkpt>
        <trkpt lat="29.5507617" lon="103.36329"><ele>1484.96</ele><time>2026-06-12T18:48:54.000Z</time></trkpt>
        <trkpt lat="29.5507617" lon="103.36329"><ele>1484.96</ele><time>2026-06-12T18:48:58.000Z</time></trkpt>
        <trkpt lat="29.55081" lon="103.3632917"><ele>1487.64</ele><time>2026-06-12T18:49:13.000Z</time></trkpt>
        <trkpt lat="29.5508583" lon="103.3633272"><ele>1490.16</ele><time>2026-06-12T18:49:26.000Z</time></trkpt>
        <trkpt lat="29.5509118" lon="103.3633301"><ele>1491.68</ele><time>2026-06-12T18:49:30.000Z</time></trkpt>
        <trkpt lat="29.5508754" lon="103.3633242"><ele>1493.2</ele><time>2026-06-12T18:50:04.000Z</time></trkpt>
        <trkpt lat="29.5508339" lon="103.3632732"><ele>1496.08</ele><time>2026-06-12T18:50:20.000Z</time></trkpt>
        <trkpt lat="29.5507975" lon="103.363214"><ele>1497.42</ele><time>2026-06-12T18:50:30.000Z</time></trkpt>
        <trkpt lat="29.550787" lon="103.3631561"><ele>1498.14</ele><time>2026-06-12T18:50:44.000Z</time></trkpt>
        <trkpt lat="29.5507472" lon="103.3631108"><ele>1498.73</ele><time>2026-06-12T18:51:12.000Z</time></trkpt>
        <trkpt lat="29.5507498" lon="103.3630585"><ele>1501.9</ele><time>2026-06-12T18:51:33.000Z</time></trkpt>
        <trkpt lat="29.5507866" lon="103.3630336"><ele>1505.64</ele><time>2026-06-12T18:51:39.000Z</time></trkpt>
        <trkpt lat="29.5508355" lon="103.3630327"><ele>1508.33</ele><time>2026-06-12T18:51:47.000Z</time></trkpt>
        <trkpt lat="29.5508221" lon="103.3630181"><ele>1509.61</ele><time>2026-06-12T18:52:09.000Z</time></trkpt>
        <trkpt lat="29.5507889" lon="103.3629876"><ele>1513.39</ele><time>2026-06-12T18:52:24.000Z</time></trkpt>
        <trkpt lat="29.5507469" lon="103.3629384"><ele>1517.14</ele><time>2026-06-12T18:52:34.000Z</time></trkpt>
        <trkpt lat="29.5506966" lon="103.3629107"><ele>1519.75</ele><time>2026-06-12T18:52:50.000Z</time></trkpt>
        <trkpt lat="29.5506461" lon="103.3629123"><ele>1521.4</ele><time>2026-06-12T18:53:04.000Z</time></trkpt>
        <trkpt lat="29.5505944" lon="103.3628978"><ele>1522.56</ele><time>2026-06-12T18:53:24.000Z</time></trkpt>
        <trkpt lat="29.5505706" lon="103.3628568"><ele>1522.45</ele><time>2026-06-12T18:53:32.000Z</time></trkpt>
        <trkpt lat="29.5505686" lon="103.3628048"><ele>1523.55</ele><time>2026-06-12T18:53:46.000Z</time></trkpt>
        <trkpt lat="29.5505872" lon="103.3627477"><ele>1525.46</ele><time>2026-06-12T18:53:58.000Z</time></trkpt>
        <trkpt lat="29.5506139" lon="103.3626913"><ele>1528.27</ele><time>2026-06-12T18:54:12.000Z</time></trkpt>
        <trkpt lat="29.5506201" lon="103.3626336"><ele>1531.43</ele><time>2026-06-12T18:54:18.000Z</time></trkpt>
        <trkpt lat="29.550601" lon="103.362576"><ele>1533.78</ele><time>2026-06-12T18:55:17.000Z</time></trkpt>
        <trkpt lat="29.5506242" lon="103.3625263"><ele>1535.68</ele><time>2026-06-12T18:55:31.000Z</time></trkpt>
        <trkpt lat="29.5506357" lon="103.3624583"><ele>1537.71</ele><time>2026-06-12T18:55:37.000Z</time></trkpt>
        <trkpt lat="29.5506702" lon="103.3624183"><ele>1539.34</ele><time>2026-06-12T18:55:51.000Z</time></trkpt>
        <trkpt lat="29.5506754" lon="103.3623644"><ele>1542.51</ele><time>2026-06-12T18:56:11.000Z</time></trkpt>
        <trkpt lat="29.5506573" lon="103.3623106"><ele>1546.42</ele><time>2026-06-12T18:56:36.000Z</time></trkpt>
        <trkpt lat="29.550629" lon="103.3622644"><ele>1551.27</ele><time>2026-06-12T18:56:50.000Z</time></trkpt>
        <trkpt lat="29.5506075" lon="103.3622087"><ele>1555.37</ele><time>2026-06-12T18:57:04.000Z</time></trkpt>
        <trkpt lat="29.5505737" lon="103.3621628"><ele>1559.17</ele><time>2026-06-12T18:57:14.000Z</time></trkpt>
        <trkpt lat="29.5505547" lon="103.3621108"><ele>1562.02</ele><time>2026-06-12T18:57:29.000Z</time></trkpt>
        <trkpt lat="29.5505469" lon="103.36205"><ele>1564.94</ele><time>2026-06-12T18:57:41.000Z</time></trkpt>
        <trkpt lat="29.5505579" lon="103.3619949"><ele>1567.59</ele><time>2026-06-12T18:57:53.000Z</time></trkpt>
        <trkpt lat="29.55058" lon="103.3619462"><ele>1570.39</ele><time>2026-06-12T18:58:09.000Z</time></trkpt>
        <trkpt lat="29.5505847" lon="103.3618897"><ele>1573.28</ele><time>2026-06-12T18:58:54.000Z</time></trkpt>
        <trkpt lat="29.5505628" lon="103.3618452"><ele>1575.65</ele><time>2026-06-12T18:59:06.000Z</time></trkpt>
        <trkpt lat="29.5505378" lon="103.3617964"><ele>1578.17</ele><time>2026-06-12T18:59:22.000Z</time></trkpt>
        <trkpt lat="29.5504943" lon="103.3617656"><ele>1580.46</ele><time>2026-06-12T18:59:35.000Z</time></trkpt>
        <trkpt lat="29.5504802" lon="103.3617175"><ele>1582.59</ele><time>2026-06-12T18:59:43.000Z</time></trkpt>
        <trkpt lat="29.5504408" lon="103.3616909"><ele>1584.7</ele><time>2026-06-12T18:59:51.000Z</time></trkpt>
        <trkpt lat="29.550419" lon="103.3616487"><ele>1586.72</ele><time>2026-06-12T19:00:03.000Z</time></trkpt>
        <trkpt lat="29.5503819" lon="103.3616576"><ele>1589.08</ele><time>2026-06-12T19:00:11.000Z</time></trkpt>
        <trkpt lat="29.5503477" lon="103.3616215"><ele>1591.2</ele><time>2026-06-12T19:00:21.000Z</time></trkpt>
        <trkpt lat="29.5503726" lon="103.3615827"><ele>1593.26</ele><time>2026-06-12T19:00:32.000Z</time></trkpt>
        <trkpt lat="29.550373" lon="103.3615327"><ele>1594.83</ele><time>2026-06-12T19:01:27.000Z</time></trkpt>
        <trkpt lat="29.5503362" lon="103.3614893"><ele>1597.57</ele><time>2026-06-12T19:02:01.000Z</time></trkpt>
        <trkpt lat="29.5502981" lon="103.3614381"><ele>1600.29</ele><time>2026-06-12T19:02:05.000Z</time></trkpt>
        <trkpt lat="29.55026" lon="103.3613967"><ele>1601.76</ele><time>2026-06-12T19:02:15.000Z</time></trkpt>
        <trkpt lat="29.5502281" lon="103.3613519"><ele>1602.72</ele><time>2026-06-12T19:02:34.000Z</time></trkpt>
        <trkpt lat="29.5501927" lon="103.3613119"><ele>1603.7</ele><time>2026-06-12T19:02:46.000Z</time></trkpt>
        <trkpt lat="29.550151" lon="103.3613225"><ele>1604.65</ele><time>2026-06-12T19:02:52.000Z</time></trkpt>
        <trkpt lat="29.5501046" lon="103.3613238"><ele>1605.7</ele><time>2026-06-12T19:03:00.000Z</time></trkpt>
        <trkpt lat="29.5500607" lon="103.3612812"><ele>1607.12</ele><time>2026-06-12T19:03:06.000Z</time></trkpt>
        <trkpt lat="29.5500107" lon="103.3612516"><ele>1608.75</ele><time>2026-06-12T19:03:10.000Z</time></trkpt>
        <trkpt lat="29.5499561" lon="103.3612337"><ele>1609.97</ele><time>2026-06-12T19:03:16.000Z</time></trkpt>
        <trkpt lat="29.5499203" lon="103.361194"><ele>1611.06</ele><time>2026-06-12T19:03:24.000Z</time></trkpt>
        <trkpt lat="29.5499318" lon="103.3611358"><ele>1612.76</ele><time>2026-06-12T19:03:39.000Z</time></trkpt>
        <trkpt lat="29.5499336" lon="103.361078"><ele>1614.93</ele><time>2026-06-12T19:03:47.000Z</time></trkpt>
        <trkpt lat="29.549915" lon="103.3610282"><ele>1613.84</ele><time>2026-06-12T19:03:53.000Z</time></trkpt>
        <trkpt lat="29.5498879" lon="103.3609795"><ele>1612.06</ele><time>2026-06-12T19:04:03.000Z</time></trkpt>
        <trkpt lat="29.5498558" lon="103.360925"><ele>1610.36</ele><time>2026-06-12T19:04:07.000Z</time></trkpt>
        <trkpt lat="29.5498288" lon="103.3608708"><ele>1609.56</ele><time>2026-06-12T19:04:11.000Z</time></trkpt>
        <trkpt lat="29.5498006" lon="103.3608157"><ele>1609.49</ele><time>2026-06-12T19:04:15.000Z</time></trkpt>
        <trkpt lat="29.5498135" lon="103.3607629"><ele>1609.97</ele><time>2026-06-12T19:04:19.000Z</time></trkpt>
        <trkpt lat="29.5498526" lon="103.3607249"><ele>1610.76</ele><time>2026-06-12T19:04:23.000Z</time></trkpt>
        <trkpt lat="29.5498679" lon="103.3606672"><ele>1611.76</ele><time>2026-06-12T19:04:29.000Z</time></trkpt>
        <trkpt lat="29.5499019" lon="103.3606201"><ele>1612.9</ele><time>2026-06-12T19:04:34.000Z</time></trkpt>
        <trkpt lat="29.5499427" lon="103.3605764"><ele>1613.46</ele><time>2026-06-12T19:04:40.000Z</time></trkpt>
        <trkpt lat="29.5499398" lon="103.3605237"><ele>1613.43</ele><time>2026-06-12T19:04:44.000Z</time></trkpt>
        <trkpt lat="29.5499688" lon="103.3604785"><ele>1613.68</ele><time>2026-06-12T19:04:50.000Z</time></trkpt>
        <trkpt lat="29.5499977" lon="103.3604328"><ele>1613.9</ele><time>2026-06-12T19:04:54.000Z</time></trkpt>
        <trkpt lat="29.5500082" lon="103.3603815"><ele>1613.69</ele><time>2026-06-12T19:05:00.000Z</time></trkpt>
        <trkpt lat="29.5500329" lon="103.3603319"><ele>1613.91</ele><time>2026-06-12T19:05:06.000Z</time></trkpt>
        <trkpt lat="29.5500786" lon="103.360292"><ele>1614.03</ele><time>2026-06-12T19:05:10.000Z</time></trkpt>
        <trkpt lat="29.5501028" lon="103.3602368"><ele>1614.15</ele><time>2026-06-12T19:05:16.000Z</time></trkpt>
        <trkpt lat="29.5501104" lon="103.360178"><ele>1614.86</ele><time>2026-06-12T19:05:24.000Z</time></trkpt>
        <trkpt lat="29.550131" lon="103.3601185"><ele>1615.74</ele><time>2026-06-12T19:05:32.000Z</time></trkpt>
        <trkpt lat="29.5501214" lon="103.360058"><ele>1616.45</ele><time>2026-06-12T19:05:39.000Z</time></trkpt>
        <trkpt lat="29.5500968" lon="103.3600024"><ele>1616.82</ele><time>2026-06-12T19:05:57.000Z</time></trkpt>
        <trkpt lat="29.5500783" lon="103.3599488"><ele>1617.45</ele><time>2026-06-12T19:06:25.000Z</time></trkpt>
        <trkpt lat="29.5500613" lon="103.3598934"><ele>1619.11</ele><time>2026-06-12T19:06:50.000Z</time></trkpt>
        <trkpt lat="29.5500613" lon="103.3598934"><ele>1619.11</ele><time>2026-06-12T19:07:02.000Z</time></trkpt>
        <trkpt lat="29.5500058" lon="103.3597972"><ele>1621.13</ele><time>2026-06-12T19:07:08.000Z</time></trkpt>
        <trkpt lat="29.5500058" lon="103.3597972"><ele>1621.13</ele><time>2026-06-12T19:07:30.000Z</time></trkpt>
        <trkpt lat="29.5499816" lon="103.359738"><ele>1624.9</ele><time>2026-06-12T19:07:42.000Z</time></trkpt>
        <trkpt lat="29.5499816" lon="103.359738"><ele>1624.9</ele><time>2026-06-12T19:08:16.000Z</time></trkpt>
        <trkpt lat="29.5499941" lon="103.3597342"><ele>1627.83</ele><time>2026-06-12T19:08:18.000Z</time></trkpt>
        <trkpt lat="29.5499941" lon="103.3597342"><ele>1627.83</ele><time>2026-06-12T19:08:28.000Z</time></trkpt>
        <trkpt lat="29.5499941" lon="103.3597342"><ele>1627.83</ele><time>2026-06-12T19:09:16.000Z</time></trkpt>
        <trkpt lat="29.5499941" lon="103.3597342"><ele>1627.83</ele><time>2026-06-12T19:09:18.000Z</time></trkpt>
        <trkpt lat="29.5499941" lon="103.3597342"><ele>1627.83</ele><time>2026-06-12T19:10:42.000Z</time></trkpt>
        <trkpt lat="29.5499941" lon="103.3597342"><ele>1627.83</ele><time>2026-06-12T19:11:00.000Z</time></trkpt>
        <trkpt lat="29.5499941" lon="103.3597342"><ele>1627.83</ele><time>2026-06-12T19:11:38.000Z</time></trkpt>
        <trkpt lat="29.5499933" lon="103.3597017"><ele>1630.44</ele><time>2026-06-12T19:13:46.000Z</time></trkpt>
        <trkpt lat="29.5499933" lon="103.3597017"><ele>1630.44</ele><time>2026-06-12T19:13:47.000Z</time></trkpt>
        <trkpt lat="29.5499933" lon="103.3597017"><ele>1630.44</ele><time>2026-06-12T19:14:18.000Z</time></trkpt>
        <trkpt lat="29.5499717" lon="103.359655"><ele>1627.67</ele><time>2026-06-12T19:17:54.000Z</time></trkpt>
        <trkpt lat="29.5499717" lon="103.359655"><ele>1627.67</ele><time>2026-06-12T19:18:53.000Z</time></trkpt>
        <trkpt lat="29.5499283" lon="103.3596383"><ele>1629.83</ele><time>2026-06-12T19:18:59.000Z</time></trkpt>
        <trkpt lat="29.5498991" lon="103.3595991"><ele>1630.89</ele><time>2026-06-12T19:19:07.000Z</time></trkpt>
        <trkpt lat="29.5498659" lon="103.3595507"><ele>1631.71</ele><time>2026-06-12T19:19:17.000Z</time></trkpt>
        <trkpt lat="29.5498416" lon="103.3595006"><ele>1632.74</ele><time>2026-06-12T19:19:25.000Z</time></trkpt>
        <trkpt lat="29.5498567" lon="103.3594555"><ele>1634.31</ele><time>2026-06-12T19:19:31.000Z</time></trkpt>
        <trkpt lat="29.5498583" lon="103.3593978"><ele>1635.99</ele><time>2026-06-12T19:19:41.000Z</time></trkpt>
        <trkpt lat="29.5498648" lon="103.3593393"><ele>1638.27</ele><time>2026-06-12T19:19:50.000Z</time></trkpt>
        <trkpt lat="29.5499128" lon="103.3592963"><ele>1640.69</ele><time>2026-06-12T19:19:58.000Z</time></trkpt>
        <trkpt lat="29.5499678" lon="103.3592643"><ele>1642.76</ele><time>2026-06-12T19:20:04.000Z</time></trkpt>
        <trkpt lat="29.5500202" lon="103.3592371"><ele>1644.97</ele><time>2026-06-12T19:20:12.000Z</time></trkpt>
        <trkpt lat="29.5500202" lon="103.3592371"><ele>1644.97</ele><time>2026-06-12T19:20:14.000Z</time></trkpt>
        <trkpt lat="29.5502728" lon="103.3590669"><ele>1646.58</ele><time>2026-06-12T19:20:42.000Z</time></trkpt>
        <trkpt lat="29.5502728" lon="103.3590669"><ele>1646.58</ele><time>2026-06-12T19:20:44.000Z</time></trkpt>
        <trkpt lat="29.550269" lon="103.3590103"><ele>1649.25</ele><time>2026-06-12T19:20:48.000Z</time></trkpt>
        <trkpt lat="29.5502543" lon="103.3589551"><ele>1650.82</ele><time>2026-06-12T19:20:54.000Z</time></trkpt>
        <trkpt lat="29.5502343" lon="103.358902"><ele>1652.06</ele><time>2026-06-12T19:21:04.000Z</time></trkpt>
        <trkpt lat="29.5502391" lon="103.3588505"><ele>1653.71</ele><time>2026-06-12T19:21:08.000Z</time></trkpt>
        <trkpt lat="29.5502391" lon="103.3588505"><ele>1653.71</ele><time>2026-06-12T19:21:14.000Z</time></trkpt>
        <trkpt lat="29.5503415" lon="103.3584269"><ele>1655.43</ele><time>2026-06-12T19:22:32.000Z</time></trkpt>
        <trkpt lat="29.5503415" lon="103.3584269"><ele>1655.43</ele><time>2026-06-12T19:22:44.000Z</time></trkpt>
        <trkpt lat="29.5503391" lon="103.3583811"><ele>1662.13</ele><time>2026-06-12T19:22:49.000Z</time></trkpt>
        <trkpt lat="29.5503215" lon="103.3583249"><ele>1666.29</ele><time>2026-06-12T19:22:56.000Z</time></trkpt>
        <trkpt lat="29.5503237" lon="103.3582509"><ele>1669.05</ele><time>2026-06-12T19:23:02.000Z</time></trkpt>
        <trkpt lat="29.5503147" lon="103.3581898"><ele>1670.88</ele><time>2026-06-12T19:23:06.000Z</time></trkpt>
        <trkpt lat="29.5503076" lon="103.3581246"><ele>1672</ele><time>2026-06-12T19:23:12.000Z</time></trkpt>
        <trkpt lat="29.5502955" lon="103.3580816"><ele>1673.04</ele><time>2026-06-12T19:23:16.000Z</time></trkpt>
        <trkpt lat="29.550283" lon="103.3580195"><ele>1673.75</ele><time>2026-06-12T19:23:22.000Z</time></trkpt>
        <trkpt lat="29.5503032" lon="103.3579705"><ele>1674.8</ele><time>2026-06-12T19:23:30.000Z</time></trkpt>
        <trkpt lat="29.5503243" lon="103.3579142"><ele>1676.01</ele><time>2026-06-12T19:23:36.000Z</time></trkpt>
        <trkpt lat="29.5503529" lon="103.3578536"><ele>1676.74</ele><time>2026-06-12T19:23:44.000Z</time></trkpt>
        <trkpt lat="29.5503932" lon="103.357809"><ele>1677.71</ele><time>2026-06-12T19:23:53.000Z</time></trkpt>
        <trkpt lat="29.5504006" lon="103.3577481"><ele>1679.77</ele><time>2026-06-12T19:24:07.000Z</time></trkpt>
        <trkpt lat="29.5503949" lon="103.3576868"><ele>1683.31</ele><time>2026-06-12T19:24:13.000Z</time></trkpt>
        <trkpt lat="29.5503981" lon="103.3576271"><ele>1686.32</ele><time>2026-06-12T19:24:19.000Z</time></trkpt>
        <trkpt lat="29.5504046" lon="103.3575695"><ele>1689.02</ele><time>2026-06-12T19:24:25.000Z</time></trkpt>
        <trkpt lat="29.5503901" lon="103.3575103"><ele>1691.29</ele><time>2026-06-12T19:24:29.000Z</time></trkpt>
        <trkpt lat="29.5503979" lon="103.3574554"><ele>1693.02</ele><time>2026-06-12T19:24:35.000Z</time></trkpt>
        <trkpt lat="29.5504037" lon="103.3574009"><ele>1694.34</ele><time>2026-06-12T19:24:43.000Z</time></trkpt>
        <trkpt lat="29.5504006" lon="103.3573475"><ele>1695.49</ele><time>2026-06-12T19:24:58.000Z</time></trkpt>
        <trkpt lat="29.5504078" lon="103.357297"><ele>1695.79</ele><time>2026-06-12T19:25:04.000Z</time></trkpt>
        <trkpt lat="29.5504078" lon="103.357297"><ele>1695.79</ele><time>2026-06-12T19:25:04.000Z</time></trkpt>
        <trkpt lat="29.5503705" lon="103.3570563"><ele>1696.01</ele><time>2026-06-12T19:25:36.000Z</time></trkpt>
        <trkpt lat="29.5503705" lon="103.3570563"><ele>1696.01</ele><time>2026-06-12T19:25:38.000Z</time></trkpt>
        <trkpt lat="29.5503559" lon="103.3570053"><ele>1697.55</ele><time>2026-06-12T19:25:48.000Z</time></trkpt>
        <trkpt lat="29.5503238" lon="103.3569687"><ele>1698.43</ele><time>2026-06-12T19:25:53.000Z</time></trkpt>
        <trkpt lat="29.5502858" lon="103.3569155"><ele>1699.06</ele><time>2026-06-12T19:26:19.000Z</time></trkpt>
        <trkpt lat="29.5502329" lon="103.3569052"><ele>1698.26</ele><time>2026-06-12T19:26:23.000Z</time></trkpt>
        <trkpt lat="29.5501832" lon="103.3569148"><ele>1696.43</ele><time>2026-06-12T19:26:35.000Z</time></trkpt>
        <trkpt lat="29.5501334" lon="103.356922"><ele>1694.74</ele><time>2026-06-12T19:26:41.000Z</time></trkpt>
        <trkpt lat="29.5500816" lon="103.3569185"><ele>1694.12</ele><time>2026-06-12T19:26:51.000Z</time></trkpt>
        <trkpt lat="29.5500393" lon="103.3568938"><ele>1694.11</ele><time>2026-06-12T19:27:50.000Z</time></trkpt>
        <trkpt lat="29.5499933" lon="103.3568713"><ele>1697.2</ele><time>2026-06-12T19:28:05.000Z</time></trkpt>
        <trkpt lat="29.5500295" lon="103.3568622"><ele>1699.48</ele><time>2026-06-12T19:28:27.000Z</time></trkpt>
        <trkpt lat="29.5500317" lon="103.3569233"><ele>1701.68</ele><time>2026-06-12T19:29:36.000Z</time></trkpt>
        <trkpt lat="29.5499967" lon="103.3568867"><ele>1701.6</ele><time>2026-06-12T19:29:46.000Z</time></trkpt>
        <trkpt lat="29.550035" lon="103.3568528"><ele>1702.55</ele><time>2026-06-12T19:30:16.000Z</time></trkpt>
        <trkpt lat="29.550035" lon="103.3568528"><ele>1702.55</ele><time>2026-06-12T19:30:18.000Z</time></trkpt>
        <trkpt lat="29.5500143" lon="103.3568645"><ele>1701.15</ele><time>2026-06-12T19:30:22.000Z</time></trkpt>
        <trkpt lat="29.5500143" lon="103.3568645"><ele>1701.15</ele><time>2026-06-12T19:30:23.000Z</time></trkpt>
        <trkpt lat="29.549983" lon="103.3568566"><ele>1700.57</ele><time>2026-06-12T19:30:29.000Z</time></trkpt>
        <trkpt lat="29.5500087" lon="103.3568302"><ele>1700.67</ele><time>2026-06-12T19:30:33.000Z</time></trkpt>
        <trkpt lat="29.5500027" lon="103.3568593"><ele>1700.64</ele><time>2026-06-12T19:30:52.000Z</time></trkpt>
        <trkpt lat="29.5500015" lon="103.3569122"><ele>1699.76</ele><time>2026-06-12T19:30:58.000Z</time></trkpt>
        <trkpt lat="29.5500326" lon="103.3569035"><ele>1699.22</ele><time>2026-06-12T19:31:03.000Z</time></trkpt>
        <trkpt lat="29.5500053" lon="103.3568796"><ele>1699.08</ele><time>2026-06-12T19:31:29.000Z</time></trkpt>
        <trkpt lat="29.5499686" lon="103.3568434"><ele>1698.32</ele><time>2026-06-12T19:31:42.000Z</time></trkpt>
        <trkpt lat="29.5499208" lon="103.3568672"><ele>1696.98</ele><time>2026-06-12T19:31:53.000Z</time></trkpt>
        <trkpt lat="29.5499208" lon="103.3568672"><ele>1696.98</ele><time>2026-06-12T19:31:56.000Z</time></trkpt>
        <trkpt lat="29.5499511" lon="103.3568845"><ele>1694.02</ele><time>2026-06-12T19:32:08.000Z</time></trkpt>
        <trkpt lat="29.5499511" lon="103.3568845"><ele>1694.02</ele><time>2026-06-12T19:32:11.000Z</time></trkpt>
        <trkpt lat="29.54996" lon="103.3569025"><ele>1690.83</ele><time>2026-06-12T19:32:14.000Z</time></trkpt>
        <trkpt lat="29.5499667" lon="103.3568609"><ele>1689.96</ele><time>2026-06-12T19:32:32.000Z</time></trkpt>
        <trkpt lat="29.5499684" lon="103.356803"><ele>1691.57</ele><time>2026-06-12T19:32:37.000Z</time></trkpt>
        <trkpt lat="29.5499814" lon="103.3568398"><ele>1693.17</ele><time>2026-06-12T19:32:41.000Z</time></trkpt>
        <trkpt lat="29.5500016" lon="103.3568998"><ele>1694.82</ele><time>2026-06-12T19:33:03.000Z</time></trkpt>
        <trkpt lat="29.5500329" lon="103.3569482"><ele>1697.43</ele><time>2026-06-12T19:33:07.000Z</time></trkpt>
        <trkpt lat="29.5500614" lon="103.3569989"><ele>1699.83</ele><time>2026-06-12T19:33:13.000Z</time></trkpt>
        <trkpt lat="29.5500391" lon="103.3569943"><ele>1701.8</ele><time>2026-06-12T19:33:35.000Z</time></trkpt>
        <trkpt lat="29.550018" lon="103.3569475"><ele>1702.36</ele><time>2026-06-12T19:33:41.000Z</time></trkpt>
        <trkpt lat="29.5499736" lon="103.3569129"><ele>1702.38</ele><time>2026-06-12T19:33:47.000Z</time></trkpt>
        <trkpt lat="29.5499909" lon="103.3568552"><ele>1702.13</ele><time>2026-06-12T19:34:08.000Z</time></trkpt>
        <trkpt lat="29.5500378" lon="103.3568391"><ele>1703.28</ele><time>2026-06-12T19:34:17.000Z</time></trkpt>
        <trkpt lat="29.5500204" lon="103.3568403"><ele>1702.77</ele><time>2026-06-12T19:34:30.000Z</time></trkpt>
        <trkpt lat="29.5499843" lon="103.3568165"><ele>1701.54</ele><time>2026-06-12T19:34:35.000Z</time></trkpt>
        <trkpt lat="29.5499558" lon="103.3568545"><ele>1700.27</ele><time>2026-06-12T19:34:46.000Z</time></trkpt>
        <trkpt lat="29.5499773" lon="103.3568906"><ele>1698.78</ele><time>2026-06-12T19:34:50.000Z</time></trkpt>
        <trkpt lat="29.5499773" lon="103.3568906"><ele>1698.78</ele><time>2026-06-12T19:35:36.000Z</time></trkpt>
        <trkpt lat="29.54995" lon="103.35692"><ele>1698.06</ele><time>2026-06-12T19:45:18.000Z</time></trkpt>
        <trkpt lat="29.54995" lon="103.35692"><ele>1698.06</ele><time>2026-06-12T19:45:20.000Z</time></trkpt>
        <trkpt lat="29.5499933" lon="103.3568883"><ele>1699.71</ele><time>2026-06-12T19:45:26.000Z</time></trkpt>
        <trkpt lat="29.5500042" lon="103.3568369"><ele>1700.74</ele><time>2026-06-12T19:46:00.000Z</time></trkpt>
        <trkpt lat="29.5500042" lon="103.3568369"><ele>1700.74</ele><time>2026-06-12T19:46:08.000Z</time></trkpt>
        <trkpt lat="29.5499746" lon="103.3568618"><ele>1699.73</ele><time>2026-06-12T19:46:28.000Z</time></trkpt>
        <trkpt lat="29.5499746" lon="103.3568618"><ele>1699.73</ele><time>2026-06-12T19:46:34.000Z</time></trkpt>
        <trkpt lat="29.5499746" lon="103.3568618"><ele>1699.73</ele><time>2026-06-12T19:47:12.000Z</time></trkpt>
        <trkpt lat="29.5499746" lon="103.3568618"><ele>1699.73</ele><time>2026-06-12T19:47:16.000Z</time></trkpt>
        <trkpt lat="29.5499746" lon="103.3568618"><ele>1699.73</ele><time>2026-06-12T19:47:50.000Z</time></trkpt>
        <trkpt lat="29.5499746" lon="103.3568618"><ele>1699.73</ele><time>2026-06-12T19:51:52.000Z</time></trkpt>
        <trkpt lat="29.5499746" lon="103.3568618"><ele>1699.73</ele><time>2026-06-12T19:52:34.000Z</time></trkpt>
        <trkpt lat="29.5500167" lon="103.3568217"><ele>1697.65</ele><time>2026-06-12T19:52:38.000Z</time></trkpt>
        <trkpt lat="29.5500167" lon="103.3568217"><ele>1697.65</ele><time>2026-06-12T19:52:46.000Z</time></trkpt>
        <trkpt lat="29.5499959" lon="103.3567531"><ele>1698.32</ele><time>2026-06-12T19:52:50.000Z</time></trkpt>
        <trkpt lat="29.54999" lon="103.3566854"><ele>1698.18</ele><time>2026-06-12T19:52:58.000Z</time></trkpt>
        <trkpt lat="29.5499848" lon="103.3566294"><ele>1698.58</ele><time>2026-06-12T19:53:02.000Z</time></trkpt>
        <trkpt lat="29.5499685" lon="103.3565698"><ele>1699.06</ele><time>2026-06-12T19:53:08.000Z</time></trkpt>
        <trkpt lat="29.549982" lon="103.3565056"><ele>1699.98</ele><time>2026-06-12T19:53:14.000Z</time></trkpt>
        <trkpt lat="29.550002" lon="103.3564518"><ele>1700.89</ele><time>2026-06-12T19:53:20.000Z</time></trkpt>
        <trkpt lat="29.5500367" lon="103.3564033"><ele>1701.33</ele><time>2026-06-12T19:53:34.000Z</time></trkpt>
        <trkpt lat="29.5500783" lon="103.3563598"><ele>1701.62</ele><time>2026-06-12T19:53:40.000Z</time></trkpt>
        <trkpt lat="29.5501098" lon="103.3563064"><ele>1701.18</ele><time>2026-06-12T19:53:48.000Z</time></trkpt>
        <trkpt lat="29.550149" lon="103.3562689"><ele>1699.98</ele><time>2026-06-12T19:53:54.000Z</time></trkpt>
        <trkpt lat="29.5501847" lon="103.3562273"><ele>1698.49</ele><time>2026-06-12T19:53:58.000Z</time></trkpt>
        <trkpt lat="29.5502125" lon="103.3561785"><ele>1697.55</ele><time>2026-06-12T19:54:06.000Z</time></trkpt>
        <trkpt lat="29.5502298" lon="103.3561282"><ele>1696.24</ele><time>2026-06-12T19:54:12.000Z</time></trkpt>
        <trkpt lat="29.5502261" lon="103.3560638"><ele>1694.76</ele><time>2026-06-12T19:54:18.000Z</time></trkpt>
        <trkpt lat="29.5502294" lon="103.356007"><ele>1693.44</ele><time>2026-06-12T19:54:22.000Z</time></trkpt>
        <trkpt lat="29.5502455" lon="103.3559502"><ele>1692.48</ele><time>2026-06-12T19:54:26.000Z</time></trkpt>
        <trkpt lat="29.5502668" lon="103.3558834"><ele>1691.5</ele><time>2026-06-12T19:54:32.000Z</time></trkpt>
        <trkpt lat="29.5502908" lon="103.3558293"><ele>1690.42</ele><time>2026-06-12T19:54:36.000Z</time></trkpt>
        <trkpt lat="29.5503214" lon="103.3557891"><ele>1689.29</ele><time>2026-06-12T19:54:40.000Z</time></trkpt>
        <trkpt lat="29.5503478" lon="103.3557411"><ele>1687.92</ele><time>2026-06-12T19:54:48.000Z</time></trkpt>
        <trkpt lat="29.5503871" lon="103.3557043"><ele>1686.06</ele><time>2026-06-12T19:54:52.000Z</time></trkpt>
        <trkpt lat="29.5504436" lon="103.3556828"><ele>1684.62</ele><time>2026-06-12T19:54:58.000Z</time></trkpt>
        <trkpt lat="29.5505068" lon="103.3556838"><ele>1683.53</ele><time>2026-06-12T19:55:02.000Z</time></trkpt>
        <trkpt lat="29.5505649" lon="103.3557005"><ele>1682.87</ele><time>2026-06-12T19:55:10.000Z</time></trkpt>
        <trkpt lat="29.5506313" lon="103.3557123"><ele>1682.54</ele><time>2026-06-12T19:55:18.000Z</time></trkpt>
        <trkpt lat="29.5506842" lon="103.3557143"><ele>1682.22</ele><time>2026-06-12T19:55:24.000Z</time></trkpt>
        <trkpt lat="29.5507353" lon="103.3557057"><ele>1682.47</ele><time>2026-06-12T19:55:34.000Z</time></trkpt>
        <trkpt lat="29.5507773" lon="103.3556796"><ele>1684.16</ele><time>2026-06-12T19:55:38.000Z</time></trkpt>
        <trkpt lat="29.550824" lon="103.355649"><ele>1685.94</ele><time>2026-06-12T19:55:42.000Z</time></trkpt>
        <trkpt lat="29.5508829" lon="103.3556294"><ele>1687.13</ele><time>2026-06-12T19:55:48.000Z</time></trkpt>
        <trkpt lat="29.5509402" lon="103.3556034"><ele>1687.2</ele><time>2026-06-12T19:55:54.000Z</time></trkpt>
        <trkpt lat="29.5509976" lon="103.3555701"><ele>1686</ele><time>2026-06-12T19:56:00.000Z</time></trkpt>
        <trkpt lat="29.5510471" lon="103.3555656"><ele>1684.36</ele><time>2026-06-12T19:56:04.000Z</time></trkpt>
        <trkpt lat="29.5510975" lon="103.3555396"><ele>1682.31</ele><time>2026-06-12T19:56:10.000Z</time></trkpt>
        <trkpt lat="29.5511423" lon="103.3555084"><ele>1679.86</ele><time>2026-06-12T19:56:16.000Z</time></trkpt>
        <trkpt lat="29.5511814" lon="103.3554656"><ele>1677.12</ele><time>2026-06-12T19:56:22.000Z</time></trkpt>
        <trkpt lat="29.5512114" lon="103.3554204"><ele>1674.96</ele><time>2026-06-12T19:56:30.000Z</time></trkpt>
        <trkpt lat="29.5512459" lon="103.3553778"><ele>1673.13</ele><time>2026-06-12T19:56:36.000Z</time></trkpt>
        <trkpt lat="29.5512855" lon="103.3553393"><ele>1671.57</ele><time>2026-06-12T19:56:44.000Z</time></trkpt>
        <trkpt lat="29.5513221" lon="103.3552874"><ele>1670.12</ele><time>2026-06-12T19:56:54.000Z</time></trkpt>
        <trkpt lat="29.551351" lon="103.3552355"><ele>1667.62</ele><time>2026-06-12T19:57:00.000Z</time></trkpt>
        <trkpt lat="29.5513711" lon="103.3551605"><ele>1665.07</ele><time>2026-06-12T19:57:08.000Z</time></trkpt>
        <trkpt lat="29.5513958" lon="103.3550974"><ele>1662.24</ele><time>2026-06-12T19:57:12.000Z</time></trkpt>
        <trkpt lat="29.5514229" lon="103.3550351"><ele>1660.5</ele><time>2026-06-12T19:57:18.000Z</time></trkpt>
        <trkpt lat="29.5514712" lon="103.3549933"><ele>1659.86</ele><time>2026-06-12T19:57:24.000Z</time></trkpt>
        <trkpt lat="29.551507" lon="103.3549477"><ele>1658.63</ele><time>2026-06-12T19:57:28.000Z</time></trkpt>
        <trkpt lat="29.551527" lon="103.3548896"><ele>1657.07</ele><time>2026-06-12T19:57:32.000Z</time></trkpt>
        <trkpt lat="29.5515289" lon="103.3548315"><ele>1655.58</ele><time>2026-06-12T19:57:36.000Z</time></trkpt>
        <trkpt lat="29.5515375" lon="103.354779"><ele>1654.55</ele><time>2026-06-12T19:57:42.000Z</time></trkpt>
        <trkpt lat="29.5515638" lon="103.354725"><ele>1654.14</ele><time>2026-06-12T19:57:48.000Z</time></trkpt>
        <trkpt lat="29.5515832" lon="103.3546539"><ele>1653.31</ele><time>2026-06-12T19:57:54.000Z</time></trkpt>
        <trkpt lat="29.5516281" lon="103.3546105"><ele>1652.66</ele><time>2026-06-12T19:58:04.000Z</time></trkpt>
        <trkpt lat="29.5516586" lon="103.3545668"><ele>1651.43</ele><time>2026-06-12T19:58:08.000Z</time></trkpt>
        <trkpt lat="29.5516861" lon="103.354512"><ele>1650.56</ele><time>2026-06-12T19:58:12.000Z</time></trkpt>
        <trkpt lat="29.5517239" lon="103.3544664"><ele>1650.45</ele><time>2026-06-12T19:58:16.000Z</time></trkpt>
        <trkpt lat="29.5517643" lon="103.3544194"><ele>1650.47</ele><time>2026-06-12T19:58:20.000Z</time></trkpt>
        <trkpt lat="29.5517827" lon="103.3543603"><ele>1650.96</ele><time>2026-06-12T19:58:26.000Z</time></trkpt>
        <trkpt lat="29.5517826" lon="103.3543143"><ele>1652.09</ele><time>2026-06-12T19:58:32.000Z</time></trkpt>
        <trkpt lat="29.5517405" lon="103.3542974"><ele>1653.56</ele><time>2026-06-12T19:58:38.000Z</time></trkpt>
        <trkpt lat="29.5517234" lon="103.3542507"><ele>1654.61</ele><time>2026-06-12T19:58:42.000Z</time></trkpt>
        <trkpt lat="29.5517599" lon="103.3542102"><ele>1655.21</ele><time>2026-06-12T19:58:46.000Z</time></trkpt>
        <trkpt lat="29.5518199" lon="103.3541737"><ele>1655.33</ele><time>2026-06-12T19:58:50.000Z</time></trkpt>
        <trkpt lat="29.5518708" lon="103.35413"><ele>1655.58</ele><time>2026-06-12T19:58:56.000Z</time></trkpt>
        <trkpt lat="29.5519006" lon="103.3540672"><ele>1655.63</ele><time>2026-06-12T19:59:06.000Z</time></trkpt>
        <trkpt lat="29.5519103" lon="103.3540015"><ele>1655.01</ele><time>2026-06-12T19:59:10.000Z</time></trkpt>
        <trkpt lat="29.5518684" lon="103.3539484"><ele>1654.06</ele><time>2026-06-12T19:59:18.000Z</time></trkpt>
        <trkpt lat="29.5518265" lon="103.3538932"><ele>1652.1</ele><time>2026-06-12T19:59:22.000Z</time></trkpt>
        <trkpt lat="29.5517882" lon="103.3538457"><ele>1650.34</ele><time>2026-06-12T19:59:26.000Z</time></trkpt>
        <trkpt lat="29.5517783" lon="103.3537872"><ele>1649.12</ele><time>2026-06-12T19:59:30.000Z</time></trkpt>
        <trkpt lat="29.5517481" lon="103.3537481"><ele>1648.16</ele><time>2026-06-12T19:59:34.000Z</time></trkpt>
        <trkpt lat="29.5517107" lon="103.3536977"><ele>1646.76</ele><time>2026-06-12T19:59:38.000Z</time></trkpt>
        <trkpt lat="29.5516774" lon="103.3536459"><ele>1645.27</ele><time>2026-06-12T19:59:42.000Z</time></trkpt>
        <trkpt lat="29.5516614" lon="103.3535877"><ele>1644.17</ele><time>2026-06-12T19:59:46.000Z</time></trkpt>
        <trkpt lat="29.551658" lon="103.3535309"><ele>1643.41</ele><time>2026-06-12T19:59:50.000Z</time></trkpt>
        <trkpt lat="29.5516646" lon="103.3534701"><ele>1642.63</ele><time>2026-06-12T19:59:54.000Z</time></trkpt>
        <trkpt lat="29.5517013" lon="103.3534381"><ele>1642.01</ele><time>2026-06-12T20:00:00.000Z</time></trkpt>
        <trkpt lat="29.5517265" lon="103.3533918"><ele>1641.02</ele><time>2026-06-12T20:00:31.000Z</time></trkpt>
        <trkpt lat="29.5517453" lon="103.353339"><ele>1637.96</ele><time>2026-06-12T20:00:35.000Z</time></trkpt>
        <trkpt lat="29.5517762" lon="103.3532924"><ele>1635.82</ele><time>2026-06-12T20:00:42.000Z</time></trkpt>
        <trkpt lat="29.5517827" lon="103.3532323"><ele>1633.28</ele><time>2026-06-12T20:00:48.000Z</time></trkpt>
        <trkpt lat="29.551801" lon="103.3531722"><ele>1629.72</ele><time>2026-06-12T20:00:52.000Z</time></trkpt>
        <trkpt lat="29.5517995" lon="103.3531038"><ele>1626.74</ele><time>2026-06-12T20:00:56.000Z</time></trkpt>
        <trkpt lat="29.5518032" lon="103.3530342"><ele>1624.14</ele><time>2026-06-12T20:01:00.000Z</time></trkpt>
        <trkpt lat="29.5518011" lon="103.3529759"><ele>1622.1</ele><time>2026-06-12T20:01:06.000Z</time></trkpt>
        <trkpt lat="29.5518171" lon="103.3529122"><ele>1619.65</ele><time>2026-06-12T20:01:12.000Z</time></trkpt>
        <trkpt lat="29.5518415" lon="103.3528586"><ele>1617.61</ele><time>2026-06-12T20:01:15.000Z</time></trkpt>
        <trkpt lat="29.5518506" lon="103.3528075"><ele>1616.74</ele><time>2026-06-12T20:01:22.000Z</time></trkpt>
        <trkpt lat="29.5518696" lon="103.3527857"><ele>1617.2</ele><time>2026-06-12T20:01:30.000Z</time></trkpt>
        <trkpt lat="29.5518776" lon="103.3527453"><ele>1619.18</ele><time>2026-06-12T20:01:43.000Z</time></trkpt>
        <trkpt lat="29.5519087" lon="103.3527114"><ele>1623.53</ele><time>2026-06-12T20:01:52.000Z</time></trkpt>
        <trkpt lat="29.5519349" lon="103.3526661"><ele>1627</ele><time>2026-06-12T20:01:55.000Z</time></trkpt>
        <trkpt lat="29.5519709" lon="103.3526839"><ele>1629.28</ele><time>2026-06-12T20:02:02.000Z</time></trkpt>
        <trkpt lat="29.5519963" lon="103.3527302"><ele>1630.67</ele><time>2026-06-12T20:02:06.000Z</time></trkpt>
        <trkpt lat="29.552051" lon="103.3527525"><ele>1631.24</ele><time>2026-06-12T20:02:12.000Z</time></trkpt>
        <trkpt lat="29.5521078" lon="103.3527464"><ele>1630.92</ele><time>2026-06-12T20:02:16.000Z</time></trkpt>
        <trkpt lat="29.552149" lon="103.3527683"><ele>1630.74</ele><time>2026-06-12T20:02:24.000Z</time></trkpt>
        <trkpt lat="29.552201" lon="103.3527893"><ele>1628.27</ele><time>2026-06-12T20:02:34.000Z</time></trkpt>
        <trkpt lat="29.552256" lon="103.3528016"><ele>1623.94</ele><time>2026-06-12T20:02:40.000Z</time></trkpt>
        <trkpt lat="29.5522443" lon="103.3527653"><ele>1620.35</ele><time>2026-06-12T20:02:54.000Z</time></trkpt>
        <trkpt lat="29.5522415" lon="103.3527077"><ele>1614.91</ele><time>2026-06-12T20:02:58.000Z</time></trkpt>
        <trkpt lat="29.5522103" lon="103.3526326"><ele>1610.9</ele><time>2026-06-12T20:03:04.000Z</time></trkpt>
        <trkpt lat="29.552184" lon="103.3525551"><ele>1606.99</ele><time>2026-06-12T20:03:08.000Z</time></trkpt>
        <trkpt lat="29.5521629" lon="103.3524953"><ele>1603.77</ele><time>2026-06-12T20:03:12.000Z</time></trkpt>
        <trkpt lat="29.552161" lon="103.3524383"><ele>1600.9</ele><time>2026-06-12T20:03:15.000Z</time></trkpt>
        <trkpt lat="29.5521725" lon="103.3523847"><ele>1598.45</ele><time>2026-06-12T20:03:20.000Z</time></trkpt>
        <trkpt lat="29.5521725" lon="103.3523847"><ele>1598.45</ele><time>2026-06-12T20:03:22.000Z</time></trkpt>
        <trkpt lat="29.5522341" lon="103.3523133"><ele>1596.02</ele><time>2026-06-12T20:03:30.000Z</time></trkpt>
        <trkpt lat="29.5522341" lon="103.3523133"><ele>1596.02</ele><time>2026-06-12T20:03:32.000Z</time></trkpt>
        <trkpt lat="29.5522777" lon="103.352288"><ele>1592.01</ele><time>2026-06-12T20:03:36.000Z</time></trkpt>
        <trkpt lat="29.5523206" lon="103.3522529"><ele>1588.74</ele><time>2026-06-12T20:03:40.000Z</time></trkpt>
        <trkpt lat="29.5523711" lon="103.3522425"><ele>1586.83</ele><time>2026-06-12T20:03:45.000Z</time></trkpt>
        <trkpt lat="29.55239" lon="103.3522989"><ele>1584.75</ele><time>2026-06-12T20:04:06.000Z</time></trkpt>
        <trkpt lat="29.5524268" lon="103.3522858"><ele>1582.97</ele><time>2026-06-12T20:04:13.000Z</time></trkpt>
        <trkpt lat="29.5524528" lon="103.3523219"><ele>1580.4</ele><time>2026-06-12T20:04:25.000Z</time></trkpt>
        <trkpt lat="29.5524733" lon="103.3523712"><ele>1576.87</ele><time>2026-06-12T20:04:30.000Z</time></trkpt>
        <trkpt lat="29.5524923" lon="103.3523421"><ele>1574.35</ele><time>2026-06-12T20:04:34.000Z</time></trkpt>
        <trkpt lat="29.5525212" lon="103.352364"><ele>1572.91</ele><time>2026-06-12T20:04:46.000Z</time></trkpt>
        <trkpt lat="29.5525655" lon="103.3523966"><ele>1571.74</ele><time>2026-06-12T20:04:52.000Z</time></trkpt>
        <trkpt lat="29.5525655" lon="103.3523966"><ele>1571.74</ele><time>2026-06-12T20:04:56.000Z</time></trkpt>
        <trkpt lat="29.5530324" lon="103.3525943"><ele>1571.47</ele><time>2026-06-12T20:06:02.000Z</time></trkpt>
        <trkpt lat="29.5530324" lon="103.3525943"><ele>1571.47</ele><time>2026-06-12T20:06:05.000Z</time></trkpt>
        <trkpt lat="29.5530505" lon="103.3526373"><ele>1577.8</ele><time>2026-06-12T20:06:10.000Z</time></trkpt>
        <trkpt lat="29.5531051" lon="103.3526665"><ele>1582.92</ele><time>2026-06-12T20:06:20.000Z</time></trkpt>
        <trkpt lat="29.5531566" lon="103.3526758"><ele>1587.51</ele><time>2026-06-12T20:06:24.000Z</time></trkpt>
        <trkpt lat="29.553212" lon="103.3526874"><ele>1590.61</ele><time>2026-06-12T20:06:27.000Z</time></trkpt>
        <trkpt lat="29.5532656" lon="103.3526876"><ele>1592.28</ele><time>2026-06-12T20:06:31.000Z</time></trkpt>
        <trkpt lat="29.5533244" lon="103.3526856"><ele>1592.29</ele><time>2026-06-12T20:06:42.000Z</time></trkpt>
        <trkpt lat="29.5533649" lon="103.3526449"><ele>1591</ele><time>2026-06-12T20:06:46.000Z</time></trkpt>
        <trkpt lat="29.5533757" lon="103.3525769"><ele>1589.67</ele><time>2026-06-12T20:06:52.000Z</time></trkpt>
        <trkpt lat="29.5534141" lon="103.3525528"><ele>1588.61</ele><time>2026-06-12T20:06:58.000Z</time></trkpt>
        <trkpt lat="29.5534584" lon="103.3525525"><ele>1587.44</ele><time>2026-06-12T20:07:02.000Z</time></trkpt>
        <trkpt lat="29.5535094" lon="103.3525575"><ele>1586.69</ele><time>2026-06-12T20:07:08.000Z</time></trkpt>
        <trkpt lat="29.5535635" lon="103.3525426"><ele>1585.23</ele><time>2026-06-12T20:07:14.000Z</time></trkpt>
        <trkpt lat="29.5536144" lon="103.3525167"><ele>1583.54</ele><time>2026-06-12T20:07:18.000Z</time></trkpt>
        <trkpt lat="29.5536698" lon="103.3524747"><ele>1582.58</ele><time>2026-06-12T20:07:22.000Z</time></trkpt>
        <trkpt lat="29.5537131" lon="103.3524351"><ele>1581.9</ele><time>2026-06-12T20:07:26.000Z</time></trkpt>
        <trkpt lat="29.5537778" lon="103.3524215"><ele>1581.73</ele><time>2026-06-12T20:07:32.000Z</time></trkpt>
        <trkpt lat="29.5538309" lon="103.3524406"><ele>1581.89</ele><time>2026-06-12T20:07:36.000Z</time></trkpt>
        <trkpt lat="29.5538638" lon="103.352488"><ele>1582.24</ele><time>2026-06-12T20:07:42.000Z</time></trkpt>
        <trkpt lat="29.5538833" lon="103.3525433"><ele>1583.43</ele><time>2026-06-12T20:07:44.000Z</time></trkpt>
        <trkpt lat="29.553909" lon="103.3525913"><ele>1584.66</ele><time>2026-06-12T20:07:50.000Z</time></trkpt>
        <trkpt lat="29.5539421" lon="103.3526433"><ele>1586.61</ele><time>2026-06-12T20:07:56.000Z</time></trkpt>
        <trkpt lat="29.5539883" lon="103.3526487"><ele>1589.23</ele><time>2026-06-12T20:08:00.000Z</time></trkpt>
        <trkpt lat="29.5540417" lon="103.3526302"><ele>1591.46</ele><time>2026-06-12T20:08:04.000Z</time></trkpt>
        <trkpt lat="29.5540993" lon="103.3526202"><ele>1592.85</ele><time>2026-06-12T20:08:10.000Z</time></trkpt>
        <trkpt lat="29.5541601" lon="103.3526334"><ele>1594.42</ele><time>2026-06-12T20:08:16.000Z</time></trkpt>
        <trkpt lat="29.5542127" lon="103.3526672"><ele>1596.95</ele><time>2026-06-12T20:08:22.000Z</time></trkpt>
        <trkpt lat="29.554258" lon="103.3527191"><ele>1599.77</ele><time>2026-06-12T20:08:28.000Z</time></trkpt>
        <trkpt lat="29.5543032" lon="103.3527558"><ele>1601.93</ele><time>2026-06-12T20:08:32.000Z</time></trkpt>
        <trkpt lat="29.5543553" lon="103.3527703"><ele>1603.73</ele><time>2026-06-12T20:08:40.000Z</time></trkpt>
        <trkpt lat="29.5544113" lon="103.3527764"><ele>1605.31</ele><time>2026-06-12T20:08:44.000Z</time></trkpt>
        <trkpt lat="29.554461" lon="103.3528083"><ele>1606.72</ele><time>2026-06-12T20:08:48.000Z</time></trkpt>
        <trkpt lat="29.5545056" lon="103.3528543"><ele>1607.79</ele><time>2026-06-12T20:08:56.000Z</time></trkpt>
        <trkpt lat="29.5544983" lon="103.3529021"><ele>1608.05</ele><time>2026-06-12T20:09:00.000Z</time></trkpt>
        <trkpt lat="29.55448" lon="103.3529532"><ele>1608.33</ele><time>2026-06-12T20:09:04.000Z</time></trkpt>
        <trkpt lat="29.5544783" lon="103.3530297"><ele>1608.36</ele><time>2026-06-12T20:09:08.000Z</time></trkpt>
        <trkpt lat="29.5544861" lon="103.3530899"><ele>1608.59</ele><time>2026-06-12T20:09:14.000Z</time></trkpt>
        <trkpt lat="29.5544913" lon="103.3531475"><ele>1609.11</ele><time>2026-06-12T20:09:22.000Z</time></trkpt>
        <trkpt lat="29.554519" lon="103.3532016"><ele>1610.61</ele><time>2026-06-12T20:09:30.000Z</time></trkpt>
        <trkpt lat="29.5545274" lon="103.3531732"><ele>1612.54</ele><time>2026-06-12T20:09:42.000Z</time></trkpt>
        <trkpt lat="29.5545612" lon="103.3531674"><ele>1614.55</ele><time>2026-06-12T20:09:52.000Z</time></trkpt>
        <trkpt lat="29.5545871" lon="103.3532035"><ele>1615.17</ele><time>2026-06-12T20:10:02.000Z</time></trkpt>
        <trkpt lat="29.5546178" lon="103.3532485"><ele>1615.87</ele><time>2026-06-12T20:10:12.000Z</time></trkpt>
        <trkpt lat="29.5546362" lon="103.3533126"><ele>1616.23</ele><time>2026-06-12T20:10:16.000Z</time></trkpt>
        <trkpt lat="29.5546298" lon="103.3533349"><ele>1616.69</ele><time>2026-06-12T20:10:18.000Z</time></trkpt>
        <trkpt lat="29.554641" lon="103.3533751"><ele>1617.12</ele><time>2026-06-12T20:10:48.000Z</time></trkpt>
        <trkpt lat="29.554649" lon="103.353432"><ele>1618.23</ele><time>2026-06-12T20:10:58.000Z</time></trkpt>
        <trkpt lat="29.554649" lon="103.353432"><ele>1618.23</ele><time>2026-06-12T20:10:58.000Z</time></trkpt>
        <trkpt lat="29.5546642" lon="103.3535548"><ele>1618.86</ele><time>2026-06-12T20:11:10.000Z</time></trkpt>
        <trkpt lat="29.5546642" lon="103.3535548"><ele>1618.86</ele><time>2026-06-12T20:11:12.000Z</time></trkpt>
        <trkpt lat="29.5546663" lon="103.3536248"><ele>1619.83</ele><time>2026-06-12T20:11:20.000Z</time></trkpt>
        <trkpt lat="29.5546865" lon="103.353686"><ele>1621.02</ele><time>2026-06-12T20:11:24.000Z</time></trkpt>
        <trkpt lat="29.5547271" lon="103.3537046"><ele>1621.83</ele><time>2026-06-12T20:11:28.000Z</time></trkpt>
        <trkpt lat="29.5547769" lon="103.3537054"><ele>1621.99</ele><time>2026-06-12T20:11:34.000Z</time></trkpt>
        <trkpt lat="29.5548247" lon="103.353717"><ele>1621.95</ele><time>2026-06-12T20:11:38.000Z</time></trkpt>
        <trkpt lat="29.5548804" lon="103.3537324"><ele>1621.93</ele><time>2026-06-12T20:11:44.000Z</time></trkpt>
        <trkpt lat="29.5549372" lon="103.3537172"><ele>1621.1</ele><time>2026-06-12T20:11:50.000Z</time></trkpt>
        <trkpt lat="29.5549774" lon="103.3536709"><ele>1620.15</ele><time>2026-06-12T20:11:58.000Z</time></trkpt>
        <trkpt lat="29.555001" lon="103.3536087"><ele>1617.68</ele><time>2026-06-12T20:12:04.000Z</time></trkpt>
        <trkpt lat="29.5550379" lon="103.3535846"><ele>1614.55</ele><time>2026-06-12T20:12:12.000Z</time></trkpt>
        <trkpt lat="29.5550385" lon="103.353543"><ele>1609.58</ele><time>2026-06-12T20:12:24.000Z</time></trkpt>
        <trkpt lat="29.5550357" lon="103.3534802"><ele>1603.48</ele><time>2026-06-12T20:12:33.000Z</time></trkpt>
        <trkpt lat="29.5550675" lon="103.3534253"><ele>1597.08</ele><time>2026-06-12T20:12:40.000Z</time></trkpt>
        <trkpt lat="29.5551256" lon="103.3534072"><ele>1592.36</ele><time>2026-06-12T20:12:54.000Z</time></trkpt>
        <trkpt lat="29.5551696" lon="103.3533478"><ele>1589.75</ele><time>2026-06-12T20:12:58.000Z</time></trkpt>
        <trkpt lat="29.5552213" lon="103.3532989"><ele>1588.48</ele><time>2026-06-12T20:13:02.000Z</time></trkpt>
        <trkpt lat="29.5552756" lon="103.3532753"><ele>1587.76</ele><time>2026-06-12T20:13:06.000Z</time></trkpt>
        <trkpt lat="29.5553451" lon="103.353251"><ele>1587.6</ele><time>2026-06-12T20:13:12.000Z</time></trkpt>
        <trkpt lat="29.5554148" lon="103.3532251"><ele>1586.87</ele><time>2026-06-12T20:13:16.000Z</time></trkpt>
        <trkpt lat="29.5554785" lon="103.3532054"><ele>1586.07</ele><time>2026-06-12T20:13:20.000Z</time></trkpt>
        <trkpt lat="29.5555293" lon="103.3532366"><ele>1585.65</ele><time>2026-06-12T20:13:26.000Z</time></trkpt>
        <trkpt lat="29.5555755" lon="103.3532433"><ele>1585.11</ele><time>2026-06-12T20:13:34.000Z</time></trkpt>
        <trkpt lat="29.5556157" lon="103.3532105"><ele>1583.52</ele><time>2026-06-12T20:13:40.000Z</time></trkpt>
        <trkpt lat="29.5556593" lon="103.3532119"><ele>1581.79</ele><time>2026-06-12T20:13:48.000Z</time></trkpt>
        <trkpt lat="29.5557149" lon="103.3532339"><ele>1582.01</ele><time>2026-06-12T20:13:52.000Z</time></trkpt>
        <trkpt lat="29.55577" lon="103.3532665"><ele>1582.99</ele><time>2026-06-12T20:13:54.000Z</time></trkpt>
        <trkpt lat="29.5558169" lon="103.3533014"><ele>1583.9</ele><time>2026-06-12T20:13:56.000Z</time></trkpt>
        <trkpt lat="29.5558704" lon="103.353332"><ele>1584.42</ele><time>2026-06-12T20:14:00.000Z</time></trkpt>
        <trkpt lat="29.555923" lon="103.3533714"><ele>1584.24</ele><time>2026-06-12T20:14:04.000Z</time></trkpt>
        <trkpt lat="29.555965" lon="103.3534037"><ele>1583.96</ele><time>2026-06-12T20:14:08.000Z</time></trkpt>
        <trkpt lat="29.5560143" lon="103.3534342"><ele>1583.63</ele><time>2026-06-12T20:14:14.000Z</time></trkpt>
        <trkpt lat="29.5560732" lon="103.3534527"><ele>1584.01</ele><time>2026-06-12T20:14:18.000Z</time></trkpt>
        <trkpt lat="29.5561329" lon="103.3534558"><ele>1584.05</ele><time>2026-06-12T20:14:24.000Z</time></trkpt>
        <trkpt lat="29.556191" lon="103.3534364"><ele>1583.6</ele><time>2026-06-12T20:14:30.000Z</time></trkpt>
        <trkpt lat="29.5562445" lon="103.353415"><ele>1581.88</ele><time>2026-06-12T20:14:42.000Z</time></trkpt>
        <trkpt lat="29.5563038" lon="103.3534099"><ele>1581.07</ele><time>2026-06-12T20:14:52.000Z</time></trkpt>
        <trkpt lat="29.5563377" lon="103.3533729"><ele>1584.65</ele><time>2026-06-12T20:14:56.000Z</time></trkpt>
        <trkpt lat="29.5563785" lon="103.3533591"><ele>1587.9</ele><time>2026-06-12T20:15:00.000Z</time></trkpt>
        <trkpt lat="29.5563942" lon="103.3533052"><ele>1590.61</ele><time>2026-06-12T20:15:08.000Z</time></trkpt>
        <trkpt lat="29.5564187" lon="103.3532588"><ele>1592.93</ele><time>2026-06-12T20:15:10.000Z</time></trkpt>
        <trkpt lat="29.5564629" lon="103.3531996"><ele>1594.55</ele><time>2026-06-12T20:15:14.000Z</time></trkpt>
        <trkpt lat="29.5565058" lon="103.3531439"><ele>1595.65</ele><time>2026-06-12T20:15:20.000Z</time></trkpt>
        <trkpt lat="29.5565487" lon="103.3531017"><ele>1596.06</ele><time>2026-06-12T20:15:24.000Z</time></trkpt>
        <trkpt lat="29.5565761" lon="103.3530485"><ele>1595.82</ele><time>2026-06-12T20:15:30.000Z</time></trkpt>
        <trkpt lat="29.5566001" lon="103.3530209"><ele>1595.21</ele><time>2026-06-12T20:15:34.000Z</time></trkpt>
        <trkpt lat="29.5566575" lon="103.3529928"><ele>1594.3</ele><time>2026-06-12T20:15:38.000Z</time></trkpt>
        <trkpt lat="29.5567113" lon="103.3529659"><ele>1593.44</ele><time>2026-06-12T20:15:42.000Z</time></trkpt>
        <trkpt lat="29.5567635" lon="103.3529313"><ele>1592.78</ele><time>2026-06-12T20:15:54.000Z</time></trkpt>
        <trkpt lat="29.5568071" lon="103.3528846"><ele>1592.4</ele><time>2026-06-12T20:16:00.000Z</time></trkpt>
        <trkpt lat="29.556846" lon="103.3528201"><ele>1591.8</ele><time>2026-06-12T20:16:06.000Z</time></trkpt>
        <trkpt lat="29.5568547" lon="103.3527585"><ele>1590.94</ele><time>2026-06-12T20:16:10.000Z</time></trkpt>
        <trkpt lat="29.5568779" lon="103.3526969"><ele>1590.28</ele><time>2026-06-12T20:16:18.000Z</time></trkpt>
        <trkpt lat="29.5569196" lon="103.3526571"><ele>1589.08</ele><time>2026-06-12T20:16:22.000Z</time></trkpt>
        <trkpt lat="29.5569268" lon="103.3526344"><ele>1587.46</ele><time>2026-06-12T20:16:24.000Z</time></trkpt>
        <trkpt lat="29.5569607" lon="103.3526256"><ele>1585.93</ele><time>2026-06-12T20:16:35.000Z</time></trkpt>
        <trkpt lat="29.5569607" lon="103.3526256"><ele>1585.93</ele><time>2026-06-12T20:16:37.000Z</time></trkpt>
      </trkseg>
      <trkseg>
        <trkpt lat="29.5567233" lon="103.3528517"><ele>1583.76</ele><time>2026-06-12T20:18:52.000Z</time></trkpt>
        <trkpt lat="29.5567233" lon="103.3528517"><ele>1583.76</ele><time>2026-06-12T20:18:56.000Z</time></trkpt>
        <trkpt lat="29.5568167" lon="103.3527"><ele>1582.45</ele><time>2026-06-12T20:19:00.000Z</time></trkpt>
        <trkpt lat="29.5569156" lon="103.3526245"><ele>1582.94</ele><time>2026-06-12T20:19:02.000Z</time></trkpt>
        <trkpt lat="29.5569809" lon="103.3525972"><ele>1580.9</ele><time>2026-06-12T20:19:19.000Z</time></trkpt>
        <trkpt lat="29.5570394" lon="103.3525829"><ele>1580.3</ele><time>2026-06-12T20:19:25.000Z</time></trkpt>
        <trkpt lat="29.5570826" lon="103.3525532"><ele>1580.13</ele><time>2026-06-12T20:19:33.000Z</time></trkpt>
        <trkpt lat="29.5571164" lon="103.3525214"><ele>1578.87</ele><time>2026-06-12T20:19:39.000Z</time></trkpt>
        <trkpt lat="29.557147" lon="103.3524791"><ele>1576.77</ele><time>2026-06-12T20:19:45.000Z</time></trkpt>
        <trkpt lat="29.5571615" lon="103.3524289"><ele>1574.42</ele><time>2026-06-12T20:19:51.000Z</time></trkpt>
        <trkpt lat="29.5571848" lon="103.3523825"><ele>1572.73</ele><time>2026-06-12T20:20:25.000Z</time></trkpt>
        <trkpt lat="29.5571938" lon="103.3523306"><ele>1568.59</ele><time>2026-06-12T20:20:31.000Z</time></trkpt>
        <trkpt lat="29.5572066" lon="103.3522743"><ele>1565.63</ele><time>2026-06-12T20:20:39.000Z</time></trkpt>
        <trkpt lat="29.5572443" lon="103.3522531"><ele>1562.95</ele><time>2026-06-12T20:20:43.000Z</time></trkpt>
        <trkpt lat="29.5572776" lon="103.3522076"><ele>1561.46</ele><time>2026-06-12T20:20:49.000Z</time></trkpt>
        <trkpt lat="29.557313" lon="103.3521653"><ele>1560.62</ele><time>2026-06-12T20:20:53.000Z</time></trkpt>
        <trkpt lat="29.5573513" lon="103.3521196"><ele>1559.92</ele><time>2026-06-12T20:20:57.000Z</time></trkpt>
        <trkpt lat="29.5574016" lon="103.3520915"><ele>1559.44</ele><time>2026-06-12T20:21:01.000Z</time></trkpt>
        <trkpt lat="29.5574297" lon="103.3520738"><ele>1559.55</ele><time>2026-06-12T20:21:05.000Z</time></trkpt>
        <trkpt lat="29.5574663" lon="103.3520441"><ele>1559.87</ele><time>2026-06-12T20:21:09.000Z</time></trkpt>
        <trkpt lat="29.5574831" lon="103.3519976"><ele>1560.87</ele><time>2026-06-12T20:21:15.000Z</time></trkpt>
        <trkpt lat="29.5574837" lon="103.3519451"><ele>1561.96</ele><time>2026-06-12T20:21:21.000Z</time></trkpt>
        <trkpt lat="29.5574796" lon="103.3518914"><ele>1562.32</ele><time>2026-06-12T20:21:25.000Z</time></trkpt>
        <trkpt lat="29.5574851" lon="103.3518194"><ele>1562.61</ele><time>2026-06-12T20:21:31.000Z</time></trkpt>
        <trkpt lat="29.5574902" lon="103.3517875"><ele>1562.26</ele><time>2026-06-12T20:21:33.000Z</time></trkpt>
        <trkpt lat="29.5574889" lon="103.3517152"><ele>1561.59</ele><time>2026-06-12T20:21:39.000Z</time></trkpt>
        <trkpt lat="29.5575053" lon="103.3516566"><ele>1560.48</ele><time>2026-06-12T20:21:43.000Z</time></trkpt>
        <trkpt lat="29.5575386" lon="103.351602"><ele>1559.84</ele><time>2026-06-12T20:21:53.000Z</time></trkpt>
        <trkpt lat="29.5575334" lon="103.3515476"><ele>1558.66</ele><time>2026-06-12T20:21:59.000Z</time></trkpt>
        <trkpt lat="29.557558" lon="103.351503"><ele>1557.56</ele><time>2026-06-12T20:22:09.000Z</time></trkpt>
        <trkpt lat="29.5575572" lon="103.3514531"><ele>1556.8</ele><time>2026-06-12T20:22:15.000Z</time></trkpt>
        <trkpt lat="29.5576039" lon="103.3514245"><ele>1556.46</ele><time>2026-06-12T20:22:27.000Z</time></trkpt>
        <trkpt lat="29.5576651" lon="103.3514049"><ele>1557.38</ele><time>2026-06-12T20:22:31.000Z</time></trkpt>
        <trkpt lat="29.5577182" lon="103.3514462"><ele>1558.29</ele><time>2026-06-12T20:22:37.000Z</time></trkpt>
        <trkpt lat="29.5577464" lon="103.3514824"><ele>1558.68</ele><time>2026-06-12T20:22:41.000Z</time></trkpt>
        <trkpt lat="29.5577987" lon="103.351494"><ele>1557.27</ele><time>2026-06-12T20:22:47.000Z</time></trkpt>
        <trkpt lat="29.557856" lon="103.3514936"><ele>1555.56</ele><time>2026-06-12T20:22:51.000Z</time></trkpt>
        <trkpt lat="29.5579054" lon="103.3515104"><ele>1554.2</ele><time>2026-06-12T20:22:55.000Z</time></trkpt>
        <trkpt lat="29.5579526" lon="103.3515294"><ele>1553.21</ele><time>2026-06-12T20:23:01.000Z</time></trkpt>
        <trkpt lat="29.5580016" lon="103.3515399"><ele>1552.43</ele><time>2026-06-12T20:23:09.000Z</time></trkpt>
        <trkpt lat="29.5580464" lon="103.3515583"><ele>1552.07</ele><time>2026-06-12T20:23:13.000Z</time></trkpt>
        <trkpt lat="29.5580896" lon="103.3515747"><ele>1551.78</ele><time>2026-06-12T20:23:17.000Z</time></trkpt>
        <trkpt lat="29.5581412" lon="103.3515463"><ele>1551.75</ele><time>2026-06-12T20:23:35.000Z</time></trkpt>
        <trkpt lat="29.5581861" lon="103.3514915"><ele>1552.03</ele><time>2026-06-12T20:23:41.000Z</time></trkpt>
        <trkpt lat="29.5582182" lon="103.3514395"><ele>1552.1</ele><time>2026-06-12T20:23:47.000Z</time></trkpt>
        <trkpt lat="29.558262" lon="103.3513938"><ele>1551.97</ele><time>2026-06-12T20:23:53.000Z</time></trkpt>
        <trkpt lat="29.5583084" lon="103.3513904"><ele>1552.11</ele><time>2026-06-12T20:23:57.000Z</time></trkpt>
        <trkpt lat="29.5583531" lon="103.3514179"><ele>1552.41</ele><time>2026-06-12T20:24:01.000Z</time></trkpt>
        <trkpt lat="29.5583993" lon="103.351412"><ele>1552.02</ele><time>2026-06-12T20:24:05.000Z</time></trkpt>
        <trkpt lat="29.5584511" lon="103.3513923"><ele>1551.28</ele><time>2026-06-12T20:24:11.000Z</time></trkpt>
        <trkpt lat="29.5585149" lon="103.3513854"><ele>1550.26</ele><time>2026-06-12T20:24:17.000Z</time></trkpt>
        <trkpt lat="29.5585526" lon="103.3513528"><ele>1548.94</ele><time>2026-06-12T20:24:23.000Z</time></trkpt>
        <trkpt lat="29.5585924" lon="103.3513107"><ele>1547.42</ele><time>2026-06-12T20:24:27.000Z</time></trkpt>
        <trkpt lat="29.5586353" lon="103.3512738"><ele>1546.08</ele><time>2026-06-12T20:24:31.000Z</time></trkpt>
        <trkpt lat="29.5586759" lon="103.3512351"><ele>1544.62</ele><time>2026-06-12T20:24:35.000Z</time></trkpt>
        <trkpt lat="29.558707" lon="103.3511935"><ele>1543.07</ele><time>2026-06-12T20:24:39.000Z</time></trkpt>
        <trkpt lat="29.5587522" lon="103.35116"><ele>1541.62</ele><time>2026-06-12T20:24:45.000Z</time></trkpt>
        <trkpt lat="29.5588008" lon="103.3511447"><ele>1540.62</ele><time>2026-06-12T20:24:51.000Z</time></trkpt>
        <trkpt lat="29.5588426" lon="103.3510996"><ele>1539.79</ele><time>2026-06-12T20:24:57.000Z</time></trkpt>
        <trkpt lat="29.5588965" lon="103.3510586"><ele>1538.94</ele><time>2026-06-12T20:25:03.000Z</time></trkpt>
        <trkpt lat="29.5589299" lon="103.3510114"><ele>1537.76</ele><time>2026-06-12T20:25:07.000Z</time></trkpt>
        <trkpt lat="29.5589615" lon="103.3509635"><ele>1537.09</ele><time>2026-06-12T20:25:13.000Z</time></trkpt>
        <trkpt lat="29.5589883" lon="103.3509197"><ele>1536.41</ele><time>2026-06-12T20:25:17.000Z</time></trkpt>
        <trkpt lat="29.5590038" lon="103.3508713"><ele>1536.19</ele><time>2026-06-12T20:25:21.000Z</time></trkpt>
        <trkpt lat="29.5590421" lon="103.3508275"><ele>1535.68</ele><time>2026-06-12T20:25:25.000Z</time></trkpt>
        <trkpt lat="29.5590807" lon="103.3507931"><ele>1535.21</ele><time>2026-06-12T20:25:29.000Z</time></trkpt>
        <trkpt lat="29.5591201" lon="103.3507608"><ele>1535.42</ele><time>2026-06-12T20:25:33.000Z</time></trkpt>
        <trkpt lat="29.5591655" lon="103.3507486"><ele>1535.84</ele><time>2026-06-12T20:25:37.000Z</time></trkpt>
        <trkpt lat="29.5592229" lon="103.3507635"><ele>1536.3</ele><time>2026-06-12T20:25:43.000Z</time></trkpt>
        <trkpt lat="29.5592729" lon="103.3507681"><ele>1536.73</ele><time>2026-06-12T20:25:47.000Z</time></trkpt>
        <trkpt lat="29.5593218" lon="103.3507642"><ele>1536.89</ele><time>2026-06-12T20:25:53.000Z</time></trkpt>
        <trkpt lat="29.5593727" lon="103.3507504"><ele>1536.85</ele><time>2026-06-12T20:25:59.000Z</time></trkpt>
        <trkpt lat="29.5593944" lon="103.3507056"><ele>1536.27</ele><time>2026-06-12T20:26:07.000Z</time></trkpt>
        <trkpt lat="29.5594002" lon="103.3506488"><ele>1535.29</ele><time>2026-06-12T20:26:13.000Z</time></trkpt>
        <trkpt lat="29.5594369" lon="103.3506473"><ele>1533.36</ele><time>2026-06-12T20:26:47.000Z</time></trkpt>
        <trkpt lat="29.5594827" lon="103.3506426"><ele>1530.5</ele><time>2026-06-12T20:26:51.000Z</time></trkpt>
        <trkpt lat="29.5595137" lon="103.3505859"><ele>1528.99</ele><time>2026-06-12T20:26:57.000Z</time></trkpt>
        <trkpt lat="29.5595519" lon="103.3505379"><ele>1528.18</ele><time>2026-06-12T20:27:03.000Z</time></trkpt>
        <trkpt lat="29.5595732" lon="103.3504868"><ele>1527.97</ele><time>2026-06-12T20:27:13.000Z</time></trkpt>
        <trkpt lat="29.5596018" lon="103.3505192"><ele>1528.03</ele><time>2026-06-12T20:27:17.000Z</time></trkpt>
        <trkpt lat="29.5596177" lon="103.3504988"><ele>1528.96</ele><time>2026-06-12T20:27:23.000Z</time></trkpt>
        <trkpt lat="29.5595712" lon="103.3505137"><ele>1530.4</ele><time>2026-06-12T20:27:29.000Z</time></trkpt>
        <trkpt lat="29.5595065" lon="103.3505383"><ele>1532.25</ele><time>2026-06-12T20:27:33.000Z</time></trkpt>
        <trkpt lat="29.5595065" lon="103.3505383"><ele>1532.25</ele><time>2026-06-12T20:27:38.000Z</time></trkpt>
        <trkpt lat="29.5595878" lon="103.3505322"><ele>1534.08</ele><time>2026-06-12T20:27:42.000Z</time></trkpt>
        <trkpt lat="29.5595878" lon="103.3505322"><ele>1534.08</ele><time>2026-06-12T20:27:45.000Z</time></trkpt>
        <trkpt lat="29.559614" lon="103.3505596"><ele>1536.97</ele><time>2026-06-12T20:28:05.000Z</time></trkpt>
        <trkpt lat="29.5596359" lon="103.3505287"><ele>1539.52</ele><time>2026-06-12T20:28:17.000Z</time></trkpt>
        <trkpt lat="29.5596698" lon="103.3504674"><ele>1541.06</ele><time>2026-06-12T20:28:23.000Z</time></trkpt>
        <trkpt lat="29.5597121" lon="103.3504222"><ele>1539.79</ele><time>2026-06-12T20:28:30.000Z</time></trkpt>
        <trkpt lat="29.559763" lon="103.3503983"><ele>1537.47</ele><time>2026-06-12T20:28:41.000Z</time></trkpt>
        <trkpt lat="29.5598101" lon="103.3503729"><ele>1534.51</ele><time>2026-06-12T20:29:15.000Z</time></trkpt>
        <trkpt lat="29.5598549" lon="103.3503473"><ele>1532.79</ele><time>2026-06-12T20:29:33.000Z</time></trkpt>
        <trkpt lat="29.5598549" lon="103.3503473"><ele>1532.79</ele><time>2026-06-12T20:29:42.000Z</time></trkpt>
        <trkpt lat="29.5598999" lon="103.350335"><ele>1533.57</ele><time>2026-06-12T20:29:44.000Z</time></trkpt>
        <trkpt lat="29.5598999" lon="103.350335"><ele>1533.57</ele><time>2026-06-12T20:29:53.000Z</time></trkpt>
        <trkpt lat="29.5599487" lon="103.3503437"><ele>1536.59</ele><time>2026-06-12T20:30:03.000Z</time></trkpt>
        <trkpt lat="29.5599963" lon="103.3503393"><ele>1540.04</ele><time>2026-06-12T20:30:11.000Z</time></trkpt>
        <trkpt lat="29.5600421" lon="103.3503534"><ele>1543.38</ele><time>2026-06-12T20:30:24.000Z</time></trkpt>
        <trkpt lat="29.5600884" lon="103.3503868"><ele>1546.83</ele><time>2026-06-12T20:30:40.000Z</time></trkpt>
        <trkpt lat="29.5601149" lon="103.3504412"><ele>1549.65</ele><time>2026-06-12T20:30:49.000Z</time></trkpt>
        <trkpt lat="29.5601149" lon="103.3504412"><ele>1549.65</ele><time>2026-06-12T20:31:30.000Z</time></trkpt>
        <trkpt lat="29.560158" lon="103.3504728"><ele>1552</ele><time>2026-06-12T20:31:36.000Z</time></trkpt>
        <trkpt lat="29.560158" lon="103.3504728"><ele>1552</ele><time>2026-06-12T20:31:38.000Z</time></trkpt>
        <trkpt lat="29.5601857" lon="103.3505178"><ele>1555.14</ele><time>2026-06-12T20:31:56.000Z</time></trkpt>
        <trkpt lat="29.5602212" lon="103.3505491"><ele>1559.42</ele><time>2026-06-12T20:32:20.000Z</time></trkpt>
        <trkpt lat="29.5602212" lon="103.3505491"><ele>1559.42</ele><time>2026-06-12T20:32:34.000Z</time></trkpt>
        <trkpt lat="29.5602302" lon="103.3506036"><ele>1563.8</ele><time>2026-06-12T20:32:40.000Z</time></trkpt>
        <trkpt lat="29.5602302" lon="103.3506036"><ele>1563.8</ele><time>2026-06-12T20:32:42.000Z</time></trkpt>
        <trkpt lat="29.560262" lon="103.350647"><ele>1567.59</ele><time>2026-06-12T20:33:18.000Z</time></trkpt>
        <trkpt lat="29.5602835" lon="103.3507303"><ele>1572.07</ele><time>2026-06-12T20:33:36.000Z</time></trkpt>
        <trkpt lat="29.5602835" lon="103.3507303"><ele>1572.07</ele><time>2026-06-12T20:34:08.000Z</time></trkpt>
        <trkpt lat="29.56026" lon="103.3508967"><ele>1576.55</ele><time>2026-06-12T20:34:40.000Z</time></trkpt>
        <trkpt lat="29.56026" lon="103.3508967"><ele>1576.55</ele><time>2026-06-12T20:34:50.000Z</time></trkpt>
        <trkpt lat="29.560281" lon="103.3509486"><ele>1581.74</ele><time>2026-06-12T20:35:02.000Z</time></trkpt>
        <trkpt lat="29.560281" lon="103.3509486"><ele>1581.74</ele><time>2026-06-12T20:35:12.000Z</time></trkpt>
        <trkpt lat="29.560281" lon="103.3509486"><ele>1581.74</ele><time>2026-06-12T20:35:32.000Z</time></trkpt>
        <trkpt lat="29.560281" lon="103.3509486"><ele>1581.74</ele><time>2026-06-12T20:36:04.000Z</time></trkpt>
        <trkpt lat="29.5603687" lon="103.3510707"><ele>1584.3</ele><time>2026-06-12T20:36:16.000Z</time></trkpt>
        <trkpt lat="29.5603687" lon="103.3510707"><ele>1584.3</ele><time>2026-06-12T20:36:34.000Z</time></trkpt>
        <trkpt lat="29.5603687" lon="103.3510707"><ele>1584.3</ele><time>2026-06-12T20:36:50.000Z</time></trkpt>
        <trkpt lat="29.5604904" lon="103.3510282"><ele>1592.86</ele><time>2026-06-12T20:37:14.000Z</time></trkpt>
        <trkpt lat="29.5604904" lon="103.3510282"><ele>1592.86</ele><time>2026-06-12T20:37:44.000Z</time></trkpt>
        <trkpt lat="29.5605442" lon="103.3510182"><ele>1601.78</ele><time>2026-06-12T20:37:52.000Z</time></trkpt>
        <trkpt lat="29.5605841" lon="103.351042"><ele>1606.74</ele><time>2026-06-12T20:38:10.000Z</time></trkpt>
        <trkpt lat="29.5605801" lon="103.3511101"><ele>1611.32</ele><time>2026-06-12T20:38:20.000Z</time></trkpt>
        <trkpt lat="29.5606132" lon="103.3511146"><ele>1613.68</ele><time>2026-06-12T20:38:50.000Z</time></trkpt>
        <trkpt lat="29.5606578" lon="103.3511173"><ele>1616.1</ele><time>2026-06-12T20:39:04.000Z</time></trkpt>
        <trkpt lat="29.5606407" lon="103.3511398"><ele>1619.11</ele><time>2026-06-12T20:39:10.000Z</time></trkpt>
        <trkpt lat="29.5606153" lon="103.3511842"><ele>1621.26</ele><time>2026-06-12T20:39:30.000Z</time></trkpt>
        <trkpt lat="29.5606153" lon="103.3511842"><ele>1621.26</ele><time>2026-06-12T20:39:42.000Z</time></trkpt>
        <trkpt lat="29.5606085" lon="103.3512823"><ele>1622.69</ele><time>2026-06-12T20:40:12.000Z</time></trkpt>
        <trkpt lat="29.5606085" lon="103.3512823"><ele>1622.69</ele><time>2026-06-12T20:40:30.000Z</time></trkpt>
        <trkpt lat="29.5606533" lon="103.3512585"><ele>1625.79</ele><time>2026-06-12T20:40:46.000Z</time></trkpt>
        <trkpt lat="29.5607098" lon="103.3512485"><ele>1628.94</ele><time>2026-06-12T20:41:00.000Z</time></trkpt>
        <trkpt lat="29.5607468" lon="103.3512868"><ele>1631.76</ele><time>2026-06-12T20:41:18.000Z</time></trkpt>
        <trkpt lat="29.5607234" lon="103.351326"><ele>1634.01</ele><time>2026-06-12T20:41:28.000Z</time></trkpt>
        <trkpt lat="29.5606967" lon="103.3513747"><ele>1635.26</ele><time>2026-06-12T20:41:52.000Z</time></trkpt>
        <trkpt lat="29.5606897" lon="103.351428"><ele>1634.93</ele><time>2026-06-12T20:42:02.000Z</time></trkpt>
        <trkpt lat="29.560653" lon="103.351462"><ele>1634.57</ele><time>2026-06-12T20:42:08.000Z</time></trkpt>
        <trkpt lat="29.5606104" lon="103.3515017"><ele>1634.93</ele><time>2026-06-12T20:42:16.000Z</time></trkpt>
        <trkpt lat="29.5605585" lon="103.3515429"><ele>1636.03</ele><time>2026-06-12T20:42:28.000Z</time></trkpt>
        <trkpt lat="29.5605169" lon="103.3515821"><ele>1638.3</ele><time>2026-06-12T20:42:34.000Z</time></trkpt>
        <trkpt lat="29.5605169" lon="103.3515821"><ele>1638.3</ele><time>2026-06-12T20:43:14.000Z</time></trkpt>
        <trkpt lat="29.5605511" lon="103.3516731"><ele>1640.75</ele><time>2026-06-12T20:43:30.000Z</time></trkpt>
        <trkpt lat="29.5605511" lon="103.3516731"><ele>1640.75</ele><time>2026-06-12T20:43:54.000Z</time></trkpt>
        <trkpt lat="29.5605863" lon="103.3516979"><ele>1646.06</ele><time>2026-06-12T20:44:06.000Z</time></trkpt>
        <trkpt lat="29.5606162" lon="103.351658"><ele>1649.82</ele><time>2026-06-12T20:44:26.000Z</time></trkpt>
        <trkpt lat="29.5606506" lon="103.3516119"><ele>1652.82</ele><time>2026-06-12T20:44:32.000Z</time></trkpt>
        <trkpt lat="29.5606933" lon="103.3515787"><ele>1654.4</ele><time>2026-06-12T20:44:46.000Z</time></trkpt>
        <trkpt lat="29.5607169" lon="103.3515204"><ele>1654.96</ele><time>2026-06-12T20:44:56.000Z</time></trkpt>
        <trkpt lat="29.5607554" lon="103.3515034"><ele>1655.32</ele><time>2026-06-12T20:45:10.000Z</time></trkpt>
        <trkpt lat="29.5608035" lon="103.3515247"><ele>1656.52</ele><time>2026-06-12T20:45:16.000Z</time></trkpt>
        <trkpt lat="29.5608397" lon="103.3514996"><ele>1657.71</ele><time>2026-06-12T20:45:38.000Z</time></trkpt>
        <trkpt lat="29.5608983" lon="103.3515162"><ele>1658.57</ele><time>2026-06-12T20:45:42.000Z</time></trkpt>
        <trkpt lat="29.5609503" lon="103.3515265"><ele>1658.97</ele><time>2026-06-12T20:45:46.000Z</time></trkpt>
        <trkpt lat="29.5609512" lon="103.3514915"><ele>1659.28</ele><time>2026-06-12T20:45:56.000Z</time></trkpt>
        <trkpt lat="29.5609194" lon="103.3515057"><ele>1660.45</ele><time>2026-06-12T20:46:06.000Z</time></trkpt>
        <trkpt lat="29.5609485" lon="103.3515288"><ele>1660.6</ele><time>2026-06-12T20:46:30.000Z</time></trkpt>
        <trkpt lat="29.5609755" lon="103.3515786"><ele>1660.77</ele><time>2026-06-12T20:46:36.000Z</time></trkpt>
        <trkpt lat="29.5610188" lon="103.3516044"><ele>1661.09</ele><time>2026-06-12T20:46:44.000Z</time></trkpt>
        <trkpt lat="29.5610662" lon="103.3516029"><ele>1661.78</ele><time>2026-06-12T20:46:50.000Z</time></trkpt>
        <trkpt lat="29.5611287" lon="103.3515879"><ele>1662.35</ele><time>2026-06-12T20:46:56.000Z</time></trkpt>
        <trkpt lat="29.5611809" lon="103.3515921"><ele>1662.8</ele><time>2026-06-12T20:47:00.000Z</time></trkpt>
        <trkpt lat="29.5612254" lon="103.3516186"><ele>1663.19</ele><time>2026-06-12T20:47:06.000Z</time></trkpt>
        <trkpt lat="29.5612733" lon="103.3516381"><ele>1663.58</ele><time>2026-06-12T20:47:12.000Z</time></trkpt>
        <trkpt lat="29.5613203" lon="103.3516398"><ele>1664.02</ele><time>2026-06-12T20:47:16.000Z</time></trkpt>
        <trkpt lat="29.5613669" lon="103.3516536"><ele>1664.27</ele><time>2026-06-12T20:47:24.000Z</time></trkpt>
        <trkpt lat="29.5614148" lon="103.3516663"><ele>1664.54</ele><time>2026-06-12T20:47:38.000Z</time></trkpt>
        <trkpt lat="29.5614305" lon="103.3517222"><ele>1665.17</ele><time>2026-06-12T20:47:54.000Z</time></trkpt>
        <trkpt lat="29.5614658" lon="103.3517424"><ele>1666.26</ele><time>2026-06-12T20:48:14.000Z</time></trkpt>
        <trkpt lat="29.5615087" lon="103.3517661"><ele>1666.62</ele><time>2026-06-12T20:48:30.000Z</time></trkpt>
        <trkpt lat="29.5615104" lon="103.3518116"><ele>1667.13</ele><time>2026-06-12T20:48:38.000Z</time></trkpt>
        <trkpt lat="29.561469" lon="103.3518241"><ele>1667.24</ele><time>2026-06-12T20:48:50.000Z</time></trkpt>
        <trkpt lat="29.561469" lon="103.3518241"><ele>1667.24</ele><time>2026-06-12T20:49:10.000Z</time></trkpt>
        <trkpt lat="29.561469" lon="103.3518241"><ele>1667.24</ele><time>2026-06-12T20:49:46.000Z</time></trkpt>
        <trkpt lat="29.561469" lon="103.3518241"><ele>1667.24</ele><time>2026-06-12T20:50:18.000Z</time></trkpt>
        <trkpt lat="29.5614555" lon="103.3519475"><ele>1666.92</ele><time>2026-06-12T20:50:28.000Z</time></trkpt>
        <trkpt lat="29.5614555" lon="103.3519475"><ele>1666.92</ele><time>2026-06-12T20:50:36.000Z</time></trkpt>
        <trkpt lat="29.5614805" lon="103.3519912"><ele>1670.61</ele><time>2026-06-12T20:50:52.000Z</time></trkpt>
        <trkpt lat="29.5614706" lon="103.3519641"><ele>1672.54</ele><time>2026-06-12T20:51:04.000Z</time></trkpt>
        <trkpt lat="29.5615012" lon="103.3519325"><ele>1673.99</ele><time>2026-06-12T20:51:14.000Z</time></trkpt>
        <trkpt lat="29.5615351" lon="103.3519498"><ele>1675.24</ele><time>2026-06-12T20:51:28.000Z</time></trkpt>
        <trkpt lat="29.5615358" lon="103.3519946"><ele>1676.08</ele><time>2026-06-12T20:51:34.000Z</time></trkpt>
        <trkpt lat="29.5615571" lon="103.3519806"><ele>1676.61</ele><time>2026-06-12T20:51:52.000Z</time></trkpt>
        <trkpt lat="29.5616023" lon="103.3519715"><ele>1677.98</ele><time>2026-06-12T20:52:10.000Z</time></trkpt>
        <trkpt lat="29.5616544" lon="103.3519763"><ele>1679.15</ele><time>2026-06-12T20:52:18.000Z</time></trkpt>
        <trkpt lat="29.5617037" lon="103.3520058"><ele>1680.72</ele><time>2026-06-12T20:52:34.000Z</time></trkpt>
        <trkpt lat="29.5617508" lon="103.3520289"><ele>1684.07</ele><time>2026-06-12T20:52:42.000Z</time></trkpt>
        <trkpt lat="29.5617992" lon="103.3520394"><ele>1686.92</ele><time>2026-06-12T20:52:58.000Z</time></trkpt>
        <trkpt lat="29.5618215" lon="103.3520899"><ele>1690.78</ele><time>2026-06-12T20:53:26.000Z</time></trkpt>
        <trkpt lat="29.5618091" lon="103.3521416"><ele>1693.8</ele><time>2026-06-12T20:53:38.000Z</time></trkpt>
        <trkpt lat="29.5617742" lon="103.3521957"><ele>1696.77</ele><time>2026-06-12T20:53:52.000Z</time></trkpt>
        <trkpt lat="29.561815" lon="103.3522019"><ele>1699.36</ele><time>2026-06-12T20:54:16.000Z</time></trkpt>
        <trkpt lat="29.561815" lon="103.3522019"><ele>1699.36</ele><time>2026-06-12T20:54:48.000Z</time></trkpt>
        <trkpt lat="29.5619881" lon="103.3522106"><ele>1702.48</ele><time>2026-06-12T20:55:30.000Z</time></trkpt>
        <trkpt lat="29.5619881" lon="103.3522106"><ele>1702.48</ele><time>2026-06-12T20:56:06.000Z</time></trkpt>
        <trkpt lat="29.5620394" lon="103.352198"><ele>1712.85</ele><time>2026-06-12T20:56:10.000Z</time></trkpt>
        <trkpt lat="29.5620685" lon="103.3522332"><ele>1718.04</ele><time>2026-06-12T20:56:18.000Z</time></trkpt>
        <trkpt lat="29.562102" lon="103.3523149"><ele>1720.26</ele><time>2026-06-12T20:56:22.000Z</time></trkpt>
        <trkpt lat="29.5620802" lon="103.3522796"><ele>1721.44</ele><time>2026-06-12T20:56:26.000Z</time></trkpt>
        <trkpt lat="29.5620802" lon="103.3522796"><ele>1721.44</ele><time>2026-06-12T20:56:26.000Z</time></trkpt>
        <trkpt lat="29.5620307" lon="103.3522741"><ele>1722.32</ele><time>2026-06-12T20:56:30.000Z</time></trkpt>
        <trkpt lat="29.5620307" lon="103.3522741"><ele>1722.32</ele><time>2026-06-12T20:56:34.000Z</time></trkpt>
        <trkpt lat="29.5620041" lon="103.3522249"><ele>1723.05</ele><time>2026-06-12T20:56:40.000Z</time></trkpt>
        <trkpt lat="29.5619716" lon="103.3521718"><ele>1723.8</ele><time>2026-06-12T20:56:52.000Z</time></trkpt>
        <trkpt lat="29.5619186" lon="103.3521625"><ele>1724.36</ele><time>2026-06-12T20:56:56.000Z</time></trkpt>
        <trkpt lat="29.561871" lon="103.3521459"><ele>1724.94</ele><time>2026-06-12T20:56:58.000Z</time></trkpt>
        <trkpt lat="29.5618119" lon="103.3521289"><ele>1725.39</ele><time>2026-06-12T20:57:04.000Z</time></trkpt>
        <trkpt lat="29.5618119" lon="103.3521289"><ele>1725.39</ele><time>2026-06-12T20:57:04.000Z</time></trkpt>
        <trkpt lat="29.5618865" lon="103.3521844"><ele>1725.48</ele><time>2026-06-12T20:57:10.000Z</time></trkpt>
        <trkpt lat="29.5618865" lon="103.3521844"><ele>1725.48</ele><time>2026-06-12T20:57:14.000Z</time></trkpt>
        <trkpt lat="29.5619352" lon="103.3522294"><ele>1725.49</ele><time>2026-06-12T20:57:24.000Z</time></trkpt>
        <trkpt lat="29.5619851" lon="103.3522475"><ele>1725.84</ele><time>2026-06-12T20:57:40.000Z</time></trkpt>
        <trkpt lat="29.5619851" lon="103.3522475"><ele>1725.84</ele><time>2026-06-12T20:57:46.000Z</time></trkpt>
        <trkpt lat="29.5620224" lon="103.3522205"><ele>1727.11</ele><time>2026-06-12T20:58:02.000Z</time></trkpt>
        <trkpt lat="29.5620224" lon="103.3522205"><ele>1727.11</ele><time>2026-06-12T20:58:07.000Z</time></trkpt>
        <trkpt lat="29.5620677" lon="103.3521839"><ele>1727.37</ele><time>2026-06-12T20:58:26.000Z</time></trkpt>
        <trkpt lat="29.5621161" lon="103.3521893"><ele>1727.04</ele><time>2026-06-12T20:58:36.000Z</time></trkpt>
        <trkpt lat="29.5621665" lon="103.3521982"><ele>1727.28</ele><time>2026-06-12T20:58:50.000Z</time></trkpt>
        <trkpt lat="29.5622097" lon="103.3522261"><ele>1727.89</ele><time>2026-06-12T20:59:02.000Z</time></trkpt>
        <trkpt lat="29.5622588" lon="103.3522161"><ele>1728.15</ele><time>2026-06-12T20:59:22.000Z</time></trkpt>
        <trkpt lat="29.562309" lon="103.3522309"><ele>1728.86</ele><time>2026-06-12T20:59:30.000Z</time></trkpt>
        <trkpt lat="29.5623544" lon="103.352221"><ele>1730.04</ele><time>2026-06-12T20:59:46.000Z</time></trkpt>
        <trkpt lat="29.5623903" lon="103.3521901"><ele>1732.69</ele><time>2026-06-12T21:00:01.000Z</time></trkpt>
        <trkpt lat="29.5624406" lon="103.3521826"><ele>1734.76</ele><time>2026-06-12T21:00:09.000Z</time></trkpt>
        <trkpt lat="29.5624891" lon="103.3522079"><ele>1736.24</ele><time>2026-06-12T21:00:37.000Z</time></trkpt>
        <trkpt lat="29.5625416" lon="103.352226"><ele>1738.03</ele><time>2026-06-12T21:00:59.000Z</time></trkpt>
        <trkpt lat="29.5625865" lon="103.3522469"><ele>1739.48</ele><time>2026-06-12T21:01:21.000Z</time></trkpt>
        <trkpt lat="29.5625709" lon="103.3522883"><ele>1743.45</ele><time>2026-06-12T21:01:33.000Z</time></trkpt>
        <trkpt lat="29.5625934" lon="103.3522802"><ele>1747.38</ele><time>2026-06-12T21:01:51.000Z</time></trkpt>
        <trkpt lat="29.5626347" lon="103.3522515"><ele>1751.52</ele><time>2026-06-12T21:02:05.000Z</time></trkpt>
        <trkpt lat="29.5626812" lon="103.3522034"><ele>1754.82</ele><time>2026-06-12T21:02:13.000Z</time></trkpt>
        <trkpt lat="29.5627035" lon="103.3521491"><ele>1757.78</ele><time>2026-06-12T21:02:22.000Z</time></trkpt>
        <trkpt lat="29.5626909" lon="103.3520811"><ele>1761.02</ele><time>2026-06-12T21:02:26.000Z</time></trkpt>
        <trkpt lat="29.562659" lon="103.3520233"><ele>1764.24</ele><time>2026-06-12T21:02:34.000Z</time></trkpt>
        <trkpt lat="29.562606" lon="103.3519683"><ele>1767.79</ele><time>2026-06-12T21:02:40.000Z</time></trkpt>
        <trkpt lat="29.5625653" lon="103.3519233"><ele>1770.85</ele><time>2026-06-12T21:02:43.000Z</time></trkpt>
        <trkpt lat="29.5625213" lon="103.3518782"><ele>1773.06</ele><time>2026-06-12T21:02:50.000Z</time></trkpt>
        <trkpt lat="29.5624793" lon="103.3518351"><ele>1774.71</ele><time>2026-06-12T21:02:55.000Z</time></trkpt>
        <trkpt lat="29.562471" lon="103.3517861"><ele>1775.96</ele><time>2026-06-12T21:03:01.000Z</time></trkpt>
        <trkpt lat="29.562484" lon="103.3517272"><ele>1776.23</ele><time>2026-06-12T21:03:09.000Z</time></trkpt>
        <trkpt lat="29.5625205" lon="103.3516824"><ele>1776.26</ele><time>2026-06-12T21:03:16.000Z</time></trkpt>
        <trkpt lat="29.5625597" lon="103.3516459"><ele>1776.67</ele><time>2026-06-12T21:03:26.000Z</time></trkpt>
        <trkpt lat="29.5626063" lon="103.3516207"><ele>1777.97</ele><time>2026-06-12T21:03:51.000Z</time></trkpt>
        <trkpt lat="29.5626479" lon="103.3515928"><ele>1778.5</ele><time>2026-06-12T21:04:06.000Z</time></trkpt>
        <trkpt lat="29.5626715" lon="103.351539"><ele>1778.76</ele><time>2026-06-12T21:04:25.000Z</time></trkpt>
        <trkpt lat="29.562707" lon="103.3514893"><ele>1779.89</ele><time>2026-06-12T21:04:29.000Z</time></trkpt>
        <trkpt lat="29.5627388" lon="103.3514284"><ele>1780.5</ele><time>2026-06-12T21:04:35.000Z</time></trkpt>
        <trkpt lat="29.5627641" lon="103.3513714"><ele>1780.76</ele><time>2026-06-12T21:04:43.000Z</time></trkpt>
        <trkpt lat="29.562762" lon="103.3513142"><ele>1781.12</ele><time>2026-06-12T21:04:53.000Z</time></trkpt>
        <trkpt lat="29.5627942" lon="103.3512708"><ele>1782.32</ele><time>2026-06-12T21:04:59.000Z</time></trkpt>
        <trkpt lat="29.5628192" lon="103.3512265"><ele>1783.17</ele><time>2026-06-12T21:05:07.000Z</time></trkpt>
        <trkpt lat="29.5628495" lon="103.3511848"><ele>1783.7</ele><time>2026-06-12T21:05:18.000Z</time></trkpt>
        <trkpt lat="29.5628791" lon="103.35114"><ele>1784.47</ele><time>2026-06-12T21:05:28.000Z</time></trkpt>
        <trkpt lat="29.5628868" lon="103.3510888"><ele>1785.99</ele><time>2026-06-12T21:05:38.000Z</time></trkpt>
        <trkpt lat="29.5628763" lon="103.3510302"><ele>1787.97</ele><time>2026-06-12T21:05:46.000Z</time></trkpt>
        <trkpt lat="29.5628452" lon="103.3509781"><ele>1789.66</ele><time>2026-06-12T21:05:54.000Z</time></trkpt>
        <trkpt lat="29.5628283" lon="103.3509164"><ele>1791.87</ele><time>2026-06-12T21:06:06.000Z</time></trkpt>
        <trkpt lat="29.5628047" lon="103.3508624"><ele>1794.9</ele><time>2026-06-12T21:06:14.000Z</time></trkpt>
        <trkpt lat="29.562799" lon="103.350808"><ele>1797.95</ele><time>2026-06-12T21:06:18.000Z</time></trkpt>
        <trkpt lat="29.5628029" lon="103.3507545"><ele>1800.51</ele><time>2026-06-12T21:06:26.000Z</time></trkpt>
        <trkpt lat="29.5628496" lon="103.3507314"><ele>1803</ele><time>2026-06-12T21:06:46.000Z</time></trkpt>
        <trkpt lat="29.562794" lon="103.35071"><ele>1804.12</ele><time>2026-06-12T21:08:01.000Z</time></trkpt>
        <trkpt lat="29.562885" lon="103.3507367"><ele>1805.62</ele><time>2026-06-12T21:08:05.000Z</time></trkpt>
        <trkpt lat="29.562885" lon="103.3507367"><ele>1805.62</ele><time>2026-06-12T21:09:42.000Z</time></trkpt>
        <trkpt lat="29.562885" lon="103.3507367"><ele>1805.62</ele><time>2026-06-12T21:13:46.000Z</time></trkpt>
        <trkpt lat="29.562885" lon="103.3507367"><ele>1805.62</ele><time>2026-06-12T21:14:22.000Z</time></trkpt>
        <trkpt lat="29.5629217" lon="103.35077"><ele>1804.92</ele><time>2026-06-12T21:14:54.000Z</time></trkpt>
        <trkpt lat="29.5629217" lon="103.35077"><ele>1804.92</ele><time>2026-06-12T21:15:13.000Z</time></trkpt>
        <trkpt lat="29.5629217" lon="103.35077"><ele>1804.92</ele><time>2026-06-12T21:15:56.000Z</time></trkpt>
        <trkpt lat="29.5629217" lon="103.35077"><ele>1804.92</ele><time>2026-06-12T21:16:42.000Z</time></trkpt>
        <trkpt lat="29.5629217" lon="103.35077"><ele>1804.92</ele><time>2026-06-12T21:17:14.000Z</time></trkpt>
        <trkpt lat="29.5629083" lon="103.3507167"><ele>1799.49</ele><time>2026-06-12T21:17:38.000Z</time></trkpt>
        <trkpt lat="29.5629083" lon="103.3507167"><ele>1799.49</ele><time>2026-06-12T21:18:54.000Z</time></trkpt>
        <trkpt lat="29.5629083" lon="103.3507167"><ele>1799.49</ele><time>2026-06-12T21:20:00.000Z</time></trkpt>
        <trkpt lat="29.5629083" lon="103.3507167"><ele>1799.49</ele><time>2026-06-12T21:20:30.000Z</time></trkpt>
        <trkpt lat="29.5629083" lon="103.3507167"><ele>1799.49</ele><time>2026-06-12T21:21:48.000Z</time></trkpt>
        <trkpt lat="29.5629083" lon="103.3507167"><ele>1799.49</ele><time>2026-06-12T21:28:18.000Z</time></trkpt>
        <trkpt lat="29.5629083" lon="103.3507167"><ele>1799.49</ele><time>2026-06-12T21:29:40.000Z</time></trkpt>
        <trkpt lat="29.56286" lon="103.3507217"><ele>1796.4</ele><time>2026-06-12T21:31:08.000Z</time></trkpt>
        <trkpt lat="29.56286" lon="103.3507217"><ele>1796.4</ele><time>2026-06-12T21:31:12.000Z</time></trkpt>
        <trkpt lat="29.56286" lon="103.3507217"><ele>1796.4</ele><time>2026-06-12T21:32:00.000Z</time></trkpt>
        <trkpt lat="29.5628333" lon="103.3507633"><ele>1794.85</ele><time>2026-06-12T21:32:18.000Z</time></trkpt>
        <trkpt lat="29.5628333" lon="103.3507633"><ele>1794.85</ele><time>2026-06-12T21:32:20.000Z</time></trkpt>
        <trkpt lat="29.5628367" lon="103.350695"><ele>1794.79</ele><time>2026-06-12T21:32:26.000Z</time></trkpt>
        <trkpt lat="29.5628245" lon="103.350621"><ele>1794.62</ele><time>2026-06-12T21:32:29.000Z</time></trkpt>
        <trkpt lat="29.562825" lon="103.3505563"><ele>1794.48</ele><time>2026-06-12T21:32:40.000Z</time></trkpt>
        <trkpt lat="29.5628206" lon="103.3504945"><ele>1793.67</ele><time>2026-06-12T21:32:48.000Z</time></trkpt>
        <trkpt lat="29.5628243" lon="103.3504336"><ele>1792.31</ele><time>2026-06-12T21:32:54.000Z</time></trkpt>
        <trkpt lat="29.5628035" lon="103.3503801"><ele>1790.88</ele><time>2026-06-12T21:33:01.000Z</time></trkpt>
        <trkpt lat="29.5628185" lon="103.3503742"><ele>1789.3</ele><time>2026-06-12T21:33:12.000Z</time></trkpt>
        <trkpt lat="29.5628185" lon="103.3503742"><ele>1789.3</ele><time>2026-06-12T21:33:54.000Z</time></trkpt>
        <trkpt lat="29.562835" lon="103.3502967"><ele>1788.22</ele><time>2026-06-12T21:34:14.000Z</time></trkpt>
        <trkpt lat="29.562835" lon="103.3502967"><ele>1788.22</ele><time>2026-06-12T21:34:19.000Z</time></trkpt>
        <trkpt lat="29.5628565" lon="103.3502401"><ele>1785.25</ele><time>2026-06-12T21:34:25.000Z</time></trkpt>
        <trkpt lat="29.5628786" lon="103.3501741"><ele>1783.68</ele><time>2026-06-12T21:34:32.000Z</time></trkpt>
        <trkpt lat="29.5628973" lon="103.3501114"><ele>1782.83</ele><time>2026-06-12T21:34:35.000Z</time></trkpt>
        <trkpt lat="29.5629254" lon="103.3500527"><ele>1781.91</ele><time>2026-06-12T21:34:39.000Z</time></trkpt>
        <trkpt lat="29.5629365" lon="103.3499858"><ele>1781.39</ele><time>2026-06-12T21:34:45.000Z</time></trkpt>
        <trkpt lat="29.5629156" lon="103.3499107"><ele>1781.14</ele><time>2026-06-12T21:34:50.000Z</time></trkpt>
        <trkpt lat="29.5629048" lon="103.3498505"><ele>1780.99</ele><time>2026-06-12T21:34:53.000Z</time></trkpt>
        <trkpt lat="29.5629211" lon="103.3498002"><ele>1781.21</ele><time>2026-06-12T21:34:57.000Z</time></trkpt>
        <trkpt lat="29.5629515" lon="103.3497381"><ele>1781.42</ele><time>2026-06-12T21:35:02.000Z</time></trkpt>
        <trkpt lat="29.5629695" lon="103.3496808"><ele>1781.45</ele><time>2026-06-12T21:35:05.000Z</time></trkpt>
        <trkpt lat="29.5629942" lon="103.3496318"><ele>1781.26</ele><time>2026-06-12T21:35:10.000Z</time></trkpt>
        <trkpt lat="29.5630288" lon="103.3495782"><ele>1781.19</ele><time>2026-06-12T21:35:14.000Z</time></trkpt>
        <trkpt lat="29.5630565" lon="103.3495286"><ele>1781.11</ele><time>2026-06-12T21:35:18.000Z</time></trkpt>
        <trkpt lat="29.5630898" lon="103.3494742"><ele>1780.93</ele><time>2026-06-12T21:35:22.000Z</time></trkpt>
        <trkpt lat="29.5631187" lon="103.349414"><ele>1780.96</ele><time>2026-06-12T21:35:28.000Z</time></trkpt>
        <trkpt lat="29.5631208" lon="103.3493369"><ele>1780.98</ele><time>2026-06-12T21:35:32.000Z</time></trkpt>
        <trkpt lat="29.5631369" lon="103.3492652"><ele>1781.25</ele><time>2026-06-12T21:35:38.000Z</time></trkpt>
        <trkpt lat="29.5631696" lon="103.3492066"><ele>1781.7</ele><time>2026-06-12T21:35:42.000Z</time></trkpt>
        <trkpt lat="29.5632122" lon="103.3491707"><ele>1781.96</ele><time>2026-06-12T21:35:46.000Z</time></trkpt>
        <trkpt lat="29.5632212" lon="103.349105"><ele>1782.71</ele><time>2026-06-12T21:35:52.000Z</time></trkpt>
        <trkpt lat="29.5632144" lon="103.3490355"><ele>1784.55</ele><time>2026-06-12T21:35:56.000Z</time></trkpt>
        <trkpt lat="29.5632207" lon="103.3489693"><ele>1786.12</ele><time>2026-06-12T21:36:02.000Z</time></trkpt>
        <trkpt lat="29.5632408" lon="103.3489187"><ele>1787.96</ele><time>2026-06-12T21:36:06.000Z</time></trkpt>
        <trkpt lat="29.5632485" lon="103.3488689"><ele>1789.23</ele><time>2026-06-12T21:36:10.000Z</time></trkpt>
        <trkpt lat="29.5632523" lon="103.3488074"><ele>1790.42</ele><time>2026-06-12T21:36:14.000Z</time></trkpt>
        <trkpt lat="29.5632537" lon="103.34875"><ele>1791.7</ele><time>2026-06-12T21:36:18.000Z</time></trkpt>
        <trkpt lat="29.5632496" lon="103.3486931"><ele>1792.82</ele><time>2026-06-12T21:36:22.000Z</time></trkpt>
        <trkpt lat="29.5632513" lon="103.3486302"><ele>1793.76</ele><time>2026-06-12T21:36:28.000Z</time></trkpt>
        <trkpt lat="29.5632518" lon="103.3485613"><ele>1794.38</ele><time>2026-06-12T21:36:32.000Z</time></trkpt>
        <trkpt lat="29.5632569" lon="103.3484943"><ele>1794.9</ele><time>2026-06-12T21:36:36.000Z</time></trkpt>
        <trkpt lat="29.56327" lon="103.348436"><ele>1795.33</ele><time>2026-06-12T21:36:40.000Z</time></trkpt>
        <trkpt lat="29.5632894" lon="103.3483822"><ele>1795.75</ele><time>2026-06-12T21:36:46.000Z</time></trkpt>
        <trkpt lat="29.5633232" lon="103.3483172"><ele>1795.86</ele><time>2026-06-12T21:36:50.000Z</time></trkpt>
        <trkpt lat="29.5633528" lon="103.3482652"><ele>1795.66</ele><time>2026-06-12T21:36:54.000Z</time></trkpt>
        <trkpt lat="29.5633972" lon="103.3482233"><ele>1795.42</ele><time>2026-06-12T21:37:00.000Z</time></trkpt>
        <trkpt lat="29.563438" lon="103.3481859"><ele>1795.32</ele><time>2026-06-12T21:37:06.000Z</time></trkpt>
        <trkpt lat="29.5634726" lon="103.3481279"><ele>1795.27</ele><time>2026-06-12T21:37:10.000Z</time></trkpt>
        <trkpt lat="29.5634771" lon="103.3480731"><ele>1794.98</ele><time>2026-06-12T21:37:12.000Z</time></trkpt>
        <trkpt lat="29.5634946" lon="103.3480139"><ele>1794.86</ele><time>2026-06-12T21:37:16.000Z</time></trkpt>
        <trkpt lat="29.5635373" lon="103.3479708"><ele>1794.92</ele><time>2026-06-12T21:37:20.000Z</time></trkpt>
        <trkpt lat="29.563582" lon="103.3479253"><ele>1794.91</ele><time>2026-06-12T21:37:24.000Z</time></trkpt>
        <trkpt lat="29.5635997" lon="103.3478744"><ele>1794.56</ele><time>2026-06-12T21:37:28.000Z</time></trkpt>
        <trkpt lat="29.5635931" lon="103.3478062"><ele>1794.19</ele><time>2026-06-12T21:37:34.000Z</time></trkpt>
        <trkpt lat="29.5635824" lon="103.3477345"><ele>1794.07</ele><time>2026-06-12T21:37:40.000Z</time></trkpt>
        <trkpt lat="29.5635784" lon="103.34767"><ele>1794.3</ele><time>2026-06-12T21:37:46.000Z</time></trkpt>
        <trkpt lat="29.563573" lon="103.3476252"><ele>1793.78</ele><time>2026-06-12T21:37:54.000Z</time></trkpt>
        <trkpt lat="29.5635775" lon="103.3475762"><ele>1792.33</ele><time>2026-06-12T21:38:00.000Z</time></trkpt>
        <trkpt lat="29.5635757" lon="103.347526"><ele>1790.34</ele><time>2026-06-12T21:38:04.000Z</time></trkpt>
        <trkpt lat="29.5635725" lon="103.3474737"><ele>1788.64</ele><time>2026-06-12T21:38:08.000Z</time></trkpt>
        <trkpt lat="29.5635539" lon="103.3474142"><ele>1787.38</ele><time>2026-06-12T21:38:12.000Z</time></trkpt>
        <trkpt lat="29.563516" lon="103.3473635"><ele>1786.1</ele><time>2026-06-12T21:38:16.000Z</time></trkpt>
        <trkpt lat="29.563472" lon="103.3473101"><ele>1785.15</ele><time>2026-06-12T21:38:22.000Z</time></trkpt>
        <trkpt lat="29.563441" lon="103.3472579"><ele>1784.74</ele><time>2026-06-12T21:38:28.000Z</time></trkpt>
        <trkpt lat="29.563406" lon="103.3472138"><ele>1784.29</ele><time>2026-06-12T21:38:32.000Z</time></trkpt>
        <trkpt lat="29.5633594" lon="103.3471851"><ele>1784.08</ele><time>2026-06-12T21:38:38.000Z</time></trkpt>
        <trkpt lat="29.5633037" lon="103.347159"><ele>1784.22</ele><time>2026-06-12T21:38:44.000Z</time></trkpt>
        <trkpt lat="29.5632491" lon="103.3471377"><ele>1785.8</ele><time>2026-06-12T21:38:50.000Z</time></trkpt>
        <trkpt lat="29.5632197" lon="103.3470925"><ele>1788.17</ele><time>2026-06-12T21:38:54.000Z</time></trkpt>
        <trkpt lat="29.563201" lon="103.3470379"><ele>1790.29</ele><time>2026-06-12T21:38:58.000Z</time></trkpt>
        <trkpt lat="29.5631752" lon="103.3469808"><ele>1791.58</ele><time>2026-06-12T21:39:02.000Z</time></trkpt>
        <trkpt lat="29.5631305" lon="103.3469313"><ele>1792.11</ele><time>2026-06-12T21:39:06.000Z</time></trkpt>
        <trkpt lat="29.5630874" lon="103.3468979"><ele>1791.8</ele><time>2026-06-12T21:39:10.000Z</time></trkpt>
        <trkpt lat="29.5630495" lon="103.3468552"><ele>1791.37</ele><time>2026-06-12T21:39:16.000Z</time></trkpt>
        <trkpt lat="29.5630265" lon="103.3467981"><ele>1791.17</ele><time>2026-06-12T21:39:22.000Z</time></trkpt>
        <trkpt lat="29.5629925" lon="103.3467572"><ele>1789.85</ele><time>2026-06-12T21:39:28.000Z</time></trkpt>
        <trkpt lat="29.5629525" lon="103.3467167"><ele>1787.42</ele><time>2026-06-12T21:39:32.000Z</time></trkpt>
        <trkpt lat="29.5629204" lon="103.3466671"><ele>1785.6</ele><time>2026-06-12T21:39:36.000Z</time></trkpt>
        <trkpt lat="29.5628803" lon="103.3466127"><ele>1783.8</ele><time>2026-06-12T21:39:40.000Z</time></trkpt>
        <trkpt lat="29.5628458" lon="103.3465619"><ele>1782.29</ele><time>2026-06-12T21:39:44.000Z</time></trkpt>
        <trkpt lat="29.5628063" lon="103.3465179"><ele>1781.39</ele><time>2026-06-12T21:39:50.000Z</time></trkpt>
        <trkpt lat="29.5627622" lon="103.3464989"><ele>1780.41</ele><time>2026-06-12T21:39:54.000Z</time></trkpt>
        <trkpt lat="29.5627166" lon="103.3464925"><ele>1779.72</ele><time>2026-06-12T21:39:58.000Z</time></trkpt>
        <trkpt lat="29.5626722" lon="103.3464741"><ele>1779.36</ele><time>2026-06-12T21:40:02.000Z</time></trkpt>
        <trkpt lat="29.5626221" lon="103.346436"><ele>1778.43</ele><time>2026-06-12T21:40:06.000Z</time></trkpt>
        <trkpt lat="29.5625789" lon="103.3463981"><ele>1777.26</ele><time>2026-06-12T21:40:10.000Z</time></trkpt>
        <trkpt lat="29.5625347" lon="103.3463663"><ele>1775.94</ele><time>2026-06-12T21:40:14.000Z</time></trkpt>
        <trkpt lat="29.5624888" lon="103.3463285"><ele>1774.72</ele><time>2026-06-12T21:40:18.000Z</time></trkpt>
        <trkpt lat="29.5624509" lon="103.3462896"><ele>1773.76</ele><time>2026-06-12T21:40:22.000Z</time></trkpt>
        <trkpt lat="29.5624123" lon="103.3462457"><ele>1772.66</ele><time>2026-06-12T21:40:26.000Z</time></trkpt>
        <trkpt lat="29.5623755" lon="103.3462001"><ele>1771.65</ele><time>2026-06-12T21:40:30.000Z</time></trkpt>
        <trkpt lat="29.5623417" lon="103.3461569"><ele>1770.94</ele><time>2026-06-12T21:40:34.000Z</time></trkpt>
        <trkpt lat="29.5623026" lon="103.3460997"><ele>1770.36</ele><time>2026-06-12T21:40:40.000Z</time></trkpt>
        <trkpt lat="29.5622675" lon="103.3460475"><ele>1770.29</ele><time>2026-06-12T21:40:44.000Z</time></trkpt>
        <trkpt lat="29.5622453" lon="103.3459904"><ele>1770.42</ele><time>2026-06-12T21:40:48.000Z</time></trkpt>
        <trkpt lat="29.5622289" lon="103.3459367"><ele>1770.72</ele><time>2026-06-12T21:40:52.000Z</time></trkpt>
        <trkpt lat="29.5622289" lon="103.3458895"><ele>1771.18</ele><time>2026-06-12T21:40:58.000Z</time></trkpt>
        <trkpt lat="29.5622053" lon="103.3458359"><ele>1771.15</ele><time>2026-06-12T21:41:02.000Z</time></trkpt>
        <trkpt lat="29.5621656" lon="103.3457822"><ele>1771.3</ele><time>2026-06-12T21:41:06.000Z</time></trkpt>
        <trkpt lat="29.5621119" lon="103.3457461"><ele>1771.82</ele><time>2026-06-12T21:41:12.000Z</time></trkpt>
        <trkpt lat="29.5620604" lon="103.345704"><ele>1772.41</ele><time>2026-06-12T21:41:18.000Z</time></trkpt>
        <trkpt lat="29.56203" lon="103.3456563"><ele>1772.32</ele><time>2026-06-12T21:41:22.000Z</time></trkpt>
        <trkpt lat="29.5619892" lon="103.345629"><ele>1771.71</ele><time>2026-06-12T21:41:26.000Z</time></trkpt>
        <trkpt lat="29.5619361" lon="103.3456143"><ele>1771.36</ele><time>2026-06-12T21:41:32.000Z</time></trkpt>
        <trkpt lat="29.5618763" lon="103.345612"><ele>1770.86</ele><time>2026-06-12T21:41:38.000Z</time></trkpt>
        <trkpt lat="29.561826" lon="103.3456243"><ele>1771.09</ele><time>2026-06-12T21:41:42.000Z</time></trkpt>
        <trkpt lat="29.5617624" lon="103.3456343"><ele>1771.57</ele><time>2026-06-12T21:41:48.000Z</time></trkpt>
        <trkpt lat="29.5617051" lon="103.3456382"><ele>1772.06</ele><time>2026-06-12T21:41:52.000Z</time></trkpt>
        <trkpt lat="29.5616582" lon="103.3456154"><ele>1772.81</ele><time>2026-06-12T21:41:55.000Z</time></trkpt>
        <trkpt lat="29.5616065" lon="103.3455866"><ele>1773.71</ele><time>2026-06-12T21:42:02.000Z</time></trkpt>
        <trkpt lat="29.5615962" lon="103.3455609"><ele>1774.52</ele><time>2026-06-12T21:42:14.000Z</time></trkpt>
        <trkpt lat="29.5615659" lon="103.3455273"><ele>1775.03</ele><time>2026-06-12T21:42:25.000Z</time></trkpt>
        <trkpt lat="29.5615211" lon="103.3454825"><ele>1775.45</ele><time>2026-06-12T21:42:32.000Z</time></trkpt>
        <trkpt lat="29.5614909" lon="103.3454292"><ele>1775.08</ele><time>2026-06-12T21:42:38.000Z</time></trkpt>
        <trkpt lat="29.5614792" lon="103.3453951"><ele>1774.19</ele><time>2026-06-12T21:42:50.000Z</time></trkpt>
        <trkpt lat="29.5614576" lon="103.3453439"><ele>1773.68</ele><time>2026-06-12T21:43:02.000Z</time></trkpt>
        <trkpt lat="29.5614275" lon="103.345301"><ele>1774.37</ele><time>2026-06-12T21:43:25.000Z</time></trkpt>
        <trkpt lat="29.5613978" lon="103.345253"><ele>1776.02</ele><time>2026-06-12T21:43:34.000Z</time></trkpt>
        <trkpt lat="29.561375" lon="103.3452055"><ele>1777.65</ele><time>2026-06-12T21:43:48.000Z</time></trkpt>
        <trkpt lat="29.5613399" lon="103.3451748"><ele>1779.86</ele><time>2026-06-12T21:44:02.000Z</time></trkpt>
        <trkpt lat="29.5613025" lon="103.3451978"><ele>1781.69</ele><time>2026-06-12T21:44:25.000Z</time></trkpt>
        <trkpt lat="29.5612785" lon="103.3451669"><ele>1783.33</ele><time>2026-06-12T21:44:42.000Z</time></trkpt>
        <trkpt lat="29.5612361" lon="103.3451606"><ele>1785.38</ele><time>2026-06-12T21:45:06.000Z</time></trkpt>
        <trkpt lat="29.5612315" lon="103.3451205"><ele>1788.49</ele><time>2026-06-12T21:45:16.000Z</time></trkpt>
        <trkpt lat="29.5612001" lon="103.3450986"><ele>1790.17</ele><time>2026-06-12T21:45:28.000Z</time></trkpt>
        <trkpt lat="29.5611698" lon="103.3450474"><ele>1791.21</ele><time>2026-06-12T21:46:06.000Z</time></trkpt>
        <trkpt lat="29.5611229" lon="103.3450414"><ele>1792.67</ele><time>2026-06-12T21:46:32.000Z</time></trkpt>
        <trkpt lat="29.5610828" lon="103.3450073"><ele>1794.71</ele><time>2026-06-12T21:46:52.000Z</time></trkpt>
        <trkpt lat="29.5610348" lon="103.3449949"><ele>1797.8</ele><time>2026-06-12T21:47:18.000Z</time></trkpt>
        <trkpt lat="29.5610043" lon="103.3450349"><ele>1800.81</ele><time>2026-06-12T21:47:40.000Z</time></trkpt>
        <trkpt lat="29.5609655" lon="103.345077"><ele>1804.08</ele><time>2026-06-12T21:47:58.000Z</time></trkpt>
        <trkpt lat="29.5609219" lon="103.3450802"><ele>1806.49</ele><time>2026-06-12T21:48:20.000Z</time></trkpt>
        <trkpt lat="29.5608853" lon="103.345046"><ele>1809.85</ele><time>2026-06-12T21:48:40.000Z</time></trkpt>
        <trkpt lat="29.5608742" lon="103.3449905"><ele>1814.22</ele><time>2026-06-12T21:49:04.000Z</time></trkpt>
        <trkpt lat="29.5608772" lon="103.3449324"><ele>1821.26</ele><time>2026-06-12T21:49:16.000Z</time></trkpt>
        <trkpt lat="29.5608474" lon="103.3449223"><ele>1826.23</ele><time>2026-06-12T21:49:40.000Z</time></trkpt>
        <trkpt lat="29.5608205" lon="103.3448899"><ele>1829.05</ele><time>2026-06-12T21:50:12.000Z</time></trkpt>
        <trkpt lat="29.5607792" lon="103.3448612"><ele>1830.49</ele><time>2026-06-12T21:50:22.000Z</time></trkpt>
        <trkpt lat="29.5607656" lon="103.3448092"><ele>1831.4</ele><time>2026-06-12T21:50:38.000Z</time></trkpt>
        <trkpt lat="29.5607681" lon="103.3447548"><ele>1834.02</ele><time>2026-06-12T21:50:52.000Z</time></trkpt>
        <trkpt lat="29.560753" lon="103.3447032"><ele>1837.58</ele><time>2026-06-12T21:51:07.000Z</time></trkpt>
        <trkpt lat="29.5607124" lon="103.3446874"><ele>1840.82</ele><time>2026-06-12T21:51:18.000Z</time></trkpt>
        <trkpt lat="29.5606879" lon="103.3447274"><ele>1843</ele><time>2026-06-12T21:51:42.000Z</time></trkpt>
        <trkpt lat="29.5606281" lon="103.3446795"><ele>1846.01</ele><time>2026-06-12T21:52:16.000Z</time></trkpt>
        <trkpt lat="29.5605754" lon="103.3446569"><ele>1848.67</ele><time>2026-06-12T21:52:22.000Z</time></trkpt>
        <trkpt lat="29.5605973" lon="103.3446462"><ele>1850.1</ele><time>2026-06-12T21:52:44.000Z</time></trkpt>
        <trkpt lat="29.5605632" lon="103.3446611"><ele>1852.86</ele><time>2026-06-12T21:53:04.000Z</time></trkpt>
        <trkpt lat="29.5605211" lon="103.3446523"><ele>1855.33</ele><time>2026-06-12T21:53:10.000Z</time></trkpt>
        <trkpt lat="29.5604747" lon="103.344643"><ele>1857.16</ele><time>2026-06-12T21:53:36.000Z</time></trkpt>
        <trkpt lat="29.5604878" lon="103.3445927"><ele>1862.26</ele><time>2026-06-12T21:54:14.000Z</time></trkpt>
        <trkpt lat="29.560457" lon="103.3445851"><ele>1864.64</ele><time>2026-06-12T21:54:32.000Z</time></trkpt>
        <trkpt lat="29.5604162" lon="103.344558"><ele>1865.05</ele><time>2026-06-12T21:54:44.000Z</time></trkpt>
        <trkpt lat="29.5603675" lon="103.3445352"><ele>1865.68</ele><time>2026-06-12T21:54:56.000Z</time></trkpt>
        <trkpt lat="29.5603171" lon="103.3445144"><ele>1867.79</ele><time>2026-06-12T21:55:06.000Z</time></trkpt>
        <trkpt lat="29.5602794" lon="103.3444756"><ele>1869.6</ele><time>2026-06-12T21:55:22.000Z</time></trkpt>
        <trkpt lat="29.5602621" lon="103.3444189"><ele>1871.8</ele><time>2026-06-12T21:55:36.000Z</time></trkpt>
        <trkpt lat="29.5602217" lon="103.3443816"><ele>1874.29</ele><time>2026-06-12T21:55:56.000Z</time></trkpt>
        <trkpt lat="29.5601892" lon="103.3443342"><ele>1876.62</ele><time>2026-06-12T21:56:16.000Z</time></trkpt>
        <trkpt lat="29.5601927" lon="103.3442814"><ele>1878.03</ele><time>2026-06-12T21:56:32.000Z</time></trkpt>
        <trkpt lat="29.5602279" lon="103.3442334"><ele>1879.78</ele><time>2026-06-12T21:56:46.000Z</time></trkpt>
        <trkpt lat="29.5602064" lon="103.3442114"><ele>1881.64</ele><time>2026-06-12T21:57:03.000Z</time></trkpt>
        <trkpt lat="29.5601626" lon="103.3442278"><ele>1885.24</ele><time>2026-06-12T21:57:10.000Z</time></trkpt>
        <trkpt lat="29.5601109" lon="103.3442304"><ele>1888.4</ele><time>2026-06-12T21:57:24.000Z</time></trkpt>
        <trkpt lat="29.5600673" lon="103.3442064"><ele>1891.84</ele><time>2026-06-12T21:57:34.000Z</time></trkpt>
        <trkpt lat="29.5600794" lon="103.3441706"><ele>1894.32</ele><time>2026-06-12T21:57:39.000Z</time></trkpt>
        <trkpt lat="29.5601161" lon="103.3441316"><ele>1895.47</ele><time>2026-06-12T21:57:48.000Z</time></trkpt>
        <trkpt lat="29.5601475" lon="103.3440788"><ele>1896.22</ele><time>2026-06-12T21:58:02.000Z</time></trkpt>
        <trkpt lat="29.5601292" lon="103.3440306"><ele>1897.84</ele><time>2026-06-12T21:58:28.000Z</time></trkpt>
        <trkpt lat="29.5600877" lon="103.3440041"><ele>1898.73</ele><time>2026-06-12T21:58:50.000Z</time></trkpt>
        <trkpt lat="29.5600961" lon="103.343967"><ele>1900.48</ele><time>2026-06-12T21:59:00.000Z</time></trkpt>
        <trkpt lat="29.5601364" lon="103.3439376"><ele>1901.91</ele><time>2026-06-12T21:59:34.000Z</time></trkpt>
        <trkpt lat="29.5601305" lon="103.3438986"><ele>1904.74</ele><time>2026-06-12T21:59:50.000Z</time></trkpt>
        <trkpt lat="29.5600914" lon="103.3438682"><ele>1907.18</ele><time>2026-06-12T22:00:44.000Z</time></trkpt>
        <trkpt lat="29.5600415" lon="103.3438575"><ele>1912</ele><time>2026-06-12T22:00:50.000Z</time></trkpt>
        <trkpt lat="29.5599987" lon="103.3438324"><ele>1915.31</ele><time>2026-06-12T22:01:04.000Z</time></trkpt>
        <trkpt lat="29.559968" lon="103.3437884"><ele>1918.71</ele><time>2026-06-12T22:01:20.000Z</time></trkpt>
        <trkpt lat="29.5599047" lon="103.3437412"><ele>1921.89</ele><time>2026-06-12T22:02:02.000Z</time></trkpt>
        <trkpt lat="29.5598467" lon="103.3436979"><ele>1925.42</ele><time>2026-06-12T22:02:22.000Z</time></trkpt>
        <trkpt lat="29.5598086" lon="103.3436466"><ele>1927.99</ele><time>2026-06-12T22:02:34.000Z</time></trkpt>
        <trkpt lat="29.5597782" lon="103.3435939"><ele>1929.46</ele><time>2026-06-12T22:02:48.000Z</time></trkpt>
        <trkpt lat="29.5597512" lon="103.3435449"><ele>1931.28</ele><time>2026-06-12T22:03:06.000Z</time></trkpt>
        <trkpt lat="29.559712" lon="103.3435102"><ele>1933.53</ele><time>2026-06-12T22:03:28.000Z</time></trkpt>
        <trkpt lat="29.5596803" lon="103.3435396"><ele>1933.77</ele><time>2026-06-12T22:04:00.000Z</time></trkpt>
        <trkpt lat="29.5596428" lon="103.3435766"><ele>1936.71</ele><time>2026-06-12T22:04:16.000Z</time></trkpt>
        <trkpt lat="29.559578" lon="103.3435548"><ele>1939.63</ele><time>2026-06-12T22:04:50.000Z</time></trkpt>
        <trkpt lat="29.5595209" lon="103.3435278"><ele>1943.75</ele><time>2026-06-12T22:05:08.000Z</time></trkpt>
        <trkpt lat="29.559495" lon="103.3435817"><ele>1946.91</ele><time>2026-06-12T22:06:26.000Z</time></trkpt>
        <trkpt lat="29.559455" lon="103.3436233"><ele>1952.11</ele><time>2026-06-12T22:06:36.000Z</time></trkpt>
        <trkpt lat="29.5594221" lon="103.3435987"><ele>1955.38</ele><time>2026-06-12T22:06:48.000Z</time></trkpt>
        <trkpt lat="29.5593904" lon="103.3436267"><ele>1957.79</ele><time>2026-06-12T22:07:02.000Z</time></trkpt>
        <trkpt lat="29.5593378" lon="103.3436219"><ele>1959.82</ele><time>2026-06-12T22:07:28.000Z</time></trkpt>
        <trkpt lat="29.5593378" lon="103.3436219"><ele>1959.82</ele><time>2026-06-12T22:07:44.000Z</time></trkpt>
        <trkpt lat="29.5592584" lon="103.3437027"><ele>1962.05</ele><time>2026-06-12T22:08:10.000Z</time></trkpt>
        <trkpt lat="29.5592584" lon="103.3437027"><ele>1962.05</ele><time>2026-06-12T22:08:22.000Z</time></trkpt>
        <trkpt lat="29.5592554" lon="103.3437458"><ele>1966.8</ele><time>2026-06-12T22:08:38.000Z</time></trkpt>
        <trkpt lat="29.5592692" lon="103.3438011"><ele>1969.25</ele><time>2026-06-12T22:08:48.000Z</time></trkpt>
        <trkpt lat="29.559242" lon="103.3438237"><ele>1971.08</ele><time>2026-06-12T22:09:06.000Z</time></trkpt>
        <trkpt lat="29.5591914" lon="103.3438106"><ele>1973.93</ele><time>2026-06-12T22:09:42.000Z</time></trkpt>
        <trkpt lat="29.5591623" lon="103.3437555"><ele>1976.32</ele><time>2026-06-12T22:10:28.000Z</time></trkpt>
        <trkpt lat="29.5591354" lon="103.3437002"><ele>1978.34</ele><time>2026-06-12T22:10:52.000Z</time></trkpt>
        <trkpt lat="29.5590953" lon="103.3436973"><ele>1981.72</ele><time>2026-06-12T22:11:06.000Z</time></trkpt>
        <trkpt lat="29.559054" lon="103.3436767"><ele>1984.21</ele><time>2026-06-12T22:11:18.000Z</time></trkpt>
        <trkpt lat="29.5590292" lon="103.3437241"><ele>1986.96</ele><time>2026-06-12T22:12:02.000Z</time></trkpt>
        <trkpt lat="29.5589906" lon="103.3437501"><ele>1991.02</ele><time>2026-06-12T22:12:10.000Z</time></trkpt>
        <trkpt lat="29.5589427" lon="103.3437583"><ele>1993.94</ele><time>2026-06-12T22:12:42.000Z</time></trkpt>
        <trkpt lat="29.5589167" lon="103.3438005"><ele>1995.73</ele><time>2026-06-12T22:12:58.000Z</time></trkpt>
        <trkpt lat="29.5588982" lon="103.3438557"><ele>1997.52</ele><time>2026-06-12T22:13:02.000Z</time></trkpt>
        <trkpt lat="29.5588979" lon="103.3439115"><ele>1998.54</ele><time>2026-06-12T22:13:06.000Z</time></trkpt>
        <trkpt lat="29.5589135" lon="103.343976"><ele>1999.04</ele><time>2026-06-12T22:13:10.000Z</time></trkpt>
        <trkpt lat="29.5589509" lon="103.3440479"><ele>1999.37</ele><time>2026-06-12T22:13:16.000Z</time></trkpt>
        <trkpt lat="29.5589771" lon="103.3441153"><ele>1999.77</ele><time>2026-06-12T22:13:20.000Z</time></trkpt>
        <trkpt lat="29.5589546" lon="103.3441538"><ele>2000.43</ele><time>2026-06-12T22:13:30.000Z</time></trkpt>
        <trkpt lat="29.5589251" lon="103.3441227"><ele>2002.44</ele><time>2026-06-12T22:13:36.000Z</time></trkpt>
        <trkpt lat="29.5589405" lon="103.344139"><ele>2004.53</ele><time>2026-06-12T22:13:58.000Z</time></trkpt>
        <trkpt lat="29.5589214" lon="103.3441785"><ele>2008.09</ele><time>2026-06-12T22:14:14.000Z</time></trkpt>
        <trkpt lat="29.5589131" lon="103.3442338"><ele>2011.4</ele><time>2026-06-12T22:14:26.000Z</time></trkpt>
        <trkpt lat="29.5589124" lon="103.344291"><ele>2013.68</ele><time>2026-06-12T22:14:38.000Z</time></trkpt>
        <trkpt lat="29.5588944" lon="103.3443422"><ele>2015.24</ele><time>2026-06-12T22:14:52.000Z</time></trkpt>
        <trkpt lat="29.5588846" lon="103.3443153"><ele>2017.2</ele><time>2026-06-12T22:15:10.000Z</time></trkpt>
        <trkpt lat="29.5588485" lon="103.3442797"><ele>2019.22</ele><time>2026-06-12T22:16:00.000Z</time></trkpt>
        <trkpt lat="29.558809" lon="103.344235"><ele>2020.63</ele><time>2026-06-12T22:16:12.000Z</time></trkpt>
        <trkpt lat="29.5587608" lon="103.344236"><ele>2021.35</ele><time>2026-06-12T22:16:24.000Z</time></trkpt>
        <trkpt lat="29.558713" lon="103.3442207"><ele>2021.59</ele><time>2026-06-12T22:16:36.000Z</time></trkpt>
        <trkpt lat="29.558645" lon="103.3442254"><ele>2022.24</ele><time>2026-06-12T22:16:40.000Z</time></trkpt>
        <trkpt lat="29.5586126" lon="103.3441874"><ele>2023.51</ele><time>2026-06-12T22:16:52.000Z</time></trkpt>
        <trkpt lat="29.5585708" lon="103.3441692"><ele>2026.91</ele><time>2026-06-12T22:17:24.000Z</time></trkpt>
        <trkpt lat="29.5585282" lon="103.3441437"><ele>2030.39</ele><time>2026-06-12T22:17:40.000Z</time></trkpt>
        <trkpt lat="29.5584813" lon="103.3441216"><ele>2033.58</ele><time>2026-06-12T22:18:12.000Z</time></trkpt>
        <trkpt lat="29.5584304" lon="103.3441111"><ele>2035.09</ele><time>2026-06-12T22:18:20.000Z</time></trkpt>
        <trkpt lat="29.5583782" lon="103.3441024"><ele>2036.08</ele><time>2026-06-12T22:18:26.000Z</time></trkpt>
        <trkpt lat="29.5583133" lon="103.3441224"><ele>2036.48</ele><time>2026-06-12T22:18:41.000Z</time></trkpt>
        <trkpt lat="29.558333" lon="103.3441563"><ele>2037.22</ele><time>2026-06-12T22:18:55.000Z</time></trkpt>
        <trkpt lat="29.5583105" lon="103.3441646"><ele>2038.24</ele><time>2026-06-12T22:18:57.000Z</time></trkpt>
        <trkpt lat="29.5583105" lon="103.3441646"><ele>2038.24</ele><time>2026-06-12T22:19:08.000Z</time></trkpt>
        <trkpt lat="29.5576921" lon="103.3439434"><ele>2038.91</ele><time>2026-06-12T22:19:50.000Z</time></trkpt>
        <trkpt lat="29.5576921" lon="103.3439434"><ele>2038.91</ele><time>2026-06-12T22:19:54.000Z</time></trkpt>
        <trkpt lat="29.5575859" lon="103.3438799"><ele>2046.82</ele><time>2026-06-12T22:20:03.000Z</time></trkpt>
        <trkpt lat="29.557552" lon="103.3438153"><ele>2050.47</ele><time>2026-06-12T22:20:13.000Z</time></trkpt>
        <trkpt lat="29.557538" lon="103.3437365"><ele>2050.27</ele><time>2026-06-12T22:20:19.000Z</time></trkpt>
        <trkpt lat="29.5575477" lon="103.3436752"><ele>2049.72</ele><time>2026-06-12T22:20:23.000Z</time></trkpt>
        <trkpt lat="29.5575173" lon="103.3436585"><ele>2049.71</ele><time>2026-06-12T22:20:34.000Z</time></trkpt>
        <trkpt lat="29.5575132" lon="103.3436063"><ele>2048.16</ele><time>2026-06-12T22:20:41.000Z</time></trkpt>
        <trkpt lat="29.5574726" lon="103.3435986"><ele>2046.89</ele><time>2026-06-12T22:20:53.000Z</time></trkpt>
        <trkpt lat="29.5574198" lon="103.3436376"><ele>2044.35</ele><time>2026-06-12T22:20:59.000Z</time></trkpt>
        <trkpt lat="29.557395" lon="103.3436564"><ele>2043.17</ele><time>2026-06-12T22:21:11.000Z</time></trkpt>
        <trkpt lat="29.557353" lon="103.3436667"><ele>2042.8</ele><time>2026-06-12T22:21:17.000Z</time></trkpt>
        <trkpt lat="29.5573065" lon="103.343668"><ele>2042.28</ele><time>2026-06-12T22:21:41.000Z</time></trkpt>
        <trkpt lat="29.5572625" lon="103.3436497"><ele>2041</ele><time>2026-06-12T22:21:55.000Z</time></trkpt>
        <trkpt lat="29.5572162" lon="103.3436386"><ele>2040.44</ele><time>2026-06-12T22:22:15.000Z</time></trkpt>
        <trkpt lat="29.5571692" lon="103.3436314"><ele>2041.28</ele><time>2026-06-12T22:22:29.000Z</time></trkpt>
        <trkpt lat="29.5571692" lon="103.3436314"><ele>2041.28</ele><time>2026-06-12T22:23:14.000Z</time></trkpt>
        <trkpt lat="29.5571692" lon="103.3436314"><ele>2041.28</ele><time>2026-06-12T22:23:22.000Z</time></trkpt>
        <trkpt lat="29.5571692" lon="103.3436314"><ele>2041.28</ele><time>2026-06-12T22:23:54.000Z</time></trkpt>
        <trkpt lat="29.5569734" lon="103.3437345"><ele>2042.88</ele><time>2026-06-12T22:24:20.000Z</time></trkpt>
        <trkpt lat="29.5569734" lon="103.3437345"><ele>2042.88</ele><time>2026-06-12T22:24:23.000Z</time></trkpt>
        <trkpt lat="29.5569312" lon="103.3437662"><ele>2049.6</ele><time>2026-06-12T22:24:33.000Z</time></trkpt>
        <trkpt lat="29.5568894" lon="103.3437768"><ele>2054.2</ele><time>2026-06-12T22:24:45.000Z</time></trkpt>
        <trkpt lat="29.5568441" lon="103.3437682"><ele>2057.3</ele><time>2026-06-12T22:24:55.000Z</time></trkpt>
        <trkpt lat="29.5567993" lon="103.3437426"><ele>2059.71</ele><time>2026-06-12T22:25:09.000Z</time></trkpt>
        <trkpt lat="29.5567496" lon="103.3437374"><ele>2061.98</ele><time>2026-06-12T22:25:23.000Z</time></trkpt>
        <trkpt lat="29.5567017" lon="103.3437527"><ele>2064.36</ele><time>2026-06-12T22:26:03.000Z</time></trkpt>
        <trkpt lat="29.5566623" lon="103.3437954"><ele>2067.21</ele><time>2026-06-12T22:26:19.000Z</time></trkpt>
        <trkpt lat="29.5566623" lon="103.3437954"><ele>2067.21</ele><time>2026-06-12T22:26:58.000Z</time></trkpt>
        <trkpt lat="29.5566051" lon="103.3439536"><ele>2069.27</ele><time>2026-06-12T22:27:02.000Z</time></trkpt>
        <trkpt lat="29.5566051" lon="103.3439536"><ele>2069.27</ele><time>2026-06-12T22:27:21.000Z</time></trkpt>
        <trkpt lat="29.5565843" lon="103.344005"><ele>2074.32</ele><time>2026-06-12T22:27:35.000Z</time></trkpt>
        <trkpt lat="29.5565749" lon="103.3440829"><ele>2078.22</ele><time>2026-06-12T22:28:05.000Z</time></trkpt>
        <trkpt lat="29.5565368" lon="103.3441311"><ele>2082.17</ele><time>2026-06-12T22:28:19.000Z</time></trkpt>
        <trkpt lat="29.5564986" lon="103.344166"><ele>2085.45</ele><time>2026-06-12T22:28:31.000Z</time></trkpt>
        <trkpt lat="29.5564728" lon="103.3442083"><ele>2088.18</ele><time>2026-06-12T22:28:43.000Z</time></trkpt>
        <trkpt lat="29.5564497" lon="103.344252"><ele>2091.03</ele><time>2026-06-12T22:28:55.000Z</time></trkpt>
        <trkpt lat="29.5564208" lon="103.3442928"><ele>2093.98</ele><time>2026-06-12T22:29:03.000Z</time></trkpt>
        <trkpt lat="29.5563833" lon="103.3442825"><ele>2096.79</ele><time>2026-06-12T22:29:11.000Z</time></trkpt>
        <trkpt lat="29.5563377" lon="103.34427"><ele>2099.85</ele><time>2026-06-12T22:29:25.000Z</time></trkpt>
        <trkpt lat="29.5563261" lon="103.3443022"><ele>2102.02</ele><time>2026-06-12T22:29:37.000Z</time></trkpt>
        <trkpt lat="29.5563038" lon="103.3443461"><ele>2103.73</ele><time>2026-06-12T22:29:49.000Z</time></trkpt>
        <trkpt lat="29.5562711" lon="103.3443877"><ele>2104.71</ele><time>2026-06-12T22:30:05.000Z</time></trkpt>
        <trkpt lat="29.5562307" lon="103.3444245"><ele>2105.91</ele><time>2026-06-12T22:30:13.000Z</time></trkpt>
        <trkpt lat="29.5562005" lon="103.3444701"><ele>2106.94</ele><time>2026-06-12T22:30:23.000Z</time></trkpt>
        <trkpt lat="29.5561758" lon="103.3445164"><ele>2108.51</ele><time>2026-06-12T22:30:37.000Z</time></trkpt>
        <trkpt lat="29.5561758" lon="103.3445164"><ele>2108.51</ele><time>2026-06-12T22:31:08.000Z</time></trkpt>
        <trkpt lat="29.5561758" lon="103.3445164"><ele>2108.51</ele><time>2026-06-12T22:32:38.000Z</time></trkpt>
        <trkpt lat="29.5561758" lon="103.3445164"><ele>2108.51</ele><time>2026-06-12T22:33:12.000Z</time></trkpt>
        <trkpt lat="29.5561165" lon="103.3444304"><ele>2109.97</ele><time>2026-06-12T22:34:56.000Z</time></trkpt>
        <trkpt lat="29.5561165" lon="103.3444304"><ele>2109.97</ele><time>2026-06-12T22:34:59.000Z</time></trkpt>
        <trkpt lat="29.5561165" lon="103.3444304"><ele>2109.97</ele><time>2026-06-12T22:35:46.000Z</time></trkpt>
        <trkpt lat="29.5561217" lon="103.344495"><ele>2110.54</ele><time>2026-06-12T22:36:50.000Z</time></trkpt>
        <trkpt lat="29.5561217" lon="103.344495"><ele>2110.54</ele><time>2026-06-12T22:36:55.000Z</time></trkpt>
        <trkpt lat="29.5560967" lon="103.344545"><ele>2109.62</ele><time>2026-06-12T22:37:05.000Z</time></trkpt>
        <trkpt lat="29.5560632" lon="103.3445879"><ele>2108.75</ele><time>2026-06-12T22:37:11.000Z</time></trkpt>
        <trkpt lat="29.5560257" lon="103.3446322"><ele>2108.86</ele><time>2026-06-12T22:37:23.000Z</time></trkpt>
        <trkpt lat="29.5560194" lon="103.3446819"><ele>2110.04</ele><time>2026-06-12T22:37:39.000Z</time></trkpt>
        <trkpt lat="29.5560234" lon="103.3447398"><ele>2112.26</ele><time>2026-06-12T22:37:53.000Z</time></trkpt>
        <trkpt lat="29.555991" lon="103.3447617"><ele>2114.9</ele><time>2026-06-12T22:38:03.000Z</time></trkpt>
        <trkpt lat="29.5559477" lon="103.3447937"><ele>2117.09</ele><time>2026-06-12T22:38:23.000Z</time></trkpt>
        <trkpt lat="29.5559305" lon="103.344841"><ele>2119.51</ele><time>2026-06-12T22:38:33.000Z</time></trkpt>
        <trkpt lat="29.5559127" lon="103.3448905"><ele>2121.44</ele><time>2026-06-12T22:38:49.000Z</time></trkpt>
        <trkpt lat="29.5558954" lon="103.3449401"><ele>2123.44</ele><time>2026-06-12T22:38:59.000Z</time></trkpt>
        <trkpt lat="29.5558577" lon="103.3449856"><ele>2124.54</ele><time>2026-06-12T22:39:15.000Z</time></trkpt>
        <trkpt lat="29.5558099" lon="103.3450017"><ele>2125.3</ele><time>2026-06-12T22:39:25.000Z</time></trkpt>
        <trkpt lat="29.5557569" lon="103.3450134"><ele>2125.04</ele><time>2026-06-12T22:39:37.000Z</time></trkpt>
        <trkpt lat="29.5557043" lon="103.3450027"><ele>2125.2</ele><time>2026-06-12T22:39:53.000Z</time></trkpt>
        <trkpt lat="29.5557043" lon="103.3450027"><ele>2125.2</ele><time>2026-06-12T22:40:00.000Z</time></trkpt>
        <trkpt lat="29.5556002" lon="103.3449502"><ele>2125.71</ele><time>2026-06-12T22:40:32.000Z</time></trkpt>
        <trkpt lat="29.5556002" lon="103.3449502"><ele>2125.71</ele><time>2026-06-12T22:40:39.000Z</time></trkpt>
        <trkpt lat="29.5555657" lon="103.3449806"><ele>2132.55</ele><time>2026-06-12T22:40:57.000Z</time></trkpt>
        <trkpt lat="29.5555531" lon="103.3450321"><ele>2137.95</ele><time>2026-06-12T22:41:13.000Z</time></trkpt>
        <trkpt lat="29.5555348" lon="103.3450833"><ele>2141.41</ele><time>2026-06-12T22:41:33.000Z</time></trkpt>
        <trkpt lat="29.5555072" lon="103.3451309"><ele>2144.55</ele><time>2026-06-12T22:41:53.000Z</time></trkpt>
        <trkpt lat="29.5554645" lon="103.3451561"><ele>2148.05</ele><time>2026-06-12T22:42:03.000Z</time></trkpt>
        <trkpt lat="29.5554191" lon="103.3451452"><ele>2150.91</ele><time>2026-06-12T22:42:17.000Z</time></trkpt>
        <trkpt lat="29.5553914" lon="103.3450946"><ele>2153.53</ele><time>2026-06-12T22:42:27.000Z</time></trkpt>
        <trkpt lat="29.5553745" lon="103.3450332"><ele>2155.75</ele><time>2026-06-12T22:42:33.000Z</time></trkpt>
        <trkpt lat="29.5553296" lon="103.3450077"><ele>2157.32</ele><time>2026-06-12T22:42:43.000Z</time></trkpt>
        <trkpt lat="29.555285" lon="103.3450203"><ele>2158.47</ele><time>2026-06-12T22:42:51.000Z</time></trkpt>
        <trkpt lat="29.5552714" lon="103.3450674"><ele>2159.35</ele><time>2026-06-12T22:43:01.000Z</time></trkpt>
        <trkpt lat="29.555226" lon="103.345106"><ele>2160.7</ele><time>2026-06-12T22:43:07.000Z</time></trkpt>
        <trkpt lat="29.5551788" lon="103.3451269"><ele>2162.08</ele><time>2026-06-12T22:43:11.000Z</time></trkpt>
        <trkpt lat="29.5551332" lon="103.3451477"><ele>2163.16</ele><time>2026-06-12T22:43:19.000Z</time></trkpt>
        <trkpt lat="29.555095" lon="103.3451826"><ele>2164.3</ele><time>2026-06-12T22:43:43.000Z</time></trkpt>
        <trkpt lat="29.5550398" lon="103.3451927"><ele>2165.12</ele><time>2026-06-12T22:43:49.000Z</time></trkpt>
        <trkpt lat="29.5549905" lon="103.3451918"><ele>2165.54</ele><time>2026-06-12T22:43:59.000Z</time></trkpt>
        <trkpt lat="29.5549481" lon="103.3452143"><ele>2165.95</ele><time>2026-06-12T22:44:09.000Z</time></trkpt>
        <trkpt lat="29.5549031" lon="103.3452388"><ele>2166.83</ele><time>2026-06-12T22:44:17.000Z</time></trkpt>
        <trkpt lat="29.554862" lon="103.3452672"><ele>2168.54</ele><time>2026-06-12T22:44:33.000Z</time></trkpt>
        <trkpt lat="29.5548259" lon="103.3453053"><ele>2170.89</ele><time>2026-06-12T22:44:47.000Z</time></trkpt>
        <trkpt lat="29.5547715" lon="103.3453465"><ele>2173.3</ele><time>2026-06-12T22:45:27.000Z</time></trkpt>
        <trkpt lat="29.5547061" lon="103.3453705"><ele>2175.88</ele><time>2026-06-12T22:45:49.000Z</time></trkpt>
        <trkpt lat="29.5547061" lon="103.3453705"><ele>2175.88</ele><time>2026-06-12T22:46:04.000Z</time></trkpt>
        <trkpt lat="29.5544247" lon="103.3454072"><ele>2177.78</ele><time>2026-06-12T22:47:34.000Z</time></trkpt>
        <trkpt lat="29.5544247" lon="103.3454072"><ele>2177.78</ele><time>2026-06-12T22:47:39.000Z</time></trkpt>
        <trkpt lat="29.5543784" lon="103.3454204"><ele>2185.79</ele><time>2026-06-12T22:47:53.000Z</time></trkpt>
        <trkpt lat="29.5543331" lon="103.345434"><ele>2191.9</ele><time>2026-06-12T22:48:05.000Z</time></trkpt>
        <trkpt lat="29.5543331" lon="103.345434"><ele>2191.9</ele><time>2026-06-12T22:48:06.000Z</time></trkpt>
        <trkpt lat="29.5538626" lon="103.3453639"><ele>2195.69</ele><time>2026-06-12T22:49:46.000Z</time></trkpt>
        <trkpt lat="29.5538626" lon="103.3453639"><ele>2195.69</ele><time>2026-06-12T22:49:55.000Z</time></trkpt>
        <trkpt lat="29.553818" lon="103.3453342"><ele>2208.55</ele><time>2026-06-12T22:50:01.000Z</time></trkpt>
        <trkpt lat="29.5537657" lon="103.3453308"><ele>2216.58</ele><time>2026-06-12T22:50:09.000Z</time></trkpt>
        <trkpt lat="29.5537181" lon="103.3453395"><ele>2222.31</ele><time>2026-06-12T22:50:17.000Z</time></trkpt>
        <trkpt lat="29.55367" lon="103.345331"><ele>2226.82</ele><time>2026-06-12T22:50:35.000Z</time></trkpt>
        <trkpt lat="29.553608" lon="103.3453398"><ele>2230.3</ele><time>2026-06-12T22:50:41.000Z</time></trkpt>
        <trkpt lat="29.5535596" lon="103.34532"><ele>2232.41</ele><time>2026-06-12T22:50:49.000Z</time></trkpt>
        <trkpt lat="29.5535145" lon="103.3453178"><ele>2233.95</ele><time>2026-06-12T22:50:55.000Z</time></trkpt>
        <trkpt lat="29.5534677" lon="103.3453242"><ele>2234.92</ele><time>2026-06-12T22:51:01.000Z</time></trkpt>
        <trkpt lat="29.5534175" lon="103.3453523"><ele>2235.9</ele><time>2026-06-12T22:51:13.000Z</time></trkpt>
        <trkpt lat="29.5533659" lon="103.3453839"><ele>2237.19</ele><time>2026-06-12T22:51:23.000Z</time></trkpt>
        <trkpt lat="29.5533164" lon="103.3453864"><ele>2238.18</ele><time>2026-06-12T22:51:35.000Z</time></trkpt>
        <trkpt lat="29.5532654" lon="103.3453785"><ele>2239.7</ele><time>2026-06-12T22:51:49.000Z</time></trkpt>
        <trkpt lat="29.5531912" lon="103.3453779"><ele>2241.98</ele><time>2026-06-12T22:51:55.000Z</time></trkpt>
        <trkpt lat="29.5531287" lon="103.3453748"><ele>2243.28</ele><time>2026-06-12T22:51:59.000Z</time></trkpt>
        <trkpt lat="29.5530779" lon="103.3453798"><ele>2244.06</ele><time>2026-06-12T22:52:03.000Z</time></trkpt>
        <trkpt lat="29.5530291" lon="103.3453992"><ele>2244.55</ele><time>2026-06-12T22:52:09.000Z</time></trkpt>
        <trkpt lat="29.5529853" lon="103.3454199"><ele>2244.74</ele><time>2026-06-12T22:52:13.000Z</time></trkpt>
        <trkpt lat="29.5529391" lon="103.3454312"><ele>2244.94</ele><time>2026-06-12T22:52:17.000Z</time></trkpt>
        <trkpt lat="29.5528791" lon="103.3454386"><ele>2245.35</ele><time>2026-06-12T22:52:21.000Z</time></trkpt>
        <trkpt lat="29.5528239" lon="103.3454298"><ele>2245.85</ele><time>2026-06-12T22:52:25.000Z</time></trkpt>
        <trkpt lat="29.5527649" lon="103.3454215"><ele>2246.73</ele><time>2026-06-12T22:52:31.000Z</time></trkpt>
        <trkpt lat="29.5526983" lon="103.3454259"><ele>2247.66</ele><time>2026-06-12T22:52:35.000Z</time></trkpt>
        <trkpt lat="29.5526355" lon="103.3454291"><ele>2248.41</ele><time>2026-06-12T22:52:41.000Z</time></trkpt>
        <trkpt lat="29.5525759" lon="103.3454327"><ele>2249.31</ele><time>2026-06-12T22:52:47.000Z</time></trkpt>
        <trkpt lat="29.5525275" lon="103.3454338"><ele>2249.65</ele><time>2026-06-12T22:52:55.000Z</time></trkpt>
        <trkpt lat="29.5524806" lon="103.3454252"><ele>2249.5</ele><time>2026-06-12T22:53:01.000Z</time></trkpt>
        <trkpt lat="29.5524574" lon="103.345383"><ele>2248.55</ele><time>2026-06-12T22:53:05.000Z</time></trkpt>
        <trkpt lat="29.5524486" lon="103.3453166"><ele>2247.71</ele><time>2026-06-12T22:53:09.000Z</time></trkpt>
        <trkpt lat="29.5524549" lon="103.3452485"><ele>2246.76</ele><time>2026-06-12T22:53:17.000Z</time></trkpt>
        <trkpt lat="29.5524149" lon="103.3452173"><ele>2245.75</ele><time>2026-06-12T22:53:23.000Z</time></trkpt>
        <trkpt lat="29.5523577" lon="103.3452097"><ele>2244.74</ele><time>2026-06-12T22:53:29.000Z</time></trkpt>
        <trkpt lat="29.5523082" lon="103.3451833"><ele>2244.51</ele><time>2026-06-12T22:53:33.000Z</time></trkpt>
        <trkpt lat="29.5522597" lon="103.3451554"><ele>2244.29</ele><time>2026-06-12T22:53:37.000Z</time></trkpt>
        <trkpt lat="29.5522034" lon="103.3451308"><ele>2243.82</ele><time>2026-06-12T22:53:41.000Z</time></trkpt>
        <trkpt lat="29.5521368" lon="103.34511"><ele>2243.6</ele><time>2026-06-12T22:53:45.000Z</time></trkpt>
        <trkpt lat="29.5520821" lon="103.3450565"><ele>2243.81</ele><time>2026-06-12T22:53:51.000Z</time></trkpt>
        <trkpt lat="29.5520301" lon="103.345006"><ele>2244.41</ele><time>2026-06-12T22:53:57.000Z</time></trkpt>
        <trkpt lat="29.5520102" lon="103.3449355"><ele>2244.32</ele><time>2026-06-12T22:54:03.000Z</time></trkpt>
        <trkpt lat="29.5520143" lon="103.344866"><ele>2243.67</ele><time>2026-06-12T22:54:09.000Z</time></trkpt>
        <trkpt lat="29.5520053" lon="103.3448122"><ele>2243.16</ele><time>2026-06-12T22:54:13.000Z</time></trkpt>
        <trkpt lat="29.551969" lon="103.3447622"><ele>2242.58</ele><time>2026-06-12T22:54:19.000Z</time></trkpt>
        <trkpt lat="29.5519249" lon="103.3447107"><ele>2241.68</ele><time>2026-06-12T22:54:25.000Z</time></trkpt>
        <trkpt lat="29.5518865" lon="103.3446619"><ele>2240.44</ele><time>2026-06-12T22:54:29.000Z</time></trkpt>
        <trkpt lat="29.5518439" lon="103.3446165"><ele>2239.52</ele><time>2026-06-12T22:54:33.000Z</time></trkpt>
        <trkpt lat="29.55181" lon="103.3445695"><ele>2238.78</ele><time>2026-06-12T22:54:37.000Z</time></trkpt>
        <trkpt lat="29.5517871" lon="103.3445179"><ele>2238.01</ele><time>2026-06-12T22:54:41.000Z</time></trkpt>
        <trkpt lat="29.5517567" lon="103.3444696"><ele>2237.06</ele><time>2026-06-12T22:54:49.000Z</time></trkpt>
        <trkpt lat="29.5517178" lon="103.3444302"><ele>2235.87</ele><time>2026-06-12T22:54:55.000Z</time></trkpt>
        <trkpt lat="29.5516834" lon="103.3443676"><ele>2234.9</ele><time>2026-06-12T22:55:00.000Z</time></trkpt>
        <trkpt lat="29.5516548" lon="103.3443099"><ele>2234.64</ele><time>2026-06-12T22:55:07.000Z</time></trkpt>
        <trkpt lat="29.5516057" lon="103.3442775"><ele>2234.28</ele><time>2026-06-12T22:55:13.000Z</time></trkpt>
        <trkpt lat="29.5515502" lon="103.344247"><ele>2234.37</ele><time>2026-06-12T22:55:21.000Z</time></trkpt>
        <trkpt lat="29.5515007" lon="103.3442198"><ele>2234.9</ele><time>2026-06-12T22:55:25.000Z</time></trkpt>
        <trkpt lat="29.5514556" lon="103.3441905"><ele>2235.37</ele><time>2026-06-12T22:55:29.000Z</time></trkpt>
        <trkpt lat="29.551431" lon="103.3441811"><ele>2235.13</ele><time>2026-06-12T22:55:31.000Z</time></trkpt>
        <trkpt lat="29.5513774" lon="103.3441801"><ele>2234.9</ele><time>2026-06-12T22:55:37.000Z</time></trkpt>
        <trkpt lat="29.551327" lon="103.3441709"><ele>2234.81</ele><time>2026-06-12T22:55:41.000Z</time></trkpt>
        <trkpt lat="29.5512724" lon="103.3441701"><ele>2234.94</ele><time>2026-06-12T22:55:45.000Z</time></trkpt>
        <trkpt lat="29.5512129" lon="103.3441811"><ele>2235.44</ele><time>2026-06-12T22:55:49.000Z</time></trkpt>
        <trkpt lat="29.5511595" lon="103.3441783"><ele>2235.89</ele><time>2026-06-12T22:55:55.000Z</time></trkpt>
        <trkpt lat="29.5511101" lon="103.3441682"><ele>2236.46</ele><time>2026-06-12T22:56:01.000Z</time></trkpt>
        <trkpt lat="29.551047" lon="103.3441496"><ele>2236.73</ele><time>2026-06-12T22:56:07.000Z</time></trkpt>
        <trkpt lat="29.5509862" lon="103.3441283"><ele>2236.25</ele><time>2026-06-12T22:56:11.000Z</time></trkpt>
        <trkpt lat="29.5509306" lon="103.3441206"><ele>2235.62</ele><time>2026-06-12T22:56:15.000Z</time></trkpt>
        <trkpt lat="29.5508733" lon="103.3441247"><ele>2235.01</ele><time>2026-06-12T22:56:21.000Z</time></trkpt>
        <trkpt lat="29.5508178" lon="103.3441275"><ele>2234.71</ele><time>2026-06-12T22:56:25.000Z</time></trkpt>
        <trkpt lat="29.5507666" lon="103.3440991"><ele>2234.79</ele><time>2026-06-12T22:56:29.000Z</time></trkpt>
        <trkpt lat="29.5507607" lon="103.3440237"><ele>2234.75</ele><time>2026-06-12T22:56:33.000Z</time></trkpt>
        <trkpt lat="29.5507336" lon="103.3439614"><ele>2234.6</ele><time>2026-06-12T22:56:41.000Z</time></trkpt>
        <trkpt lat="29.5506948" lon="103.3439612"><ele>2235.42</ele><time>2026-06-12T22:56:45.000Z</time></trkpt>
        <trkpt lat="29.5506477" lon="103.3439635"><ele>2236.79</ele><time>2026-06-12T22:56:51.000Z</time></trkpt>
        <trkpt lat="29.5506082" lon="103.3439186"><ele>2238.86</ele><time>2026-06-12T22:56:55.000Z</time></trkpt>
        <trkpt lat="29.5505646" lon="103.3438375"><ele>2240.6</ele><time>2026-06-12T22:56:59.000Z</time></trkpt>
        <trkpt lat="29.5505207" lon="103.3437535"><ele>2241.93</ele><time>2026-06-12T22:57:03.000Z</time></trkpt>
        <trkpt lat="29.5504745" lon="103.3436953"><ele>2243.17</ele><time>2026-06-12T22:57:11.000Z</time></trkpt>
        <trkpt lat="29.5504238" lon="103.3436531"><ele>2244.73</ele><time>2026-06-12T22:57:17.000Z</time></trkpt>
        <trkpt lat="29.5503891" lon="103.3436074"><ele>2246.35</ele><time>2026-06-12T22:57:21.000Z</time></trkpt>
        <trkpt lat="29.5503507" lon="103.3435582"><ele>2247.75</ele><time>2026-06-12T22:57:25.000Z</time></trkpt>
        <trkpt lat="29.5503152" lon="103.3435022"><ele>2248.89</ele><time>2026-06-12T22:57:29.000Z</time></trkpt>
        <trkpt lat="29.5503006" lon="103.3434386"><ele>2249.32</ele><time>2026-06-12T22:57:33.000Z</time></trkpt>
        <trkpt lat="29.5502747" lon="103.3433715"><ele>2249.23</ele><time>2026-06-12T22:57:39.000Z</time></trkpt>
        <trkpt lat="29.5502483" lon="103.3433011"><ele>2248.74</ele><time>2026-06-12T22:57:43.000Z</time></trkpt>
        <trkpt lat="29.5502092" lon="103.3432525"><ele>2248.47</ele><time>2026-06-12T22:57:47.000Z</time></trkpt>
        <trkpt lat="29.5501692" lon="103.3432187"><ele>2248.14</ele><time>2026-06-12T22:57:51.000Z</time></trkpt>
        <trkpt lat="29.5501158" lon="103.3431806"><ele>2247.78</ele><time>2026-06-12T22:57:57.000Z</time></trkpt>
        <trkpt lat="29.5500616" lon="103.3431458"><ele>2246.84</ele><time>2026-06-12T22:58:03.000Z</time></trkpt>
        <trkpt lat="29.5500195" lon="103.3431105"><ele>2246.18</ele><time>2026-06-12T22:58:07.000Z</time></trkpt>
        <trkpt lat="29.5499784" lon="103.3430746"><ele>2245.37</ele><time>2026-06-12T22:58:11.000Z</time></trkpt>
        <trkpt lat="29.5499563" lon="103.3430094"><ele>2244.57</ele><time>2026-06-12T22:58:15.000Z</time></trkpt>
        <trkpt lat="29.549927" lon="103.3429498"><ele>2244.15</ele><time>2026-06-12T22:58:19.000Z</time></trkpt>
        <trkpt lat="29.5498951" lon="103.3428863"><ele>2243.96</ele><time>2026-06-12T22:58:25.000Z</time></trkpt>
        <trkpt lat="29.5498684" lon="103.3428169"><ele>2243.85</ele><time>2026-06-12T22:58:31.000Z</time></trkpt>
        <trkpt lat="29.5498435" lon="103.3427658"><ele>2243.65</ele><time>2026-06-12T22:58:35.000Z</time></trkpt>
        <trkpt lat="29.5498166" lon="103.3427082"><ele>2243.07</ele><time>2026-06-12T22:58:41.000Z</time></trkpt>
        <trkpt lat="29.5497924" lon="103.3426514"><ele>2242.22</ele><time>2026-06-12T22:58:47.000Z</time></trkpt>
        <trkpt lat="29.5497554" lon="103.342601"><ele>2242.13</ele><time>2026-06-12T22:58:51.000Z</time></trkpt>
        <trkpt lat="29.5497211" lon="103.342558"><ele>2241.9</ele><time>2026-06-12T22:58:55.000Z</time></trkpt>
        <trkpt lat="29.5496759" lon="103.3425023"><ele>2241.73</ele><time>2026-06-12T22:58:59.000Z</time></trkpt>
        <trkpt lat="29.5496368" lon="103.3424413"><ele>2241.46</ele><time>2026-06-12T22:59:03.000Z</time></trkpt>
        <trkpt lat="29.5495958" lon="103.3423963"><ele>2241.91</ele><time>2026-06-12T22:59:07.000Z</time></trkpt>
        <trkpt lat="29.5495427" lon="103.3423551"><ele>2243.19</ele><time>2026-06-12T22:59:13.000Z</time></trkpt>
        <trkpt lat="29.5494929" lon="103.3423047"><ele>2244.92</ele><time>2026-06-12T22:59:19.000Z</time></trkpt>
        <trkpt lat="29.5494525" lon="103.3422403"><ele>2246.97</ele><time>2026-06-12T22:59:23.000Z</time></trkpt>
        <trkpt lat="29.5494183" lon="103.3421774"><ele>2248.49</ele><time>2026-06-12T22:59:27.000Z</time></trkpt>
        <trkpt lat="29.5493947" lon="103.3421246"><ele>2249.1</ele><time>2026-06-12T22:59:31.000Z</time></trkpt>
        <trkpt lat="29.5493982" lon="103.3420734"><ele>2249.66</ele><time>2026-06-12T22:59:37.000Z</time></trkpt>
        <trkpt lat="29.5493995" lon="103.3420199"><ele>2250.49</ele><time>2026-06-12T22:59:41.000Z</time></trkpt>
        <trkpt lat="29.5493917" lon="103.3419603"><ele>2251.36</ele><time>2026-06-12T22:59:45.000Z</time></trkpt>
        <trkpt lat="29.5493748" lon="103.3419035"><ele>2252.02</ele><time>2026-06-12T22:59:49.000Z</time></trkpt>
        <trkpt lat="29.5493557" lon="103.341848"><ele>2252.44</ele><time>2026-06-12T22:59:53.000Z</time></trkpt>
        <trkpt lat="29.5493388" lon="103.3417917"><ele>2252.85</ele><time>2026-06-12T22:59:59.000Z</time></trkpt>
        <trkpt lat="29.549327" lon="103.3417226"><ele>2252.44</ele><time>2026-06-12T23:00:05.000Z</time></trkpt>
        <trkpt lat="29.5493132" lon="103.3416513"><ele>2252.21</ele><time>2026-06-12T23:00:11.000Z</time></trkpt>
        <trkpt lat="29.5492848" lon="103.3415812"><ele>2251.95</ele><time>2026-06-12T23:00:15.000Z</time></trkpt>
        <trkpt lat="29.5492598" lon="103.3415258"><ele>2251.93</ele><time>2026-06-12T23:00:19.000Z</time></trkpt>
        <trkpt lat="29.549243" lon="103.3414697"><ele>2252</ele><time>2026-06-12T23:00:25.000Z</time></trkpt>
        <trkpt lat="29.5492233" lon="103.3414264"><ele>2251.36</ele><time>2026-06-12T23:00:33.000Z</time></trkpt>
        <trkpt lat="29.5492059" lon="103.3413799"><ele>2250.08</ele><time>2026-06-12T23:00:45.000Z</time></trkpt>
        <trkpt lat="29.549168" lon="103.341369"><ele>2247.55</ele><time>2026-06-12T23:01:03.000Z</time></trkpt>
        <trkpt lat="29.549168" lon="103.341369"><ele>2247.55</ele><time>2026-06-12T23:01:04.000Z</time></trkpt>
        <trkpt lat="29.5490511" lon="103.3411875"><ele>2246.24</ele><time>2026-06-12T23:01:30.000Z</time></trkpt>
        <trkpt lat="29.5490511" lon="103.3411875"><ele>2246.24</ele><time>2026-06-12T23:01:41.000Z</time></trkpt>
        <trkpt lat="29.5489922" lon="103.3411774"><ele>2247.81</ele><time>2026-06-12T23:01:47.000Z</time></trkpt>
        <trkpt lat="29.5489369" lon="103.3411694"><ele>2248.97</ele><time>2026-06-12T23:01:53.000Z</time></trkpt>
        <trkpt lat="29.5488843" lon="103.3411644"><ele>2249.89</ele><time>2026-06-12T23:02:03.000Z</time></trkpt>
        <trkpt lat="29.5488408" lon="103.3411833"><ele>2251.14</ele><time>2026-06-12T23:02:33.000Z</time></trkpt>
        <trkpt lat="29.5487858" lon="103.341174"><ele>2254.35</ele><time>2026-06-12T23:03:11.000Z</time></trkpt>
        <trkpt lat="29.54874" lon="103.3411941"><ele>2255.75</ele><time>2026-06-12T23:03:21.000Z</time></trkpt>
        <trkpt lat="29.5486916" lon="103.3412017"><ele>2257.1</ele><time>2026-06-12T23:03:37.000Z</time></trkpt>
        <trkpt lat="29.5486257" lon="103.3412049"><ele>2259.42</ele><time>2026-06-12T23:03:43.000Z</time></trkpt>
        <trkpt lat="29.5485886" lon="103.3412402"><ele>2261.44</ele><time>2026-06-12T23:03:59.000Z</time></trkpt>
        <trkpt lat="29.5485465" lon="103.3412612"><ele>2266.54</ele><time>2026-06-12T23:04:13.000Z</time></trkpt>
        <trkpt lat="29.5484991" lon="103.3412553"><ele>2271.04</ele><time>2026-06-12T23:04:25.000Z</time></trkpt>
        <trkpt lat="29.5484558" lon="103.3412671"><ele>2273.86</ele><time>2026-06-12T23:04:43.000Z</time></trkpt>
        <trkpt lat="29.5484115" lon="103.3412667"><ele>2275.64</ele><time>2026-06-12T23:04:56.000Z</time></trkpt>
        <trkpt lat="29.5483655" lon="103.3412579"><ele>2276.74</ele><time>2026-06-12T23:05:13.000Z</time></trkpt>
        <trkpt lat="29.5483213" lon="103.3412366"><ele>2277.97</ele><time>2026-06-12T23:05:29.000Z</time></trkpt>
        <trkpt lat="29.5482741" lon="103.3412252"><ele>2279.58</ele><time>2026-06-12T23:05:45.000Z</time></trkpt>
        <trkpt lat="29.5482246" lon="103.3412123"><ele>2281.39</ele><time>2026-06-12T23:05:57.000Z</time></trkpt>
        <trkpt lat="29.5481868" lon="103.3412377"><ele>2283.16</ele><time>2026-06-12T23:06:05.000Z</time></trkpt>
        <trkpt lat="29.5481434" lon="103.3412433"><ele>2284.17</ele><time>2026-06-12T23:06:11.000Z</time></trkpt>
        <trkpt lat="29.5480863" lon="103.3412284"><ele>2284.74</ele><time>2026-06-12T23:06:17.000Z</time></trkpt>
        <trkpt lat="29.5480366" lon="103.3411973"><ele>2284.81</ele><time>2026-06-12T23:06:26.000Z</time></trkpt>
        <trkpt lat="29.5480356" lon="103.3411889"><ele>2285.32</ele><time>2026-06-12T23:06:40.000Z</time></trkpt>
        <trkpt lat="29.5480748" lon="103.3411878"><ele>2286.52</ele><time>2026-06-12T23:07:14.000Z</time></trkpt>
        <trkpt lat="29.5481098" lon="103.3412265"><ele>2288.36</ele><time>2026-06-12T23:07:22.000Z</time></trkpt>
        <trkpt lat="29.5480695" lon="103.3412277"><ele>2289.37</ele><time>2026-06-12T23:07:28.000Z</time></trkpt>
        <trkpt lat="29.5480301" lon="103.3411914"><ele>2290.28</ele><time>2026-06-12T23:07:33.000Z</time></trkpt>
        <trkpt lat="29.5480505" lon="103.3411897"><ele>2290.94</ele><time>2026-06-12T23:07:50.000Z</time></trkpt>
        <trkpt lat="29.5480156" lon="103.3412156"><ele>2292.68</ele><time>2026-06-12T23:07:55.000Z</time></trkpt>
        <trkpt lat="29.5479619" lon="103.3412097"><ele>2293.94</ele><time>2026-06-12T23:08:05.000Z</time></trkpt>
        <trkpt lat="29.5479255" lon="103.3411727"><ele>2294.74</ele><time>2026-06-12T23:08:12.000Z</time></trkpt>
        <trkpt lat="29.547885" lon="103.3411227"><ele>2294.72</ele><time>2026-06-12T23:08:19.000Z</time></trkpt>
        <trkpt lat="29.5478305" lon="103.3411064"><ele>2294.33</ele><time>2026-06-12T23:08:25.000Z</time></trkpt>
        <trkpt lat="29.5477762" lon="103.3410992"><ele>2293.45</ele><time>2026-06-12T23:08:31.000Z</time></trkpt>
        <trkpt lat="29.5477216" lon="103.3411007"><ele>2292.91</ele><time>2026-06-12T23:08:37.000Z</time></trkpt>
        <trkpt lat="29.5476699" lon="103.3410982"><ele>2292.65</ele><time>2026-06-12T23:08:43.000Z</time></trkpt>
        <trkpt lat="29.547622" lon="103.3410744"><ele>2292.84</ele><time>2026-06-12T23:08:47.000Z</time></trkpt>
        <trkpt lat="29.547583" lon="103.3410977"><ele>2293.04</ele><time>2026-06-12T23:08:59.000Z</time></trkpt>
        <trkpt lat="29.5475446" lon="103.3410665"><ele>2295.3</ele><time>2026-06-12T23:09:07.000Z</time></trkpt>
        <trkpt lat="29.5475069" lon="103.3410334"><ele>2296.98</ele><time>2026-06-12T23:09:25.000Z</time></trkpt>
        <trkpt lat="29.547468" lon="103.3410453"><ele>2298.79</ele><time>2026-06-12T23:09:34.000Z</time></trkpt>
        <trkpt lat="29.547468" lon="103.3410453"><ele>2298.79</ele><time>2026-06-12T23:09:38.000Z</time></trkpt>
        <trkpt lat="29.5474284" lon="103.3410235"><ele>2299.96</ele><time>2026-06-12T23:09:40.000Z</time></trkpt>
        <trkpt lat="29.5474284" lon="103.3410235"><ele>2299.96</ele><time>2026-06-12T23:09:49.000Z</time></trkpt>
        <trkpt lat="29.5473897" lon="103.3409874"><ele>2301.05</ele><time>2026-06-12T23:10:01.000Z</time></trkpt>
        <trkpt lat="29.5473564" lon="103.3409208"><ele>2301.42</ele><time>2026-06-12T23:10:07.000Z</time></trkpt>
        <trkpt lat="29.5473225" lon="103.3408704"><ele>2301.62</ele><time>2026-06-12T23:10:11.000Z</time></trkpt>
        <trkpt lat="29.5472968" lon="103.3408046"><ele>2301.48</ele><time>2026-06-12T23:10:15.000Z</time></trkpt>
        <trkpt lat="29.5472953" lon="103.3407472"><ele>2301.49</ele><time>2026-06-12T23:10:21.000Z</time></trkpt>
        <trkpt lat="29.5472959" lon="103.340724"><ele>2300.33</ele><time>2026-06-12T23:10:25.000Z</time></trkpt>
        <trkpt lat="29.5472655" lon="103.3406895"><ele>2299.67</ele><time>2026-06-12T23:10:31.000Z</time></trkpt>
        <trkpt lat="29.5472241" lon="103.3406517"><ele>2299.43</ele><time>2026-06-12T23:10:33.000Z</time></trkpt>
        <trkpt lat="29.5472137" lon="103.3405959"><ele>2299.33</ele><time>2026-06-12T23:10:39.000Z</time></trkpt>
        <trkpt lat="29.547187" lon="103.3405487"><ele>2299.53</ele><time>2026-06-12T23:10:53.000Z</time></trkpt>
        <trkpt lat="29.547187" lon="103.3405487"><ele>2299.53</ele><time>2026-06-12T23:10:56.000Z</time></trkpt>
        <trkpt lat="29.5471889" lon="103.3405431"><ele>2301.45</ele><time>2026-06-12T23:12:00.000Z</time></trkpt>
        <trkpt lat="29.5471889" lon="103.3405431"><ele>2301.45</ele><time>2026-06-12T23:12:00.000Z</time></trkpt>
        <trkpt lat="29.5472572" lon="103.340521"><ele>2306.42</ele><time>2026-06-12T23:12:30.000Z</time></trkpt>
        <trkpt lat="29.5472572" lon="103.340521"><ele>2306.42</ele><time>2026-06-12T23:12:34.000Z</time></trkpt>
        <trkpt lat="29.5472432" lon="103.3405153"><ele>2308.78</ele><time>2026-06-12T23:12:38.000Z</time></trkpt>
        <trkpt lat="29.5472432" lon="103.3405153"><ele>2308.78</ele><time>2026-06-12T23:12:42.000Z</time></trkpt>
        <trkpt lat="29.5472112" lon="103.3405069"><ele>2306.38</ele><time>2026-06-12T23:12:54.000Z</time></trkpt>
        <trkpt lat="29.5471592" lon="103.3404822"><ele>2303.89</ele><time>2026-06-12T23:13:00.000Z</time></trkpt>
        <trkpt lat="29.5471068" lon="103.3404603"><ele>2302.91</ele><time>2026-06-12T23:13:03.000Z</time></trkpt>
        <trkpt lat="29.5471102" lon="103.3404091"><ele>2302.56</ele><time>2026-06-12T23:13:13.000Z</time></trkpt>
        <trkpt lat="29.5471102" lon="103.3404091"><ele>2302.56</ele><time>2026-06-12T23:13:26.000Z</time></trkpt>
        <trkpt lat="29.5471112" lon="103.3403011"><ele>2302.75</ele><time>2026-06-12T23:13:42.000Z</time></trkpt>
        <trkpt lat="29.5471112" lon="103.3403011"><ele>2302.75</ele><time>2026-06-12T23:13:55.000Z</time></trkpt>
        <trkpt lat="29.5471247" lon="103.3402466"><ele>2308.71</ele><time>2026-06-12T23:14:22.000Z</time></trkpt>
        <trkpt lat="29.5471247" lon="103.3402466"><ele>2308.71</ele><time>2026-06-12T23:14:24.000Z</time></trkpt>
        <trkpt lat="29.5470782" lon="103.3396892"><ele>2314</ele><time>2026-06-12T23:17:22.000Z</time></trkpt>
        <trkpt lat="29.5470782" lon="103.3396892"><ele>2314</ele><time>2026-06-12T23:17:25.000Z</time></trkpt>
        <trkpt lat="29.5470782" lon="103.3396892"><ele>2314</ele><time>2026-06-12T23:17:54.000Z</time></trkpt>
        <trkpt lat="29.5469497" lon="103.3395874"><ele>2327.33</ele><time>2026-06-12T23:18:02.000Z</time></trkpt>
        <trkpt lat="29.5469497" lon="103.3395874"><ele>2327.33</ele><time>2026-06-12T23:18:16.000Z</time></trkpt>
        <trkpt lat="29.5469497" lon="103.3395874"><ele>2327.33</ele><time>2026-06-12T23:18:42.000Z</time></trkpt>
        <trkpt lat="29.5468997" lon="103.3394784"><ele>2337.73</ele><time>2026-06-12T23:19:00.000Z</time></trkpt>
        <trkpt lat="29.5468997" lon="103.3394784"><ele>2337.73</ele><time>2026-06-12T23:19:03.000Z</time></trkpt>
        <trkpt lat="29.5469076" lon="103.3394263"><ele>2344.94</ele><time>2026-06-12T23:19:09.000Z</time></trkpt>
        <trkpt lat="29.5468933" lon="103.3393747"><ele>2349.53</ele><time>2026-06-12T23:19:21.000Z</time></trkpt>
        <trkpt lat="29.5468933" lon="103.3393747"><ele>2349.53</ele><time>2026-06-12T23:20:06.000Z</time></trkpt>
        <trkpt lat="29.5468646" lon="103.3392925"><ele>2354.25</ele><time>2026-06-12T23:20:10.000Z</time></trkpt>
        <trkpt lat="29.5468646" lon="103.3392925"><ele>2354.25</ele><time>2026-06-12T23:20:23.000Z</time></trkpt>
        <trkpt lat="29.5469023" lon="103.3392458"><ele>2360.08</ele><time>2026-06-12T23:21:16.000Z</time></trkpt>
        <trkpt lat="29.5468854" lon="103.3392558"><ele>2363.96</ele><time>2026-06-12T23:21:34.000Z</time></trkpt>
        <trkpt lat="29.54685" lon="103.3392895"><ele>2364.92</ele><time>2026-06-12T23:21:42.000Z</time></trkpt>
        <trkpt lat="29.5467995" lon="103.3392902"><ele>2365.3</ele><time>2026-06-12T23:22:20.000Z</time></trkpt>
        <trkpt lat="29.5468143" lon="103.3393147"><ele>2367.79</ele><time>2026-06-12T23:22:55.000Z</time></trkpt>
        <trkpt lat="29.5468143" lon="103.3393147"><ele>2367.79</ele><time>2026-06-12T23:23:38.000Z</time></trkpt>
        <trkpt lat="29.546765" lon="103.3392467"><ele>2370.16</ele><time>2026-06-12T23:24:56.000Z</time></trkpt>
        <trkpt lat="29.546765" lon="103.3392467"><ele>2370.16</ele><time>2026-06-12T23:25:01.000Z</time></trkpt>
        <trkpt lat="29.5467394" lon="103.3391913"><ele>2368.42</ele><time>2026-06-12T23:25:19.000Z</time></trkpt>
        <trkpt lat="29.5467037" lon="103.3391565"><ele>2369.14</ele><time>2026-06-12T23:25:34.000Z</time></trkpt>
        <trkpt lat="29.5466662" lon="103.3391169"><ele>2370.93</ele><time>2026-06-12T23:25:49.000Z</time></trkpt>
        <trkpt lat="29.5466496" lon="103.33906"><ele>2373.37</ele><time>2026-06-12T23:26:01.000Z</time></trkpt>
        <trkpt lat="29.5466198" lon="103.3390102"><ele>2376.35</ele><time>2026-06-12T23:26:09.000Z</time></trkpt>
        <trkpt lat="29.5465856" lon="103.3389727"><ele>2379.17</ele><time>2026-06-12T23:26:15.000Z</time></trkpt>
        <trkpt lat="29.54655" lon="103.3389373"><ele>2381.72</ele><time>2026-06-12T23:26:29.000Z</time></trkpt>
        <trkpt lat="29.546523" lon="103.3388943"><ele>2384.34</ele><time>2026-06-12T23:26:37.000Z</time></trkpt>
        <trkpt lat="29.546487" lon="103.3388482"><ele>2386.3</ele><time>2026-06-12T23:26:46.000Z</time></trkpt>
        <trkpt lat="29.5464447" lon="103.3388187"><ele>2388.62</ele><time>2026-06-12T23:27:01.000Z</time></trkpt>
        <trkpt lat="29.5463781" lon="103.3387742"><ele>2391.28</ele><time>2026-06-12T23:27:32.000Z</time></trkpt>
        <trkpt lat="29.5463781" lon="103.3387742"><ele>2391.28</ele><time>2026-06-12T23:27:48.000Z</time></trkpt>
        <trkpt lat="29.5462952" lon="103.3386101"><ele>2393.14</ele><time>2026-06-12T23:28:04.000Z</time></trkpt>
        <trkpt lat="29.5462952" lon="103.3386101"><ele>2393.14</ele><time>2026-06-12T23:28:05.000Z</time></trkpt>
        <trkpt lat="29.5462673" lon="103.3385565"><ele>2394.58</ele><time>2026-06-12T23:28:09.000Z</time></trkpt>
        <trkpt lat="29.5462563" lon="103.3385394"><ele>2395.97</ele><time>2026-06-12T23:28:13.000Z</time></trkpt>
        <trkpt lat="29.5462455" lon="103.3384932"><ele>2397.36</ele><time>2026-06-12T23:28:27.000Z</time></trkpt>
        <trkpt lat="29.546225" lon="103.338433"><ele>2399.91</ele><time>2026-06-12T23:28:33.000Z</time></trkpt>
        <trkpt lat="29.5462018" lon="103.3383757"><ele>2401.67</ele><time>2026-06-12T23:28:39.000Z</time></trkpt>
        <trkpt lat="29.5461991" lon="103.3383193"><ele>2403.58</ele><time>2026-06-12T23:28:51.000Z</time></trkpt>
        <trkpt lat="29.5462118" lon="103.3382624"><ele>2405.35</ele><time>2026-06-12T23:29:00.000Z</time></trkpt>
        <trkpt lat="29.5462454" lon="103.3382229"><ele>2407.26</ele><time>2026-06-12T23:29:08.000Z</time></trkpt>
        <trkpt lat="29.5462327" lon="103.3381787"><ele>2408.31</ele><time>2026-06-12T23:29:21.000Z</time></trkpt>
        <trkpt lat="29.5462425" lon="103.3381318"><ele>2410.11</ele><time>2026-06-12T23:29:37.000Z</time></trkpt>
        <trkpt lat="29.5462696" lon="103.3380838"><ele>2412.34</ele><time>2026-06-12T23:29:47.000Z</time></trkpt>
        <trkpt lat="29.5462801" lon="103.3380329"><ele>2414.18</ele><time>2026-06-12T23:29:57.000Z</time></trkpt>
        <trkpt lat="29.5462908" lon="103.3379684"><ele>2415.91</ele><time>2026-06-12T23:30:06.000Z</time></trkpt>
        <trkpt lat="29.5463233" lon="103.3379068"><ele>2417.54</ele><time>2026-06-12T23:30:13.000Z</time></trkpt>
        <trkpt lat="29.5463625" lon="103.3378695"><ele>2419.16</ele><time>2026-06-12T23:30:17.000Z</time></trkpt>
        <trkpt lat="29.5464019" lon="103.3378315"><ele>2420.21</ele><time>2026-06-12T23:30:21.000Z</time></trkpt>
        <trkpt lat="29.5464328" lon="103.3377794"><ele>2420.98</ele><time>2026-06-12T23:30:27.000Z</time></trkpt>
        <trkpt lat="29.5464539" lon="103.3377355"><ele>2421.5</ele><time>2026-06-12T23:30:33.000Z</time></trkpt>
        <trkpt lat="29.546469" lon="103.3376836"><ele>2422.02</ele><time>2026-06-12T23:30:37.000Z</time></trkpt>
        <trkpt lat="29.5464751" lon="103.33763"><ele>2422.61</ele><time>2026-06-12T23:30:42.000Z</time></trkpt>
        <trkpt lat="29.5464811" lon="103.337576"><ele>2423.3</ele><time>2026-06-12T23:30:47.000Z</time></trkpt>
        <trkpt lat="29.5464954" lon="103.3375171"><ele>2423.86</ele><time>2026-06-12T23:30:51.000Z</time></trkpt>
        <trkpt lat="29.5465182" lon="103.3374867"><ele>2424.61</ele><time>2026-06-12T23:30:53.000Z</time></trkpt>
        <trkpt lat="29.5465626" lon="103.3374608"><ele>2425.34</ele><time>2026-06-12T23:30:59.000Z</time></trkpt>
        <trkpt lat="29.5465869" lon="103.3374489"><ele>2425.79</ele><time>2026-06-12T23:31:10.000Z</time></trkpt>
        <trkpt lat="29.5465869" lon="103.3374489"><ele>2425.79</ele><time>2026-06-12T23:31:10.000Z</time></trkpt>
        <trkpt lat="29.5465683" lon="103.3374283"><ele>2422</ele><time>2026-06-12T23:31:20.000Z</time></trkpt>
        <trkpt lat="29.5465683" lon="103.3374283"><ele>2422</ele><time>2026-06-12T23:31:21.000Z</time></trkpt>
        <trkpt lat="29.546595" lon="103.3373733"><ele>2422</ele><time>2026-06-12T23:31:38.000Z</time></trkpt>
        <trkpt lat="29.5466188" lon="103.3373169"><ele>2423.08</ele><time>2026-06-12T23:31:42.000Z</time></trkpt>
        <trkpt lat="29.5466383" lon="103.3372577"><ele>2423.95</ele><time>2026-06-12T23:31:46.000Z</time></trkpt>
        <trkpt lat="29.5466477" lon="103.3372013"><ele>2424.31</ele><time>2026-06-12T23:31:52.000Z</time></trkpt>
        <trkpt lat="29.5466485" lon="103.3371323"><ele>2424.35</ele><time>2026-06-12T23:31:58.000Z</time></trkpt>
        <trkpt lat="29.5466431" lon="103.3370725"><ele>2424.16</ele><time>2026-06-12T23:32:08.000Z</time></trkpt>
        <trkpt lat="29.5466075" lon="103.3370328"><ele>2424</ele><time>2026-06-12T23:32:26.000Z</time></trkpt>
        <trkpt lat="29.546563" lon="103.337003"><ele>2424.69</ele><time>2026-06-12T23:32:31.000Z</time></trkpt>
        <trkpt lat="29.5465272" lon="103.3369554"><ele>2425.38</ele><time>2026-06-12T23:32:36.000Z</time></trkpt>
        <trkpt lat="29.5465113" lon="103.336889"><ele>2426.29</ele><time>2026-06-12T23:32:47.000Z</time></trkpt>
        <trkpt lat="29.5464842" lon="103.3368261"><ele>2425.87</ele><time>2026-06-12T23:32:52.000Z</time></trkpt>
        <trkpt lat="29.5464684" lon="103.3367644"><ele>2425.06</ele><time>2026-06-12T23:33:00.000Z</time></trkpt>
        <trkpt lat="29.5464556" lon="103.3367099"><ele>2424.82</ele><time>2026-06-12T23:33:09.000Z</time></trkpt>
        <trkpt lat="29.5464496" lon="103.3366506"><ele>2424.08</ele><time>2026-06-12T23:33:17.000Z</time></trkpt>
        <trkpt lat="29.5464582" lon="103.3365981"><ele>2422.45</ele><time>2026-06-12T23:33:24.000Z</time></trkpt>
        <trkpt lat="29.5464828" lon="103.3365331"><ele>2420.45</ele><time>2026-06-12T23:33:30.000Z</time></trkpt>
        <trkpt lat="29.5464933" lon="103.336477"><ele>2418.75</ele><time>2026-06-12T23:33:34.000Z</time></trkpt>
        <trkpt lat="29.5465047" lon="103.336421"><ele>2417.44</ele><time>2026-06-12T23:33:43.000Z</time></trkpt>
        <trkpt lat="29.5465151" lon="103.3363534"><ele>2416.56</ele><time>2026-06-12T23:33:51.000Z</time></trkpt>
        <trkpt lat="29.5465102" lon="103.3362941"><ele>2416.11</ele><time>2026-06-12T23:33:57.000Z</time></trkpt>
        <trkpt lat="29.5465146" lon="103.3362233"><ele>2416.23</ele><time>2026-06-12T23:34:07.000Z</time></trkpt>
        <trkpt lat="29.5465234" lon="103.3361557"><ele>2416</ele><time>2026-06-12T23:34:11.000Z</time></trkpt>
        <trkpt lat="29.5465524" lon="103.3361048"><ele>2415.83</ele><time>2026-06-12T23:34:15.000Z</time></trkpt>
        <trkpt lat="29.5465986" lon="103.3360564"><ele>2415.47</ele><time>2026-06-12T23:34:21.000Z</time></trkpt>
        <trkpt lat="29.5466298" lon="103.3359856"><ele>2415.14</ele><time>2026-06-12T23:34:25.000Z</time></trkpt>
        <trkpt lat="29.5466514" lon="103.3359234"><ele>2415.55</ele><time>2026-06-12T23:34:29.000Z</time></trkpt>
        <trkpt lat="29.5466682" lon="103.3358653"><ele>2416.43</ele><time>2026-06-12T23:34:33.000Z</time></trkpt>
        <trkpt lat="29.5466913" lon="103.3358013"><ele>2417.67</ele><time>2026-06-12T23:34:39.000Z</time></trkpt>
        <trkpt lat="29.5467185" lon="103.3357348"><ele>2418.89</ele><time>2026-06-12T23:34:45.000Z</time></trkpt>
        <trkpt lat="29.546722" lon="103.3356739"><ele>2419.8</ele><time>2026-06-12T23:34:51.000Z</time></trkpt>
        <trkpt lat="29.5467204" lon="103.3356191"><ele>2420.27</ele><time>2026-06-12T23:34:57.000Z</time></trkpt>
        <trkpt lat="29.5467369" lon="103.3355525"><ele>2419.9</ele><time>2026-06-12T23:35:03.000Z</time></trkpt>
        <trkpt lat="29.5467671" lon="103.3354963"><ele>2418.99</ele><time>2026-06-12T23:35:07.000Z</time></trkpt>
        <trkpt lat="29.5467806" lon="103.3354379"><ele>2418.09</ele><time>2026-06-12T23:35:13.000Z</time></trkpt>
        <trkpt lat="29.5467869" lon="103.3353597"><ele>2416.42</ele><time>2026-06-12T23:35:19.000Z</time></trkpt>
        <trkpt lat="29.5467822" lon="103.3352816"><ele>2414.35</ele><time>2026-06-12T23:35:23.000Z</time></trkpt>
        <trkpt lat="29.5467929" lon="103.3352085"><ele>2412.22</ele><time>2026-06-12T23:35:29.000Z</time></trkpt>
        <trkpt lat="29.5468088" lon="103.3351539"><ele>2410.06</ele><time>2026-06-12T23:35:35.000Z</time></trkpt>
        <trkpt lat="29.5468113" lon="103.3350999"><ele>2408.01</ele><time>2026-06-12T23:35:43.000Z</time></trkpt>
        <trkpt lat="29.5467795" lon="103.3350501"><ele>2406.03</ele><time>2026-06-12T23:35:51.000Z</time></trkpt>
        <trkpt lat="29.5467483" lon="103.3350038"><ele>2404.9</ele><time>2026-06-12T23:35:57.000Z</time></trkpt>
        <trkpt lat="29.5467032" lon="103.3349783"><ele>2404.43</ele><time>2026-06-12T23:36:07.000Z</time></trkpt>
        <trkpt lat="29.546649" lon="103.3349348"><ele>2403.94</ele><time>2026-06-12T23:36:12.000Z</time></trkpt>
        <trkpt lat="29.5465979" lon="103.3348897"><ele>2403.11</ele><time>2026-06-12T23:36:16.000Z</time></trkpt>
        <trkpt lat="29.5465604" lon="103.3348479"><ele>2402.29</ele><time>2026-06-12T23:36:22.000Z</time></trkpt>
        <trkpt lat="29.5465108" lon="103.3348264"><ele>2401.17</ele><time>2026-06-12T23:36:30.000Z</time></trkpt>
        <trkpt lat="29.546465" lon="103.3347985"><ele>2399.94</ele><time>2026-06-12T23:36:38.000Z</time></trkpt>
        <trkpt lat="29.5464186" lon="103.3347946"><ele>2398.63</ele><time>2026-06-12T23:36:44.000Z</time></trkpt>
        <trkpt lat="29.5463756" lon="103.3347779"><ele>2397.97</ele><time>2026-06-12T23:36:55.000Z</time></trkpt>
        <trkpt lat="29.5463303" lon="103.3347802"><ele>2397.81</ele><time>2026-06-12T23:37:07.000Z</time></trkpt>
        <trkpt lat="29.5462763" lon="103.3347768"><ele>2398.5</ele><time>2026-06-12T23:37:25.000Z</time></trkpt>
        <trkpt lat="29.5462243" lon="103.3347902"><ele>2399.53</ele><time>2026-06-12T23:37:35.000Z</time></trkpt>
        <trkpt lat="29.5461634" lon="103.3347959"><ele>2401.07</ele><time>2026-06-12T23:37:41.000Z</time></trkpt>
        <trkpt lat="29.5461083" lon="103.3347888"><ele>2402.63</ele><time>2026-06-12T23:37:47.000Z</time></trkpt>
        <trkpt lat="29.5460495" lon="103.3347869"><ele>2404.25</ele><time>2026-06-12T23:37:52.000Z</time></trkpt>
        <trkpt lat="29.5459969" lon="103.3347876"><ele>2406.12</ele><time>2026-06-12T23:37:58.000Z</time></trkpt>
        <trkpt lat="29.5459493" lon="103.3347643"><ele>2407.75</ele><time>2026-06-12T23:38:05.000Z</time></trkpt>
        <trkpt lat="29.5459195" lon="103.3347119"><ele>2409.28</ele><time>2026-06-12T23:38:10.000Z</time></trkpt>
        <trkpt lat="29.5459021" lon="103.334639"><ele>2410.19</ele><time>2026-06-12T23:38:16.000Z</time></trkpt>
        <trkpt lat="29.5458805" lon="103.3345671"><ele>2410.41</ele><time>2026-06-12T23:38:23.000Z</time></trkpt>
        <trkpt lat="29.5458373" lon="103.3345305"><ele>2409.76</ele><time>2026-06-12T23:38:28.000Z</time></trkpt>
        <trkpt lat="29.5457858" lon="103.3345103"><ele>2408.49</ele><time>2026-06-12T23:38:35.000Z</time></trkpt>
        <trkpt lat="29.5457333" lon="103.3344837"><ele>2407.29</ele><time>2026-06-12T23:38:40.000Z</time></trkpt>
        <trkpt lat="29.5456741" lon="103.3344493"><ele>2405.23</ele><time>2026-06-12T23:38:46.000Z</time></trkpt>
        <trkpt lat="29.5456141" lon="103.3344179"><ele>2403.11</ele><time>2026-06-12T23:38:52.000Z</time></trkpt>
        <trkpt lat="29.5455507" lon="103.3343789"><ele>2400.87</ele><time>2026-06-12T23:38:58.000Z</time></trkpt>
        <trkpt lat="29.5454966" lon="103.3343497"><ele>2398.6</ele><time>2026-06-12T23:39:02.000Z</time></trkpt>
        <trkpt lat="29.5454461" lon="103.3343155"><ele>2397.48</ele><time>2026-06-12T23:39:10.000Z</time></trkpt>
        <trkpt lat="29.5453968" lon="103.3342881"><ele>2396.54</ele><time>2026-06-12T23:39:14.000Z</time></trkpt>
        <trkpt lat="29.5453438" lon="103.3342581"><ele>2395.54</ele><time>2026-06-12T23:39:20.000Z</time></trkpt>
        <trkpt lat="29.5453066" lon="103.3342119"><ele>2394.88</ele><time>2026-06-12T23:39:25.000Z</time></trkpt>
        <trkpt lat="29.5452754" lon="103.3341685"><ele>2394.8</ele><time>2026-06-12T23:39:30.000Z</time></trkpt>
        <trkpt lat="29.5452442" lon="103.3341283"><ele>2395.19</ele><time>2026-06-12T23:39:38.000Z</time></trkpt>
        <trkpt lat="29.545201" lon="103.3340907"><ele>2395.49</ele><time>2026-06-12T23:39:45.000Z</time></trkpt>
        <trkpt lat="29.5451517" lon="103.3340617"><ele>2395.97</ele><time>2026-06-12T23:39:51.000Z</time></trkpt>
        <trkpt lat="29.5451007" lon="103.3340607"><ele>2397.27</ele><time>2026-06-12T23:39:56.000Z</time></trkpt>
        <trkpt lat="29.5450283" lon="103.3340693"><ele>2398.92</ele><time>2026-06-12T23:40:03.000Z</time></trkpt>
        <trkpt lat="29.5449548" lon="103.3340696"><ele>2400.37</ele><time>2026-06-12T23:40:06.000Z</time></trkpt>
        <trkpt lat="29.5448973" lon="103.3340792"><ele>2401.42</ele><time>2026-06-12T23:40:11.000Z</time></trkpt>
        <trkpt lat="29.5448626" lon="103.3341294"><ele>2402.4</ele><time>2026-06-12T23:40:15.000Z</time></trkpt>
        <trkpt lat="29.5448334" lon="103.3341849"><ele>2403.3</ele><time>2026-06-12T23:40:19.000Z</time></trkpt>
        <trkpt lat="29.5447984" lon="103.3342236"><ele>2403.95</ele><time>2026-06-12T23:40:22.000Z</time></trkpt>
        <trkpt lat="29.5447602" lon="103.3342556"><ele>2404.36</ele><time>2026-06-12T23:40:26.000Z</time></trkpt>
        <trkpt lat="29.5447206" lon="103.3342979"><ele>2405.15</ele><time>2026-06-12T23:40:32.000Z</time></trkpt>
        <trkpt lat="29.544673" lon="103.3342853"><ele>2406.76</ele><time>2026-06-12T23:40:38.000Z</time></trkpt>
        <trkpt lat="29.544615" lon="103.3342562"><ele>2407.68</ele><time>2026-06-12T23:40:42.000Z</time></trkpt>
        <trkpt lat="29.5445512" lon="103.3342288"><ele>2408.03</ele><time>2026-06-12T23:40:46.000Z</time></trkpt>
        <trkpt lat="29.5444949" lon="103.3341994"><ele>2408.11</ele><time>2026-06-12T23:40:50.000Z</time></trkpt>
        <trkpt lat="29.5444447" lon="103.3341881"><ele>2408.02</ele><time>2026-06-12T23:40:55.000Z</time></trkpt>
        <trkpt lat="29.544384" lon="103.3341752"><ele>2407.67</ele><time>2026-06-12T23:41:01.000Z</time></trkpt>
        <trkpt lat="29.5443155" lon="103.3341625"><ele>2407.16</ele><time>2026-06-12T23:41:07.000Z</time></trkpt>
        <trkpt lat="29.5442596" lon="103.3341496"><ele>2405.93</ele><time>2026-06-12T23:41:10.000Z</time></trkpt>
        <trkpt lat="29.5442126" lon="103.3341478"><ele>2404.8</ele><time>2026-06-12T23:41:15.000Z</time></trkpt>
        <trkpt lat="29.5441685" lon="103.3341412"><ele>2403.64</ele><time>2026-06-12T23:41:19.000Z</time></trkpt>
        <trkpt lat="29.5441186" lon="103.3341234"><ele>2402.59</ele><time>2026-06-12T23:41:23.000Z</time></trkpt>
        <trkpt lat="29.5440773" lon="103.3340865"><ele>2401.6</ele><time>2026-06-12T23:41:26.000Z</time></trkpt>
        <trkpt lat="29.5440404" lon="103.3340469"><ele>2401.04</ele><time>2026-06-12T23:41:35.000Z</time></trkpt>
        <trkpt lat="29.544006" lon="103.3339976"><ele>2400.59</ele><time>2026-06-12T23:41:40.000Z</time></trkpt>
        <trkpt lat="29.5439669" lon="103.333957"><ele>2400.42</ele><time>2026-06-12T23:41:47.000Z</time></trkpt>
        <trkpt lat="29.5439233" lon="103.3339104"><ele>2400.8</ele><time>2026-06-12T23:41:50.000Z</time></trkpt>
        <trkpt lat="29.5438693" lon="103.3338981"><ele>2400.89</ele><time>2026-06-12T23:41:57.000Z</time></trkpt>
        <trkpt lat="29.5438206" lon="103.3339037"><ele>2400.76</ele><time>2026-06-12T23:42:02.000Z</time></trkpt>
        <trkpt lat="29.5437769" lon="103.3339253"><ele>2400.99</ele><time>2026-06-12T23:42:06.000Z</time></trkpt>
        <trkpt lat="29.5437328" lon="103.3339385"><ele>2401.13</ele><time>2026-06-12T23:42:11.000Z</time></trkpt>
        <trkpt lat="29.5436932" lon="103.3339065"><ele>2401.03</ele><time>2026-06-12T23:42:15.000Z</time></trkpt>
        <trkpt lat="29.5436652" lon="103.3338614"><ele>2400.72</ele><time>2026-06-12T23:42:19.000Z</time></trkpt>
        <trkpt lat="29.5436386" lon="103.3338061"><ele>2400.54</ele><time>2026-06-12T23:42:26.000Z</time></trkpt>
        <trkpt lat="29.5436043" lon="103.3337652"><ele>2400.26</ele><time>2026-06-12T23:42:31.000Z</time></trkpt>
        <trkpt lat="29.5435754" lon="103.3337237"><ele>2400.15</ele><time>2026-06-12T23:42:36.000Z</time></trkpt>
        <trkpt lat="29.5435411" lon="103.3336907"><ele>2399.74</ele><time>2026-06-12T23:43:03.000Z</time></trkpt>
        <trkpt lat="29.5434971" lon="103.3336746"><ele>2399.21</ele><time>2026-06-12T23:43:13.000Z</time></trkpt>
        <trkpt lat="29.5434786" lon="103.3336343"><ele>2398.73</ele><time>2026-06-12T23:43:33.000Z</time></trkpt>
        <trkpt lat="29.5434562" lon="103.3335752"><ele>2396.82</ele><time>2026-06-12T23:43:39.000Z</time></trkpt>
        <trkpt lat="29.5434464" lon="103.3335136"><ele>2395.14</ele><time>2026-06-12T23:43:43.000Z</time></trkpt>
        <trkpt lat="29.5434245" lon="103.3334526"><ele>2393.96</ele><time>2026-06-12T23:43:47.000Z</time></trkpt>
        <trkpt lat="29.5434124" lon="103.3333915"><ele>2392.82</ele><time>2026-06-12T23:43:50.000Z</time></trkpt>
        <trkpt lat="29.5433953" lon="103.3333219"><ele>2391.78</ele><time>2026-06-12T23:43:57.000Z</time></trkpt>
        <trkpt lat="29.5433734" lon="103.3332608"><ele>2391.18</ele><time>2026-06-12T23:44:03.000Z</time></trkpt>
        <trkpt lat="29.5433573" lon="103.3332071"><ele>2390.8</ele><time>2026-06-12T23:44:09.000Z</time></trkpt>
        <trkpt lat="29.5433236" lon="103.333176"><ele>2390.5</ele><time>2026-06-12T23:44:13.000Z</time></trkpt>
        <trkpt lat="29.5433009" lon="103.3331313"><ele>2390.29</ele><time>2026-06-12T23:44:42.000Z</time></trkpt>
        <trkpt lat="29.5432754" lon="103.3330828"><ele>2389.9</ele><time>2026-06-12T23:44:50.000Z</time></trkpt>
        <trkpt lat="29.5432364" lon="103.3330503"><ele>2390.33</ele><time>2026-06-12T23:44:56.000Z</time></trkpt>
        <trkpt lat="29.543205" lon="103.3330101"><ele>2391.05</ele><time>2026-06-12T23:45:01.000Z</time></trkpt>
        <trkpt lat="29.5431621" lon="103.3329838"><ele>2391.54</ele><time>2026-06-12T23:45:05.000Z</time></trkpt>
        <trkpt lat="29.5431088" lon="103.3329826"><ele>2392.51</ele><time>2026-06-12T23:45:09.000Z</time></trkpt>
        <trkpt lat="29.5430573" lon="103.3329861"><ele>2393.67</ele><time>2026-06-12T23:45:13.000Z</time></trkpt>
        <trkpt lat="29.5430061" lon="103.3329807"><ele>2395.88</ele><time>2026-06-12T23:45:21.000Z</time></trkpt>
        <trkpt lat="29.5429579" lon="103.3329484"><ele>2400.36</ele><time>2026-06-12T23:45:26.000Z</time></trkpt>
        <trkpt lat="29.5429098" lon="103.3329074"><ele>2404.08</ele><time>2026-06-12T23:45:34.000Z</time></trkpt>
        <trkpt lat="29.5428728" lon="103.332867"><ele>2407.18</ele><time>2026-06-12T23:45:46.000Z</time></trkpt>
        <trkpt lat="29.5428788" lon="103.3328068"><ele>2408.83</ele><time>2026-06-12T23:46:26.000Z</time></trkpt>
        <trkpt lat="29.5428609" lon="103.3327538"><ele>2405.63</ele><time>2026-06-12T23:46:30.000Z</time></trkpt>
        <trkpt lat="29.542838" lon="103.3327073"><ele>2403.64</ele><time>2026-06-12T23:46:34.000Z</time></trkpt>
        <trkpt lat="29.5428017" lon="103.332656"><ele>2402.29</ele><time>2026-06-12T23:46:39.000Z</time></trkpt>
        <trkpt lat="29.5427509" lon="103.3326392"><ele>2401.13</ele><time>2026-06-12T23:46:48.000Z</time></trkpt>
        <trkpt lat="29.542698" lon="103.33262"><ele>2399.01</ele><time>2026-06-12T23:46:52.000Z</time></trkpt>
        <trkpt lat="29.5426506" lon="103.3325857"><ele>2397.41</ele><time>2026-06-12T23:46:56.000Z</time></trkpt>
        <trkpt lat="29.5426199" lon="103.332535"><ele>2396.5</ele><time>2026-06-12T23:47:01.000Z</time></trkpt>
        <trkpt lat="29.5426065" lon="103.3324787"><ele>2396.46</ele><time>2026-06-12T23:47:08.000Z</time></trkpt>
        <trkpt lat="29.5425761" lon="103.3324203"><ele>2396.74</ele><time>2026-06-12T23:47:12.000Z</time></trkpt>
        <trkpt lat="29.5425431" lon="103.3323769"><ele>2397.24</ele><time>2026-06-12T23:47:18.000Z</time></trkpt>
        <trkpt lat="29.5425019" lon="103.3323271"><ele>2397.61</ele><time>2026-06-12T23:47:22.000Z</time></trkpt>
        <trkpt lat="29.542459" lon="103.332277"><ele>2398.16</ele><time>2026-06-12T23:47:26.000Z</time></trkpt>
        <trkpt lat="29.5424375" lon="103.3322144"><ele>2399.25</ele><time>2026-06-12T23:47:30.000Z</time></trkpt>
        <trkpt lat="29.5424317" lon="103.3321584"><ele>2400.65</ele><time>2026-06-12T23:47:36.000Z</time></trkpt>
        <trkpt lat="29.5423944" lon="103.3321445"><ele>2402.31</ele><time>2026-06-12T23:47:40.000Z</time></trkpt>
        <trkpt lat="29.5423391" lon="103.3321221"><ele>2403.9</ele><time>2026-06-12T23:47:44.000Z</time></trkpt>
        <trkpt lat="29.5423021" lon="103.3320756"><ele>2404.84</ele><time>2026-06-12T23:47:50.000Z</time></trkpt>
        <trkpt lat="29.5422733" lon="103.3320232"><ele>2404.74</ele><time>2026-06-12T23:47:54.000Z</time></trkpt>
        <trkpt lat="29.5422285" lon="103.3320135"><ele>2404.46</ele><time>2026-06-12T23:48:00.000Z</time></trkpt>
        <trkpt lat="29.5421823" lon="103.3319988"><ele>2404.39</ele><time>2026-06-12T23:48:10.000Z</time></trkpt>
        <trkpt lat="29.5421337" lon="103.3320056"><ele>2403.92</ele><time>2026-06-12T23:48:18.000Z</time></trkpt>
        <trkpt lat="29.5421109" lon="103.3320481"><ele>2403.05</ele><time>2026-06-12T23:48:26.000Z</time></trkpt>
        <trkpt lat="29.5420703" lon="103.3320822"><ele>2402.34</ele><time>2026-06-12T23:48:36.000Z</time></trkpt>
        <trkpt lat="29.5420132" lon="103.3320841"><ele>2401.33</ele><time>2026-06-12T23:48:50.000Z</time></trkpt>
        <trkpt lat="29.5419491" lon="103.3320869"><ele>2399.51</ele><time>2026-06-12T23:48:56.000Z</time></trkpt>
        <trkpt lat="29.5418973" lon="103.3320876"><ele>2398.17</ele><time>2026-06-12T23:49:00.000Z</time></trkpt>
        <trkpt lat="29.5418485" lon="103.3320643"><ele>2397.45</ele><time>2026-06-12T23:49:08.000Z</time></trkpt>
        <trkpt lat="29.5418031" lon="103.332059"><ele>2396.31</ele><time>2026-06-12T23:49:16.000Z</time></trkpt>
        <trkpt lat="29.5417774" lon="103.3320155"><ele>2395.32</ele><time>2026-06-12T23:49:42.000Z</time></trkpt>
        <trkpt lat="29.5417938" lon="103.3319515"><ele>2393.12</ele><time>2026-06-12T23:49:48.000Z</time></trkpt>
        <trkpt lat="29.5417954" lon="103.3318921"><ele>2390.92</ele><time>2026-06-12T23:49:52.000Z</time></trkpt>
        <trkpt lat="29.5418312" lon="103.3318492"><ele>2389.66</ele><time>2026-06-12T23:49:57.000Z</time></trkpt>
        <trkpt lat="29.5418688" lon="103.3318118"><ele>2388.69</ele><time>2026-06-12T23:50:02.000Z</time></trkpt>
        <trkpt lat="29.5418972" lon="103.3317498"><ele>2388.13</ele><time>2026-06-12T23:50:07.000Z</time></trkpt>
        <trkpt lat="29.5418946" lon="103.3316833"><ele>2387.9</ele><time>2026-06-12T23:50:14.000Z</time></trkpt>
        <trkpt lat="29.5418505" lon="103.3316487"><ele>2387.77</ele><time>2026-06-12T23:50:20.000Z</time></trkpt>
        <trkpt lat="29.5417966" lon="103.3316467"><ele>2388.3</ele><time>2026-06-12T23:50:25.000Z</time></trkpt>
        <trkpt lat="29.5417447" lon="103.3316665"><ele>2389.38</ele><time>2026-06-12T23:50:38.000Z</time></trkpt>
        <trkpt lat="29.5416857" lon="103.331688"><ele>2390.07</ele><time>2026-06-12T23:50:46.000Z</time></trkpt>
        <trkpt lat="29.5416227" lon="103.3317014"><ele>2390.6</ele><time>2026-06-12T23:50:52.000Z</time></trkpt>
        <trkpt lat="29.5415717" lon="103.3317029"><ele>2390.82</ele><time>2026-06-12T23:50:56.000Z</time></trkpt>
        <trkpt lat="29.5415283" lon="103.3317173"><ele>2391.15</ele><time>2026-06-12T23:51:02.000Z</time></trkpt>
        <trkpt lat="29.5414911" lon="103.3317256"><ele>2391.95</ele><time>2026-06-12T23:51:13.000Z</time></trkpt>
        <trkpt lat="29.5414507" lon="103.3317575"><ele>2392.23</ele><time>2026-06-12T23:52:10.000Z</time></trkpt>
        <trkpt lat="29.5414097" lon="103.3317981"><ele>2392.13</ele><time>2026-06-12T23:52:20.000Z</time></trkpt>
        <trkpt lat="29.5413946" lon="103.3318507"><ele>2392.25</ele><time>2026-06-12T23:52:26.000Z</time></trkpt>
        <trkpt lat="29.541429" lon="103.3318414"><ele>2392.61</ele><time>2026-06-12T23:52:32.000Z</time></trkpt>
        <trkpt lat="29.5414587" lon="103.331787"><ele>2392.78</ele><time>2026-06-12T23:52:35.000Z</time></trkpt>
        <trkpt lat="29.5414783" lon="103.3317075"><ele>2393</ele><time>2026-06-12T23:52:39.000Z</time></trkpt>
        <trkpt lat="29.5414261" lon="103.3318094"><ele>2393.3</ele><time>2026-06-12T23:52:55.000Z</time></trkpt>
        <trkpt lat="29.5414261" lon="103.3318094"><ele>2393.3</ele><time>2026-06-12T23:53:29.000Z</time></trkpt>
        <trkpt lat="29.5411933" lon="103.3316917"><ele>2393.22</ele><time>2026-06-12T23:56:11.000Z</time></trkpt>
        <trkpt lat="29.5411933" lon="103.3316917"><ele>2393.22</ele><time>2026-06-12T23:56:14.000Z</time></trkpt>
        <trkpt lat="29.541245" lon="103.33169"><ele>2394.16</ele><time>2026-06-12T23:56:16.000Z</time></trkpt>
        <trkpt lat="29.5412642" lon="103.3317377"><ele>2393.01</ele><time>2026-06-12T23:56:23.000Z</time></trkpt>
        <trkpt lat="29.5412391" lon="103.3317761"><ele>2393.05</ele><time>2026-06-12T23:57:21.000Z</time></trkpt>
        <trkpt lat="29.5411912" lon="103.3317818"><ele>2392.04</ele><time>2026-06-12T23:57:33.000Z</time></trkpt>
        <trkpt lat="29.5411381" lon="103.3317791"><ele>2390.47</ele><time>2026-06-12T23:57:39.000Z</time></trkpt>
        <trkpt lat="29.5410783" lon="103.331777"><ele>2389.19</ele><time>2026-06-12T23:58:09.000Z</time></trkpt>
        <trkpt lat="29.5410066" lon="103.3318028"><ele>2387.61</ele><time>2026-06-12T23:58:39.000Z</time></trkpt>
        <trkpt lat="29.5409508" lon="103.3317842"><ele>2387.9</ele><time>2026-06-12T23:58:47.000Z</time></trkpt>
        <trkpt lat="29.5409022" lon="103.3317619"><ele>2388.85</ele><time>2026-06-12T23:58:55.000Z</time></trkpt>
        <trkpt lat="29.5408498" lon="103.3317477"><ele>2389.56</ele><time>2026-06-12T23:59:01.000Z</time></trkpt>
        <trkpt lat="29.5407917" lon="103.331725"><ele>2390.57</ele><time>2026-06-12T23:59:05.000Z</time></trkpt>
        <trkpt lat="29.5407416" lon="103.3317295"><ele>2391.66</ele><time>2026-06-12T23:59:13.000Z</time></trkpt>
        <trkpt lat="29.5406809" lon="103.3317294"><ele>2393.52</ele><time>2026-06-12T23:59:19.000Z</time></trkpt>
        <trkpt lat="29.5406386" lon="103.3317602"><ele>2395.36</ele><time>2026-06-12T23:59:25.000Z</time></trkpt>
        <trkpt lat="29.5405985" lon="103.3318007"><ele>2396.33</ele><time>2026-06-12T23:59:33.000Z</time></trkpt>
        <trkpt lat="29.5405633" lon="103.3318529"><ele>2397.22</ele><time>2026-06-12T23:59:41.000Z</time></trkpt>
        <trkpt lat="29.5405257" lon="103.331894"><ele>2398.41</ele><time>2026-06-12T23:59:51.000Z</time></trkpt>
        <trkpt lat="29.5404791" lon="103.3319196"><ele>2399.61</ele><time>2026-06-12T23:59:59.000Z</time></trkpt>
        <trkpt lat="29.5404128" lon="103.3319419"><ele>2400.68</ele><time>2026-06-13T00:00:05.000Z</time></trkpt>
        <trkpt lat="29.540361" lon="103.3319587"><ele>2401.38</ele><time>2026-06-13T00:00:09.000Z</time></trkpt>
        <trkpt lat="29.5403183" lon="103.3319804"><ele>2401.65</ele><time>2026-06-13T00:00:13.000Z</time></trkpt>
        <trkpt lat="29.5402964" lon="103.3320232"><ele>2401.76</ele><time>2026-06-13T00:00:25.000Z</time></trkpt>
        <trkpt lat="29.5402689" lon="103.3320625"><ele>2402.46</ele><time>2026-06-13T00:00:31.000Z</time></trkpt>
        <trkpt lat="29.5402205" lon="103.3320907"><ele>2403.12</ele><time>2026-06-13T00:00:37.000Z</time></trkpt>
        <trkpt lat="29.5401664" lon="103.3320894"><ele>2403.46</ele><time>2026-06-13T00:00:41.000Z</time></trkpt>
        <trkpt lat="29.5401188" lon="103.3321077"><ele>2403.56</ele><time>2026-06-13T00:00:45.000Z</time></trkpt>
        <trkpt lat="29.540083" lon="103.3321525"><ele>2403.23</ele><time>2026-06-13T00:00:49.000Z</time></trkpt>
        <trkpt lat="29.5400491" lon="103.3321932"><ele>2402.7</ele><time>2026-06-13T00:00:57.000Z</time></trkpt>
        <trkpt lat="29.5400027" lon="103.3322095"><ele>2402.1</ele><time>2026-06-13T00:01:01.000Z</time></trkpt>
        <trkpt lat="29.5399502" lon="103.3322227"><ele>2401.84</ele><time>2026-06-13T00:01:05.000Z</time></trkpt>
        <trkpt lat="29.5398996" lon="103.3322507"><ele>2402.21</ele><time>2026-06-13T00:01:09.000Z</time></trkpt>
        <trkpt lat="29.5398452" lon="103.3322862"><ele>2402.98</ele><time>2026-06-13T00:01:17.000Z</time></trkpt>
        <trkpt lat="29.5397972" lon="103.3323076"><ele>2404.49</ele><time>2026-06-13T00:01:21.000Z</time></trkpt>
        <trkpt lat="29.5397694" lon="103.3323483"><ele>2405.62</ele><time>2026-06-13T00:01:27.000Z</time></trkpt>
        <trkpt lat="29.5397362" lon="103.3323915"><ele>2406.6</ele><time>2026-06-13T00:01:33.000Z</time></trkpt>
        <trkpt lat="29.5396912" lon="103.3324298"><ele>2407.29</ele><time>2026-06-13T00:01:41.000Z</time></trkpt>
        <trkpt lat="29.5396602" lon="103.3324757"><ele>2407.12</ele><time>2026-06-13T00:01:49.000Z</time></trkpt>
        <trkpt lat="29.539621" lon="103.3325018"><ele>2407.07</ele><time>2026-06-13T00:01:55.000Z</time></trkpt>
        <trkpt lat="29.5395759" lon="103.3325203"><ele>2407.3</ele><time>2026-06-13T00:02:17.000Z</time></trkpt>
        <trkpt lat="29.53954" lon="103.3325618"><ele>2408.03</ele><time>2026-06-13T00:02:27.000Z</time></trkpt>
        <trkpt lat="29.5395003" lon="103.3326002"><ele>2408.28</ele><time>2026-06-13T00:02:35.000Z</time></trkpt>
        <trkpt lat="29.5394603" lon="103.332639"><ele>2408.84</ele><time>2026-06-13T00:02:41.000Z</time></trkpt>
        <trkpt lat="29.5394239" lon="103.3326753"><ele>2409.47</ele><time>2026-06-13T00:02:45.000Z</time></trkpt>
        <trkpt lat="29.539384" lon="103.3326993"><ele>2410.09</ele><time>2026-06-13T00:02:51.000Z</time></trkpt>
        <trkpt lat="29.5393538" lon="103.3327551"><ele>2410.87</ele><time>2026-06-13T00:02:57.000Z</time></trkpt>
        <trkpt lat="29.5393085" lon="103.3327869"><ele>2412.04</ele><time>2026-06-13T00:03:03.000Z</time></trkpt>
        <trkpt lat="29.5392647" lon="103.3328273"><ele>2413.06</ele><time>2026-06-13T00:03:09.000Z</time></trkpt>
        <trkpt lat="29.5392195" lon="103.3328327"><ele>2414.15</ele><time>2026-06-13T00:03:13.000Z</time></trkpt>
        <trkpt lat="29.539174" lon="103.3328477"><ele>2414.82</ele><time>2026-06-13T00:03:17.000Z</time></trkpt>
        <trkpt lat="29.5391362" lon="103.3329018"><ele>2415.24</ele><time>2026-06-13T00:03:23.000Z</time></trkpt>
        <trkpt lat="29.5391088" lon="103.3329557"><ele>2415.82</ele><time>2026-06-13T00:03:29.000Z</time></trkpt>
        <trkpt lat="29.539071" lon="103.3329824"><ele>2417.1</ele><time>2026-06-13T00:03:41.000Z</time></trkpt>
        <trkpt lat="29.5390212" lon="103.3330209"><ele>2418.57</ele><time>2026-06-13T00:03:49.000Z</time></trkpt>
        <trkpt lat="29.5389634" lon="103.3330532"><ele>2419.53</ele><time>2026-06-13T00:03:53.000Z</time></trkpt>
        <trkpt lat="29.5389134" lon="103.3330657"><ele>2420.38</ele><time>2026-06-13T00:03:57.000Z</time></trkpt>
        <trkpt lat="29.5388621" lon="103.3330713"><ele>2421.25</ele><time>2026-06-13T00:04:01.000Z</time></trkpt>
        <trkpt lat="29.5388004" lon="103.3330867"><ele>2421.96</ele><time>2026-06-13T00:04:07.000Z</time></trkpt>
        <trkpt lat="29.5387499" lon="103.333103"><ele>2422.19</ele><time>2026-06-13T00:04:11.000Z</time></trkpt>
        <trkpt lat="29.5386954" lon="103.3331235"><ele>2421.81</ele><time>2026-06-13T00:04:17.000Z</time></trkpt>
        <trkpt lat="29.5386366" lon="103.3331542"><ele>2421.16</ele><time>2026-06-13T00:04:23.000Z</time></trkpt>
        <trkpt lat="29.5385789" lon="103.333177"><ele>2420.53</ele><time>2026-06-13T00:04:31.000Z</time></trkpt>
        <trkpt lat="29.5385217" lon="103.3331876"><ele>2419.92</ele><time>2026-06-13T00:04:37.000Z</time></trkpt>
        <trkpt lat="29.5384649" lon="103.3332"><ele>2419.91</ele><time>2026-06-13T00:04:43.000Z</time></trkpt>
        <trkpt lat="29.538417" lon="103.3332"><ele>2420.64</ele><time>2026-06-13T00:04:49.000Z</time></trkpt>
        <trkpt lat="29.5383736" lon="103.3332158"><ele>2420.66</ele><time>2026-06-13T00:04:57.000Z</time></trkpt>
        <trkpt lat="29.5383351" lon="103.3332419"><ele>2421.45</ele><time>2026-06-13T00:05:01.000Z</time></trkpt>
        <trkpt lat="29.5382953" lon="103.3332651"><ele>2422.42</ele><time>2026-06-13T00:05:05.000Z</time></trkpt>
        <trkpt lat="29.5382596" lon="103.3332965"><ele>2423.01</ele><time>2026-06-13T00:05:11.000Z</time></trkpt>
        <trkpt lat="29.5382101" lon="103.3333406"><ele>2423.18</ele><time>2026-06-13T00:05:17.000Z</time></trkpt>
        <trkpt lat="29.5381628" lon="103.333375"><ele>2423.27</ele><time>2026-06-13T00:05:21.000Z</time></trkpt>
        <trkpt lat="29.5381131" lon="103.3333973"><ele>2423.72</ele><time>2026-06-13T00:05:25.000Z</time></trkpt>
        <trkpt lat="29.5380714" lon="103.3334303"><ele>2424.05</ele><time>2026-06-13T00:05:29.000Z</time></trkpt>
        <trkpt lat="29.5380279" lon="103.333479"><ele>2424.16</ele><time>2026-06-13T00:05:33.000Z</time></trkpt>
        <trkpt lat="29.5379772" lon="103.3335158"><ele>2424.82</ele><time>2026-06-13T00:05:37.000Z</time></trkpt>
        <trkpt lat="29.5379325" lon="103.3335397"><ele>2425.76</ele><time>2026-06-13T00:05:41.000Z</time></trkpt>
        <trkpt lat="29.5378879" lon="103.3335603"><ele>2427.15</ele><time>2026-06-13T00:05:45.000Z</time></trkpt>
        <trkpt lat="29.5378394" lon="103.3335804"><ele>2428.55</ele><time>2026-06-13T00:05:49.000Z</time></trkpt>
        <trkpt lat="29.5377969" lon="103.333626"><ele>2429.56</ele><time>2026-06-13T00:05:55.000Z</time></trkpt>
        <trkpt lat="29.5377643" lon="103.3336712"><ele>2430.27</ele><time>2026-06-13T00:06:01.000Z</time></trkpt>
        <trkpt lat="29.5377288" lon="103.3337239"><ele>2431.36</ele><time>2026-06-13T00:06:11.000Z</time></trkpt>
        <trkpt lat="29.5376791" lon="103.3337598"><ele>2432.75</ele><time>2026-06-13T00:06:19.000Z</time></trkpt>
        <trkpt lat="29.537634" lon="103.333799"><ele>2434.15</ele><time>2026-06-13T00:06:25.000Z</time></trkpt>
        <trkpt lat="29.5375987" lon="103.3337759"><ele>2435.33</ele><time>2026-06-13T00:06:33.000Z</time></trkpt>
        <trkpt lat="29.5375572" lon="103.3337578"><ele>2435.4</ele><time>2026-06-13T00:06:43.000Z</time></trkpt>
        <trkpt lat="29.5375041" lon="103.3337424"><ele>2434.89</ele><time>2026-06-13T00:06:49.000Z</time></trkpt>
        <trkpt lat="29.5374481" lon="103.3337397"><ele>2434.55</ele><time>2026-06-13T00:06:55.000Z</time></trkpt>
        <trkpt lat="29.5373943" lon="103.333761"><ele>2434.31</ele><time>2026-06-13T00:07:03.000Z</time></trkpt>
        <trkpt lat="29.5373543" lon="103.3338045"><ele>2434.35</ele><time>2026-06-13T00:07:09.000Z</time></trkpt>
        <trkpt lat="29.537337" lon="103.333866"><ele>2434.41</ele><time>2026-06-13T00:07:19.000Z</time></trkpt>
        <trkpt lat="29.5373211" lon="103.3339232"><ele>2434.75</ele><time>2026-06-13T00:07:27.000Z</time></trkpt>
        <trkpt lat="29.5373091" lon="103.3339768"><ele>2435.12</ele><time>2026-06-13T00:07:37.000Z</time></trkpt>
        <trkpt lat="29.5372775" lon="103.3340345"><ele>2435.58</ele><time>2026-06-13T00:07:51.000Z</time></trkpt>
        <trkpt lat="29.5372544" lon="103.3340934"><ele>2435.03</ele><time>2026-06-13T00:07:57.000Z</time></trkpt>
        <trkpt lat="29.5372176" lon="103.3341262"><ele>2434.5</ele><time>2026-06-13T00:08:03.000Z</time></trkpt>
        <trkpt lat="29.5371731" lon="103.3341403"><ele>2433.98</ele><time>2026-06-13T00:08:09.000Z</time></trkpt>
        <trkpt lat="29.5371341" lon="103.334169"><ele>2433.69</ele><time>2026-06-13T00:08:15.000Z</time></trkpt>
        <trkpt lat="29.5370865" lon="103.3341884"><ele>2433.74</ele><time>2026-06-13T00:08:23.000Z</time></trkpt>
        <trkpt lat="29.537041" lon="103.3342196"><ele>2434.71</ele><time>2026-06-13T00:08:37.000Z</time></trkpt>
        <trkpt lat="29.5369893" lon="103.3342456"><ele>2436.73</ele><time>2026-06-13T00:08:45.000Z</time></trkpt>
        <trkpt lat="29.5369429" lon="103.3342631"><ele>2438.74</ele><time>2026-06-13T00:08:59.000Z</time></trkpt>
        <trkpt lat="29.5368977" lon="103.3342852"><ele>2441.65</ele><time>2026-06-13T00:09:09.000Z</time></trkpt>
        <trkpt lat="29.5368554" lon="103.3343156"><ele>2444.12</ele><time>2026-06-13T00:09:21.000Z</time></trkpt>
        <trkpt lat="29.5368103" lon="103.3343329"><ele>2446.26</ele><time>2026-06-13T00:09:27.000Z</time></trkpt>
        <trkpt lat="29.5367589" lon="103.33434"><ele>2447.53</ele><time>2026-06-13T00:09:31.000Z</time></trkpt>
        <trkpt lat="29.5367027" lon="103.33435"><ele>2448.2</ele><time>2026-06-13T00:09:35.000Z</time></trkpt>
        <trkpt lat="29.5366452" lon="103.3343732"><ele>2448.98</ele><time>2026-06-13T00:09:41.000Z</time></trkpt>
        <trkpt lat="29.536594" lon="103.3343639"><ele>2450.1</ele><time>2026-06-13T00:09:47.000Z</time></trkpt>
        <trkpt lat="29.536554" lon="103.334391"><ele>2450.92</ele><time>2026-06-13T00:09:53.000Z</time></trkpt>
        <trkpt lat="29.5365218" lon="103.3343603"><ele>2451.64</ele><time>2026-06-13T00:09:59.000Z</time></trkpt>
        <trkpt lat="29.5364792" lon="103.3343285"><ele>2452.36</ele><time>2026-06-13T00:10:05.000Z</time></trkpt>
        <trkpt lat="29.536442" lon="103.3343464"><ele>2453.06</ele><time>2026-06-13T00:10:13.000Z</time></trkpt>
        <trkpt lat="29.5363994" lon="103.3343663"><ele>2453.16</ele><time>2026-06-13T00:10:23.000Z</time></trkpt>
        <trkpt lat="29.5363471" lon="103.33436"><ele>2453.27</ele><time>2026-06-13T00:10:33.000Z</time></trkpt>
        <trkpt lat="29.5363002" lon="103.3343416"><ele>2454.01</ele><time>2026-06-13T00:10:39.000Z</time></trkpt>
        <trkpt lat="29.5362534" lon="103.3343034"><ele>2454.35</ele><time>2026-06-13T00:10:49.000Z</time></trkpt>
        <trkpt lat="29.5362004" lon="103.3342716"><ele>2455.53</ele><time>2026-06-13T00:11:03.000Z</time></trkpt>
        <trkpt lat="29.5361464" lon="103.33426"><ele>2457.63</ele><time>2026-06-13T00:11:13.000Z</time></trkpt>
        <trkpt lat="29.5361025" lon="103.3342226"><ele>2459.08</ele><time>2026-06-13T00:11:19.000Z</time></trkpt>
        <trkpt lat="29.5360636" lon="103.3341836"><ele>2459.9</ele><time>2026-06-13T00:11:27.000Z</time></trkpt>
        <trkpt lat="29.5360187" lon="103.3341576"><ele>2460.55</ele><time>2026-06-13T00:11:43.000Z</time></trkpt>
        <trkpt lat="29.5359711" lon="103.3341169"><ele>2461.17</ele><time>2026-06-13T00:11:53.000Z</time></trkpt>
        <trkpt lat="29.5359176" lon="103.3341118"><ele>2461.79</ele><time>2026-06-13T00:12:07.000Z</time></trkpt>
        <trkpt lat="29.535877" lon="103.334079"><ele>2463.08</ele><time>2026-06-13T00:12:15.000Z</time></trkpt>
        <trkpt lat="29.5358355" lon="103.3340506"><ele>2464.25</ele><time>2026-06-13T00:12:35.000Z</time></trkpt>
        <trkpt lat="29.5357917" lon="103.3340283"><ele>2464.57</ele><time>2026-06-13T00:12:45.000Z</time></trkpt>
        <trkpt lat="29.5357821" lon="103.333977"><ele>2464.8</ele><time>2026-06-13T00:13:03.000Z</time></trkpt>
        <trkpt lat="29.5357436" lon="103.3339762"><ele>2465.02</ele><time>2026-06-13T00:13:19.000Z</time></trkpt>
        <trkpt lat="29.5356989" lon="103.3339628"><ele>2465.57</ele><time>2026-06-13T00:13:33.000Z</time></trkpt>
        <trkpt lat="29.5356551" lon="103.3339277"><ele>2465.5</ele><time>2026-06-13T00:13:45.000Z</time></trkpt>
        <trkpt lat="29.5356336" lon="103.3338792"><ele>2465.33</ele><time>2026-06-13T00:13:53.000Z</time></trkpt>
        <trkpt lat="29.5356055" lon="103.3338382"><ele>2465.44</ele><time>2026-06-13T00:14:07.000Z</time></trkpt>
        <trkpt lat="29.5355613" lon="103.3337736"><ele>2465.55</ele><time>2026-06-13T00:14:41.000Z</time></trkpt>
        <trkpt lat="29.5355174" lon="103.3337182"><ele>2466.26</ele><time>2026-06-13T00:14:47.000Z</time></trkpt>
        <trkpt lat="29.5354843" lon="103.3336663"><ele>2467.4</ele><time>2026-06-13T00:14:51.000Z</time></trkpt>
        <trkpt lat="29.5354506" lon="103.3336222"><ele>2468.34</ele><time>2026-06-13T00:14:55.000Z</time></trkpt>
        <trkpt lat="29.5354201" lon="103.3335734"><ele>2468.84</ele><time>2026-06-13T00:15:01.000Z</time></trkpt>
        <trkpt lat="29.5354105" lon="103.3335224"><ele>2469.12</ele><time>2026-06-13T00:15:05.000Z</time></trkpt>
        <trkpt lat="29.5353796" lon="103.3334907"><ele>2469.2</ele><time>2026-06-13T00:15:13.000Z</time></trkpt>
        <trkpt lat="29.5353546" lon="103.3334473"><ele>2469.76</ele><time>2026-06-13T00:15:26.000Z</time></trkpt>
        <trkpt lat="29.535331" lon="103.333395"><ele>2472.31</ele><time>2026-06-13T00:15:32.000Z</time></trkpt>
        <trkpt lat="29.5353128" lon="103.3333144"><ele>2474.46</ele><time>2026-06-13T00:15:52.000Z</time></trkpt>
        <trkpt lat="29.5352916" lon="103.3332554"><ele>2476.63</ele><time>2026-06-13T00:15:58.000Z</time></trkpt>
        <trkpt lat="29.5352475" lon="103.3331661"><ele>2478.12</ele><time>2026-06-13T00:16:22.000Z</time></trkpt>
        <trkpt lat="29.5352151" lon="103.3331055"><ele>2479.1</ele><time>2026-06-13T00:16:38.000Z</time></trkpt>
        <trkpt lat="29.5352058" lon="103.3330356"><ele>2480.78</ele><time>2026-06-13T00:17:00.000Z</time></trkpt>
        <trkpt lat="29.5351861" lon="103.332978"><ele>2483.71</ele><time>2026-06-13T00:17:08.000Z</time></trkpt>
        <trkpt lat="29.5351651" lon="103.3329299"><ele>2485.64</ele><time>2026-06-13T00:17:18.000Z</time></trkpt>
        <trkpt lat="29.5351436" lon="103.3328709"><ele>2487.6</ele><time>2026-06-13T00:17:28.000Z</time></trkpt>
        <trkpt lat="29.5351131" lon="103.3328246"><ele>2489.24</ele><time>2026-06-13T00:17:38.000Z</time></trkpt>
        <trkpt lat="29.5351131" lon="103.3328246"><ele>2489.24</ele><time>2026-06-13T00:18:33.000Z</time></trkpt>
        <trkpt lat="29.535065" lon="103.3328283"><ele>2490.6</ele><time>2026-06-13T00:18:53.000Z</time></trkpt>
        <trkpt lat="29.535065" lon="103.3328283"><ele>2490.6</ele><time>2026-06-13T00:19:16.000Z</time></trkpt>
        <trkpt lat="29.5350117" lon="103.3328033"><ele>2493.01</ele><time>2026-06-13T00:19:24.000Z</time></trkpt>
        <trkpt lat="29.5349626" lon="103.3328079"><ele>2493.82</ele><time>2026-06-13T00:19:30.000Z</time></trkpt>
        <trkpt lat="29.5349181" lon="103.3327946"><ele>2494.54</ele><time>2026-06-13T00:19:36.000Z</time></trkpt>
        <trkpt lat="29.5349039" lon="103.3328449"><ele>2495.64</ele><time>2026-06-13T00:19:50.000Z</time></trkpt>
        <trkpt lat="29.5349079" lon="103.3329093"><ele>2497.35</ele><time>2026-06-13T00:19:56.000Z</time></trkpt>
        <trkpt lat="29.5348756" lon="103.3329334"><ele>2497.76</ele><time>2026-06-13T00:20:00.000Z</time></trkpt>
        <trkpt lat="29.5348218" lon="103.3329514"><ele>2497.82</ele><time>2026-06-13T00:20:06.000Z</time></trkpt>
        <trkpt lat="29.5347785" lon="103.3329855"><ele>2497.38</ele><time>2026-06-13T00:20:48.000Z</time></trkpt>
        <trkpt lat="29.5347245" lon="103.332995"><ele>2496.36</ele><time>2026-06-13T00:20:58.000Z</time></trkpt>
        <trkpt lat="29.5346682" lon="103.333"><ele>2495.73</ele><time>2026-06-13T00:21:14.000Z</time></trkpt>
        <trkpt lat="29.5346167" lon="103.3330095"><ele>2496.02</ele><time>2026-06-13T00:21:26.000Z</time></trkpt>
        <trkpt lat="29.5345651" lon="103.3330202"><ele>2497.69</ele><time>2026-06-13T00:21:34.000Z</time></trkpt>
        <trkpt lat="29.5345122" lon="103.3330391"><ele>2500.06</ele><time>2026-06-13T00:21:42.000Z</time></trkpt>
        <trkpt lat="29.534465" lon="103.3330835"><ele>2502.57</ele><time>2026-06-13T00:21:52.000Z</time></trkpt>
        <trkpt lat="29.534415" lon="103.3331155"><ele>2504.73</ele><time>2026-06-13T00:21:58.000Z</time></trkpt>
        <trkpt lat="29.5343638" lon="103.3331502"><ele>2506.48</ele><time>2026-06-13T00:22:28.000Z</time></trkpt>
        <trkpt lat="29.5343108" lon="103.3331268"><ele>2507.18</ele><time>2026-06-13T00:22:34.000Z</time></trkpt>
        <trkpt lat="29.534266" lon="103.3331433"><ele>2507.92</ele><time>2026-06-13T00:22:56.000Z</time></trkpt>
        <trkpt lat="29.5342294" lon="103.3331761"><ele>2512</ele><time>2026-06-13T00:23:08.000Z</time></trkpt>
        <trkpt lat="29.5341841" lon="103.3331906"><ele>2516.21</ele><time>2026-06-13T00:23:20.000Z</time></trkpt>
        <trkpt lat="29.5341388" lon="103.3332134"><ele>2519.65</ele><time>2026-06-13T00:23:28.000Z</time></trkpt>
        <trkpt lat="29.5340935" lon="103.3332209"><ele>2522.38</ele><time>2026-06-13T00:23:34.000Z</time></trkpt>
        <trkpt lat="29.5340446" lon="103.33322"><ele>2524.41</ele><time>2026-06-13T00:23:42.000Z</time></trkpt>
        <trkpt lat="29.533997" lon="103.3332155"><ele>2525.78</ele><time>2026-06-13T00:23:54.000Z</time></trkpt>
        <trkpt lat="29.5339637" lon="103.333178"><ele>2528.24</ele><time>2026-06-13T00:24:02.000Z</time></trkpt>
        <trkpt lat="29.5338995" lon="103.3331553"><ele>2530.8</ele><time>2026-06-13T00:24:36.000Z</time></trkpt>
        <trkpt lat="29.5338444" lon="103.3331465"><ele>2530.85</ele><time>2026-06-13T00:24:44.000Z</time></trkpt>
        <trkpt lat="29.5337878" lon="103.333118"><ele>2530.74</ele><time>2026-06-13T00:24:58.000Z</time></trkpt>
        <trkpt lat="29.533747" lon="103.3330779"><ele>2531.07</ele><time>2026-06-13T00:25:10.000Z</time></trkpt>
        <trkpt lat="29.5336997" lon="103.3330157"><ele>2531.6</ele><time>2026-06-13T00:25:42.000Z</time></trkpt>
        <trkpt lat="29.5336617" lon="103.3329701"><ele>2534.09</ele><time>2026-06-13T00:25:56.000Z</time></trkpt>
        <trkpt lat="29.5336146" lon="103.3329325"><ele>2536.89</ele><time>2026-06-13T00:26:08.000Z</time></trkpt>
        <trkpt lat="29.5335787" lon="103.3328964"><ele>2538.75</ele><time>2026-06-13T00:26:18.000Z</time></trkpt>
        <trkpt lat="29.5335194" lon="103.3328468"><ele>2540.06</ele><time>2026-06-13T00:26:42.000Z</time></trkpt>
        <trkpt lat="29.53348" lon="103.3328007"><ele>2542.4</ele><time>2026-06-13T00:27:08.000Z</time></trkpt>
        <trkpt lat="29.5334413" lon="103.3327689"><ele>2545.71</ele><time>2026-06-13T00:27:14.000Z</time></trkpt>
        <trkpt lat="29.5333898" lon="103.3327438"><ele>2548.37</ele><time>2026-06-13T00:27:36.000Z</time></trkpt>
        <trkpt lat="29.5333371" lon="103.3327191"><ele>2551.31</ele><time>2026-06-13T00:27:48.000Z</time></trkpt>
        <trkpt lat="29.5332907" lon="103.3326963"><ele>2553.24</ele><time>2026-06-13T00:27:56.000Z</time></trkpt>
        <trkpt lat="29.5332469" lon="103.3326538"><ele>2555.46</ele><time>2026-06-13T00:28:14.000Z</time></trkpt>
        <trkpt lat="29.5332178" lon="103.332605"><ele>2558.19</ele><time>2026-06-13T00:28:30.000Z</time></trkpt>
        <trkpt lat="29.5331724" lon="103.3325485"><ele>2560.17</ele><time>2026-06-13T00:28:48.000Z</time></trkpt>
        <trkpt lat="29.5331327" lon="103.3325026"><ele>2561.99</ele><time>2026-06-13T00:29:00.000Z</time></trkpt>
        <trkpt lat="29.5330943" lon="103.3324626"><ele>2563.72</ele><time>2026-06-13T00:29:14.000Z</time></trkpt>
        <trkpt lat="29.5330612" lon="103.3324185"><ele>2565.6</ele><time>2026-06-13T00:29:26.000Z</time></trkpt>
        <trkpt lat="29.5330199" lon="103.3323849"><ele>2567.24</ele><time>2026-06-13T00:29:46.000Z</time></trkpt>
        <trkpt lat="29.5329828" lon="103.3323427"><ele>2568.04</ele><time>2026-06-13T00:29:58.000Z</time></trkpt>
        <trkpt lat="29.5329387" lon="103.3323168"><ele>2568.71</ele><time>2026-06-13T00:30:08.000Z</time></trkpt>
        <trkpt lat="29.5328982" lon="103.332282"><ele>2569.74</ele><time>2026-06-13T00:30:18.000Z</time></trkpt>
        <trkpt lat="29.5328719" lon="103.3322382"><ele>2571.01</ele><time>2026-06-13T00:30:29.000Z</time></trkpt>
        <trkpt lat="29.532847" lon="103.3321886"><ele>2572.56</ele><time>2026-06-13T00:30:45.000Z</time></trkpt>
        <trkpt lat="29.5328181" lon="103.3321474"><ele>2574.21</ele><time>2026-06-13T00:30:59.000Z</time></trkpt>
        <trkpt lat="29.5327772" lon="103.3321112"><ele>2576.1</ele><time>2026-06-13T00:31:09.000Z</time></trkpt>
        <trkpt lat="29.5327381" lon="103.3320692"><ele>2577.99</ele><time>2026-06-13T00:31:25.000Z</time></trkpt>
        <trkpt lat="29.5327381" lon="103.3320692"><ele>2577.99</ele><time>2026-06-13T00:32:07.000Z</time></trkpt>
        <trkpt lat="29.532633" lon="103.3319225"><ele>2580.06</ele><time>2026-06-13T00:32:23.000Z</time></trkpt>
        <trkpt lat="29.532633" lon="103.3319225"><ele>2580.06</ele><time>2026-06-13T00:32:27.000Z</time></trkpt>
        <trkpt lat="29.5326047" lon="103.3318727"><ele>2585.11</ele><time>2026-06-13T00:33:03.000Z</time></trkpt>
        <trkpt lat="29.5325795" lon="103.3318254"><ele>2586.61</ele><time>2026-06-13T00:33:13.000Z</time></trkpt>
        <trkpt lat="29.532562" lon="103.3317683"><ele>2587.94</ele><time>2026-06-13T00:33:25.000Z</time></trkpt>
        <trkpt lat="29.5325543" lon="103.3317135"><ele>2590.16</ele><time>2026-06-13T00:33:45.000Z</time></trkpt>
        <trkpt lat="29.5325406" lon="103.3316635"><ele>2592.89</ele><time>2026-06-13T00:33:59.000Z</time></trkpt>
        <trkpt lat="29.532505" lon="103.3316265"><ele>2595.56</ele><time>2026-06-13T00:34:17.000Z</time></trkpt>
        <trkpt lat="29.5324675" lon="103.3315941"><ele>2598.67</ele><time>2026-06-13T00:34:31.000Z</time></trkpt>
        <trkpt lat="29.5324592" lon="103.3315487"><ele>2601.44</ele><time>2026-06-13T00:34:43.000Z</time></trkpt>
        <trkpt lat="29.5324573" lon="103.3314954"><ele>2603.7</ele><time>2026-06-13T00:34:55.000Z</time></trkpt>
        <trkpt lat="29.5324452" lon="103.3314445"><ele>2605.85</ele><time>2026-06-13T00:35:11.000Z</time></trkpt>
        <trkpt lat="29.5324308" lon="103.3313876"><ele>2607.72</ele><time>2026-06-13T00:35:25.000Z</time></trkpt>
        <trkpt lat="29.5324107" lon="103.33133"><ele>2609.3</ele><time>2026-06-13T00:35:35.000Z</time></trkpt>
        <trkpt lat="29.5323811" lon="103.3312812"><ele>2610.85</ele><time>2026-06-13T00:35:55.000Z</time></trkpt>
        <trkpt lat="29.5323709" lon="103.3312235"><ele>2612.85</ele><time>2026-06-13T00:36:05.000Z</time></trkpt>
        <trkpt lat="29.532351" lon="103.331176"><ele>2614.33</ele><time>2026-06-13T00:36:19.000Z</time></trkpt>
        <trkpt lat="29.532342" lon="103.3312088"><ele>2616</ele><time>2026-06-13T00:36:47.000Z</time></trkpt>
        <trkpt lat="29.5323195" lon="103.3312631"><ele>2617.07</ele><time>2026-06-13T00:37:01.000Z</time></trkpt>
        <trkpt lat="29.5322954" lon="103.3313257"><ele>2618.16</ele><time>2026-06-13T00:37:17.000Z</time></trkpt>
        <trkpt lat="29.5322599" lon="103.3313801"><ele>2619.98</ele><time>2026-06-13T00:37:22.000Z</time></trkpt>
        <trkpt lat="29.5322193" lon="103.3313766"><ele>2621.37</ele><time>2026-06-13T00:37:46.000Z</time></trkpt>
        <trkpt lat="29.5322127" lon="103.331326"><ele>2623.36</ele><time>2026-06-13T00:38:07.000Z</time></trkpt>
        <trkpt lat="29.532228" lon="103.3312673"><ele>2625.36</ele><time>2026-06-13T00:38:13.000Z</time></trkpt>
        <trkpt lat="29.5322085" lon="103.3312196"><ele>2626.97</ele><time>2026-06-13T00:38:21.000Z</time></trkpt>
        <trkpt lat="29.5321968" lon="103.3311648"><ele>2628.53</ele><time>2026-06-13T00:38:37.000Z</time></trkpt>
        <trkpt lat="29.5321976" lon="103.3311019"><ele>2629.94</ele><time>2026-06-13T00:38:49.000Z</time></trkpt>
        <trkpt lat="29.5322042" lon="103.3310406"><ele>2630.65</ele><time>2026-06-13T00:38:57.000Z</time></trkpt>
        <trkpt lat="29.5321886" lon="103.3309907"><ele>2631.36</ele><time>2026-06-13T00:39:05.000Z</time></trkpt>
        <trkpt lat="29.5322028" lon="103.3309342"><ele>2632.07</ele><time>2026-06-13T00:39:17.000Z</time></trkpt>
        <trkpt lat="29.5321951" lon="103.3308797"><ele>2633.2</ele><time>2026-06-13T00:39:25.000Z</time></trkpt>
        <trkpt lat="29.532202" lon="103.33082"><ele>2634.27</ele><time>2026-06-13T00:39:31.000Z</time></trkpt>
        <trkpt lat="29.5321772" lon="103.330777"><ele>2635.4</ele><time>2026-06-13T00:39:37.000Z</time></trkpt>
        <trkpt lat="29.5321704" lon="103.3307179"><ele>2636.52</ele><time>2026-06-13T00:39:43.000Z</time></trkpt>
        <trkpt lat="29.5321767" lon="103.3306583"><ele>2636.94</ele><time>2026-06-13T00:39:49.000Z</time></trkpt>
        <trkpt lat="29.5321813" lon="103.3306041"><ele>2636.75</ele><time>2026-06-13T00:39:57.000Z</time></trkpt>
        <trkpt lat="29.5321813" lon="103.3306041"><ele>2636.75</ele><time>2026-06-13T00:41:21.000Z</time></trkpt>
        <trkpt lat="29.532175" lon="103.3305217"><ele>2636.77</ele><time>2026-06-13T00:41:23.000Z</time></trkpt>
        <trkpt lat="29.532175" lon="103.3305217"><ele>2636.77</ele><time>2026-06-13T00:41:23.000Z</time></trkpt>
        <trkpt lat="29.5322083" lon="103.3304783"><ele>2639.15</ele><time>2026-06-13T00:41:43.000Z</time></trkpt>
        <trkpt lat="29.5321726" lon="103.3304688"><ele>2642.96</ele><time>2026-06-13T00:42:03.000Z</time></trkpt>
        <trkpt lat="29.5321542" lon="103.3304255"><ele>2646.42</ele><time>2026-06-13T00:42:17.000Z</time></trkpt>
        <trkpt lat="29.5321308" lon="103.3303767"><ele>2648.26</ele><time>2026-06-13T00:42:43.000Z</time></trkpt>
        <trkpt lat="29.5321348" lon="103.3303228"><ele>2649.27</ele><time>2026-06-13T00:42:55.000Z</time></trkpt>
        <trkpt lat="29.5321645" lon="103.3302815"><ele>2650.31</ele><time>2026-06-13T00:43:03.000Z</time></trkpt>
        <trkpt lat="29.5321937" lon="103.3302368"><ele>2651.08</ele><time>2026-06-13T00:43:21.000Z</time></trkpt>
        <trkpt lat="29.532145" lon="103.330245"><ele>2652.94</ele><time>2026-06-13T00:44:35.000Z</time></trkpt>
        <trkpt lat="29.5320933" lon="103.3302633"><ele>2656.36</ele><time>2026-06-13T00:44:59.000Z</time></trkpt>
        <trkpt lat="29.5321235" lon="103.3302803"><ele>2659.78</ele><time>2026-06-13T00:45:07.000Z</time></trkpt>
        <trkpt lat="29.5321076" lon="103.3302545"><ele>2661.94</ele><time>2026-06-13T00:45:21.000Z</time></trkpt>
        <trkpt lat="29.5320615" lon="103.3302492"><ele>2663.99</ele><time>2026-06-13T00:46:11.000Z</time></trkpt>
        <trkpt lat="29.532011" lon="103.3302363"><ele>2664.38</ele><time>2026-06-13T00:46:29.000Z</time></trkpt>
        <trkpt lat="29.532011" lon="103.3302363"><ele>2664.38</ele><time>2026-06-13T00:46:59.000Z</time></trkpt>
        <trkpt lat="29.5318735" lon="103.3302033"><ele>2665.72</ele><time>2026-06-13T00:47:15.000Z</time></trkpt>
        <trkpt lat="29.5318735" lon="103.3302033"><ele>2665.72</ele><time>2026-06-13T00:47:27.000Z</time></trkpt>
        <trkpt lat="29.5318517" lon="103.3301543"><ele>2670.19</ele><time>2026-06-13T00:47:39.000Z</time></trkpt>
        <trkpt lat="29.5318228" lon="103.3301145"><ele>2673.46</ele><time>2026-06-13T00:47:47.000Z</time></trkpt>
        <trkpt lat="29.5317794" lon="103.3300936"><ele>2675.67</ele><time>2026-06-13T00:47:55.000Z</time></trkpt>
        <trkpt lat="29.5317364" lon="103.3300725"><ele>2677.23</ele><time>2026-06-13T00:48:05.000Z</time></trkpt>
        <trkpt lat="29.5316914" lon="103.3300606"><ele>2678.51</ele><time>2026-06-13T00:48:37.000Z</time></trkpt>
        <trkpt lat="29.5316446" lon="103.3300354"><ele>2679.45</ele><time>2026-06-13T00:49:19.000Z</time></trkpt>
        <trkpt lat="29.5316063" lon="103.3299984"><ele>2681.32</ele><time>2026-06-13T00:49:29.000Z</time></trkpt>
        <trkpt lat="29.5315624" lon="103.3299824"><ele>2683.51</ele><time>2026-06-13T00:49:59.000Z</time></trkpt>
        <trkpt lat="29.5315624" lon="103.3299824"><ele>2683.51</ele><time>2026-06-13T00:50:47.000Z</time></trkpt>
        <trkpt lat="29.5314233" lon="103.32987"><ele>2686.17</ele><time>2026-06-13T00:51:09.000Z</time></trkpt>
        <trkpt lat="29.5314233" lon="103.32987"><ele>2686.17</ele><time>2026-06-13T00:51:27.000Z</time></trkpt>
        <trkpt lat="29.5313837" lon="103.3298292"><ele>2693.07</ele><time>2026-06-13T00:51:53.000Z</time></trkpt>
        <trkpt lat="29.5313837" lon="103.3298292"><ele>2693.07</ele><time>2026-06-13T00:52:07.000Z</time></trkpt>
        <trkpt lat="29.5313186" lon="103.3297494"><ele>2698.2</ele><time>2026-06-13T00:52:19.000Z</time></trkpt>
        <trkpt lat="29.5313186" lon="103.3297494"><ele>2698.2</ele><time>2026-06-13T00:52:29.000Z</time></trkpt>
        <trkpt lat="29.5313186" lon="103.3297494"><ele>2698.2</ele><time>2026-06-13T00:52:51.000Z</time></trkpt>
        <trkpt lat="29.5312388" lon="103.3295928"><ele>2702.5</ele><time>2026-06-13T00:53:13.000Z</time></trkpt>
        <trkpt lat="29.5312388" lon="103.3295928"><ele>2702.5</ele><time>2026-06-13T00:53:43.000Z</time></trkpt>
        <trkpt lat="29.5312388" lon="103.3295928"><ele>2702.5</ele><time>2026-06-13T00:53:55.000Z</time></trkpt>
        <trkpt lat="29.5311978" lon="103.3295066"><ele>2709.56</ele><time>2026-06-13T00:54:03.000Z</time></trkpt>
        <trkpt lat="29.5311978" lon="103.3295066"><ele>2709.56</ele><time>2026-06-13T00:54:11.000Z</time></trkpt>
        <trkpt lat="29.5311978" lon="103.3295066"><ele>2709.56</ele><time>2026-06-13T00:54:53.000Z</time></trkpt>
        <trkpt lat="29.531185" lon="103.329455"><ele>2716.03</ele><time>2026-06-13T00:55:51.000Z</time></trkpt>
        <trkpt lat="29.531185" lon="103.329455"><ele>2716.03</ele><time>2026-06-13T00:55:51.000Z</time></trkpt>
        <trkpt lat="29.531185" lon="103.329455"><ele>2716.03</ele><time>2026-06-13T00:56:25.000Z</time></trkpt>
        <trkpt lat="29.531185" lon="103.329455"><ele>2716.03</ele><time>2026-06-13T00:58:15.000Z</time></trkpt>
        <trkpt lat="29.531185" lon="103.329455"><ele>2716.03</ele><time>2026-06-13T00:59:01.000Z</time></trkpt>
        <trkpt lat="29.5311883" lon="103.3294183"><ele>2722.34</ele><time>2026-06-13T01:02:39.000Z</time></trkpt>
        <trkpt lat="29.5311883" lon="103.3294183"><ele>2722.34</ele><time>2026-06-13T01:02:55.000Z</time></trkpt>
        <trkpt lat="29.5311633" lon="103.3293717"><ele>2724.73</ele><time>2026-06-13T01:03:01.000Z</time></trkpt>
        <trkpt lat="29.5311412" lon="103.3293123"><ele>2726.35</ele><time>2026-06-13T01:03:09.000Z</time></trkpt>
        <trkpt lat="29.5311465" lon="103.3292571"><ele>2727.62</ele><time>2026-06-13T01:03:15.000Z</time></trkpt>
        <trkpt lat="29.5311429" lon="103.3291907"><ele>2728.95</ele><time>2026-06-13T01:03:21.000Z</time></trkpt>
        <trkpt lat="29.531144" lon="103.3291314"><ele>2730.26</ele><time>2026-06-13T01:03:25.000Z</time></trkpt>
        <trkpt lat="29.5311414" lon="103.3290705"><ele>2731.52</ele><time>2026-06-13T01:03:31.000Z</time></trkpt>
        <trkpt lat="29.5311484" lon="103.3290201"><ele>2733.66</ele><time>2026-06-13T01:03:37.000Z</time></trkpt>
        <trkpt lat="29.5311363" lon="103.3289699"><ele>2735.74</ele><time>2026-06-13T01:03:49.000Z</time></trkpt>
        <trkpt lat="29.5311316" lon="103.328918"><ele>2737.92</ele><time>2026-06-13T01:03:59.000Z</time></trkpt>
        <trkpt lat="29.531138" lon="103.3288426"><ele>2738.47</ele><time>2026-06-13T01:04:07.000Z</time></trkpt>
        <trkpt lat="29.5311434" lon="103.3287811"><ele>2738.27</ele><time>2026-06-13T01:04:11.000Z</time></trkpt>
        <trkpt lat="29.5311578" lon="103.3287209"><ele>2738.37</ele><time>2026-06-13T01:04:21.000Z</time></trkpt>
        <trkpt lat="29.5311728" lon="103.3286611"><ele>2739.5</ele><time>2026-06-13T01:04:31.000Z</time></trkpt>
        <trkpt lat="29.5311973" lon="103.3286152"><ele>2741.56</ele><time>2026-06-13T01:04:47.000Z</time></trkpt>
        <trkpt lat="29.5311999" lon="103.3285654"><ele>2743.43</ele><time>2026-06-13T01:04:59.000Z</time></trkpt>
        <trkpt lat="29.5312101" lon="103.3285134"><ele>2744.06</ele><time>2026-06-13T01:05:09.000Z</time></trkpt>
        <trkpt lat="29.5312339" lon="103.3284553"><ele>2744.51</ele><time>2026-06-13T01:05:19.000Z</time></trkpt>
        <trkpt lat="29.5312602" lon="103.3283864"><ele>2744.98</ele><time>2026-06-13T01:05:25.000Z</time></trkpt>
        <trkpt lat="29.5312816" lon="103.3283262"><ele>2745.33</ele><time>2026-06-13T01:05:29.000Z</time></trkpt>
        <trkpt lat="29.5312932" lon="103.3282714"><ele>2746.01</ele><time>2026-06-13T01:05:33.000Z</time></trkpt>
        <trkpt lat="29.5313075" lon="103.3282221"><ele>2747.25</ele><time>2026-06-13T01:05:37.000Z</time></trkpt>
        <trkpt lat="29.5313183" lon="103.3281658"><ele>2748.61</ele><time>2026-06-13T01:05:41.000Z</time></trkpt>
        <trkpt lat="29.5313191" lon="103.3281014"><ele>2749.98</ele><time>2026-06-13T01:05:49.000Z</time></trkpt>
        <trkpt lat="29.5313292" lon="103.3280443"><ele>2752.27</ele><time>2026-06-13T01:05:53.000Z</time></trkpt>
        <trkpt lat="29.5313332" lon="103.3279852"><ele>2753.87</ele><time>2026-06-13T01:05:59.000Z</time></trkpt>
        <trkpt lat="29.5313412" lon="103.3279304"><ele>2755.69</ele><time>2026-06-13T01:06:09.000Z</time></trkpt>
        <trkpt lat="29.5313183" lon="103.3278734"><ele>2757.03</ele><time>2026-06-13T01:06:17.000Z</time></trkpt>
        <trkpt lat="29.5312916" lon="103.3278254"><ele>2757.66</ele><time>2026-06-13T01:06:25.000Z</time></trkpt>
        <trkpt lat="29.5312751" lon="103.3277669"><ele>2758.41</ele><time>2026-06-13T01:06:35.000Z</time></trkpt>
        <trkpt lat="29.5312735" lon="103.3277003"><ele>2758.96</ele><time>2026-06-13T01:06:43.000Z</time></trkpt>
        <trkpt lat="29.5312773" lon="103.3276337"><ele>2759.71</ele><time>2026-06-13T01:06:51.000Z</time></trkpt>
        <trkpt lat="29.5312835" lon="103.3275751"><ele>2760.78</ele><time>2026-06-13T01:06:59.000Z</time></trkpt>
        <trkpt lat="29.5312699" lon="103.3275247"><ele>2762.21</ele><time>2026-06-13T01:07:07.000Z</time></trkpt>
        <trkpt lat="29.5312748" lon="103.3274759"><ele>2763.84</ele><time>2026-06-13T01:07:21.000Z</time></trkpt>
        <trkpt lat="29.531281" lon="103.3274258"><ele>2766.36</ele><time>2026-06-13T01:07:31.000Z</time></trkpt>
        <trkpt lat="29.5312759" lon="103.3273736"><ele>2768.7</ele><time>2026-06-13T01:07:49.000Z</time></trkpt>
        <trkpt lat="29.5312749" lon="103.3273167"><ele>2770.33</ele><time>2026-06-13T01:08:05.000Z</time></trkpt>
        <trkpt lat="29.5312685" lon="103.3272581"><ele>2771.18</ele><time>2026-06-13T01:08:15.000Z</time></trkpt>
        <trkpt lat="29.5312525" lon="103.3271992"><ele>2772.39</ele><time>2026-06-13T01:08:27.000Z</time></trkpt>
        <trkpt lat="29.531237" lon="103.3271467"><ele>2773.99</ele><time>2026-06-13T01:08:45.000Z</time></trkpt>
        <trkpt lat="29.5311999" lon="103.3271067"><ele>2776.14</ele><time>2026-06-13T01:08:59.000Z</time></trkpt>
        <trkpt lat="29.5311565" lon="103.3270772"><ele>2777.5</ele><time>2026-06-13T01:09:09.000Z</time></trkpt>
        <trkpt lat="29.5311071" lon="103.3270645"><ele>2778.15</ele><time>2026-06-13T01:09:14.000Z</time></trkpt>
        <trkpt lat="29.5310616" lon="103.3270369"><ele>2778.81</ele><time>2026-06-13T01:09:23.000Z</time></trkpt>
        <trkpt lat="29.5310159" lon="103.3270149"><ele>2779.24</ele><time>2026-06-13T01:09:31.000Z</time></trkpt>
        <trkpt lat="29.5309704" lon="103.3270013"><ele>2780.47</ele><time>2026-06-13T01:09:41.000Z</time></trkpt>
        <trkpt lat="29.5309302" lon="103.3269754"><ele>2781.82</ele><time>2026-06-13T01:09:51.000Z</time></trkpt>
        <trkpt lat="29.5308819" lon="103.3269607"><ele>2783.44</ele><time>2026-06-13T01:10:01.000Z</time></trkpt>
        <trkpt lat="29.5308654" lon="103.3269167"><ele>2785.75</ele><time>2026-06-13T01:10:11.000Z</time></trkpt>
        <trkpt lat="29.530866" lon="103.3268615"><ele>2788.57</ele><time>2026-06-13T01:10:23.000Z</time></trkpt>
        <trkpt lat="29.5308373" lon="103.3268586"><ele>2792.02</ele><time>2026-06-13T01:10:39.000Z</time></trkpt>
        <trkpt lat="29.5307875" lon="103.3268851"><ele>2793.91</ele><time>2026-06-13T01:11:09.000Z</time></trkpt>
        <trkpt lat="29.5307368" lon="103.3268875"><ele>2796.27</ele><time>2026-06-13T01:11:19.000Z</time></trkpt>
        <trkpt lat="29.5306911" lon="103.3269097"><ele>2797.74</ele><time>2026-06-13T01:11:27.000Z</time></trkpt>
        <trkpt lat="29.530638" lon="103.3269277"><ele>2799.32</ele><time>2026-06-13T01:11:35.000Z</time></trkpt>
        <trkpt lat="29.5305874" lon="103.326948"><ele>2800.56</ele><time>2026-06-13T01:11:49.000Z</time></trkpt>
        <trkpt lat="29.5305433" lon="103.3269713"><ele>2801.87</ele><time>2026-06-13T01:12:15.000Z</time></trkpt>
        <trkpt lat="29.5304891" lon="103.3269941"><ele>2802.01</ele><time>2026-06-13T01:12:25.000Z</time></trkpt>
        <trkpt lat="29.5304422" lon="103.3270138"><ele>2801.79</ele><time>2026-06-13T01:12:31.000Z</time></trkpt>
        <trkpt lat="29.5304034" lon="103.3270411"><ele>2802.4</ele><time>2026-06-13T01:12:35.000Z</time></trkpt>
        <trkpt lat="29.5303711" lon="103.32708"><ele>2803.43</ele><time>2026-06-13T01:12:39.000Z</time></trkpt>
        <trkpt lat="29.5303256" lon="103.3270927"><ele>2804.71</ele><time>2026-06-13T01:12:47.000Z</time></trkpt>
        <trkpt lat="29.5302835" lon="103.3271238"><ele>2807.2</ele><time>2026-06-13T01:12:59.000Z</time></trkpt>
        <trkpt lat="29.5302416" lon="103.3271513"><ele>2811.54</ele><time>2026-06-13T01:13:05.000Z</time></trkpt>
        <trkpt lat="29.5301987" lon="103.3271708"><ele>2815.44</ele><time>2026-06-13T01:13:13.000Z</time></trkpt>
        <trkpt lat="29.5301566" lon="103.3271998"><ele>2818.73</ele><time>2026-06-13T01:13:19.000Z</time></trkpt>
        <trkpt lat="29.5301211" lon="103.3272453"><ele>2820.7</ele><time>2026-06-13T01:13:23.000Z</time></trkpt>
        <trkpt lat="29.5300868" lon="103.3272876"><ele>2821.6</ele><time>2026-06-13T01:13:27.000Z</time></trkpt>
        <trkpt lat="29.530045" lon="103.3273115"><ele>2821.73</ele><time>2026-06-13T01:13:35.000Z</time></trkpt>
        <trkpt lat="29.5300065" lon="103.3273445"><ele>2821.2</ele><time>2026-06-13T01:13:43.000Z</time></trkpt>
        <trkpt lat="29.5299719" lon="103.3273942"><ele>2820.38</ele><time>2026-06-13T01:13:53.000Z</time></trkpt>
        <trkpt lat="29.52994" lon="103.32745"><ele>2819.96</ele><time>2026-06-13T01:14:19.000Z</time></trkpt>
        <trkpt lat="29.5299264" lon="103.3275069"><ele>2818.95</ele><time>2026-06-13T01:14:29.000Z</time></trkpt>
        <trkpt lat="29.5299004" lon="103.3275685"><ele>2818.54</ele><time>2026-06-13T01:14:35.000Z</time></trkpt>
        <trkpt lat="29.5298788" lon="103.3276225"><ele>2818.22</ele><time>2026-06-13T01:14:39.000Z</time></trkpt>
        <trkpt lat="29.5298588" lon="103.3276782"><ele>2818.08</ele><time>2026-06-13T01:14:45.000Z</time></trkpt>
        <trkpt lat="29.5298292" lon="103.3277272"><ele>2817.96</ele><time>2026-06-13T01:14:51.000Z</time></trkpt>
        <trkpt lat="29.5297947" lon="103.3277724"><ele>2818.41</ele><time>2026-06-13T01:14:57.000Z</time></trkpt>
        <trkpt lat="29.5297424" lon="103.3277991"><ele>2819.39</ele><time>2026-06-13T01:15:09.000Z</time></trkpt>
        <trkpt lat="29.5296817" lon="103.3278194"><ele>2820.04</ele><time>2026-06-13T01:15:15.000Z</time></trkpt>
        <trkpt lat="29.5296267" lon="103.3278248"><ele>2820.93</ele><time>2026-06-13T01:15:29.000Z</time></trkpt>
        <trkpt lat="29.5295686" lon="103.327817"><ele>2821</ele><time>2026-06-13T01:15:37.000Z</time></trkpt>
        <trkpt lat="29.5294971" lon="103.3278108"><ele>2821.22</ele><time>2026-06-13T01:15:43.000Z</time></trkpt>
        <trkpt lat="29.5294373" lon="103.3277978"><ele>2820.78</ele><time>2026-06-13T01:15:49.000Z</time></trkpt>
        <trkpt lat="29.5293915" lon="103.3278218"><ele>2820.57</ele><time>2026-06-13T01:15:59.000Z</time></trkpt>
        <trkpt lat="29.5293594" lon="103.3278613"><ele>2821.1</ele><time>2026-06-13T01:16:09.000Z</time></trkpt>
        <trkpt lat="29.5293477" lon="103.3279161"><ele>2822.09</ele><time>2026-06-13T01:16:15.000Z</time></trkpt>
        <trkpt lat="29.529336" lon="103.3279898"><ele>2823</ele><time>2026-06-13T01:16:19.000Z</time></trkpt>
        <trkpt lat="29.5293276" lon="103.3280536"><ele>2823.73</ele><time>2026-06-13T01:16:23.000Z</time></trkpt>
        <trkpt lat="29.5293182" lon="103.328033"><ele>2824.66</ele><time>2026-06-13T01:16:33.000Z</time></trkpt>
        <trkpt lat="29.5293182" lon="103.328033"><ele>2824.66</ele><time>2026-06-13T01:17:11.000Z</time></trkpt>
        <trkpt lat="29.5293027" lon="103.3280637"><ele>2825.84</ele><time>2026-06-13T01:17:29.000Z</time></trkpt>
        <trkpt lat="29.5293027" lon="103.3280637"><ele>2825.84</ele><time>2026-06-13T01:17:33.000Z</time></trkpt>
        <trkpt lat="29.5292922" lon="103.3281212"><ele>2825.26</ele><time>2026-06-13T01:17:38.000Z</time></trkpt>
        <trkpt lat="29.52927" lon="103.3281755"><ele>2825.28</ele><time>2026-06-13T01:17:45.000Z</time></trkpt>
        <trkpt lat="29.5292595" lon="103.3282507"><ele>2825.59</ele><time>2026-06-13T01:18:29.000Z</time></trkpt>
        <trkpt lat="29.5292452" lon="103.328309"><ele>2826.15</ele><time>2026-06-13T01:18:39.000Z</time></trkpt>
        <trkpt lat="29.5292403" lon="103.3283621"><ele>2825.96</ele><time>2026-06-13T01:18:49.000Z</time></trkpt>
        <trkpt lat="29.5292527" lon="103.3284146"><ele>2827.27</ele><time>2026-06-13T01:18:57.000Z</time></trkpt>
        <trkpt lat="29.5292295" lon="103.328466"><ele>2828.4</ele><time>2026-06-13T01:19:07.000Z</time></trkpt>
        <trkpt lat="29.5292097" lon="103.3285185"><ele>2829.99</ele><time>2026-06-13T01:19:14.000Z</time></trkpt>
        <trkpt lat="29.5291849" lon="103.3285779"><ele>2831.72</ele><time>2026-06-13T01:19:25.000Z</time></trkpt>
        <trkpt lat="29.5291538" lon="103.3286234"><ele>2833.99</ele><time>2026-06-13T01:19:39.000Z</time></trkpt>
        <trkpt lat="29.5291447" lon="103.3286774"><ele>2837.13</ele><time>2026-06-13T01:19:49.000Z</time></trkpt>
        <trkpt lat="29.5291268" lon="103.3287299"><ele>2838.62</ele><time>2026-06-13T01:19:57.000Z</time></trkpt>
        <trkpt lat="29.5290985" lon="103.3287894"><ele>2839.56</ele><time>2026-06-13T01:20:03.000Z</time></trkpt>
        <trkpt lat="29.5290752" lon="103.3288588"><ele>2840.44</ele><time>2026-06-13T01:20:08.000Z</time></trkpt>
        <trkpt lat="29.5290405" lon="103.3289115"><ele>2841.58</ele><time>2026-06-13T01:20:17.000Z</time></trkpt>
        <trkpt lat="29.529003" lon="103.328961"><ele>2843.01</ele><time>2026-06-13T01:20:23.000Z</time></trkpt>
        <trkpt lat="29.5289738" lon="103.3290237"><ele>2844.77</ele><time>2026-06-13T01:20:29.000Z</time></trkpt>
        <trkpt lat="29.5289532" lon="103.3290617"><ele>2846.42</ele><time>2026-06-13T01:20:31.000Z</time></trkpt>
        <trkpt lat="29.5289355" lon="103.3291088"><ele>2847.53</ele><time>2026-06-13T01:20:37.000Z</time></trkpt>
        <trkpt lat="29.5289259" lon="103.3291604"><ele>2848.59</ele><time>2026-06-13T01:20:45.000Z</time></trkpt>
        <trkpt lat="29.5288986" lon="103.3292175"><ele>2850.06</ele><time>2026-06-13T01:20:53.000Z</time></trkpt>
        <trkpt lat="29.5288455" lon="103.3292627"><ele>2852.01</ele><time>2026-06-13T01:21:03.000Z</time></trkpt>
        <trkpt lat="29.5288123" lon="103.329308"><ele>2854.24</ele><time>2026-06-13T01:21:08.000Z</time></trkpt>
        <trkpt lat="29.5287844" lon="103.3293714"><ele>2855.95</ele><time>2026-06-13T01:21:15.000Z</time></trkpt>
        <trkpt lat="29.5287645" lon="103.3294253"><ele>2857.47</ele><time>2026-06-13T01:21:21.000Z</time></trkpt>
        <trkpt lat="29.5287521" lon="103.329495"><ele>2858.47</ele><time>2026-06-13T01:21:27.000Z</time></trkpt>
        <trkpt lat="29.5287394" lon="103.3295617"><ele>2859.39</ele><time>2026-06-13T01:21:32.000Z</time></trkpt>
        <trkpt lat="29.528732" lon="103.3295913"><ele>2860.77</ele><time>2026-06-13T01:21:35.000Z</time></trkpt>
        <trkpt lat="29.5287312" lon="103.3296348"><ele>2861.73</ele><time>2026-06-13T01:21:42.000Z</time></trkpt>
        <trkpt lat="29.5287274" lon="103.3296889"><ele>2862.96</ele><time>2026-06-13T01:21:51.000Z</time></trkpt>
        <trkpt lat="29.5287167" lon="103.3297447"><ele>2864.87</ele><time>2026-06-13T01:21:55.000Z</time></trkpt>
        <trkpt lat="29.5286997" lon="103.3298031"><ele>2866.35</ele><time>2026-06-13T01:22:01.000Z</time></trkpt>
        <trkpt lat="29.5287082" lon="103.3298721"><ele>2867.83</ele><time>2026-06-13T01:22:09.000Z</time></trkpt>
        <trkpt lat="29.5286926" lon="103.329926"><ele>2868.89</ele><time>2026-06-13T01:22:13.000Z</time></trkpt>
        <trkpt lat="29.528666" lon="103.3299822"><ele>2869.71</ele><time>2026-06-13T01:22:19.000Z</time></trkpt>
        <trkpt lat="29.5286309" lon="103.3300223"><ele>2869.32</ele><time>2026-06-13T01:22:26.000Z</time></trkpt>
        <trkpt lat="29.5285788" lon="103.3300704"><ele>2868.02</ele><time>2026-06-13T01:22:45.000Z</time></trkpt>
        <trkpt lat="29.5285202" lon="103.330106"><ele>2867.15</ele><time>2026-06-13T01:22:49.000Z</time></trkpt>
        <trkpt lat="29.5284744" lon="103.3301509"><ele>2866.57</ele><time>2026-06-13T01:22:54.000Z</time></trkpt>
        <trkpt lat="29.5284757" lon="103.3302024"><ele>2865.77</ele><time>2026-06-13T01:22:58.000Z</time></trkpt>
        <trkpt lat="29.5284829" lon="103.3302549"><ele>2864.71</ele><time>2026-06-13T01:23:03.000Z</time></trkpt>
        <trkpt lat="29.5284771" lon="103.3303074"><ele>2863.71</ele><time>2026-06-13T01:23:07.000Z</time></trkpt>
        <trkpt lat="29.5284849" lon="103.3303721"><ele>2863.02</ele><time>2026-06-13T01:23:12.000Z</time></trkpt>
        <trkpt lat="29.5284849" lon="103.3303721"><ele>2863.02</ele><time>2026-06-13T01:23:55.000Z</time></trkpt>
        <trkpt lat="29.5284849" lon="103.3303721"><ele>2863.02</ele><time>2026-06-13T01:24:05.000Z</time></trkpt>
        <trkpt lat="29.5284849" lon="103.3303721"><ele>2863.02</ele><time>2026-06-13T01:24:51.000Z</time></trkpt>
        <trkpt lat="29.52839" lon="103.3304183"><ele>2862.75</ele><time>2026-06-13T01:26:11.000Z</time></trkpt>
        <trkpt lat="29.52839" lon="103.3304183"><ele>2862.75</ele><time>2026-06-13T01:26:16.000Z</time></trkpt>
        <trkpt lat="29.5283664" lon="103.3304706"><ele>2859.37</ele><time>2026-06-13T01:26:26.000Z</time></trkpt>
        <trkpt lat="29.5283901" lon="103.3305272"><ele>2858.65</ele><time>2026-06-13T01:26:48.000Z</time></trkpt>
        <trkpt lat="29.5283985" lon="103.3305877"><ele>2859.19</ele><time>2026-06-13T01:27:06.000Z</time></trkpt>
        <trkpt lat="29.5283722" lon="103.3306329"><ele>2860.27</ele><time>2026-06-13T01:27:36.000Z</time></trkpt>
        <trkpt lat="29.5283438" lon="103.330692"><ele>2862.65</ele><time>2026-06-13T01:27:50.000Z</time></trkpt>
        <trkpt lat="29.5283147" lon="103.330744"><ele>2864.52</ele><time>2026-06-13T01:27:56.000Z</time></trkpt>
        <trkpt lat="29.5282852" lon="103.330788"><ele>2866.45</ele><time>2026-06-13T01:28:04.000Z</time></trkpt>
        <trkpt lat="29.5282484" lon="103.3308317"><ele>2868.75</ele><time>2026-06-13T01:28:12.000Z</time></trkpt>
        <trkpt lat="29.5282343" lon="103.3308833"><ele>2871.31</ele><time>2026-06-13T01:28:20.000Z</time></trkpt>
        <trkpt lat="29.5282127" lon="103.3309318"><ele>2873.76</ele><time>2026-06-13T01:28:30.000Z</time></trkpt>
        <trkpt lat="29.5282001" lon="103.3309914"><ele>2877.3</ele><time>2026-06-13T01:28:38.000Z</time></trkpt>
        <trkpt lat="29.5281856" lon="103.331045"><ele>2880.61</ele><time>2026-06-13T01:28:42.000Z</time></trkpt>
        <trkpt lat="29.5281736" lon="103.3310959"><ele>2883.36</ele><time>2026-06-13T01:28:54.000Z</time></trkpt>
        <trkpt lat="29.5281586" lon="103.3311471"><ele>2886.78</ele><time>2026-06-13T01:29:02.000Z</time></trkpt>
        <trkpt lat="29.528136" lon="103.3312022"><ele>2889.41</ele><time>2026-06-13T01:29:10.000Z</time></trkpt>
        <trkpt lat="29.5281144" lon="103.3312514"><ele>2890.95</ele><time>2026-06-13T01:29:18.000Z</time></trkpt>
        <trkpt lat="29.5280786" lon="103.3312832"><ele>2892.14</ele><time>2026-06-13T01:29:28.000Z</time></trkpt>
        <trkpt lat="29.528029" lon="103.3313151"><ele>2893.54</ele><time>2026-06-13T01:29:50.000Z</time></trkpt>
        <trkpt lat="29.527974" lon="103.3313468"><ele>2893.87</ele><time>2026-06-13T01:29:56.000Z</time></trkpt>
        <trkpt lat="29.5279333" lon="103.3313829"><ele>2893.32</ele><time>2026-06-13T01:30:02.000Z</time></trkpt>
        <trkpt lat="29.5278962" lon="103.3314246"><ele>2892.71</ele><time>2026-06-13T01:30:08.000Z</time></trkpt>
        <trkpt lat="29.5278752" lon="103.3314757"><ele>2892.06</ele><time>2026-06-13T01:30:16.000Z</time></trkpt>
        <trkpt lat="29.5278623" lon="103.3315313"><ele>2891.65</ele><time>2026-06-13T01:30:26.000Z</time></trkpt>
        <trkpt lat="29.5278361" lon="103.3315915"><ele>2891.76</ele><time>2026-06-13T01:30:36.000Z</time></trkpt>
        <trkpt lat="29.5278017" lon="103.331634"><ele>2892.55</ele><time>2026-06-13T01:30:44.000Z</time></trkpt>
        <trkpt lat="29.527807" lon="103.331702"><ele>2893.22</ele><time>2026-06-13T01:30:50.000Z</time></trkpt>
        <trkpt lat="29.527811" lon="103.331765"><ele>2893.55</ele><time>2026-06-13T01:30:56.000Z</time></trkpt>
        <trkpt lat="29.5277827" lon="103.3317662"><ele>2893.66</ele><time>2026-06-13T01:31:16.000Z</time></trkpt>
        <trkpt lat="29.5277827" lon="103.3317662"><ele>2893.66</ele><time>2026-06-13T01:31:35.000Z</time></trkpt>
        <trkpt lat="29.5277983" lon="103.3318883"><ele>2893.98</ele><time>2026-06-13T01:33:07.000Z</time></trkpt>
        <trkpt lat="29.5277983" lon="103.3318883"><ele>2893.98</ele><time>2026-06-13T01:33:10.000Z</time></trkpt>
        <trkpt lat="29.5277935" lon="103.3319485"><ele>2895.06</ele><time>2026-06-13T01:33:14.000Z</time></trkpt>
        <trkpt lat="29.5277914" lon="103.3320036"><ele>2896.11</ele><time>2026-06-13T01:33:22.000Z</time></trkpt>
        <trkpt lat="29.5277752" lon="103.3320508"><ele>2897.35</ele><time>2026-06-13T01:33:28.000Z</time></trkpt>
        <trkpt lat="29.5277436" lon="103.3320931"><ele>2898.88</ele><time>2026-06-13T01:33:34.000Z</time></trkpt>
        <trkpt lat="29.5276958" lon="103.3321082"><ele>2900.22</ele><time>2026-06-13T01:33:56.000Z</time></trkpt>
        <trkpt lat="29.5276581" lon="103.3321417"><ele>2901.98</ele><time>2026-06-13T01:34:04.000Z</time></trkpt>
        <trkpt lat="29.527637" lon="103.3321888"><ele>2903.1</ele><time>2026-06-13T01:34:14.000Z</time></trkpt>
        <trkpt lat="29.5276534" lon="103.3322334"><ele>2904.39</ele><time>2026-06-13T01:34:22.000Z</time></trkpt>
        <trkpt lat="29.527684" lon="103.3322952"><ele>2905.6</ele><time>2026-06-13T01:34:30.000Z</time></trkpt>
        <trkpt lat="29.5277161" lon="103.3323479"><ele>2906.29</ele><time>2026-06-13T01:34:42.000Z</time></trkpt>
        <trkpt lat="29.5276791" lon="103.3323787"><ele>2908.83</ele><time>2026-06-13T01:34:52.000Z</time></trkpt>
        <trkpt lat="29.5276318" lon="103.3324064"><ele>2911.79</ele><time>2026-06-13T01:34:56.000Z</time></trkpt>
        <trkpt lat="29.5276066" lon="103.3324492"><ele>2913.94</ele><time>2026-06-13T01:35:00.000Z</time></trkpt>
        <trkpt lat="29.5275728" lon="103.3324883"><ele>2915.6</ele><time>2026-06-13T01:35:06.000Z</time></trkpt>
        <trkpt lat="29.5275484" lon="103.3325331"><ele>2916.76</ele><time>2026-06-13T01:35:12.000Z</time></trkpt>
        <trkpt lat="29.5275103" lon="103.3325612"><ele>2917.9</ele><time>2026-06-13T01:35:26.000Z</time></trkpt>
        <trkpt lat="29.5274645" lon="103.3325453"><ele>2918.76</ele><time>2026-06-13T01:35:34.000Z</time></trkpt>
        <trkpt lat="29.5274152" lon="103.3325216"><ele>2919.12</ele><time>2026-06-13T01:35:38.000Z</time></trkpt>
        <trkpt lat="29.5273691" lon="103.3324978"><ele>2919.54</ele><time>2026-06-13T01:35:45.000Z</time></trkpt>
        <trkpt lat="29.5273386" lon="103.3324559"><ele>2919.82</ele><time>2026-06-13T01:36:04.000Z</time></trkpt>
        <trkpt lat="29.5273064" lon="103.3324109"><ele>2917.23</ele><time>2026-06-13T01:36:06.000Z</time></trkpt>
        <trkpt lat="29.527259" lon="103.3323714"><ele>2915.15</ele><time>2026-06-13T01:36:09.000Z</time></trkpt>
        <trkpt lat="29.5272433" lon="103.3323047"><ele>2913.02</ele><time>2026-06-13T01:36:18.000Z</time></trkpt>
        <trkpt lat="29.5272048" lon="103.3322834"><ele>2910.91</ele><time>2026-06-13T01:36:26.000Z</time></trkpt>
        <trkpt lat="29.527164" lon="103.3323117"><ele>2910.77</ele><time>2026-06-13T01:36:32.000Z</time></trkpt>
        <trkpt lat="29.5271355" lon="103.3323639"><ele>2911.34</ele><time>2026-06-13T01:36:42.000Z</time></trkpt>
        <trkpt lat="29.5271207" lon="103.3324238"><ele>2911.67</ele><time>2026-06-13T01:36:52.000Z</time></trkpt>
        <trkpt lat="29.5271354" lon="103.3324833"><ele>2911.9</ele><time>2026-06-13T01:37:00.000Z</time></trkpt>
        <trkpt lat="29.5271586" lon="103.3325481"><ele>2912.5</ele><time>2026-06-13T01:37:06.000Z</time></trkpt>
        <trkpt lat="29.5271791" lon="103.3326111"><ele>2913.36</ele><time>2026-06-13T01:37:10.000Z</time></trkpt>
        <trkpt lat="29.5272007" lon="103.3326726"><ele>2914.41</ele><time>2026-06-13T01:37:14.000Z</time></trkpt>
        <trkpt lat="29.527207" lon="103.332732"><ele>2915.74</ele><time>2026-06-13T01:37:20.000Z</time></trkpt>
        <trkpt lat="29.5272073" lon="103.3327867"><ele>2917.4</ele><time>2026-06-13T01:37:24.000Z</time></trkpt>
        <trkpt lat="29.5271959" lon="103.3328473"><ele>2918.73</ele><time>2026-06-13T01:37:32.000Z</time></trkpt>
        <trkpt lat="29.5271685" lon="103.3328978"><ele>2920.14</ele><time>2026-06-13T01:37:38.000Z</time></trkpt>
        <trkpt lat="29.5271336" lon="103.332962"><ele>2922.06</ele><time>2026-06-13T01:37:46.000Z</time></trkpt>
        <trkpt lat="29.5271413" lon="103.3330266"><ele>2924.1</ele><time>2026-06-13T01:37:52.000Z</time></trkpt>
        <trkpt lat="29.5271844" lon="103.3330758"><ele>2926.12</ele><time>2026-06-13T01:37:58.000Z</time></trkpt>
        <trkpt lat="29.52721" lon="103.3331455"><ele>2927.83</ele><time>2026-06-13T01:38:06.000Z</time></trkpt>
        <trkpt lat="29.5272263" lon="103.3332082"><ele>2929.67</ele><time>2026-06-13T01:38:12.000Z</time></trkpt>
        <trkpt lat="29.5272399" lon="103.3332739"><ele>2931.7</ele><time>2026-06-13T01:38:18.000Z</time></trkpt>
        <trkpt lat="29.5272214" lon="103.3333307"><ele>2933.64</ele><time>2026-06-13T01:38:24.000Z</time></trkpt>
        <trkpt lat="29.5271803" lon="103.3333966"><ele>2935.69</ele><time>2026-06-13T01:38:30.000Z</time></trkpt>
        <trkpt lat="29.5271352" lon="103.3334524"><ele>2937.63</ele><time>2026-06-13T01:38:36.000Z</time></trkpt>
        <trkpt lat="29.5270809" lon="103.3334617"><ele>2939.81</ele><time>2026-06-13T01:38:44.000Z</time></trkpt>
        <trkpt lat="29.5270309" lon="103.3334356"><ele>2941.05</ele><time>2026-06-13T01:38:49.000Z</time></trkpt>
        <trkpt lat="29.5270051" lon="103.3334619"><ele>2940.69</ele><time>2026-06-13T01:39:10.000Z</time></trkpt>
        <trkpt lat="29.5269822" lon="103.3335045"><ele>2938.07</ele><time>2026-06-13T01:39:18.000Z</time></trkpt>
        <trkpt lat="29.526943" lon="103.3335333"><ele>2936.06</ele><time>2026-06-13T01:39:26.000Z</time></trkpt>
        <trkpt lat="29.5268971" lon="103.3335267"><ele>2935.6</ele><time>2026-06-13T01:39:36.000Z</time></trkpt>
        <trkpt lat="29.5268631" lon="103.3335535"><ele>2936.33</ele><time>2026-06-13T01:39:46.000Z</time></trkpt>
        <trkpt lat="29.5268215" lon="103.3335806"><ele>2937.57</ele><time>2026-06-13T01:39:56.000Z</time></trkpt>
        <trkpt lat="29.5267906" lon="103.3335558"><ele>2939.3</ele><time>2026-06-13T01:40:06.000Z</time></trkpt>
        <trkpt lat="29.5267476" lon="103.3335541"><ele>2941.24</ele><time>2026-06-13T01:40:16.000Z</time></trkpt>
        <trkpt lat="29.5267084" lon="103.3335797"><ele>2943.29</ele><time>2026-06-13T01:40:26.000Z</time></trkpt>
        <trkpt lat="29.5266686" lon="103.3336141"><ele>2945.31</ele><time>2026-06-13T01:40:36.000Z</time></trkpt>
        <trkpt lat="29.5266173" lon="103.3336454"><ele>2947.85</ele><time>2026-06-13T01:40:46.000Z</time></trkpt>
        <trkpt lat="29.5265605" lon="103.3336517"><ele>2949.68</ele><time>2026-06-13T01:40:54.000Z</time></trkpt>
        <trkpt lat="29.5265025" lon="103.3336672"><ele>2951.11</ele><time>2026-06-13T01:41:02.000Z</time></trkpt>
        <trkpt lat="29.5264621" lon="103.3336984"><ele>2952.44</ele><time>2026-06-13T01:41:06.000Z</time></trkpt>
        <trkpt lat="29.5264074" lon="103.3337279"><ele>2953.5</ele><time>2026-06-13T01:41:12.000Z</time></trkpt>
        <trkpt lat="29.5263629" lon="103.3337548"><ele>2954.23</ele><time>2026-06-13T01:41:16.000Z</time></trkpt>
        <trkpt lat="29.5263212" lon="103.3337866"><ele>2954.17</ele><time>2026-06-13T01:41:22.000Z</time></trkpt>
        <trkpt lat="29.5262853" lon="103.3338202"><ele>2953.67</ele><time>2026-06-13T01:41:28.000Z</time></trkpt>
        <trkpt lat="29.5262512" lon="103.3338566"><ele>2953.38</ele><time>2026-06-13T01:41:34.000Z</time></trkpt>
        <trkpt lat="29.5262209" lon="103.3338963"><ele>2953.73</ele><time>2026-06-13T01:41:40.000Z</time></trkpt>
        <trkpt lat="29.5261892" lon="103.3339345"><ele>2954.84</ele><time>2026-06-13T01:41:54.000Z</time></trkpt>
        <trkpt lat="29.5261378" lon="103.3339554"><ele>2956.71</ele><time>2026-06-13T01:42:08.000Z</time></trkpt>
        <trkpt lat="29.5260827" lon="103.3339612"><ele>2958.56</ele><time>2026-06-13T01:42:12.000Z</time></trkpt>
        <trkpt lat="29.5260437" lon="103.3339999"><ele>2959.78</ele><time>2026-06-13T01:42:20.000Z</time></trkpt>
        <trkpt lat="29.5259975" lon="103.334022"><ele>2961.12</ele><time>2026-06-13T01:42:26.000Z</time></trkpt>
        <trkpt lat="29.5259494" lon="103.3340343"><ele>2962.7</ele><time>2026-06-13T01:42:42.000Z</time></trkpt>
        <trkpt lat="29.525897" lon="103.3340433"><ele>2964.85</ele><time>2026-06-13T01:42:48.000Z</time></trkpt>
        <trkpt lat="29.5258494" lon="103.3340632"><ele>2966.34</ele><time>2026-06-13T01:42:54.000Z</time></trkpt>
        <trkpt lat="29.5258028" lon="103.3340725"><ele>2967.57</ele><time>2026-06-13T01:43:22.000Z</time></trkpt>
        <trkpt lat="29.5257964" lon="103.3341178"><ele>2969.09</ele><time>2026-06-13T01:43:40.000Z</time></trkpt>
        <trkpt lat="29.525762" lon="103.3341628"><ele>2970.86</ele><time>2026-06-13T01:43:56.000Z</time></trkpt>
        <trkpt lat="29.5257152" lon="103.334191"><ele>2971.43</ele><time>2026-06-13T01:44:02.000Z</time></trkpt>
        <trkpt lat="29.5256729" lon="103.3342396"><ele>2971.12</ele><time>2026-06-13T01:44:16.000Z</time></trkpt>
        <trkpt lat="29.5256369" lon="103.3342949"><ele>2969.35</ele><time>2026-06-13T01:44:20.000Z</time></trkpt>
        <trkpt lat="29.5256147" lon="103.3343543"><ele>2968.38</ele><time>2026-06-13T01:44:24.000Z</time></trkpt>
        <trkpt lat="29.5255835" lon="103.334403"><ele>2968.04</ele><time>2026-06-13T01:44:32.000Z</time></trkpt>
        <trkpt lat="29.5255606" lon="103.3344548"><ele>2968.84</ele><time>2026-06-13T01:44:40.000Z</time></trkpt>
        <trkpt lat="29.5255259" lon="103.3344902"><ele>2970.37</ele><time>2026-06-13T01:44:46.000Z</time></trkpt>
        <trkpt lat="29.5254938" lon="103.3345298"><ele>2972.19</ele><time>2026-06-13T01:44:54.000Z</time></trkpt>
        <trkpt lat="29.5254506" lon="103.3345516"><ele>2973.83</ele><time>2026-06-13T01:45:03.000Z</time></trkpt>
        <trkpt lat="29.5254059" lon="103.334581"><ele>2975.37</ele><time>2026-06-13T01:45:16.000Z</time></trkpt>
        <trkpt lat="29.5253688" lon="103.334623"><ele>2975.72</ele><time>2026-06-13T01:45:28.000Z</time></trkpt>
        <trkpt lat="29.5253362" lon="103.3346648"><ele>2975.33</ele><time>2026-06-13T01:45:36.000Z</time></trkpt>
        <trkpt lat="29.5253239" lon="103.3347172"><ele>2975.7</ele><time>2026-06-13T01:45:42.000Z</time></trkpt>
        <trkpt lat="29.5252972" lon="103.3347643"><ele>2976.22</ele><time>2026-06-13T01:45:48.000Z</time></trkpt>
        <trkpt lat="29.5252591" lon="103.3348001"><ele>2976.81</ele><time>2026-06-13T01:46:00.000Z</time></trkpt>
        <trkpt lat="29.5252181" lon="103.3348266"><ele>2977.84</ele><time>2026-06-13T01:46:08.000Z</time></trkpt>
        <trkpt lat="29.525178" lon="103.3348565"><ele>2978.9</ele><time>2026-06-13T01:46:22.000Z</time></trkpt>
        <trkpt lat="29.5251313" lon="103.3348621"><ele>2979.54</ele><time>2026-06-13T01:46:32.000Z</time></trkpt>
        <trkpt lat="29.525081" lon="103.3348742"><ele>2980.94</ele><time>2026-06-13T01:46:46.000Z</time></trkpt>
        <trkpt lat="29.5250388" lon="103.3348475"><ele>2982.73</ele><time>2026-06-13T01:46:50.000Z</time></trkpt>
        <trkpt lat="29.5249824" lon="103.3348284"><ele>2984.27</ele><time>2026-06-13T01:46:56.000Z</time></trkpt>
        <trkpt lat="29.5249294" lon="103.3348118"><ele>2986.56</ele><time>2026-06-13T01:47:00.000Z</time></trkpt>
        <trkpt lat="29.5248945" lon="103.3347757"><ele>2988.3</ele><time>2026-06-13T01:47:04.000Z</time></trkpt>
        <trkpt lat="29.5248502" lon="103.3347654"><ele>2989.5</ele><time>2026-06-13T01:47:16.000Z</time></trkpt>
        <trkpt lat="29.5248016" lon="103.3347795"><ele>2990.15</ele><time>2026-06-13T01:47:22.000Z</time></trkpt>
        <trkpt lat="29.5247551" lon="103.3347992"><ele>2991.2</ele><time>2026-06-13T01:47:34.000Z</time></trkpt>
        <trkpt lat="29.5246984" lon="103.3348305"><ele>2992.02</ele><time>2026-06-13T01:47:44.000Z</time></trkpt>
        <trkpt lat="29.5246368" lon="103.3348536"><ele>2992.78</ele><time>2026-06-13T01:47:52.000Z</time></trkpt>
        <trkpt lat="29.5245802" lon="103.3348774"><ele>2993.44</ele><time>2026-06-13T01:48:00.000Z</time></trkpt>
        <trkpt lat="29.524526" lon="103.3348761"><ele>2993.59</ele><time>2026-06-13T01:48:08.000Z</time></trkpt>
        <trkpt lat="29.5244639" lon="103.3348931"><ele>2993.68</ele><time>2026-06-13T01:48:16.000Z</time></trkpt>
        <trkpt lat="29.5244114" lon="103.3349205"><ele>2992.53</ele><time>2026-06-13T01:48:20.000Z</time></trkpt>
        <trkpt lat="29.5243639" lon="103.3349414"><ele>2991.61</ele><time>2026-06-13T01:48:24.000Z</time></trkpt>
        <trkpt lat="29.5243168" lon="103.3349517"><ele>2991.65</ele><time>2026-06-13T01:48:28.000Z</time></trkpt>
        <trkpt lat="29.5242618" lon="103.3349594"><ele>2991.97</ele><time>2026-06-13T01:48:34.000Z</time></trkpt>
        <trkpt lat="29.5242137" lon="103.3349653"><ele>2992.67</ele><time>2026-06-13T01:48:38.000Z</time></trkpt>
        <trkpt lat="29.5241621" lon="103.3349636"><ele>2993.11</ele><time>2026-06-13T01:48:42.000Z</time></trkpt>
        <trkpt lat="29.5241128" lon="103.3349581"><ele>2994.05</ele><time>2026-06-13T01:48:46.000Z</time></trkpt>
        <trkpt lat="29.5240494" lon="103.3349256"><ele>2995.28</ele><time>2026-06-13T01:48:52.000Z</time></trkpt>
        <trkpt lat="29.5239908" lon="103.3349363"><ele>2996.32</ele><time>2026-06-13T01:49:02.000Z</time></trkpt>
        <trkpt lat="29.5239296" lon="103.3349383"><ele>2997.21</ele><time>2026-06-13T01:49:34.000Z</time></trkpt>
        <trkpt lat="29.5239553" lon="103.3349532"><ele>2998.41</ele><time>2026-06-13T01:50:02.000Z</time></trkpt>
        <trkpt lat="29.5239628" lon="103.3349662"><ele>2997.63</ele><time>2026-06-13T01:50:12.000Z</time></trkpt>
        <trkpt lat="29.5239365" lon="103.3349514"><ele>2996.33</ele><time>2026-06-13T01:50:20.000Z</time></trkpt>
        <trkpt lat="29.5238926" lon="103.3349386"><ele>2995.67</ele><time>2026-06-13T01:50:24.000Z</time></trkpt>
        <trkpt lat="29.5238408" lon="103.3349367"><ele>2995.51</ele><time>2026-06-13T01:50:30.000Z</time></trkpt>
        <trkpt lat="29.523779" lon="103.3349105"><ele>2995.16</ele><time>2026-06-13T01:50:36.000Z</time></trkpt>
        <trkpt lat="29.5237197" lon="103.3349102"><ele>2994.36</ele><time>2026-06-13T01:50:42.000Z</time></trkpt>
        <trkpt lat="29.5236613" lon="103.3349143"><ele>2993.26</ele><time>2026-06-13T01:50:50.000Z</time></trkpt>
        <trkpt lat="29.5236125" lon="103.3349005"><ele>2992.98</ele><time>2026-06-13T01:51:02.000Z</time></trkpt>
        <trkpt lat="29.5235612" lon="103.3348944"><ele>2994.45</ele><time>2026-06-13T01:51:14.000Z</time></trkpt>
        <trkpt lat="29.5235085" lon="103.3348844"><ele>2995.63</ele><time>2026-06-13T01:51:18.000Z</time></trkpt>
        <trkpt lat="29.523454" lon="103.334864"><ele>2996.44</ele><time>2026-06-13T01:51:24.000Z</time></trkpt>
        <trkpt lat="29.5234077" lon="103.3348425"><ele>2996.98</ele><time>2026-06-13T01:51:28.000Z</time></trkpt>
        <trkpt lat="29.5233506" lon="103.334825"><ele>2997.5</ele><time>2026-06-13T01:51:36.000Z</time></trkpt>
        <trkpt lat="29.5233068" lon="103.3347956"><ele>2998.32</ele><time>2026-06-13T01:51:40.000Z</time></trkpt>
        <trkpt lat="29.5232645" lon="103.3347756"><ele>2999.09</ele><time>2026-06-13T01:51:48.000Z</time></trkpt>
        <trkpt lat="29.5232172" lon="103.3347585"><ele>2999.35</ele><time>2026-06-13T01:52:00.000Z</time></trkpt>
        <trkpt lat="29.5232172" lon="103.3347585"><ele>2999.35</ele><time>2026-06-13T01:52:47.000Z</time></trkpt>
        <trkpt lat="29.52317" lon="103.3347467"><ele>2999.54</ele><time>2026-06-13T01:53:09.000Z</time></trkpt>
        <trkpt lat="29.52317" lon="103.3347467"><ele>2999.54</ele><time>2026-06-13T01:53:48.000Z</time></trkpt>
        <trkpt lat="29.523125" lon="103.3347433"><ele>2999.87</ele><time>2026-06-13T01:53:54.000Z</time></trkpt>
        <trkpt lat="29.5230645" lon="103.3347541"><ele>3000.05</ele><time>2026-06-13T01:54:00.000Z</time></trkpt>
        <trkpt lat="29.523018" lon="103.3347725"><ele>3000.25</ele><time>2026-06-13T01:54:04.000Z</time></trkpt>
        <trkpt lat="29.5229707" lon="103.3348009"><ele>3000.96</ele><time>2026-06-13T01:54:10.000Z</time></trkpt>
        <trkpt lat="29.5229192" lon="103.33481"><ele>3002.52</ele><time>2026-06-13T01:54:16.000Z</time></trkpt>
        <trkpt lat="29.5228673" lon="103.3348248"><ele>3004.54</ele><time>2026-06-13T01:54:22.000Z</time></trkpt>
        <trkpt lat="29.5228228" lon="103.3348549"><ele>3006.5</ele><time>2026-06-13T01:54:26.000Z</time></trkpt>
        <trkpt lat="29.5227963" lon="103.3349155"><ele>3008.01</ele><time>2026-06-13T01:54:38.000Z</time></trkpt>
        <trkpt lat="29.5228084" lon="103.3349789"><ele>3009.72</ele><time>2026-06-13T01:54:42.000Z</time></trkpt>
        <trkpt lat="29.5228273" lon="103.3350438"><ele>3010.83</ele><time>2026-06-13T01:54:50.000Z</time></trkpt>
        <trkpt lat="29.5228372" lon="103.3351053"><ele>3011.72</ele><time>2026-06-13T01:55:02.000Z</time></trkpt>
        <trkpt lat="29.5228431" lon="103.3351724"><ele>3012.01</ele><time>2026-06-13T01:55:10.000Z</time></trkpt>
        <trkpt lat="29.5228484" lon="103.3352301"><ele>3012.31</ele><time>2026-06-13T01:55:18.000Z</time></trkpt>
        <trkpt lat="29.522861" lon="103.3352902"><ele>3012.56</ele><time>2026-06-13T01:55:26.000Z</time></trkpt>
        <trkpt lat="29.5228662" lon="103.3353464"><ele>3013.05</ele><time>2026-06-13T01:55:32.000Z</time></trkpt>
        <trkpt lat="29.5228646" lon="103.3354074"><ele>3013.8</ele><time>2026-06-13T01:55:40.000Z</time></trkpt>
        <trkpt lat="29.5228706" lon="103.3354705"><ele>3015.31</ele><time>2026-06-13T01:55:48.000Z</time></trkpt>
        <trkpt lat="29.5228706" lon="103.3354705"><ele>3015.31</ele><time>2026-06-13T01:56:29.000Z</time></trkpt>
        <trkpt lat="29.52289" lon="103.33552"><ele>3017.15</ele><time>2026-06-13T01:56:45.000Z</time></trkpt>
        <trkpt lat="29.52289" lon="103.33552"><ele>3017.15</ele><time>2026-06-13T01:57:04.000Z</time></trkpt>
        <trkpt lat="29.5228983" lon="103.3355783"><ele>3018.29</ele><time>2026-06-13T01:57:10.000Z</time></trkpt>
        <trkpt lat="29.5228883" lon="103.3356423"><ele>3018.94</ele><time>2026-06-13T01:57:20.000Z</time></trkpt>
        <trkpt lat="29.5228944" lon="103.3357047"><ele>3019.4</ele><time>2026-06-13T01:57:28.000Z</time></trkpt>
        <trkpt lat="29.5228944" lon="103.3357047"><ele>3019.4</ele><time>2026-06-13T01:58:07.000Z</time></trkpt>
        <trkpt lat="29.5229133" lon="103.3357667"><ele>3020.34</ele><time>2026-06-13T01:58:33.000Z</time></trkpt>
        <trkpt lat="29.5229133" lon="103.3357667"><ele>3020.34</ele><time>2026-06-13T01:58:34.000Z</time></trkpt>
        <trkpt lat="29.5229133" lon="103.3357667"><ele>3020.34</ele><time>2026-06-13T01:59:39.000Z</time></trkpt>
        <trkpt lat="29.522935" lon="103.3358217"><ele>3021.83</ele><time>2026-06-13T01:59:41.000Z</time></trkpt>
        <trkpt lat="29.522935" lon="103.3358217"><ele>3021.83</ele><time>2026-06-13T01:59:44.000Z</time></trkpt>
        <trkpt lat="29.5229767" lon="103.3358533"><ele>3023.75</ele><time>2026-06-13T01:59:52.000Z</time></trkpt>
        <trkpt lat="29.5230353" lon="103.3358469"><ele>3025.84</ele><time>2026-06-13T01:59:58.000Z</time></trkpt>
        <trkpt lat="29.5230943" lon="103.3358479"><ele>3028.19</ele><time>2026-06-13T02:00:06.000Z</time></trkpt>
        <trkpt lat="29.523146" lon="103.3358811"><ele>3031.55</ele><time>2026-06-13T02:00:12.000Z</time></trkpt>
        <trkpt lat="29.5231711" lon="103.3359513"><ele>3034.02</ele><time>2026-06-13T02:00:44.000Z</time></trkpt>
        <trkpt lat="29.5231928" lon="103.3360185"><ele>3033.24</ele><time>2026-06-13T02:00:49.000Z</time></trkpt>
        <trkpt lat="29.5231998" lon="103.3360344"><ele>3032.15</ele><time>2026-06-13T02:00:58.000Z</time></trkpt>
        <trkpt lat="29.5232137" lon="103.3360777"><ele>3031.95</ele><time>2026-06-13T02:01:02.000Z</time></trkpt>
        <trkpt lat="29.5232202" lon="103.3361343"><ele>3031.8</ele><time>2026-06-13T02:01:06.000Z</time></trkpt>
        <trkpt lat="29.5232168" lon="103.3361955"><ele>3031.63</ele><time>2026-06-13T02:01:10.000Z</time></trkpt>
        <trkpt lat="29.5232104" lon="103.3362574"><ele>3031.4</ele><time>2026-06-13T02:01:14.000Z</time></trkpt>
        <trkpt lat="29.523215" lon="103.3363125"><ele>3031.06</ele><time>2026-06-13T02:01:18.000Z</time></trkpt>
        <trkpt lat="29.5232368" lon="103.3363572"><ele>3030.77</ele><time>2026-06-13T02:01:22.000Z</time></trkpt>
        <trkpt lat="29.523227" lon="103.3364058"><ele>3030.87</ele><time>2026-06-13T02:01:28.000Z</time></trkpt>
        <trkpt lat="29.523192" lon="103.3364489"><ele>3030.93</ele><time>2026-06-13T02:01:32.000Z</time></trkpt>
        <trkpt lat="29.523134" lon="103.3364826"><ele>3030.74</ele><time>2026-06-13T02:01:38.000Z</time></trkpt>
        <trkpt lat="29.5230671" lon="103.3365058"><ele>3030.94</ele><time>2026-06-13T02:01:44.000Z</time></trkpt>
        <trkpt lat="29.5230129" lon="103.3365095"><ele>3031.31</ele><time>2026-06-13T02:01:48.000Z</time></trkpt>
        <trkpt lat="29.5229514" lon="103.3365008"><ele>3031.61</ele><time>2026-06-13T02:01:54.000Z</time></trkpt>
        <trkpt lat="29.522895" lon="103.3364979"><ele>3032.34</ele><time>2026-06-13T02:01:58.000Z</time></trkpt>
        <trkpt lat="29.5228396" lon="103.3364999"><ele>3033.44</ele><time>2026-06-13T02:02:02.000Z</time></trkpt>
        <trkpt lat="29.5227809" lon="103.3365017"><ele>3034.63</ele><time>2026-06-13T02:02:08.000Z</time></trkpt>
        <trkpt lat="29.5227397" lon="103.3364746"><ele>3035.56</ele><time>2026-06-13T02:02:12.000Z</time></trkpt>
        <trkpt lat="29.5227163" lon="103.3364281"><ele>3036.05</ele><time>2026-06-13T02:02:16.000Z</time></trkpt>
        <trkpt lat="29.5227173" lon="103.3363575"><ele>3035.99</ele><time>2026-06-13T02:02:22.000Z</time></trkpt>
        <trkpt lat="29.5227195" lon="103.3362948"><ele>3035.95</ele><time>2026-06-13T02:02:26.000Z</time></trkpt>
        <trkpt lat="29.5227251" lon="103.336235"><ele>3035.97</ele><time>2026-06-13T02:02:30.000Z</time></trkpt>
        <trkpt lat="29.5227282" lon="103.3361732"><ele>3035.94</ele><time>2026-06-13T02:02:34.000Z</time></trkpt>
        <trkpt lat="29.5227321" lon="103.3361185"><ele>3035.32</ele><time>2026-06-13T02:02:38.000Z</time></trkpt>
        <trkpt lat="29.5227335" lon="103.3360591"><ele>3034.75</ele><time>2026-06-13T02:02:42.000Z</time></trkpt>
        <trkpt lat="29.5227363" lon="103.3360027"><ele>3033.74</ele><time>2026-06-13T02:02:46.000Z</time></trkpt>
        <trkpt lat="29.5227434" lon="103.3359501"><ele>3033.08</ele><time>2026-06-13T02:02:50.000Z</time></trkpt>
        <trkpt lat="29.522747" lon="103.3358937"><ele>3032.92</ele><time>2026-06-13T02:02:54.000Z</time></trkpt>
        <trkpt lat="29.522764" lon="103.3358733"><ele>3033.08</ele><time>2026-06-13T02:03:06.000Z</time></trkpt>
        <trkpt lat="29.522764" lon="103.3358733"><ele>3033.08</ele><time>2026-06-13T02:03:10.000Z</time></trkpt>
      </trkseg>
  </trk>
</gpx>